<?xml version='1.0' encoding='UTF-8'?><gpx version="1.1" creator="JPX - https://github.com/jenetics/jpx" xmlns="http://www.topografix.com/GPX/1/1"><trk><trkseg><trkpt lat="45.40899621582634" lon="10.539736794878555"><ele>133.0</ele><time>2026-03-22T09:43:36Z</time></trkpt><trkpt lat="45.408923586857654" lon="10.539742187564862"><ele>133.0</ele><time>2026-03-22T09:43:41Z</time></trkpt><trkpt lat="45.40888352590955" lon="10.539671076487481"><ele>133.0</ele><time>2026-03-22T09:43:46Z</time></trkpt><trkpt lat="45.408854343784746" lon="10.539585817791583"><ele>133.0</ele><time>2026-03-22T09:43:54Z</time></trkpt><trkpt lat="45.4087919810668" lon="10.539618930060742"><ele>133.0</ele><time>2026-03-22T09:43:59Z</time></trkpt><trkpt lat="45.40872347145393" lon="10.539654320509845"><ele>133.0</ele><time>2026-03-22T09:44:10Z</time></trkpt><trkpt lat="45.40869929605936" lon="10.539563951095582"><ele>133.0</ele><time>2026-03-22T09:44:15Z</time></trkpt><trkpt lat="45.40876001217285" lon="10.539520349885176"><ele>133.0</ele><time>2026-03-22T09:44:24Z</time></trkpt><trkpt lat="45.40882414194538" lon="10.539483983141059"><ele>133.0</ele><time>2026-03-22T09:44:28Z</time></trkpt><trkpt lat="45.4088789128357" lon="10.539429177392638"><ele>133.0</ele><time>2026-03-22T09:44:34Z</time></trkpt><trkpt lat="45.40877758581606" lon="10.53933576593508"><ele>133.0</ele><time>2026-03-22T09:47:49Z</time></trkpt><trkpt lat="45.40881891167114" lon="10.539432842346665"><ele>133.0</ele><time>2026-03-22T09:47:53Z</time></trkpt><trkpt lat="45.40885155410192" lon="10.53950955376254"><ele>133.0</ele><time>2026-03-22T09:48:09Z</time></trkpt><trkpt lat="45.4088447947222" lon="10.539599390637134"><ele>131.20000000000002</ele><time>2026-03-22T09:48:14Z</time></trkpt><trkpt lat="45.408814698053156" lon="10.539393255128822"><ele>129.4</ele><time>2026-03-22T09:48:53Z</time></trkpt><trkpt lat="45.40878086025895" lon="10.53931710834412"><ele>127.60000000000001</ele><time>2026-03-22T09:50:12Z</time></trkpt><trkpt lat="45.40875845010261" lon="10.53944516714429"><ele>125.80000000000001</ele><time>2026-03-22T09:51:13Z</time></trkpt><trkpt lat="45.408742039089226" lon="10.539537400072886"><ele>124.0</ele><time>2026-03-22T09:51:14Z</time></trkpt><trkpt lat="45.408721422337386" lon="10.539653270029092"><ele>124.0</ele><time>2026-03-22T09:51:15Z</time></trkpt><trkpt lat="45.40870474788254" lon="10.53974698354745"><ele>124.0</ele><time>2026-03-22T09:51:16Z</time></trkpt><trkpt lat="45.40878084958129" lon="10.539318211386485"><ele>124.0</ele><time>2026-03-22T09:51:56Z</time></trkpt><trkpt lat="45.40871582660791" lon="10.53979916682682"><ele>124.0</ele><time>2026-03-22T09:52:13Z</time></trkpt><trkpt lat="45.40878762718162" lon="10.539709818900748"><ele>124.0</ele><time>2026-03-22T09:53:58Z</time></trkpt><trkpt lat="45.40881979083079" lon="10.539578287036111"><ele>124.0</ele><time>2026-03-22T09:54:00Z</time></trkpt><trkpt lat="45.40881857029965" lon="10.539433054341867"><ele>124.0</ele><time>2026-03-22T09:54:02Z</time></trkpt><trkpt lat="45.40880144681453" lon="10.539264246847042"><ele>124.0</ele><time>2026-03-22T09:54:04Z</time></trkpt><trkpt lat="45.40878284660107" lon="10.53916178941062"><ele>123.4</ele><time>2026-03-22T09:54:05Z</time></trkpt><trkpt lat="45.40875893053245" lon="10.539057492246965"><ele>122.80000000000001</ele><time>2026-03-22T09:54:06Z</time></trkpt><trkpt lat="45.40885799998897" lon="10.539048049330551"><ele>122.19999999999999</ele><time>2026-03-22T09:54:09Z</time></trkpt><trkpt lat="45.408941870382804" lon="10.539037582764307"><ele>121.6</ele><time>2026-03-22T09:54:11Z</time></trkpt><trkpt lat="45.409047347645064" lon="10.539088700864422"><ele>121.0</ele><time>2026-03-22T09:54:14Z</time></trkpt><trkpt lat="45.40911991265341" lon="10.539128911918144"><ele>122.14285714285714</ele><time>2026-03-22T09:54:16Z</time></trkpt><trkpt lat="45.40918839438067" lon="10.539157428790858"><ele>123.28571428571428</ele><time>2026-03-22T09:54:18Z</time></trkpt><trkpt lat="45.40926095888782" lon="10.539172084809383"><ele>124.42857142857142</ele><time>2026-03-22T09:54:20Z</time></trkpt><trkpt lat="45.40933342211948" lon="10.539202030842707"><ele>125.57142857142856</ele><time>2026-03-22T09:54:22Z</time></trkpt><trkpt lat="45.40940754797784" lon="10.53921939649259"><ele>126.71428571428571</ele><time>2026-03-22T09:54:24Z</time></trkpt><trkpt lat="45.40947796764689" lon="10.53922929635074"><ele>127.85714285714283</ele><time>2026-03-22T09:54:26Z</time></trkpt><trkpt lat="45.40955001730576" lon="10.539232829727545"><ele>129.0</ele><time>2026-03-22T09:54:28Z</time></trkpt><trkpt lat="45.409621149109924" lon="10.539242225958063"><ele>129.66666666666666</ele><time>2026-03-22T09:54:30Z</time></trkpt><trkpt lat="45.40969713477769" lon="10.539251910699651"><ele>130.33333333333334</ele><time>2026-03-22T09:54:32Z</time></trkpt><trkpt lat="45.40977220729247" lon="10.539270955908213"><ele>131.0</ele><time>2026-03-22T09:54:34Z</time></trkpt><trkpt lat="45.409846543548795" lon="10.539290242487287"><ele>131.66666666666669</ele><time>2026-03-22T09:54:36Z</time></trkpt><trkpt lat="45.409923538197106" lon="10.539303420767652"><ele>132.33333333333334</ele><time>2026-03-22T09:54:38Z</time></trkpt><trkpt lat="45.409998929713964" lon="10.53932093336742"><ele>133.0</ele><time>2026-03-22T09:54:40Z</time></trkpt><trkpt lat="45.41007412474792" lon="10.539332639252962"><ele>133.0</ele><time>2026-03-22T09:54:42Z</time></trkpt><trkpt lat="45.41015348071635" lon="10.539341027519843"><ele>133.0</ele><time>2026-03-22T09:54:44Z</time></trkpt><trkpt lat="45.410231568934066" lon="10.539353300331703"><ele>133.0</ele><time>2026-03-22T09:54:46Z</time></trkpt><trkpt lat="45.4103100282636" lon="10.53936839299867"><ele>133.0</ele><time>2026-03-22T09:54:48Z</time></trkpt><trkpt lat="45.41038340771348" lon="10.539385916458665"><ele>133.0</ele><time>2026-03-22T09:54:50Z</time></trkpt><trkpt lat="45.41047004553214" lon="10.53941325152882"><ele>133.0</ele><time>2026-03-22T09:54:52Z</time></trkpt><trkpt lat="45.41057249152209" lon="10.539442387267984"><ele>133.25</ele><time>2026-03-22T09:54:54Z</time></trkpt><trkpt lat="45.41067971612089" lon="10.53948516867636"><ele>133.5</ele><time>2026-03-22T09:54:56Z</time></trkpt><trkpt lat="45.41079536257878" lon="10.539526536155105"><ele>133.75</ele><time>2026-03-22T09:54:58Z</time></trkpt><trkpt lat="45.41091071631678" lon="10.539567942934735"><ele>134.0</ele><time>2026-03-22T09:55:00Z</time></trkpt><trkpt lat="45.41102702312001" lon="10.539612382721451"><ele>134.0</ele><time>2026-03-22T09:55:02Z</time></trkpt><trkpt lat="45.41114475452866" lon="10.539660984732288"><ele>134.0</ele><time>2026-03-22T09:55:04Z</time></trkpt><trkpt lat="45.411259368615745" lon="10.539719767345291"><ele>134.0</ele><time>2026-03-22T09:55:06Z</time></trkpt><trkpt lat="45.41136513606414" lon="10.539789748660661"><ele>134.0</ele><time>2026-03-22T09:55:08Z</time></trkpt><trkpt lat="45.41146134292019" lon="10.539920649916692"><ele>133.28571428571428</ele><time>2026-03-22T09:55:10Z</time></trkpt><trkpt lat="45.41149970152543" lon="10.54001007940247"><ele>132.57142857142856</ele><time>2026-03-22T09:55:11Z</time></trkpt><trkpt lat="45.411534250479185" lon="10.540099748908949"><ele>131.85714285714283</ele><time>2026-03-22T09:55:12Z</time></trkpt><trkpt lat="45.411569240977016" lon="10.540183823218465"><ele>131.14285714285714</ele><time>2026-03-22T09:55:13Z</time></trkpt><trkpt lat="45.411601351983975" lon="10.540266002383849"><ele>130.42857142857142</ele><time>2026-03-22T09:55:14Z</time></trkpt><trkpt lat="45.41163726311293" lon="10.540347046235938"><ele>129.7142857142857</ele><time>2026-03-22T09:55:15Z</time></trkpt><trkpt lat="45.41167285300924" lon="10.540422639255436"><ele>129.0</ele><time>2026-03-22T09:55:16Z</time></trkpt><trkpt lat="45.41173893781196" lon="10.540565690845304"><ele>129.0</ele><time>2026-03-22T09:55:18Z</time></trkpt><trkpt lat="45.41181270091959" lon="10.540699021564349"><ele>129.0</ele><time>2026-03-22T09:55:20Z</time></trkpt><trkpt lat="45.411883241188306" lon="10.540822482309832"><ele>129.0</ele><time>2026-03-22T09:55:22Z</time></trkpt><trkpt lat="45.41196106920922" lon="10.540935088410306"><ele>129.0</ele><time>2026-03-22T09:55:24Z</time></trkpt><trkpt lat="45.412039847508396" lon="10.541032370666807"><ele>129.0</ele><time>2026-03-22T09:55:26Z</time></trkpt><trkpt lat="45.41212778607128" lon="10.54111453789252"><ele>129.0</ele><time>2026-03-22T09:55:28Z</time></trkpt><trkpt lat="45.4121927660265" lon="10.541198194941696"><ele>129.0</ele><time>2026-03-22T09:55:30Z</time></trkpt><trkpt lat="45.41216796488871" lon="10.541294866379127"><ele>129.0</ele><time>2026-03-22T09:55:32Z</time></trkpt><trkpt lat="45.41210632289208" lon="10.541397869628256"><ele>129.0</ele><time>2026-03-22T09:55:34Z</time></trkpt><trkpt lat="45.412044763982244" lon="10.54151415496209"><ele>129.0</ele><time>2026-03-22T09:55:36Z</time></trkpt><trkpt lat="45.411971913802645" lon="10.541630698696162"><ele>128.6</ele><time>2026-03-22T09:55:38Z</time></trkpt><trkpt lat="45.411897335699834" lon="10.541753709999012"><ele>128.2</ele><time>2026-03-22T09:55:40Z</time></trkpt><trkpt lat="45.4118223911741" lon="10.541883828905362"><ele>127.79999999999998</ele><time>2026-03-22T09:55:42Z</time></trkpt><trkpt lat="45.411752550359374" lon="10.542023230318925"><ele>127.39999999999999</ele><time>2026-03-22T09:55:44Z</time></trkpt><trkpt lat="45.41171686331857" lon="10.54210283663534"><ele>127.0</ele><time>2026-03-22T09:55:45Z</time></trkpt><trkpt lat="45.41168250836344" lon="10.542178944708668"><ele>126.85714285714286</ele><time>2026-03-22T09:55:46Z</time></trkpt><trkpt lat="45.4116452976003" lon="10.542255387951688"><ele>126.71428571428571</ele><time>2026-03-22T09:55:47Z</time></trkpt><trkpt lat="45.411605651510165" lon="10.54233560028391"><ele>126.57142857142857</ele><time>2026-03-22T09:55:48Z</time></trkpt><trkpt lat="45.411569274398545" lon="10.542416674220815"><ele>126.42857142857143</ele><time>2026-03-22T09:55:49Z</time></trkpt><trkpt lat="45.41153062195614" lon="10.542501245970373"><ele>126.28571428571428</ele><time>2026-03-22T09:55:50Z</time></trkpt><trkpt lat="45.41149054411222" lon="10.54258317644449"><ele>126.14285714285714</ele><time>2026-03-22T09:55:51Z</time></trkpt><trkpt lat="45.41144921305896" lon="10.54266897872618"><ele>126.0</ele><time>2026-03-22T09:55:52Z</time></trkpt><trkpt lat="45.41141179645389" lon="10.542752443646046"><ele>126.0</ele><time>2026-03-22T09:55:53Z</time></trkpt><trkpt lat="45.411371194702426" lon="10.542836534326876"><ele>126.0</ele><time>2026-03-22T09:55:54Z</time></trkpt><trkpt lat="45.411331065923214" lon="10.542921589187376"><ele>126.0</ele><time>2026-03-22T09:55:55Z</time></trkpt><trkpt lat="45.411292735856044" lon="10.543010399050964"><ele>126.0</ele><time>2026-03-22T09:55:56Z</time></trkpt><trkpt lat="45.4112570404362" lon="10.54309890138781"><ele>126.0</ele><time>2026-03-22T09:55:57Z</time></trkpt><trkpt lat="45.41122179129314" lon="10.543187975858586"><ele>126.0</ele><time>2026-03-22T09:55:58Z</time></trkpt><trkpt lat="45.41118864728923" lon="10.543278816062697"><ele>126.0</ele><time>2026-03-22T09:55:59Z</time></trkpt><trkpt lat="45.411166276902584" lon="10.543373518682039"><ele>125.42857142857143</ele><time>2026-03-22T09:56:00Z</time></trkpt><trkpt lat="45.41114794285906" lon="10.543466939545375"><ele>124.85714285714286</ele><time>2026-03-22T09:56:01Z</time></trkpt><trkpt lat="45.411122559594055" lon="10.543558217658227"><ele>124.28571428571428</ele><time>2026-03-22T09:56:02Z</time></trkpt><trkpt lat="45.411100324931994" lon="10.543651727016618"><ele>123.71428571428571</ele><time>2026-03-22T09:56:03Z</time></trkpt><trkpt lat="45.41108009262449" lon="10.543743977821963"><ele>123.14285714285714</ele><time>2026-03-22T09:56:04Z</time></trkpt><trkpt lat="45.411066410353996" lon="10.543841048744683"><ele>122.57142857142856</ele><time>2026-03-22T09:56:05Z</time></trkpt><trkpt lat="45.411084341473035" lon="10.54393766831607"><ele>121.99999999999999</ele><time>2026-03-22T09:56:06Z</time></trkpt><trkpt lat="45.41112982087168" lon="10.54400735596309"><ele>122.0</ele><time>2026-03-22T09:56:07Z</time></trkpt><trkpt lat="45.41123976247157" lon="10.544068191496166"><ele>121.99999999999999</ele><time>2026-03-22T09:56:09Z</time></trkpt><trkpt lat="45.41134495698391" lon="10.544084645955655"><ele>121.99999999999999</ele><time>2026-03-22T09:56:11Z</time></trkpt><trkpt lat="45.41145378770236" lon="10.544102931804849"><ele>122.0</ele><time>2026-03-22T09:56:13Z</time></trkpt><trkpt lat="45.41155957071158" lon="10.544136088665145"><ele>122.0</ele><time>2026-03-22T09:56:15Z</time></trkpt><trkpt lat="45.411665068281366" lon="10.544175932911251"><ele>122.19999999999999</ele><time>2026-03-22T09:56:17Z</time></trkpt><trkpt lat="45.411770620627856" lon="10.544225872717243"><ele>122.39999999999999</ele><time>2026-03-22T09:56:19Z</time></trkpt><trkpt lat="45.41187176792721" lon="10.544272081146852"><ele>122.60000000000001</ele><time>2026-03-22T09:56:21Z</time></trkpt><trkpt lat="45.41196724269068" lon="10.544318749191564"><ele>122.80000000000001</ele><time>2026-03-22T09:56:23Z</time></trkpt><trkpt lat="45.41206209036227" lon="10.544370256753913"><ele>123.0</ele><time>2026-03-22T09:56:25Z</time></trkpt><trkpt lat="45.4121501908261" lon="10.544427730289332"><ele>124.0</ele><time>2026-03-22T09:56:27Z</time></trkpt><trkpt lat="45.41223906415254" lon="10.544464435201427"><ele>125.00000000000001</ele><time>2026-03-22T09:56:29Z</time></trkpt><trkpt lat="45.41233404592696" lon="10.54447621240042"><ele>126.00000000000001</ele><time>2026-03-22T09:56:31Z</time></trkpt><trkpt lat="45.41242308284425" lon="10.54447681192339"><ele>127.0</ele><time>2026-03-22T09:56:33Z</time></trkpt><trkpt lat="45.41251103021153" lon="10.544462772101083"><ele>128.0</ele><time>2026-03-22T09:56:35Z</time></trkpt><trkpt lat="45.41259690222965" lon="10.544433328298979"><ele>128.0</ele><time>2026-03-22T09:56:37Z</time></trkpt><trkpt lat="45.41267823449787" lon="10.54440197455111"><ele>128.0</ele><time>2026-03-22T09:56:39Z</time></trkpt><trkpt lat="45.41277156702831" lon="10.54438268939541"><ele>128.0</ele><time>2026-03-22T09:56:41Z</time></trkpt><trkpt lat="45.41286672645739" lon="10.544361456558708"><ele>128.0</ele><time>2026-03-22T09:56:43Z</time></trkpt><trkpt lat="45.41296234019014" lon="10.54434648044718"><ele>128.0</ele><time>2026-03-22T09:56:45Z</time></trkpt><trkpt lat="45.41305710586594" lon="10.544339249738885"><ele>127.83333333333333</ele><time>2026-03-22T09:56:47Z</time></trkpt><trkpt lat="45.41314698662084" lon="10.544328169169834"><ele>127.66666666666666</ele><time>2026-03-22T09:56:49Z</time></trkpt><trkpt lat="45.4132340657985" lon="10.544315573906665"><ele>127.5</ele><time>2026-03-22T09:56:51Z</time></trkpt><trkpt lat="45.41331847327877" lon="10.544304122459009"><ele>127.33333333333334</ele><time>2026-03-22T09:56:53Z</time></trkpt><trkpt lat="45.413396429994826" lon="10.544302084301663"><ele>127.16666666666667</ele><time>2026-03-22T09:56:55Z</time></trkpt><trkpt lat="45.41347781358937" lon="10.544302323040812"><ele>127.0</ele><time>2026-03-22T09:56:57Z</time></trkpt><trkpt lat="45.41357156149441" lon="10.544313355235401"><ele>127.0</ele><time>2026-03-22T09:56:59Z</time></trkpt><trkpt lat="45.41367296074611" lon="10.544317746828963"><ele>126.99999999999999</ele><time>2026-03-22T09:57:01Z</time></trkpt><trkpt lat="45.41377884962039" lon="10.544322733958266"><ele>126.99999999999999</ele><time>2026-03-22T09:57:03Z</time></trkpt><trkpt lat="45.413887688305614" lon="10.544327352488587"><ele>127.0</ele><time>2026-03-22T09:57:05Z</time></trkpt><trkpt lat="45.414002458262935" lon="10.54433430460509"><ele>127.0</ele><time>2026-03-22T09:57:07Z</time></trkpt><trkpt lat="45.414125860148296" lon="10.544329164625292"><ele>126.57142857142858</ele><time>2026-03-22T09:57:09Z</time></trkpt><trkpt lat="45.41419219205914" lon="10.544326688378751"><ele>126.14285714285714</ele><time>2026-03-22T09:57:10Z</time></trkpt><trkpt lat="45.41426083616917" lon="10.544316690721915"><ele>125.71428571428572</ele><time>2026-03-22T09:57:11Z</time></trkpt><trkpt lat="45.41433283441588" lon="10.54431573956667"><ele>125.28571428571429</ele><time>2026-03-22T09:57:12Z</time></trkpt><trkpt lat="45.414403629944125" lon="10.544307587304212"><ele>124.85714285714286</ele><time>2026-03-22T09:57:13Z</time></trkpt><trkpt lat="45.41447425400119" lon="10.544306407438748"><ele>124.42857142857143</ele><time>2026-03-22T09:57:14Z</time></trkpt><trkpt lat="45.414550712376695" lon="10.54430302909049"><ele>124.0</ele><time>2026-03-22T09:57:15Z</time></trkpt><trkpt lat="45.41462322251471" lon="10.544295774359874"><ele>123.42857142857143</ele><time>2026-03-22T09:57:16Z</time></trkpt><trkpt lat="45.414694895321965" lon="10.544286660794327"><ele>122.85714285714286</ele><time>2026-03-22T09:57:17Z</time></trkpt><trkpt lat="45.41477250742541" lon="10.544285522362612"><ele>122.28571428571429</ele><time>2026-03-22T09:57:18Z</time></trkpt><trkpt lat="45.414845647059146" lon="10.544269644971248"><ele>121.71428571428572</ele><time>2026-03-22T09:57:19Z</time></trkpt><trkpt lat="45.41491863948992" lon="10.544254987393511"><ele>121.14285714285714</ele><time>2026-03-22T09:57:20Z</time></trkpt><trkpt lat="45.41499310583738" lon="10.544246690884721"><ele>120.57142857142858</ele><time>2026-03-22T09:57:21Z</time></trkpt><trkpt lat="45.415064783581194" lon="10.54424609437446"><ele>120.0</ele><time>2026-03-22T09:57:22Z</time></trkpt><trkpt lat="45.415138384612355" lon="10.544249906604058"><ele>120.0</ele><time>2026-03-22T09:57:23Z</time></trkpt><trkpt lat="45.41521859942259" lon="10.544265977284583"><ele>120.0</ele><time>2026-03-22T09:57:24Z</time></trkpt><trkpt lat="45.41528121864608" lon="10.544304886908312"><ele>120.0</ele><time>2026-03-22T09:57:25Z</time></trkpt><trkpt lat="45.41534848681481" lon="10.544336718805832"><ele>120.0</ele><time>2026-03-22T09:57:26Z</time></trkpt><trkpt lat="45.415422869395044" lon="10.544351673380433"><ele>120.0</ele><time>2026-03-22T09:57:27Z</time></trkpt><trkpt lat="45.415497012512326" lon="10.544337664641219"><ele>120.0</ele><time>2026-03-22T09:57:28Z</time></trkpt><trkpt lat="45.415572293941544" lon="10.544325805431813"><ele>120.0</ele><time>2026-03-22T09:57:29Z</time></trkpt><trkpt lat="45.41565114341975" lon="10.544305642096042"><ele>119.14285714285714</ele><time>2026-03-22T09:57:30Z</time></trkpt><trkpt lat="45.4157237922493" lon="10.544269092246418"><ele>118.28571428571428</ele><time>2026-03-22T09:57:31Z</time></trkpt><trkpt lat="45.415797666956884" lon="10.544239990892553"><ele>117.42857142857142</ele><time>2026-03-22T09:57:32Z</time></trkpt><trkpt lat="45.41587098438804" lon="10.544220063629945"><ele>116.57142857142857</ele><time>2026-03-22T09:57:33Z</time></trkpt><trkpt lat="45.41594138013811" lon="10.544194774326426"><ele>115.7142857142857</ele><time>2026-03-22T09:57:34Z</time></trkpt><trkpt lat="45.41601013277432" lon="10.544165733840963"><ele>114.85714285714285</ele><time>2026-03-22T09:57:35Z</time></trkpt><trkpt lat="45.41607901205318" lon="10.544144497091452"><ele>114.0</ele><time>2026-03-22T09:57:36Z</time></trkpt><trkpt lat="45.41614309264934" lon="10.54412493872336"><ele>114.0</ele><time>2026-03-22T09:57:37Z</time></trkpt><trkpt lat="45.41620746832615" lon="10.544107442722618"><ele>114.0</ele><time>2026-03-22T09:57:38Z</time></trkpt><trkpt lat="45.41627211340765" lon="10.544108762442507"><ele>114.0</ele><time>2026-03-22T09:57:39Z</time></trkpt><trkpt lat="45.41633715350325" lon="10.544099298163026"><ele>114.0</ele><time>2026-03-22T09:57:40Z</time></trkpt><trkpt lat="45.41645510376809" lon="10.544071875855877"><ele>114.0</ele><time>2026-03-22T09:57:42Z</time></trkpt><trkpt lat="45.41657300655076" lon="10.54404230325516"><ele>114.0</ele><time>2026-03-22T09:57:44Z</time></trkpt><trkpt lat="45.41668468523799" lon="10.543986013272061"><ele>113.4</ele><time>2026-03-22T09:57:46Z</time></trkpt><trkpt lat="45.41679362872005" lon="10.543929682919538"><ele>112.80000000000001</ele><time>2026-03-22T09:57:48Z</time></trkpt><trkpt lat="45.41689867141139" lon="10.543851040127516"><ele>112.19999999999999</ele><time>2026-03-22T09:57:50Z</time></trkpt><trkpt lat="45.416951683038796" lon="10.543802576771519"><ele>111.6</ele><time>2026-03-22T09:57:51Z</time></trkpt><trkpt lat="45.41704997479798" lon="10.543713239953775"><ele>111.0</ele><time>2026-03-22T09:57:53Z</time></trkpt><trkpt lat="45.417141130447824" lon="10.543603306437126"><ele>110.25</ele><time>2026-03-22T09:57:55Z</time></trkpt><trkpt lat="45.417223723900676" lon="10.543479647372784"><ele>109.5</ele><time>2026-03-22T09:57:57Z</time></trkpt><trkpt lat="45.41729244496554" lon="10.543339715601535"><ele>108.75</ele><time>2026-03-22T09:57:59Z</time></trkpt><trkpt lat="45.417361162548794" lon="10.543205249518062"><ele>108.0</ele><time>2026-03-22T09:58:01Z</time></trkpt><trkpt lat="45.417424864679674" lon="10.543066886664738"><ele>108.0</ele><time>2026-03-22T09:58:03Z</time></trkpt><trkpt lat="45.417485283950064" lon="10.542930798952682"><ele>108.0</ele><time>2026-03-22T09:58:05Z</time></trkpt><trkpt lat="45.417555447347496" lon="10.5427967519441"><ele>108.0</ele><time>2026-03-22T09:58:07Z</time></trkpt><trkpt lat="45.41762098396155" lon="10.542662613143907"><ele>108.0</ele><time>2026-03-22T09:58:09Z</time></trkpt><trkpt lat="45.41768856377325" lon="10.542529946753378"><ele>108.25</ele><time>2026-03-22T09:58:11Z</time></trkpt><trkpt lat="45.41775709930797" lon="10.542396858285347"><ele>108.5</ele><time>2026-03-22T09:58:13Z</time></trkpt><trkpt lat="45.41782430412266" lon="10.542266019451349"><ele>108.75</ele><time>2026-03-22T09:58:15Z</time></trkpt><trkpt lat="45.417889138466144" lon="10.542133538402707"><ele>109.0</ele><time>2026-03-22T09:58:17Z</time></trkpt><trkpt lat="45.41795285667773" lon="10.541994042959011"><ele>109.0</ele><time>2026-03-22T09:58:19Z</time></trkpt><trkpt lat="45.4180172146784" lon="10.541855245410096"><ele>109.0</ele><time>2026-03-22T09:58:21Z</time></trkpt><trkpt lat="45.41807947800568" lon="10.541716097683908"><ele>109.0</ele><time>2026-03-22T09:58:23Z</time></trkpt><trkpt lat="45.41815064927237" lon="10.541582216773481"><ele>109.0</ele><time>2026-03-22T09:58:25Z</time></trkpt><trkpt lat="45.4182242549355" lon="10.541467959787143"><ele>109.0</ele><time>2026-03-22T09:58:27Z</time></trkpt><trkpt lat="45.41830025725349" lon="10.541357741769824"><ele>109.0</ele><time>2026-03-22T09:58:29Z</time></trkpt><trkpt lat="45.41838766703432" lon="10.541254688895233"><ele>109.0</ele><time>2026-03-22T09:58:31Z</time></trkpt><trkpt lat="45.41848704675821" lon="10.541173282150574"><ele>109.0</ele><time>2026-03-22T09:58:33Z</time></trkpt><trkpt lat="45.41858407786986" lon="10.541080629313827"><ele>110.0</ele><time>2026-03-22T09:58:35Z</time></trkpt><trkpt lat="45.418678819334886" lon="10.540989273010668"><ele>111.0</ele><time>2026-03-22T09:58:37Z</time></trkpt><trkpt lat="45.41877233970975" lon="10.540898649876606"><ele>112.0</ele><time>2026-03-22T09:58:39Z</time></trkpt><trkpt lat="45.41886674142153" lon="10.540804669135238"><ele>113.0</ele><time>2026-03-22T09:58:41Z</time></trkpt><trkpt lat="45.418968729977195" lon="10.540704256548805"><ele>113.0</ele><time>2026-03-22T09:58:43Z</time></trkpt><trkpt lat="45.41906277964599" lon="10.540622280485234"><ele>113.00000000000001</ele><time>2026-03-22T09:58:45Z</time></trkpt><trkpt lat="45.419160800221405" lon="10.540544980322414"><ele>113.00000000000001</ele><time>2026-03-22T09:58:47Z</time></trkpt><trkpt lat="45.419255957199205" lon="10.540483683692498"><ele>113.0</ele><time>2026-03-22T09:58:49Z</time></trkpt><trkpt lat="45.41935123272971" lon="10.5404342527334"><ele>113.0</ele><time>2026-03-22T09:58:51Z</time></trkpt><trkpt lat="45.41945010166596" lon="10.540393953542607"><ele>113.4</ele><time>2026-03-22T09:58:53Z</time></trkpt><trkpt lat="45.41954653671902" lon="10.540342535617043"><ele>113.80000000000001</ele><time>2026-03-22T09:58:55Z</time></trkpt><trkpt lat="45.419646165863064" lon="10.540295884576766"><ele>114.2</ele><time>2026-03-22T09:58:57Z</time></trkpt><trkpt lat="45.419743539746975" lon="10.540246380652642"><ele>114.6</ele><time>2026-03-22T09:58:59Z</time></trkpt><trkpt lat="45.41983695311523" lon="10.540184424758532"><ele>115.0</ele><time>2026-03-22T09:59:01Z</time></trkpt><trkpt lat="45.419927226976725" lon="10.54011061180059"><ele>115.2</ele><time>2026-03-22T09:59:03Z</time></trkpt><trkpt lat="45.42001834006046" lon="10.540035617119775"><ele>115.4</ele><time>2026-03-22T09:59:05Z</time></trkpt><trkpt lat="45.420103255178894" lon="10.539967486960458"><ele>115.6</ele><time>2026-03-22T09:59:07Z</time></trkpt><trkpt lat="45.42018892851604" lon="10.539905685460102"><ele>115.8</ele><time>2026-03-22T09:59:09Z</time></trkpt><trkpt lat="45.42025277296909" lon="10.539838751732285"><ele>116.0</ele><time>2026-03-22T09:59:11Z</time></trkpt><trkpt lat="45.42031948277206" lon="10.53977405824363"><ele>115.99999999999999</ele><time>2026-03-22T09:59:13Z</time></trkpt><trkpt lat="45.420375157539546" lon="10.539706576519302"><ele>116.0</ele><time>2026-03-22T09:59:15Z</time></trkpt><trkpt lat="45.420433803614344" lon="10.539624354834737"><ele>116.0</ele><time>2026-03-22T09:59:17Z</time></trkpt><trkpt lat="45.42049624765324" lon="10.539551959227557"><ele>116.0</ele><time>2026-03-22T09:59:19Z</time></trkpt><trkpt lat="45.42055134120636" lon="10.539471420319304"><ele>115.99999999999999</ele><time>2026-03-22T09:59:21Z</time></trkpt><trkpt lat="45.420632787877935" lon="10.539412736292393"><ele>116.0</ele><time>2026-03-22T09:59:24Z</time></trkpt><trkpt lat="45.42069813354537" lon="10.539372800759946"><ele>116.83333333333333</ele><time>2026-03-22T09:59:26Z</time></trkpt><trkpt lat="45.420765995743736" lon="10.539337859931024"><ele>117.66666666666666</ele><time>2026-03-22T09:59:28Z</time></trkpt><trkpt lat="45.42084102096915" lon="10.53930202469994"><ele>118.5</ele><time>2026-03-22T09:59:30Z</time></trkpt><trkpt lat="45.42091510089322" lon="10.539266145568218"><ele>119.33333333333334</ele><time>2026-03-22T09:59:32Z</time></trkpt><trkpt lat="45.42098301461898" lon="10.539223397208591"><ele>120.16666666666667</ele><time>2026-03-22T09:59:34Z</time></trkpt><trkpt lat="45.42106431429732" lon="10.539195385590638"><ele>121.0</ele><time>2026-03-22T09:59:36Z</time></trkpt><trkpt lat="45.42114504370856" lon="10.539160458464593"><ele>121.0</ele><time>2026-03-22T09:59:38Z</time></trkpt><trkpt lat="45.421231729815865" lon="10.539128651374694"><ele>121.0</ele><time>2026-03-22T09:59:40Z</time></trkpt><trkpt lat="45.42131606177707" lon="10.539100748238697"><ele>121.0</ele><time>2026-03-22T09:59:42Z</time></trkpt><trkpt lat="45.421398855810786" lon="10.539066841797018"><ele>121.0</ele><time>2026-03-22T09:59:44Z</time></trkpt><trkpt lat="45.42148938922983" lon="10.539020320256443"><ele>121.0</ele><time>2026-03-22T09:59:46Z</time></trkpt><trkpt lat="45.421580737439385" lon="10.538983633085524"><ele>120.66666666666667</ele><time>2026-03-22T09:59:48Z</time></trkpt><trkpt lat="45.421668518928456" lon="10.538942548697237"><ele>120.33333333333334</ele><time>2026-03-22T09:59:50Z</time></trkpt><trkpt lat="45.42175012971257" lon="10.538898313382447"><ele>120.0</ele><time>2026-03-22T09:59:52Z</time></trkpt><trkpt lat="45.42182389013163" lon="10.538852409120675"><ele>119.66666666666666</ele><time>2026-03-22T09:59:54Z</time></trkpt><trkpt lat="45.421894531624325" lon="10.53881609607674"><ele>119.33333333333333</ele><time>2026-03-22T09:59:56Z</time></trkpt><trkpt lat="45.42195828853401" lon="10.53876875041067"><ele>119.0</ele><time>2026-03-22T09:59:58Z</time></trkpt><trkpt lat="45.42201978700643" lon="10.538734456377336"><ele>120.0</ele><time>2026-03-22T10:00:00Z</time></trkpt><trkpt lat="45.422087998254895" lon="10.538693741585934"><ele>121.0</ele><time>2026-03-22T10:00:02Z</time></trkpt><trkpt lat="45.42217161133504" lon="10.538648382913196"><ele>122.0</ele><time>2026-03-22T10:00:04Z</time></trkpt><trkpt lat="45.42225905279097" lon="10.538600211862457"><ele>123.0</ele><time>2026-03-22T10:00:06Z</time></trkpt><trkpt lat="45.42235279941583" lon="10.538547316074768"><ele>124.0</ele><time>2026-03-22T10:00:08Z</time></trkpt><trkpt lat="45.42244664418916" lon="10.538491491340162"><ele>124.0</ele><time>2026-03-22T10:00:10Z</time></trkpt><trkpt lat="45.42253748337463" lon="10.538440640314034"><ele>124.0</ele><time>2026-03-22T10:00:12Z</time></trkpt><trkpt lat="45.42262230825043" lon="10.538393208366578"><ele>124.0</ele><time>2026-03-22T10:00:14Z</time></trkpt><trkpt lat="45.42270328205815" lon="10.538362866156566"><ele>124.0</ele><time>2026-03-22T10:00:16Z</time></trkpt><trkpt lat="45.42278738451703" lon="10.538329282969153"><ele>124.0</ele><time>2026-03-22T10:00:18Z</time></trkpt><trkpt lat="45.422880947580516" lon="10.538302684925307"><ele>124.0</ele><time>2026-03-22T10:00:20Z</time></trkpt><trkpt lat="45.4229693967669" lon="10.538262597163875"><ele>124.0</ele><time>2026-03-22T10:00:22Z</time></trkpt><trkpt lat="45.42306238313338" lon="10.538229227268802"><ele>124.0</ele><time>2026-03-22T10:00:24Z</time></trkpt><trkpt lat="45.42316099123151" lon="10.538197935511588"><ele>124.0</ele><time>2026-03-22T10:00:26Z</time></trkpt><trkpt lat="45.42325658157237" lon="10.538165545923045"><ele>124.0</ele><time>2026-03-22T10:00:28Z</time></trkpt><trkpt lat="45.423351988219416" lon="10.53812809798183"><ele>124.4</ele><time>2026-03-22T10:00:30Z</time></trkpt><trkpt lat="45.423448096154694" lon="10.538090737611522"><ele>124.80000000000001</ele><time>2026-03-22T10:00:32Z</time></trkpt><trkpt lat="45.42353374168197" lon="10.538045335924346"><ele>125.19999999999999</ele><time>2026-03-22T10:00:34Z</time></trkpt><trkpt lat="45.42363086342147" lon="10.538008910990136"><ele>125.6</ele><time>2026-03-22T10:00:36Z</time></trkpt><trkpt lat="45.423724034465636" lon="10.537983855087981"><ele>126.0</ele><time>2026-03-22T10:00:38Z</time></trkpt><trkpt lat="45.42381257849437" lon="10.537951277403995"><ele>125.66666666666667</ele><time>2026-03-22T10:00:40Z</time></trkpt><trkpt lat="45.423898841668056" lon="10.537933428196423"><ele>125.33333333333334</ele><time>2026-03-22T10:00:42Z</time></trkpt><trkpt lat="45.4239851379924" lon="10.53792990819983"><ele>125.0</ele><time>2026-03-22T10:00:44Z</time></trkpt><trkpt lat="45.4240630803119" lon="10.537920043697268"><ele>124.66666666666667</ele><time>2026-03-22T10:00:46Z</time></trkpt><trkpt lat="45.42414379516115" lon="10.537921590354696"><ele>124.33333333333334</ele><time>2026-03-22T10:00:48Z</time></trkpt><trkpt lat="45.42422872184731" lon="10.537918936442958"><ele>124.0</ele><time>2026-03-22T10:00:50Z</time></trkpt><trkpt lat="45.424298825887185" lon="10.537921944753592"><ele>124.00000000000001</ele><time>2026-03-22T10:00:52Z</time></trkpt><trkpt lat="45.42437423834807" lon="10.53793023239618"><ele>124.0</ele><time>2026-03-22T10:00:54Z</time></trkpt><trkpt lat="45.424448863765704" lon="10.53797563795653"><ele>124.0</ele><time>2026-03-22T10:00:57Z</time></trkpt><trkpt lat="45.42452736106345" lon="10.53802136811008"><ele>124.0</ele><time>2026-03-22T10:02:25Z</time></trkpt><trkpt lat="45.424599700206684" lon="10.538037676264667"><ele>124.00000000000001</ele><time>2026-03-22T10:02:27Z</time></trkpt><trkpt lat="45.42467914435282" lon="10.538087740312514"><ele>124.0</ele><time>2026-03-22T10:02:29Z</time></trkpt><trkpt lat="45.424752012564085" lon="10.538164579336462"><ele>123.2</ele><time>2026-03-22T10:02:31Z</time></trkpt><trkpt lat="45.42483134385477" lon="10.5382639132069"><ele>122.4</ele><time>2026-03-22T10:02:33Z</time></trkpt><trkpt lat="45.424920049791844" lon="10.538364975362164"><ele>121.6</ele><time>2026-03-22T10:02:35Z</time></trkpt><trkpt lat="45.42502306499517" lon="10.538454026579611"><ele>120.8</ele><time>2026-03-22T10:02:37Z</time></trkpt><trkpt lat="45.42507743443542" lon="10.538500300782509"><ele>120.0</ele><time>2026-03-22T10:02:38Z</time></trkpt><trkpt lat="45.42513673985571" lon="10.538539529560493"><ele>120.0</ele><time>2026-03-22T10:02:39Z</time></trkpt><trkpt lat="45.42519676122682" lon="10.538579306202289"><ele>120.0</ele><time>2026-03-22T10:02:40Z</time></trkpt><trkpt lat="45.4252566864618" lon="10.53861513542428"><ele>120.0</ele><time>2026-03-22T10:02:41Z</time></trkpt><trkpt lat="45.425315508985406" lon="10.538649644761792"><ele>120.0</ele><time>2026-03-22T10:02:42Z</time></trkpt><trkpt lat="45.4253743283685" lon="10.538683763853133"><ele>120.0</ele><time>2026-03-22T10:02:43Z</time></trkpt><trkpt lat="45.425493757056714" lon="10.538734055945431"><ele>120.0</ele><time>2026-03-22T10:02:45Z</time></trkpt><trkpt lat="45.4256114957249" lon="10.538766647356436"><ele>118.83333333333333</ele><time>2026-03-22T10:02:47Z</time></trkpt><trkpt lat="45.42573028340922" lon="10.538802002160805"><ele>117.66666666666666</ele><time>2026-03-22T10:02:49Z</time></trkpt><trkpt lat="45.425793188692325" lon="10.538814585558596"><ele>116.5</ele><time>2026-03-22T10:02:50Z</time></trkpt><trkpt lat="45.425855739480184" lon="10.538828022716554"><ele>115.33333333333333</ele><time>2026-03-22T10:02:51Z</time></trkpt><trkpt lat="45.425979969951065" lon="10.538849506292971"><ele>114.16666666666666</ele><time>2026-03-22T10:02:53Z</time></trkpt><trkpt lat="45.42604324487615" lon="10.53885534762041"><ele>113.0</ele><time>2026-03-22T10:02:54Z</time></trkpt><trkpt lat="45.426107678745154" lon="10.538855528401328"><ele>113.0</ele><time>2026-03-22T10:02:55Z</time></trkpt><trkpt lat="45.42623178160244" lon="10.538838674997558"><ele>113.00000000000001</ele><time>2026-03-22T10:02:57Z</time></trkpt><trkpt lat="45.42629395057629" lon="10.538821600472813"><ele>113.00000000000001</ele><time>2026-03-22T10:02:58Z</time></trkpt><trkpt lat="45.42641068574568" lon="10.538792186978352"><ele>113.0</ele><time>2026-03-22T10:03:00Z</time></trkpt><trkpt lat="45.42653123529418" lon="10.53878058865499"><ele>113.0</ele><time>2026-03-22T10:03:02Z</time></trkpt><trkpt lat="45.426653988996314" lon="10.538783822561403"><ele>113.0</ele><time>2026-03-22T10:03:04Z</time></trkpt><trkpt lat="45.42677283615476" lon="10.53877578367863"><ele>113.0</ele><time>2026-03-22T10:03:06Z</time></trkpt><trkpt lat="45.426897401935946" lon="10.538772812796335"><ele>113.0</ele><time>2026-03-22T10:03:08Z</time></trkpt><trkpt lat="45.427022098081764" lon="10.53876339286134"><ele>113.0</ele><time>2026-03-22T10:03:10Z</time></trkpt><trkpt lat="45.42714020046592" lon="10.53875953296829"><ele>112.80000000000001</ele><time>2026-03-22T10:03:12Z</time></trkpt><trkpt lat="45.42725181833325" lon="10.538745730117583"><ele>112.60000000000001</ele><time>2026-03-22T10:03:14Z</time></trkpt><trkpt lat="45.42735342637225" lon="10.538733184141465"><ele>112.39999999999999</ele><time>2026-03-22T10:03:16Z</time></trkpt><trkpt lat="45.427429989104425" lon="10.538710910337405"><ele>112.19999999999999</ele><time>2026-03-22T10:03:19Z</time></trkpt><trkpt lat="45.427495030937116" lon="10.53867170132413"><ele>112.0</ele><time>2026-03-22T10:03:23Z</time></trkpt><trkpt lat="45.42758843609305" lon="10.538630437216945"><ele>112.6</ele><time>2026-03-22T10:03:26Z</time></trkpt><trkpt lat="45.42767062435959" lon="10.538623697620944"><ele>113.19999999999999</ele><time>2026-03-22T10:03:28Z</time></trkpt><trkpt lat="45.42776326041251" lon="10.538605320814966"><ele>113.8</ele><time>2026-03-22T10:03:30Z</time></trkpt><trkpt lat="45.4278695086241" lon="10.538573865972136"><ele>114.4</ele><time>2026-03-22T10:03:32Z</time></trkpt><trkpt lat="45.427977992022676" lon="10.538562550926944"><ele>115.0</ele><time>2026-03-22T10:03:34Z</time></trkpt><trkpt lat="45.42808993124633" lon="10.538540667351677"><ele>115.0</ele><time>2026-03-22T10:03:36Z</time></trkpt><trkpt lat="45.428200510044675" lon="10.538476636092277"><ele>115.0</ele><time>2026-03-22T10:03:38Z</time></trkpt><trkpt lat="45.42829713637689" lon="10.53838862462325"><ele>115.0</ele><time>2026-03-22T10:03:40Z</time></trkpt><trkpt lat="45.428392034806656" lon="10.538298633763599"><ele>115.0</ele><time>2026-03-22T10:03:42Z</time></trkpt><trkpt lat="45.428481239273395" lon="10.53820781053852"><ele>115.0</ele><time>2026-03-22T10:03:44Z</time></trkpt><trkpt lat="45.428555275410325" lon="10.5380900021335"><ele>115.0</ele><time>2026-03-22T10:03:46Z</time></trkpt><trkpt lat="45.428638656661" lon="10.53798735694643"><ele>115.0</ele><time>2026-03-22T10:03:48Z</time></trkpt><trkpt lat="45.42872156328651" lon="10.5378966136245"><ele>115.0</ele><time>2026-03-22T10:03:50Z</time></trkpt><trkpt lat="45.42879334096357" lon="10.537792402953166"><ele>115.0</ele><time>2026-03-22T10:03:52Z</time></trkpt><trkpt lat="45.42887618052692" lon="10.53767871940197"><ele>114.5</ele><time>2026-03-22T10:03:54Z</time></trkpt><trkpt lat="45.42896120941637" lon="10.537557497879362"><ele>114.0</ele><time>2026-03-22T10:03:56Z</time></trkpt><trkpt lat="45.42906062406197" lon="10.537474353011573"><ele>113.5</ele><time>2026-03-22T10:03:58Z</time></trkpt><trkpt lat="45.42916007939779" lon="10.53737524853326"><ele>113.0</ele><time>2026-03-22T10:04:00Z</time></trkpt><trkpt lat="45.4292610517096" lon="10.537289380620846"><ele>113.0</ele><time>2026-03-22T10:04:02Z</time></trkpt><trkpt lat="45.42935942612835" lon="10.53721074419991"><ele>113.00000000000001</ele><time>2026-03-22T10:04:04Z</time></trkpt><trkpt lat="45.42945381780335" lon="10.537133254763106"><ele>113.00000000000001</ele><time>2026-03-22T10:04:06Z</time></trkpt><trkpt lat="45.42955456091158" lon="10.537034289018518"><ele>113.0</ele><time>2026-03-22T10:04:08Z</time></trkpt><trkpt lat="45.42961112499363" lon="10.53698385912222"><ele>113.0</ele><time>2026-03-22T10:04:09Z</time></trkpt><trkpt lat="45.42970906661114" lon="10.536887019478282"><ele>112.25</ele><time>2026-03-22T10:04:11Z</time></trkpt><trkpt lat="45.42981569186243" lon="10.53681030901501"><ele>111.5</ele><time>2026-03-22T10:04:13Z</time></trkpt><trkpt lat="45.42991591445802" lon="10.536721463482813"><ele>110.75</ele><time>2026-03-22T10:04:15Z</time></trkpt><trkpt lat="45.43000762122896" lon="10.53662728424024"><ele>110.0</ele><time>2026-03-22T10:04:17Z</time></trkpt><trkpt lat="45.430097705182696" lon="10.536545956181413"><ele>110.0</ele><time>2026-03-22T10:04:19Z</time></trkpt><trkpt lat="45.430197676216025" lon="10.536481255871639"><ele>110.0</ele><time>2026-03-22T10:04:21Z</time></trkpt><trkpt lat="45.43029165953431" lon="10.536433600019082"><ele>110.0</ele><time>2026-03-22T10:04:23Z</time></trkpt><trkpt lat="45.430381921516535" lon="10.536388375501994"><ele>110.0</ele><time>2026-03-22T10:04:25Z</time></trkpt><trkpt lat="45.430482177990605" lon="10.536365445404172"><ele>110.0</ele><time>2026-03-22T10:04:27Z</time></trkpt><trkpt lat="45.430600406756334" lon="10.536326440425567"><ele>109.25</ele><time>2026-03-22T10:04:29Z</time></trkpt><trkpt lat="45.43071437988475" lon="10.536296935319621"><ele>108.5</ele><time>2026-03-22T10:04:31Z</time></trkpt><trkpt lat="45.430835222879935" lon="10.536281274457304"><ele>107.75</ele><time>2026-03-22T10:04:33Z</time></trkpt><trkpt lat="45.430954517504816" lon="10.536273861037243"><ele>107.0</ele><time>2026-03-22T10:04:35Z</time></trkpt><trkpt lat="45.43106109333469" lon="10.536286719499554"><ele>107.0</ele><time>2026-03-22T10:04:37Z</time></trkpt><trkpt lat="45.43116623421671" lon="10.536337634776674"><ele>106.99999999999999</ele><time>2026-03-22T10:04:39Z</time></trkpt><trkpt lat="45.431278573984805" lon="10.536401959599491"><ele>106.99999999999999</ele><time>2026-03-22T10:04:41Z</time></trkpt><trkpt lat="45.431330332846684" lon="10.536453500989705"><ele>107.0</ele><time>2026-03-22T10:04:42Z</time></trkpt><trkpt lat="45.43137874387188" lon="10.536511506122887"><ele>107.0</ele><time>2026-03-22T10:04:43Z</time></trkpt><trkpt lat="45.43146003654454" lon="10.536634978728609"><ele>107.5</ele><time>2026-03-22T10:04:45Z</time></trkpt><trkpt lat="45.431551968817125" lon="10.536733153250216"><ele>108.0</ele><time>2026-03-22T10:04:47Z</time></trkpt><trkpt lat="45.43166068731967" lon="10.536780883577013"><ele>108.5</ele><time>2026-03-22T10:04:49Z</time></trkpt><trkpt lat="45.431778930124366" lon="10.53676832929955"><ele>109.0</ele><time>2026-03-22T10:04:51Z</time></trkpt><trkpt lat="45.431898233451186" lon="10.536725364442917"><ele>109.0</ele><time>2026-03-22T10:04:53Z</time></trkpt><trkpt lat="45.43200133652708" lon="10.536669217435511"><ele>109.0</ele><time>2026-03-22T10:04:55Z</time></trkpt><trkpt lat="45.43210476220492" lon="10.536628496430989"><ele>109.0</ele><time>2026-03-22T10:04:57Z</time></trkpt><trkpt lat="45.432210226478944" lon="10.53659518021582"><ele>109.0</ele><time>2026-03-22T10:04:59Z</time></trkpt><trkpt lat="45.432325089489765" lon="10.536588657817923"><ele>109.0</ele><time>2026-03-22T10:05:01Z</time></trkpt><trkpt lat="45.43243501190449" lon="10.536606593820476"><ele>109.0</ele><time>2026-03-22T10:05:03Z</time></trkpt><trkpt lat="45.432549550901925" lon="10.536624417092709"><ele>109.0</ele><time>2026-03-22T10:05:05Z</time></trkpt><trkpt lat="45.4326503786638" lon="10.536685394664278"><ele>109.0</ele><time>2026-03-22T10:05:07Z</time></trkpt><trkpt lat="45.43276758046917" lon="10.536700709083888"><ele>109.0</ele><time>2026-03-22T10:05:09Z</time></trkpt><trkpt lat="45.4328758546543" lon="10.536714472811488"><ele>108.4</ele><time>2026-03-22T10:05:11Z</time></trkpt><trkpt lat="45.432990500663784" lon="10.536714283517915"><ele>107.80000000000001</ele><time>2026-03-22T10:05:13Z</time></trkpt><trkpt lat="45.433103038573535" lon="10.536691256009695"><ele>107.19999999999999</ele><time>2026-03-22T10:05:15Z</time></trkpt><trkpt lat="45.433178315072446" lon="10.536685886776743"><ele>106.6</ele><time>2026-03-22T10:05:17Z</time></trkpt><trkpt lat="45.43325331235376" lon="10.536606015684907"><ele>106.0</ele><time>2026-03-22T10:05:19Z</time></trkpt><trkpt lat="45.43332145778695" lon="10.536482575876317"><ele>106.0</ele><time>2026-03-22T10:05:21Z</time></trkpt><trkpt lat="45.4334024253495" lon="10.536355437433714"><ele>106.0</ele><time>2026-03-22T10:05:23Z</time></trkpt><trkpt lat="45.4334895466226" lon="10.536227919183306"><ele>106.0</ele><time>2026-03-22T10:05:25Z</time></trkpt><trkpt lat="45.43357296405034" lon="10.53609977362286"><ele>106.0</ele><time>2026-03-22T10:05:27Z</time></trkpt><trkpt lat="45.43365086737107" lon="10.535971750311786"><ele>106.0</ele><time>2026-03-22T10:05:29Z</time></trkpt><trkpt lat="45.43372874002295" lon="10.535846409603012"><ele>106.0</ele><time>2026-03-22T10:05:31Z</time></trkpt><trkpt lat="45.433809183983875" lon="10.535719226837863"><ele>106.0</ele><time>2026-03-22T10:05:33Z</time></trkpt><trkpt lat="45.43388241245112" lon="10.535589961680447"><ele>106.0</ele><time>2026-03-22T10:05:35Z</time></trkpt><trkpt lat="45.433956101161435" lon="10.535463801618638"><ele>105.25</ele><time>2026-03-22T10:05:37Z</time></trkpt><trkpt lat="45.43402855282659" lon="10.535330230661502"><ele>104.5</ele><time>2026-03-22T10:05:39Z</time></trkpt><trkpt lat="45.434098371231634" lon="10.53519141253522"><ele>103.75</ele><time>2026-03-22T10:05:41Z</time></trkpt><trkpt lat="45.43416657557667" lon="10.535049506090274"><ele>103.0</ele><time>2026-03-22T10:05:43Z</time></trkpt><trkpt lat="45.43423617984204" lon="10.534910800033899"><ele>103.0</ele><time>2026-03-22T10:05:45Z</time></trkpt><trkpt lat="45.434304929747945" lon="10.534770620948356"><ele>103.0</ele><time>2026-03-22T10:05:47Z</time></trkpt><trkpt lat="45.43437523987411" lon="10.534633358893954"><ele>103.0</ele><time>2026-03-22T10:05:49Z</time></trkpt><trkpt lat="45.4344470956464" lon="10.53449937020247"><ele>103.0</ele><time>2026-03-22T10:05:51Z</time></trkpt><trkpt lat="45.434522778345986" lon="10.534373693093539"><ele>103.25</ele><time>2026-03-22T10:05:53Z</time></trkpt><trkpt lat="45.43460600652502" lon="10.534253251692283"><ele>103.5</ele><time>2026-03-22T10:05:55Z</time></trkpt><trkpt lat="45.434703030600474" lon="10.534145962787392"><ele>103.75</ele><time>2026-03-22T10:05:57Z</time></trkpt><trkpt lat="45.434801943520256" lon="10.53404949935993"><ele>104.0</ele><time>2026-03-22T10:05:59Z</time></trkpt><trkpt lat="45.43490432605328" lon="10.53397696882023"><ele>104.4</ele><time>2026-03-22T10:06:01Z</time></trkpt><trkpt lat="45.43501099438079" lon="10.533919998921398"><ele>104.80000000000001</ele><time>2026-03-22T10:06:03Z</time></trkpt><trkpt lat="45.43512113363701" lon="10.533880214465821"><ele>105.19999999999999</ele><time>2026-03-22T10:06:05Z</time></trkpt><trkpt lat="45.435227168179544" lon="10.533837757292636"><ele>105.6</ele><time>2026-03-22T10:06:07Z</time></trkpt><trkpt lat="45.43532301990455" lon="10.533789453956718"><ele>106.0</ele><time>2026-03-22T10:06:09Z</time></trkpt><trkpt lat="45.435419954057785" lon="10.533740804270868"><ele>106.4</ele><time>2026-03-22T10:06:11Z</time></trkpt><trkpt lat="45.435513068123626" lon="10.533682738037635"><ele>106.8</ele><time>2026-03-22T10:06:13Z</time></trkpt><trkpt lat="45.43560147169314" lon="10.533618496385868"><ele>107.20000000000002</ele><time>2026-03-22T10:06:15Z</time></trkpt><trkpt lat="45.43568077866952" lon="10.533536252881367"><ele>107.60000000000001</ele><time>2026-03-22T10:06:17Z</time></trkpt><trkpt lat="45.43576594382509" lon="10.53345967530809"><ele>108.0</ele><time>2026-03-22T10:06:19Z</time></trkpt><trkpt lat="45.43585230718354" lon="10.533385707612206"><ele>108.0</ele><time>2026-03-22T10:06:21Z</time></trkpt><trkpt lat="45.43594376263985" lon="10.533332061432663"><ele>108.00000000000001</ele><time>2026-03-22T10:06:23Z</time></trkpt><trkpt lat="45.436046746760844" lon="10.533300297119855"><ele>108.00000000000001</ele><time>2026-03-22T10:06:25Z</time></trkpt><trkpt lat="45.43614329944576" lon="10.533261908513873"><ele>108.0</ele><time>2026-03-22T10:06:27Z</time></trkpt><trkpt lat="45.43624355230613" lon="10.533237921950299"><ele>108.0</ele><time>2026-03-22T10:06:29Z</time></trkpt><trkpt lat="45.43634873221182" lon="10.53320478786691"><ele>107.80000000000001</ele><time>2026-03-22T10:06:31Z</time></trkpt><trkpt lat="45.436451747430624" lon="10.533172742004444"><ele>107.60000000000001</ele><time>2026-03-22T10:06:33Z</time></trkpt><trkpt lat="45.43655355811338" lon="10.533142800673296"><ele>107.39999999999999</ele><time>2026-03-22T10:06:35Z</time></trkpt><trkpt lat="45.43665334203526" lon="10.533112674934225"><ele>107.19999999999999</ele><time>2026-03-22T10:06:37Z</time></trkpt><trkpt lat="45.4367551349915" lon="10.533101324377943"><ele>107.0</ele><time>2026-03-22T10:06:39Z</time></trkpt><trkpt lat="45.43685481583441" lon="10.533080136832638"><ele>107.0</ele><time>2026-03-22T10:06:41Z</time></trkpt><trkpt lat="45.43695124367583" lon="10.533059431906361"><ele>106.99999999999999</ele><time>2026-03-22T10:06:43Z</time></trkpt><trkpt lat="45.437057845223" lon="10.533027093728746"><ele>106.99999999999999</ele><time>2026-03-22T10:06:45Z</time></trkpt><trkpt lat="45.43715861064828" lon="10.53300505319529"><ele>107.0</ele><time>2026-03-22T10:06:47Z</time></trkpt><trkpt lat="45.4372587611435" lon="10.53298427790234"><ele>107.0</ele><time>2026-03-22T10:06:49Z</time></trkpt><trkpt lat="45.43735478322416" lon="10.532965112144241"><ele>107.0</ele><time>2026-03-22T10:06:51Z</time></trkpt><trkpt lat="45.43744918186437" lon="10.532943355965456"><ele>106.99999999999999</ele><time>2026-03-22T10:06:53Z</time></trkpt><trkpt lat="45.43754132683208" lon="10.532922964156521"><ele>106.99999999999999</ele><time>2026-03-22T10:06:55Z</time></trkpt><trkpt lat="45.43762920065487" lon="10.532902618499783"><ele>107.0</ele><time>2026-03-22T10:06:57Z</time></trkpt><trkpt lat="45.43771814216361" lon="10.532886620982985"><ele>107.0</ele><time>2026-03-22T10:06:59Z</time></trkpt><trkpt lat="45.437810996798355" lon="10.532863231217682"><ele>107.19999999999999</ele><time>2026-03-22T10:07:01Z</time></trkpt><trkpt lat="45.437900581354235" lon="10.532837853512703"><ele>107.39999999999999</ele><time>2026-03-22T10:07:03Z</time></trkpt><trkpt lat="45.43799202833916" lon="10.532814277003082"><ele>107.60000000000001</ele><time>2026-03-22T10:07:05Z</time></trkpt><trkpt lat="45.43808597435083" lon="10.532800174270053"><ele>107.80000000000001</ele><time>2026-03-22T10:07:07Z</time></trkpt><trkpt lat="45.43817658225443" lon="10.532779090028725"><ele>108.0</ele><time>2026-03-22T10:07:09Z</time></trkpt><trkpt lat="45.438271394413945" lon="10.532756539683065"><ele>108.4</ele><time>2026-03-22T10:07:11Z</time></trkpt><trkpt lat="45.43836517207794" lon="10.532737004988778"><ele>108.80000000000001</ele><time>2026-03-22T10:07:13Z</time></trkpt><trkpt lat="45.438461233912314" lon="10.532719790056714"><ele>109.2</ele><time>2026-03-22T10:07:15Z</time></trkpt><trkpt lat="45.43855644159411" lon="10.532700407727441"><ele>109.6</ele><time>2026-03-22T10:07:17Z</time></trkpt><trkpt lat="45.43865155051775" lon="10.532676500870501"><ele>110.0</ele><time>2026-03-22T10:07:19Z</time></trkpt><trkpt lat="45.4387438415527" lon="10.532649956996638"><ele>110.0</ele><time>2026-03-22T10:07:21Z</time></trkpt><trkpt lat="45.43883924574784" lon="10.532629088378947"><ele>110.0</ele><time>2026-03-22T10:07:23Z</time></trkpt><trkpt lat="45.43893135526815" lon="10.532600898580581"><ele>110.0</ele><time>2026-03-22T10:07:25Z</time></trkpt><trkpt lat="45.43902851869716" lon="10.53258430748008"><ele>110.0</ele><time>2026-03-22T10:07:27Z</time></trkpt><trkpt lat="45.43912570930697" lon="10.532563175732955"><ele>110.0</ele><time>2026-03-22T10:07:29Z</time></trkpt><trkpt lat="45.43921865103236" lon="10.532537671929635"><ele>110.0</ele><time>2026-03-22T10:07:31Z</time></trkpt><trkpt lat="45.43931624074456" lon="10.532514980725129"><ele>110.0</ele><time>2026-03-22T10:07:33Z</time></trkpt><trkpt lat="45.43941460718866" lon="10.532493116349363"><ele>110.0</ele><time>2026-03-22T10:07:35Z</time></trkpt><trkpt lat="45.439508124661835" lon="10.532471877567147"><ele>110.0</ele><time>2026-03-22T10:07:37Z</time></trkpt><trkpt lat="45.43959746029626" lon="10.532449504344367"><ele>110.0</ele><time>2026-03-22T10:07:39Z</time></trkpt><trkpt lat="45.43969521029461" lon="10.53242269770295"><ele>109.6</ele><time>2026-03-22T10:07:41Z</time></trkpt><trkpt lat="45.43978704145497" lon="10.53240671071619"><ele>109.2</ele><time>2026-03-22T10:07:43Z</time></trkpt><trkpt lat="45.439876325250545" lon="10.532381146892055"><ele>108.80000000000001</ele><time>2026-03-22T10:07:45Z</time></trkpt><trkpt lat="45.43996793866749" lon="10.532360619453824"><ele>108.4</ele><time>2026-03-22T10:07:47Z</time></trkpt><trkpt lat="45.440055884790546" lon="10.532335847559066"><ele>108.0</ele><time>2026-03-22T10:07:49Z</time></trkpt><trkpt lat="45.44014268932907" lon="10.532322668559106"><ele>108.0</ele><time>2026-03-22T10:07:51Z</time></trkpt><trkpt lat="45.44023024319328" lon="10.532307023165098"><ele>108.0</ele><time>2026-03-22T10:07:53Z</time></trkpt><trkpt lat="45.440317089147825" lon="10.532285718592384"><ele>108.0</ele><time>2026-03-22T10:07:55Z</time></trkpt><trkpt lat="45.44039867321869" lon="10.532275464429102"><ele>108.0</ele><time>2026-03-22T10:07:57Z</time></trkpt><trkpt lat="45.44047255195417" lon="10.532258129502575"><ele>108.0</ele><time>2026-03-22T10:07:59Z</time></trkpt><trkpt lat="45.440550421667005" lon="10.532232556731591"><ele>108.0</ele><time>2026-03-22T10:08:01Z</time></trkpt><trkpt lat="45.440617454227706" lon="10.532204167975983"><ele>108.16666666666667</ele><time>2026-03-22T10:08:03Z</time></trkpt><trkpt lat="45.44069311211827" lon="10.532191426431794"><ele>108.33333333333334</ele><time>2026-03-22T10:08:05Z</time></trkpt><trkpt lat="45.44076931880933" lon="10.532194303809046"><ele>108.5</ele><time>2026-03-22T10:08:07Z</time></trkpt><trkpt lat="45.440843269768976" lon="10.532179286638177"><ele>108.66666666666667</ele><time>2026-03-22T10:08:09Z</time></trkpt><trkpt lat="45.440917152134055" lon="10.532156234721414"><ele>108.83333333333334</ele><time>2026-03-22T10:08:11Z</time></trkpt><trkpt lat="45.440994436547996" lon="10.532139867941718"><ele>109.0</ele><time>2026-03-22T10:08:13Z</time></trkpt><trkpt lat="45.44107266110459" lon="10.532122802501458"><ele>109.00000000000001</ele><time>2026-03-22T10:08:15Z</time></trkpt><trkpt lat="45.44115160085215" lon="10.532105306522684"><ele>109.0</ele><time>2026-03-22T10:08:17Z</time></trkpt><trkpt lat="45.44123161622061" lon="10.532083024344235"><ele>109.0</ele><time>2026-03-22T10:08:19Z</time></trkpt><trkpt lat="45.441316045677176" lon="10.532064563185008"><ele>109.0</ele><time>2026-03-22T10:08:21Z</time></trkpt><trkpt lat="45.44139991595463" lon="10.53204904235184"><ele>109.00000000000001</ele><time>2026-03-22T10:08:23Z</time></trkpt><trkpt lat="45.44148742925558" lon="10.532028368633904"><ele>109.0</ele><time>2026-03-22T10:08:25Z</time></trkpt><trkpt lat="45.44157478053839" lon="10.532008919513412"><ele>109.00000000000001</ele><time>2026-03-22T10:08:27Z</time></trkpt><trkpt lat="45.44165816434276" lon="10.531982316603452"><ele>109.0</ele><time>2026-03-22T10:08:29Z</time></trkpt><trkpt lat="45.441746782144946" lon="10.531959241684405"><ele>109.0</ele><time>2026-03-22T10:08:31Z</time></trkpt><trkpt lat="45.44183122868485" lon="10.531940794538185"><ele>109.0</ele><time>2026-03-22T10:08:33Z</time></trkpt><trkpt lat="45.44191737165518" lon="10.531915336180102"><ele>109.00000000000001</ele><time>2026-03-22T10:08:35Z</time></trkpt><trkpt lat="45.44200570388359" lon="10.531887176410226"><ele>109.0</ele><time>2026-03-22T10:08:37Z</time></trkpt><trkpt lat="45.44209987452676" lon="10.531868313976778"><ele>109.4</ele><time>2026-03-22T10:08:39Z</time></trkpt><trkpt lat="45.44218818246251" lon="10.53183938837423"><ele>109.80000000000001</ele><time>2026-03-22T10:08:41Z</time></trkpt><trkpt lat="45.44228053464188" lon="10.531817787620795"><ele>110.19999999999999</ele><time>2026-03-22T10:08:43Z</time></trkpt><trkpt lat="45.44237342287758" lon="10.53179753749925"><ele>110.6</ele><time>2026-03-22T10:08:45Z</time></trkpt><trkpt lat="45.442461011114816" lon="10.53177328668903"><ele>111.0</ele><time>2026-03-22T10:08:47Z</time></trkpt><trkpt lat="45.442550413531485" lon="10.531757905604389"><ele>111.0</ele><time>2026-03-22T10:08:49Z</time></trkpt><trkpt lat="45.442637056302445" lon="10.531733016643864"><ele>111.0</ele><time>2026-03-22T10:08:51Z</time></trkpt><trkpt lat="45.442721291735715" lon="10.531704304221423"><ele>111.0</ele><time>2026-03-22T10:08:53Z</time></trkpt><trkpt lat="45.44280475058899" lon="10.531677592095097"><ele>111.0</ele><time>2026-03-22T10:08:55Z</time></trkpt><trkpt lat="45.44288534943278" lon="10.531653009146494"><ele>111.0</ele><time>2026-03-22T10:08:57Z</time></trkpt><trkpt lat="45.442965273551614" lon="10.531641536402766"><ele>111.0</ele><time>2026-03-22T10:08:59Z</time></trkpt><trkpt lat="45.44304778258702" lon="10.531630769616912"><ele>111.0</ele><time>2026-03-22T10:09:01Z</time></trkpt><trkpt lat="45.443134107216856" lon="10.531613237545463"><ele>111.0</ele><time>2026-03-22T10:09:03Z</time></trkpt><trkpt lat="45.44321825790046" lon="10.53159007938813"><ele>111.0</ele><time>2026-03-22T10:09:05Z</time></trkpt><trkpt lat="45.443302648159275" lon="10.531574355086113"><ele>111.0</ele><time>2026-03-22T10:09:07Z</time></trkpt><trkpt lat="45.44338893894394" lon="10.531558350346398"><ele>111.0</ele><time>2026-03-22T10:09:09Z</time></trkpt><trkpt lat="45.443477366740225" lon="10.531538288412245"><ele>111.0</ele><time>2026-03-22T10:09:11Z</time></trkpt><trkpt lat="45.44356554460236" lon="10.531516193362084"><ele>111.0</ele><time>2026-03-22T10:09:13Z</time></trkpt><trkpt lat="45.44365712643783" lon="10.531497898186835"><ele>111.0</ele><time>2026-03-22T10:09:15Z</time></trkpt><trkpt lat="45.44374965035795" lon="10.531475847155114"><ele>111.0</ele><time>2026-03-22T10:09:17Z</time></trkpt><trkpt lat="45.44384368738878" lon="10.531470759726595"><ele>111.0</ele><time>2026-03-22T10:09:19Z</time></trkpt><trkpt lat="45.44393539449034" lon="10.531461611729872"><ele>111.0</ele><time>2026-03-22T10:09:21Z</time></trkpt><trkpt lat="45.444025107051594" lon="10.531438489738413"><ele>110.8</ele><time>2026-03-22T10:09:23Z</time></trkpt><trkpt lat="45.44412069480305" lon="10.53143834842537"><ele>110.6</ele><time>2026-03-22T10:09:25Z</time></trkpt><trkpt lat="45.44421951781008" lon="10.531440828953905"><ele>110.4</ele><time>2026-03-22T10:09:27Z</time></trkpt><trkpt lat="45.44431953604237" lon="10.531437627800994"><ele>110.2</ele><time>2026-03-22T10:09:29Z</time></trkpt><trkpt lat="45.444417943734685" lon="10.531423068302464"><ele>110.0</ele><time>2026-03-22T10:09:31Z</time></trkpt><trkpt lat="45.44452013865078" lon="10.53141453856121"><ele>110.0</ele><time>2026-03-22T10:09:33Z</time></trkpt><trkpt lat="45.44462259722581" lon="10.531406021935895"><ele>110.0</ele><time>2026-03-22T10:09:35Z</time></trkpt><trkpt lat="45.44472046881209" lon="10.531401214327854"><ele>110.0</ele><time>2026-03-22T10:09:37Z</time></trkpt><trkpt lat="45.444818509211665" lon="10.5313926086193"><ele>110.0</ele><time>2026-03-22T10:09:39Z</time></trkpt><trkpt lat="45.444914179307155" lon="10.531391654328775"><ele>110.0</ele><time>2026-03-22T10:09:41Z</time></trkpt><trkpt lat="45.445009902823216" lon="10.531397548598427"><ele>110.0</ele><time>2026-03-22T10:09:43Z</time></trkpt><trkpt lat="45.445105578946766" lon="10.531404323369904"><ele>110.0</ele><time>2026-03-22T10:09:45Z</time></trkpt><trkpt lat="45.44520203352696" lon="10.531395584371285"><ele>110.0</ele><time>2026-03-22T10:09:47Z</time></trkpt><trkpt lat="45.44530086146626" lon="10.531399476189812"><ele>110.0</ele><time>2026-03-22T10:09:49Z</time></trkpt><trkpt lat="45.44539583371586" lon="10.531398310279725"><ele>110.0</ele><time>2026-03-22T10:09:51Z</time></trkpt><trkpt lat="45.44549383510556" lon="10.53140231681818"><ele>110.49999999999999</ele><time>2026-03-22T10:09:53Z</time></trkpt><trkpt lat="45.445573546081626" lon="10.531378750193813"><ele>111.0</ele><time>2026-03-22T10:09:55Z</time></trkpt><trkpt lat="45.44565023816394" lon="10.531341556355208"><ele>111.5</ele><time>2026-03-22T10:09:57Z</time></trkpt><trkpt lat="45.445734189037616" lon="10.53131951993552"><ele>112.0</ele><time>2026-03-22T10:09:59Z</time></trkpt><trkpt lat="45.44582017681087" lon="10.531301592089674"><ele>112.49999999999999</ele><time>2026-03-22T10:10:01Z</time></trkpt><trkpt lat="45.44590957999539" lon="10.531293739084044"><ele>113.0</ele><time>2026-03-22T10:10:03Z</time></trkpt><trkpt lat="45.44598584392545" lon="10.531284454053004"><ele>112.99999999999999</ele><time>2026-03-22T10:10:05Z</time></trkpt><trkpt lat="45.44604852208402" lon="10.531270982231474"><ele>113.0</ele><time>2026-03-22T10:10:07Z</time></trkpt><trkpt lat="45.446136999008665" lon="10.53124711653907"><ele>113.0</ele><time>2026-03-22T10:10:10Z</time></trkpt><trkpt lat="45.446208623721844" lon="10.531220473420877"><ele>113.0</ele><time>2026-03-22T10:10:13Z</time></trkpt><trkpt lat="45.44628792645935" lon="10.5312066509189"><ele>112.99999999999999</ele><time>2026-03-22T10:10:16Z</time></trkpt><trkpt lat="45.446369798162095" lon="10.531206641394157"><ele>113.0</ele><time>2026-03-22T10:10:19Z</time></trkpt><trkpt lat="45.4464587652618" lon="10.531188772974376"><ele>112.99999999999999</ele><time>2026-03-22T10:10:22Z</time></trkpt><trkpt lat="45.44652249269171" lon="10.531160640864776"><ele>113.0</ele><time>2026-03-22T10:10:24Z</time></trkpt><trkpt lat="45.44658638688789" lon="10.531150774875455"><ele>113.0</ele><time>2026-03-22T10:10:26Z</time></trkpt><trkpt lat="45.446649467675826" lon="10.531138276736906"><ele>113.0</ele><time>2026-03-22T10:10:28Z</time></trkpt><trkpt lat="45.4467426956927" lon="10.53111840915875"><ele>112.99999999999999</ele><time>2026-03-22T10:10:31Z</time></trkpt><trkpt lat="45.44683253272101" lon="10.531102736309544"><ele>113.0</ele><time>2026-03-22T10:10:34Z</time></trkpt><trkpt lat="45.446920937272886" lon="10.531079477426442"><ele>112.99999999999999</ele><time>2026-03-22T10:10:37Z</time></trkpt><trkpt lat="45.44701102653531" lon="10.531055678304586"><ele>113.0</ele><time>2026-03-22T10:10:40Z</time></trkpt><trkpt lat="45.44710487268948" lon="10.53104793078615"><ele>113.0</ele><time>2026-03-22T10:10:43Z</time></trkpt><trkpt lat="45.44717018589167" lon="10.531039375819722"><ele>113.0</ele><time>2026-03-22T10:10:45Z</time></trkpt><trkpt lat="45.447237057400265" lon="10.531032861003046"><ele>112.99999999999999</ele><time>2026-03-22T10:10:47Z</time></trkpt><trkpt lat="45.4473082443296" lon="10.531036629926906"><ele>113.0</ele><time>2026-03-22T10:10:49Z</time></trkpt><trkpt lat="45.44740155029777" lon="10.531059588820249"><ele>113.28571428571429</ele><time>2026-03-22T10:10:52Z</time></trkpt><trkpt lat="45.44749144298335" lon="10.531096067862762"><ele>113.57142857142856</ele><time>2026-03-22T10:10:55Z</time></trkpt><trkpt lat="45.44755517013828" lon="10.531122982719978"><ele>113.85714285714285</ele><time>2026-03-22T10:10:57Z</time></trkpt><trkpt lat="45.447619098426635" lon="10.531157274698591"><ele>114.14285714285714</ele><time>2026-03-22T10:10:59Z</time></trkpt><trkpt lat="45.447681935200976" lon="10.531198268938887"><ele>114.42857142857142</ele><time>2026-03-22T10:11:01Z</time></trkpt><trkpt lat="45.447744612023364" lon="10.531236714625349"><ele>114.7142857142857</ele><time>2026-03-22T10:11:03Z</time></trkpt><trkpt lat="45.44780927200397" lon="10.531271874722147"><ele>114.99999999999999</ele><time>2026-03-22T10:11:05Z</time></trkpt><trkpt lat="45.447877126112736" lon="10.531306859485019"><ele>114.99999999999999</ele><time>2026-03-22T10:11:07Z</time></trkpt><trkpt lat="45.44793693722723" lon="10.531345726525249"><ele>115.0</ele><time>2026-03-22T10:11:09Z</time></trkpt><trkpt lat="45.448002574081706" lon="10.53137373855712"><ele>114.99999999999999</ele><time>2026-03-22T10:11:11Z</time></trkpt><trkpt lat="45.44806758380381" lon="10.53141228358241"><ele>114.99999999999999</ele><time>2026-03-22T10:11:13Z</time></trkpt><trkpt lat="45.44814202611166" lon="10.531450564770786"><ele>115.0</ele><time>2026-03-22T10:11:15Z</time></trkpt><trkpt lat="45.44821909454845" lon="10.531485527295896"><ele>114.99999999999999</ele><time>2026-03-22T10:11:17Z</time></trkpt><trkpt lat="45.448296494484296" lon="10.531526060518532"><ele>114.99999999999999</ele><time>2026-03-22T10:11:19Z</time></trkpt><trkpt lat="45.44837876027064" lon="10.531563259179944"><ele>115.2</ele><time>2026-03-22T10:11:21Z</time></trkpt><trkpt lat="45.448459204015414" lon="10.531590619951757"><ele>115.4</ele><time>2026-03-22T10:11:23Z</time></trkpt><trkpt lat="45.448539377758905" lon="10.531635121110373"><ele>115.6</ele><time>2026-03-22T10:11:25Z</time></trkpt><trkpt lat="45.44862924199388" lon="10.53166978378691"><ele>115.8</ele><time>2026-03-22T10:11:27Z</time></trkpt><trkpt lat="45.44871607947227" lon="10.531707325444975"><ele>116.0</ele><time>2026-03-22T10:11:29Z</time></trkpt><trkpt lat="45.4488109582468" lon="10.531749903277785"><ele>116.0</ele><time>2026-03-22T10:11:31Z</time></trkpt><trkpt lat="45.44890459058435" lon="10.531787907889058"><ele>116.0</ele><time>2026-03-22T10:11:33Z</time></trkpt><trkpt lat="45.448995371595146" lon="10.531827446946975"><ele>116.0</ele><time>2026-03-22T10:11:35Z</time></trkpt><trkpt lat="45.44909253863892" lon="10.531873576296965"><ele>116.0</ele><time>2026-03-22T10:11:37Z</time></trkpt><trkpt lat="45.44918883452379" lon="10.531925481143565"><ele>116.0</ele><time>2026-03-22T10:11:39Z</time></trkpt><trkpt lat="45.44929347479976" lon="10.531974108367738"><ele>116.0</ele><time>2026-03-22T10:11:41Z</time></trkpt><trkpt lat="45.44936571323304" lon="10.53192863589777"><ele>116.0</ele><time>2026-03-22T10:11:43Z</time></trkpt><trkpt lat="45.44933611657953" lon="10.531794600158142"><ele>116.0</ele><time>2026-03-22T10:11:45Z</time></trkpt><trkpt lat="45.4492264126642" lon="10.531744817642831"><ele>116.0</ele><time>2026-03-22T10:11:47Z</time></trkpt><trkpt lat="45.44912005969171" lon="10.531698691150904"><ele>116.0</ele><time>2026-03-22T10:11:49Z</time></trkpt><trkpt lat="45.449023957553806" lon="10.531635767792094"><ele>116.0</ele><time>2026-03-22T10:11:51Z</time></trkpt><trkpt lat="45.44892136455672" lon="10.53158782698059"><ele>116.0</ele><time>2026-03-22T10:11:53Z</time></trkpt><trkpt lat="45.44882141736066" lon="10.531535072632602"><ele>116.0</ele><time>2026-03-22T10:11:55Z</time></trkpt><trkpt lat="45.44876223240621" lon="10.531453894871046"><ele>116.0</ele><time>2026-03-22T10:11:57Z</time></trkpt><trkpt lat="45.44880334630695" lon="10.531334735285233"><ele>116.0</ele><time>2026-03-22T10:11:59Z</time></trkpt><trkpt lat="45.44889015170974" lon="10.53130226436576"><ele>116.0</ele><time>2026-03-22T10:12:01Z</time></trkpt><trkpt lat="45.448980528016044" lon="10.531271041679062"><ele>116.0</ele><time>2026-03-22T10:12:03Z</time></trkpt><trkpt lat="45.44907429316992" lon="10.531233641213989"><ele>116.0</ele><time>2026-03-22T10:12:05Z</time></trkpt><trkpt lat="45.4491716527803" lon="10.531191992864283"><ele>116.0</ele><time>2026-03-22T10:12:07Z</time></trkpt><trkpt lat="45.449268493819204" lon="10.531150587038253"><ele>116.0</ele><time>2026-03-22T10:12:09Z</time></trkpt><trkpt lat="45.44936553815015" lon="10.531093182661508"><ele>115.8</ele><time>2026-03-22T10:12:11Z</time></trkpt><trkpt lat="45.449466101233774" lon="10.531044650380574"><ele>115.6</ele><time>2026-03-22T10:12:13Z</time></trkpt><trkpt lat="45.44956839009959" lon="10.531002165030458"><ele>115.4</ele><time>2026-03-22T10:12:15Z</time></trkpt><trkpt lat="45.449669476433634" lon="10.53095029128269"><ele>115.2</ele><time>2026-03-22T10:12:17Z</time></trkpt><trkpt lat="45.44976493125935" lon="10.530899268600285"><ele>115.0</ele><time>2026-03-22T10:12:19Z</time></trkpt><trkpt lat="45.44986281263152" lon="10.530854532886933"><ele>115.4</ele><time>2026-03-22T10:12:21Z</time></trkpt><trkpt lat="45.44996278316768" lon="10.530793464891167"><ele>115.8</ele><time>2026-03-22T10:12:23Z</time></trkpt><trkpt lat="45.45006798015915" lon="10.530736101762935"><ele>116.19999999999999</ele><time>2026-03-22T10:12:25Z</time></trkpt><trkpt lat="45.45016760789425" lon="10.530675001824282"><ele>116.6</ele><time>2026-03-22T10:12:27Z</time></trkpt><trkpt lat="45.450266671606904" lon="10.53060903971527"><ele>117.0</ele><time>2026-03-22T10:12:29Z</time></trkpt><trkpt lat="45.45036744340246" lon="10.530538951231295"><ele>117.25</ele><time>2026-03-22T10:12:31Z</time></trkpt><trkpt lat="45.450471204814065" lon="10.530470126954249"><ele>117.5</ele><time>2026-03-22T10:12:33Z</time></trkpt><trkpt lat="45.45057224302618" lon="10.530399253489533"><ele>117.75</ele><time>2026-03-22T10:12:35Z</time></trkpt><trkpt lat="45.45067884077241" lon="10.530337215283586"><ele>118.0</ele><time>2026-03-22T10:12:37Z</time></trkpt><trkpt lat="45.45078649846325" lon="10.530280854575189"><ele>118.0</ele><time>2026-03-22T10:12:39Z</time></trkpt><trkpt lat="45.45089175623171" lon="10.530211708436756"><ele>118.0</ele><time>2026-03-22T10:12:41Z</time></trkpt><trkpt lat="45.45099447378914" lon="10.530143378896335"><ele>118.0</ele><time>2026-03-22T10:12:43Z</time></trkpt><trkpt lat="45.45109681059833" lon="10.530077504497559"><ele>118.0</ele><time>2026-03-22T10:12:45Z</time></trkpt><trkpt lat="45.451196115087846" lon="10.53000677188882"><ele>118.0</ele><time>2026-03-22T10:12:47Z</time></trkpt><trkpt lat="45.45128698970903" lon="10.529917633632815"><ele>118.00000000000001</ele><time>2026-03-22T10:12:49Z</time></trkpt><trkpt lat="45.45138289489945" lon="10.529835271138007"><ele>118.00000000000001</ele><time>2026-03-22T10:12:51Z</time></trkpt><trkpt lat="45.45147899094134" lon="10.52974984879128"><ele>118.0</ele><time>2026-03-22T10:12:53Z</time></trkpt><trkpt lat="45.45157129445092" lon="10.52966875877237"><ele>118.0</ele><time>2026-03-22T10:12:55Z</time></trkpt><trkpt lat="45.451659539161746" lon="10.529584001726331"><ele>117.4</ele><time>2026-03-22T10:12:57Z</time></trkpt><trkpt lat="45.45175009327616" lon="10.529506017778063"><ele>116.80000000000001</ele><time>2026-03-22T10:12:59Z</time></trkpt><trkpt lat="45.45184337906992" lon="10.529428551919468"><ele>116.2</ele><time>2026-03-22T10:13:01Z</time></trkpt><trkpt lat="45.45193490637332" lon="10.529350095519773"><ele>115.6</ele><time>2026-03-22T10:13:03Z</time></trkpt><trkpt lat="45.452024881600764" lon="10.529277654098633"><ele>115.0</ele><time>2026-03-22T10:13:05Z</time></trkpt><trkpt lat="45.45211443106998" lon="10.529208282837017"><ele>114.4</ele><time>2026-03-22T10:13:07Z</time></trkpt><trkpt lat="45.45220664150599" lon="10.529143185944264"><ele>113.8</ele><time>2026-03-22T10:13:09Z</time></trkpt><trkpt lat="45.45229860172006" lon="10.529080753674092"><ele>113.19999999999999</ele><time>2026-03-22T10:13:11Z</time></trkpt><trkpt lat="45.452389308426696" lon="10.529018498009096"><ele>112.6</ele><time>2026-03-22T10:13:13Z</time></trkpt><trkpt lat="45.4524756012827" lon="10.528954126467367"><ele>112.0</ele><time>2026-03-22T10:13:15Z</time></trkpt><trkpt lat="45.452569175462166" lon="10.5289087439715"><ele>112.0</ele><time>2026-03-22T10:13:17Z</time></trkpt><trkpt lat="45.45266325071244" lon="10.528867770011434"><ele>111.99999999999999</ele><time>2026-03-22T10:13:19Z</time></trkpt><trkpt lat="45.45275447609234" lon="10.528818791014432"><ele>111.99999999999999</ele><time>2026-03-22T10:13:21Z</time></trkpt><trkpt lat="45.452846890022855" lon="10.528777307520661"><ele>112.0</ele><time>2026-03-22T10:13:23Z</time></trkpt><trkpt lat="45.45294240505858" lon="10.528739279782236"><ele>112.0</ele><time>2026-03-22T10:13:25Z</time></trkpt><trkpt lat="45.45303841915624" lon="10.528690063883962"><ele>113.50000000000001</ele><time>2026-03-22T10:13:27Z</time></trkpt><trkpt lat="45.453133772052134" lon="10.528642675012568"><ele>115.0</ele><time>2026-03-22T10:13:29Z</time></trkpt><trkpt lat="45.453226913594186" lon="10.528611940278255"><ele>116.5</ele><time>2026-03-22T10:13:31Z</time></trkpt><trkpt lat="45.453312582390815" lon="10.528572541291823"><ele>118.0</ele><time>2026-03-22T10:13:33Z</time></trkpt><trkpt lat="45.45338657251483" lon="10.52853389168819"><ele>119.50000000000001</ele><time>2026-03-22T10:13:35Z</time></trkpt><trkpt lat="45.45345213818353" lon="10.528504319499085"><ele>121.0</ele><time>2026-03-22T10:13:37Z</time></trkpt><trkpt lat="45.45351983620633" lon="10.5284848194232"><ele>121.00000000000001</ele><time>2026-03-22T10:13:40Z</time></trkpt><trkpt lat="45.45359191494974" lon="10.528491411457276"><ele>121.0</ele><time>2026-03-22T10:13:44Z</time></trkpt><trkpt lat="45.453656238156846" lon="10.528500935607346"><ele>121.0</ele><time>2026-03-22T10:13:46Z</time></trkpt><trkpt lat="45.4537317332687" lon="10.528480915133354"><ele>121.0</ele><time>2026-03-22T10:13:48Z</time></trkpt><trkpt lat="45.45381611911024" lon="10.528455043058377"><ele>121.00000000000001</ele><time>2026-03-22T10:13:50Z</time></trkpt><trkpt lat="45.45390325493863" lon="10.528437526456255"><ele>121.0</ele><time>2026-03-22T10:13:52Z</time></trkpt><trkpt lat="45.45399311484617" lon="10.528406407423539"><ele>121.19999999999999</ele><time>2026-03-22T10:13:54Z</time></trkpt><trkpt lat="45.45407801348802" lon="10.528359140377699"><ele>121.39999999999999</ele><time>2026-03-22T10:13:56Z</time></trkpt><trkpt lat="45.45416351687133" lon="10.528324699587712"><ele>121.6</ele><time>2026-03-22T10:13:58Z</time></trkpt><trkpt lat="45.45425432117545" lon="10.528276284632271"><ele>121.8</ele><time>2026-03-22T10:14:00Z</time></trkpt><trkpt lat="45.45433979624191" lon="10.528217495573232"><ele>122.0</ele><time>2026-03-22T10:14:02Z</time></trkpt><trkpt lat="45.45442995976537" lon="10.52817740764696"><ele>122.0</ele><time>2026-03-22T10:14:04Z</time></trkpt><trkpt lat="45.454520057127525" lon="10.528158251367849"><ele>121.99999999999999</ele><time>2026-03-22T10:14:06Z</time></trkpt><trkpt lat="45.45461315379418" lon="10.52811728692708"><ele>121.99999999999999</ele><time>2026-03-22T10:14:08Z</time></trkpt><trkpt lat="45.45470103771901" lon="10.528066641868348"><ele>122.0</ele><time>2026-03-22T10:14:10Z</time></trkpt><trkpt lat="45.454798943164825" lon="10.528029961110308"><ele>122.0</ele><time>2026-03-22T10:14:12Z</time></trkpt><trkpt lat="45.454901618217576" lon="10.528014980355461"><ele>121.0</ele><time>2026-03-22T10:14:14Z</time></trkpt><trkpt lat="45.45500609782218" lon="10.527990698668702"><ele>119.99999999999999</ele><time>2026-03-22T10:14:16Z</time></trkpt><trkpt lat="45.455106618194996" lon="10.527963612089232"><ele>118.99999999999999</ele><time>2026-03-22T10:14:18Z</time></trkpt><trkpt lat="45.455197449143945" lon="10.527931684349843"><ele>118.0</ele><time>2026-03-22T10:14:20Z</time></trkpt><trkpt lat="45.45528522549495" lon="10.527879933151402"><ele>117.0</ele><time>2026-03-22T10:14:22Z</time></trkpt><trkpt lat="45.45535777817676" lon="10.527790142899603"><ele>117.0</ele><time>2026-03-22T10:14:24Z</time></trkpt><trkpt lat="45.45542004766422" lon="10.527680938771722"><ele>116.99999999999999</ele><time>2026-03-22T10:14:26Z</time></trkpt><trkpt lat="45.455482875128595" lon="10.527577059684537"><ele>116.99999999999999</ele><time>2026-03-22T10:14:28Z</time></trkpt><trkpt lat="45.45554360894587" lon="10.527479270851261"><ele>117.0</ele><time>2026-03-22T10:14:30Z</time></trkpt><trkpt lat="45.45561364414167" lon="10.527396177834595"><ele>117.0</ele><time>2026-03-22T10:14:32Z</time></trkpt><trkpt lat="45.455692519184716" lon="10.527322560955492"><ele>116.19999999999999</ele><time>2026-03-22T10:14:34Z</time></trkpt><trkpt lat="45.4557783638117" lon="10.527251520796026"><ele>115.39999999999999</ele><time>2026-03-22T10:14:36Z</time></trkpt><trkpt lat="45.455884633731706" lon="10.527164240651729"><ele>114.60000000000001</ele><time>2026-03-22T10:14:38Z</time></trkpt><trkpt lat="45.455942619857396" lon="10.527105331708363"><ele>113.80000000000001</ele><time>2026-03-22T10:14:39Z</time></trkpt><trkpt lat="45.45601145948585" lon="10.527054411703254"><ele>113.0</ele><time>2026-03-22T10:14:40Z</time></trkpt><trkpt lat="45.45608432340281" lon="10.52700800726187"><ele>112.99999999999999</ele><time>2026-03-22T10:14:41Z</time></trkpt><trkpt lat="45.45617113344207" lon="10.526979917109301"><ele>113.0</ele><time>2026-03-22T10:14:42Z</time></trkpt><trkpt lat="45.45624762004395" lon="10.526930328195757"><ele>113.0</ele><time>2026-03-22T10:14:43Z</time></trkpt><trkpt lat="45.456318873516494" lon="10.526863062146909"><ele>113.0</ele><time>2026-03-22T10:14:44Z</time></trkpt><trkpt lat="45.45639046692747" lon="10.52679798529552"><ele>112.99999999999999</ele><time>2026-03-22T10:14:45Z</time></trkpt><trkpt lat="45.45645967595672" lon="10.526731891073982"><ele>113.0</ele><time>2026-03-22T10:14:46Z</time></trkpt><trkpt lat="45.45652884016232" lon="10.526658719324702"><ele>112.16666666666666</ele><time>2026-03-22T10:14:47Z</time></trkpt><trkpt lat="45.45659368254329" lon="10.526583265886448"><ele>111.33333333333333</ele><time>2026-03-22T10:14:48Z</time></trkpt><trkpt lat="45.45665759403214" lon="10.52650816710398"><ele>110.5</ele><time>2026-03-22T10:14:49Z</time></trkpt><trkpt lat="45.45671839863015" lon="10.526434535130546"><ele>109.66666666666666</ele><time>2026-03-22T10:14:50Z</time></trkpt><trkpt lat="45.456774334932476" lon="10.526361466787174"><ele>108.83333333333333</ele><time>2026-03-22T10:14:51Z</time></trkpt><trkpt lat="45.45683352832895" lon="10.526296502292315"><ele>108.0</ele><time>2026-03-22T10:14:52Z</time></trkpt><trkpt lat="45.45689621390941" lon="10.526240552268504"><ele>109.2</ele><time>2026-03-22T10:14:53Z</time></trkpt><trkpt lat="45.45694944382276" lon="10.526180938059378"><ele>110.4</ele><time>2026-03-22T10:14:54Z</time></trkpt><trkpt lat="45.456997830248234" lon="10.526108705406132"><ele>111.60000000000001</ele><time>2026-03-22T10:14:55Z</time></trkpt><trkpt lat="45.45708211240104" lon="10.525976725907114"><ele>112.80000000000001</ele><time>2026-03-22T10:14:57Z</time></trkpt><trkpt lat="45.45714277096846" lon="10.52584066097446"><ele>114.0</ele><time>2026-03-22T10:14:59Z</time></trkpt><trkpt lat="45.45719762346122" lon="10.525728296993913"><ele>114.0</ele><time>2026-03-22T10:15:01Z</time></trkpt><trkpt lat="45.45724354717658" lon="10.525598224374402"><ele>114.0</ele><time>2026-03-22T10:15:03Z</time></trkpt><trkpt lat="45.45729577365937" lon="10.52549342792725"><ele>114.0</ele><time>2026-03-22T10:15:05Z</time></trkpt><trkpt lat="45.45735093034137" lon="10.52537867558169"><ele>114.0</ele><time>2026-03-22T10:15:07Z</time></trkpt><trkpt lat="45.45741588599017" lon="10.525261046427541"><ele>114.0</ele><time>2026-03-22T10:15:09Z</time></trkpt><trkpt lat="45.45747472144726" lon="10.52513809164363"><ele>115.0</ele><time>2026-03-22T10:15:11Z</time></trkpt><trkpt lat="45.457540002531495" lon="10.52501630299179"><ele>116.0</ele><time>2026-03-22T10:15:13Z</time></trkpt><trkpt lat="45.457607548100576" lon="10.5249029252584"><ele>117.0</ele><time>2026-03-22T10:15:15Z</time></trkpt><trkpt lat="45.45768096777053" lon="10.524786999392047"><ele>118.0</ele><time>2026-03-22T10:15:17Z</time></trkpt><trkpt lat="45.457755892455296" lon="10.524694180694908"><ele>119.0</ele><time>2026-03-22T10:15:19Z</time></trkpt><trkpt lat="45.457805533756854" lon="10.524602114090513"><ele>119.0</ele><time>2026-03-22T10:15:21Z</time></trkpt><trkpt lat="45.45781079871722" lon="10.524507606824429"><ele>119.0</ele><time>2026-03-22T10:15:23Z</time></trkpt><trkpt lat="45.45780742656538" lon="10.524411959031296"><ele>119.0</ele><time>2026-03-22T10:15:25Z</time></trkpt><trkpt lat="45.457801949978744" lon="10.524313580769796"><ele>119.0</ele><time>2026-03-22T10:15:27Z</time></trkpt><trkpt lat="45.45782322921068" lon="10.52422577906678"><ele>119.0</ele><time>2026-03-22T10:15:29Z</time></trkpt><trkpt lat="45.45790707583943" lon="10.524210856335612"><ele>119.0</ele><time>2026-03-22T10:15:31Z</time></trkpt><trkpt lat="45.457990498936944" lon="10.524250074898893"><ele>119.0</ele><time>2026-03-22T10:15:33Z</time></trkpt><trkpt lat="45.458067634553686" lon="10.524286527612283"><ele>118.80000000000001</ele><time>2026-03-22T10:15:35Z</time></trkpt><trkpt lat="45.458144795423266" lon="10.524322165514953"><ele>118.60000000000001</ele><time>2026-03-22T10:15:37Z</time></trkpt><trkpt lat="45.458222608200025" lon="10.5243790272341"><ele>118.4</ele><time>2026-03-22T10:15:39Z</time></trkpt><trkpt lat="45.458302905074056" lon="10.524438535479975"><ele>118.2</ele><time>2026-03-22T10:15:41Z</time></trkpt><trkpt lat="45.458391597954154" lon="10.524500238557678"><ele>118.0</ele><time>2026-03-22T10:15:43Z</time></trkpt><trkpt lat="45.45849207715687" lon="10.524552596447823"><ele>117.80000000000001</ele><time>2026-03-22T10:15:45Z</time></trkpt><trkpt lat="45.45859332428259" lon="10.524610506684297"><ele>117.60000000000001</ele><time>2026-03-22T10:15:47Z</time></trkpt><trkpt lat="45.45869952441942" lon="10.52465754823361"><ele>117.39999999999999</ele><time>2026-03-22T10:15:49Z</time></trkpt><trkpt lat="45.45880389770897" lon="10.524702415355074"><ele>117.19999999999999</ele><time>2026-03-22T10:15:51Z</time></trkpt><trkpt lat="45.458911485013076" lon="10.52474324747241"><ele>117.0</ele><time>2026-03-22T10:15:53Z</time></trkpt><trkpt lat="45.45902187138743" lon="10.524778465192275"><ele>117.0</ele><time>2026-03-22T10:15:55Z</time></trkpt><trkpt lat="45.45913866522236" lon="10.524808453089902"><ele>116.99999999999999</ele><time>2026-03-22T10:15:57Z</time></trkpt><trkpt lat="45.459257654066185" lon="10.52483728752819"><ele>116.99999999999999</ele><time>2026-03-22T10:15:59Z</time></trkpt><trkpt lat="45.459380836804755" lon="10.524854057155212"><ele>117.0</ele><time>2026-03-22T10:16:01Z</time></trkpt><trkpt lat="45.45944368577653" lon="10.524860902907745"><ele>117.0</ele><time>2026-03-22T10:16:02Z</time></trkpt><trkpt lat="45.45950830264355" lon="10.524873403169327"><ele>117.0</ele><time>2026-03-22T10:16:03Z</time></trkpt><trkpt lat="45.45957238810682" lon="10.524884599622263"><ele>117.00000000000001</ele><time>2026-03-22T10:16:04Z</time></trkpt><trkpt lat="45.459637325232954" lon="10.524889764798761"><ele>117.0</ele><time>2026-03-22T10:16:05Z</time></trkpt><trkpt lat="45.45970239118333" lon="10.524898183062579"><ele>117.0</ele><time>2026-03-22T10:16:06Z</time></trkpt><trkpt lat="45.45976679157841" lon="10.524904444421042"><ele>117.00000000000001</ele><time>2026-03-22T10:16:07Z</time></trkpt><trkpt lat="45.45983147006482" lon="10.52491217837935"><ele>117.0</ele><time>2026-03-22T10:16:08Z</time></trkpt><trkpt lat="45.459897289310675" lon="10.524919352003273"><ele>117.0</ele><time>2026-03-22T10:16:09Z</time></trkpt><trkpt lat="45.45996580915046" lon="10.5249345798824"><ele>116.71428571428572</ele><time>2026-03-22T10:16:10Z</time></trkpt><trkpt lat="45.460034857476714" lon="10.524946523571815"><ele>116.42857142857144</ele><time>2026-03-22T10:16:11Z</time></trkpt><trkpt lat="45.460105959286075" lon="10.524959018577599"><ele>116.14285714285714</ele><time>2026-03-22T10:16:12Z</time></trkpt><trkpt lat="45.460180827075035" lon="10.524974889953588"><ele>115.85714285714286</ele><time>2026-03-22T10:16:13Z</time></trkpt><trkpt lat="45.46025313233125" lon="10.524987775442575"><ele>115.57142857142857</ele><time>2026-03-22T10:16:14Z</time></trkpt><trkpt lat="45.4603248386228" lon="10.525002918129168"><ele>115.28571428571428</ele><time>2026-03-22T10:16:15Z</time></trkpt><trkpt lat="45.46039450666891" lon="10.525020741147218"><ele>114.99999999999999</ele><time>2026-03-22T10:16:16Z</time></trkpt><trkpt lat="45.460463874612486" lon="10.525030839821264"><ele>115.00000000000001</ele><time>2026-03-22T10:16:17Z</time></trkpt><trkpt lat="45.46053243871693" lon="10.52503828864898"><ele>115.0</ele><time>2026-03-22T10:16:18Z</time></trkpt><trkpt lat="45.46059850542948" lon="10.525044840385224"><ele>115.0</ele><time>2026-03-22T10:16:19Z</time></trkpt><trkpt lat="45.46066538585224" lon="10.525054310532036"><ele>115.0</ele><time>2026-03-22T10:16:20Z</time></trkpt><trkpt lat="45.460731128163815" lon="10.52505739766942"><ele>115.00000000000001</ele><time>2026-03-22T10:16:21Z</time></trkpt><trkpt lat="45.460855492716846" lon="10.52507113473632"><ele>115.0</ele><time>2026-03-22T10:16:23Z</time></trkpt><trkpt lat="45.460981315953845" lon="10.525099679222148"><ele>115.00000000000001</ele><time>2026-03-22T10:16:25Z</time></trkpt><trkpt lat="45.46110269951972" lon="10.52514199492042"><ele>115.0</ele><time>2026-03-22T10:16:27Z</time></trkpt><trkpt lat="45.461164930386005" lon="10.525160068724603"><ele>115.0</ele><time>2026-03-22T10:16:28Z</time></trkpt><trkpt lat="45.46122955808367" lon="10.525174047388129"><ele>115.0</ele><time>2026-03-22T10:16:29Z</time></trkpt><trkpt lat="45.46129240861693" lon="10.525192944249378"><ele>115.00000000000001</ele><time>2026-03-22T10:16:30Z</time></trkpt><trkpt lat="45.46141240077012" lon="10.525248487704275"><ele>115.0</ele><time>2026-03-22T10:16:32Z</time></trkpt><trkpt lat="45.461470568224456" lon="10.52528651896262"><ele>114.66666666666667</ele><time>2026-03-22T10:16:33Z</time></trkpt><trkpt lat="45.461530070676815" lon="10.525318161581183"><ele>114.33333333333334</ele><time>2026-03-22T10:16:34Z</time></trkpt><trkpt lat="45.46159061570258" lon="10.525344065692058"><ele>114.0</ele><time>2026-03-22T10:16:35Z</time></trkpt><trkpt lat="45.46170555445358" lon="10.525404657912583"><ele>113.66666666666666</ele><time>2026-03-22T10:16:37Z</time></trkpt><trkpt lat="45.46182046145729" lon="10.525461791458786"><ele>113.33333333333333</ele><time>2026-03-22T10:16:39Z</time></trkpt><trkpt lat="45.46188049154305" lon="10.525494586475428"><ele>113.0</ele><time>2026-03-22T10:16:40Z</time></trkpt><trkpt lat="45.46194653568963" lon="10.52552302200615"><ele>111.66666666666666</ele><time>2026-03-22T10:16:41Z</time></trkpt><trkpt lat="45.46202137719205" lon="10.52554639227018"><ele>110.33333333333333</ele><time>2026-03-22T10:16:42Z</time></trkpt><trkpt lat="45.462101707267294" lon="10.525577333996718"><ele>109.0</ele><time>2026-03-22T10:16:43Z</time></trkpt><trkpt lat="45.46218399164502" lon="10.525615865353968"><ele>107.66666666666666</ele><time>2026-03-22T10:16:44Z</time></trkpt><trkpt lat="45.462256472832536" lon="10.52565060401647"><ele>106.33333333333333</ele><time>2026-03-22T10:16:45Z</time></trkpt><trkpt lat="45.462318621848894" lon="10.525704299686112"><ele>105.0</ele><time>2026-03-22T10:16:46Z</time></trkpt><trkpt lat="45.46236855387597" lon="10.525783351782692"><ele>105.0</ele><time>2026-03-22T10:16:47Z</time></trkpt><trkpt lat="45.46239384285364" lon="10.525881142015983"><ele>105.0</ele><time>2026-03-22T10:16:48Z</time></trkpt><trkpt lat="45.462386142643055" lon="10.525992357176401"><ele>105.0</ele><time>2026-03-22T10:16:49Z</time></trkpt><trkpt lat="45.462375155223" lon="10.526106365674693"><ele>105.0</ele><time>2026-03-22T10:16:50Z</time></trkpt><trkpt lat="45.4623870716572" lon="10.526221591577118"><ele>105.0</ele><time>2026-03-22T10:16:51Z</time></trkpt><trkpt lat="45.46241883089834" lon="10.526330953825834"><ele>105.0</ele><time>2026-03-22T10:16:52Z</time></trkpt><trkpt lat="45.46245714613345" lon="10.526427150379607"><ele>104.14285714285714</ele><time>2026-03-22T10:16:53Z</time></trkpt><trkpt lat="45.46250648839274" lon="10.526506093605166"><ele>103.28571428571428</ele><time>2026-03-22T10:16:54Z</time></trkpt><trkpt lat="45.46255354869464" lon="10.526582708571274"><ele>102.42857142857143</ele><time>2026-03-22T10:16:55Z</time></trkpt><trkpt lat="45.46259653992199" lon="10.526659806607324"><ele>101.57142857142857</ele><time>2026-03-22T10:16:56Z</time></trkpt><trkpt lat="45.46263818945335" lon="10.526736563939028"><ele>100.71428571428571</ele><time>2026-03-22T10:16:57Z</time></trkpt><trkpt lat="45.46267943310166" lon="10.526814777704043"><ele>99.85714285714286</ele><time>2026-03-22T10:16:58Z</time></trkpt><trkpt lat="45.46272556391523" lon="10.52689136490165"><ele>99.0</ele><time>2026-03-22T10:16:59Z</time></trkpt><trkpt lat="45.46277727309401" lon="10.526966020454182"><ele>99.0</ele><time>2026-03-22T10:17:00Z</time></trkpt><trkpt lat="45.46282581094755" lon="10.52705021690969"><ele>99.0</ele><time>2026-03-22T10:17:01Z</time></trkpt><trkpt lat="45.46286310723774" lon="10.5271509318652"><ele>99.0</ele><time>2026-03-22T10:17:02Z</time></trkpt><trkpt lat="45.46288132908955" lon="10.527265923007302"><ele>99.0</ele><time>2026-03-22T10:17:03Z</time></trkpt><trkpt lat="45.46288389298672" lon="10.527385577396833"><ele>99.0</ele><time>2026-03-22T10:17:04Z</time></trkpt><trkpt lat="45.462875322121974" lon="10.52749644625175"><ele>99.0</ele><time>2026-03-22T10:17:05Z</time></trkpt><trkpt lat="45.46290748949533" lon="10.527591133999383"><ele>98.0</ele><time>2026-03-22T10:17:06Z</time></trkpt><trkpt lat="45.46298664568424" lon="10.527645026010237"><ele>97.0</ele><time>2026-03-22T10:17:07Z</time></trkpt><trkpt lat="45.46306665310641" lon="10.527649317951468"><ele>96.0</ele><time>2026-03-22T10:17:08Z</time></trkpt><trkpt lat="45.46313926425154" lon="10.527647132201622"><ele>95.0</ele><time>2026-03-22T10:17:09Z</time></trkpt><trkpt lat="45.46325866270226" lon="10.527686236894416"><ele>94.0</ele><time>2026-03-22T10:17:11Z</time></trkpt><trkpt lat="45.46337466191507" lon="10.527713163799213"><ele>94.0</ele><time>2026-03-22T10:17:13Z</time></trkpt><trkpt lat="45.46348875444168" lon="10.527720556375375"><ele>94.0</ele><time>2026-03-22T10:17:15Z</time></trkpt><trkpt lat="45.46359781982019" lon="10.527749391175384"><ele>94.0</ele><time>2026-03-22T10:17:17Z</time></trkpt><trkpt lat="45.46371578166989" lon="10.527753086772673"><ele>94.0</ele><time>2026-03-22T10:17:19Z</time></trkpt><trkpt lat="45.463829620105" lon="10.527764666704856"><ele>94.5</ele><time>2026-03-22T10:17:21Z</time></trkpt><trkpt lat="45.46394421336865" lon="10.52778599966543"><ele>95.0</ele><time>2026-03-22T10:17:23Z</time></trkpt><trkpt lat="45.46405685710029" lon="10.52780266276697"><ele>95.5</ele><time>2026-03-22T10:17:25Z</time></trkpt><trkpt lat="45.464178785980906" lon="10.52782172168598"><ele>96.0</ele><time>2026-03-22T10:17:27Z</time></trkpt><trkpt lat="45.46429930491907" lon="10.527824507340188"><ele>96.0</ele><time>2026-03-22T10:17:29Z</time></trkpt><trkpt lat="45.46436287987668" lon="10.527835384092176"><ele>96.0</ele><time>2026-03-22T10:17:30Z</time></trkpt><trkpt lat="45.464484208185816" lon="10.527855019887863"><ele>96.0</ele><time>2026-03-22T10:17:32Z</time></trkpt><trkpt lat="45.46460175575052" lon="10.527866329951967"><ele>96.0</ele><time>2026-03-22T10:17:34Z</time></trkpt><trkpt lat="45.46472493784414" lon="10.527881975124997"><ele>96.0</ele><time>2026-03-22T10:17:36Z</time></trkpt><trkpt lat="45.46484487839966" lon="10.52790282111603"><ele>95.5</ele><time>2026-03-22T10:17:38Z</time></trkpt><trkpt lat="45.46496172276169" lon="10.52792904346784"><ele>95.0</ele><time>2026-03-22T10:17:40Z</time></trkpt><trkpt lat="45.46507502592996" lon="10.527944331929591"><ele>94.5</ele><time>2026-03-22T10:17:42Z</time></trkpt><trkpt lat="45.46518603273381" lon="10.527978863961652"><ele>94.0</ele><time>2026-03-22T10:17:44Z</time></trkpt><trkpt lat="45.465293178537095" lon="10.528037282456683"><ele>94.0</ele><time>2026-03-22T10:17:46Z</time></trkpt><trkpt lat="45.46540558104545" lon="10.528082072618457"><ele>94.0</ele><time>2026-03-22T10:17:48Z</time></trkpt><trkpt lat="45.46557431532545" lon="10.528112872158458"><ele>94.0</ele><time>2026-03-22T10:17:51Z</time></trkpt><trkpt lat="45.465681717477885" lon="10.528118967882902"><ele>94.0</ele><time>2026-03-22T10:17:53Z</time></trkpt><trkpt lat="45.46578556593685" lon="10.528142494453139"><ele>94.2</ele><time>2026-03-22T10:17:55Z</time></trkpt><trkpt lat="45.465889601129014" lon="10.528155289829481"><ele>94.4</ele><time>2026-03-22T10:17:57Z</time></trkpt><trkpt lat="45.46599911108148" lon="10.528186433377103"><ele>94.6</ele><time>2026-03-22T10:17:59Z</time></trkpt><trkpt lat="45.46611095989521" lon="10.52817113218987"><ele>94.8</ele><time>2026-03-22T10:18:01Z</time></trkpt><trkpt lat="45.466180722953325" lon="10.528035873684791"><ele>95.0</ele><time>2026-03-22T10:18:03Z</time></trkpt><trkpt lat="45.46622100728368" lon="10.527877579169369"><ele>95.2</ele><time>2026-03-22T10:18:05Z</time></trkpt><trkpt lat="45.4662674202722" lon="10.527727341321361"><ele>95.4</ele><time>2026-03-22T10:18:07Z</time></trkpt><trkpt lat="45.46628778959249" lon="10.52759279803394"><ele>95.6</ele><time>2026-03-22T10:18:09Z</time></trkpt><trkpt lat="45.46629599294549" lon="10.527448918363236"><ele>95.8</ele><time>2026-03-22T10:18:11Z</time></trkpt><trkpt lat="45.466291388544114" lon="10.527303816179913"><ele>96.0</ele><time>2026-03-22T10:18:13Z</time></trkpt><trkpt lat="45.46626691534994" lon="10.527167431283917"><ele>96.33333333333333</ele><time>2026-03-22T10:18:15Z</time></trkpt><trkpt lat="45.46622441428294" lon="10.527041780518143"><ele>96.66666666666666</ele><time>2026-03-22T10:18:17Z</time></trkpt><trkpt lat="45.46617800313536" lon="10.526937437305994"><ele>97.0</ele><time>2026-03-22T10:18:19Z</time></trkpt><trkpt lat="45.46614253525764" lon="10.526844957219536"><ele>97.33333333333333</ele><time>2026-03-22T10:18:21Z</time></trkpt><trkpt lat="45.46611697778853" lon="10.526751139805002"><ele>97.66666666666666</ele><time>2026-03-22T10:18:23Z</time></trkpt><trkpt lat="45.46610898833609" lon="10.526645857412582"><ele>98.0</ele><time>2026-03-22T10:18:25Z</time></trkpt><trkpt lat="45.46615433489182" lon="10.526536909210789"><ele>98.0</ele><time>2026-03-22T10:18:27Z</time></trkpt><trkpt lat="45.466183813125255" lon="10.526413730776474"><ele>98.0</ele><time>2026-03-22T10:18:29Z</time></trkpt><trkpt lat="45.4661496676308" lon="10.526274536219073"><ele>98.0</ele><time>2026-03-22T10:18:31Z</time></trkpt><trkpt lat="45.466083871574014" lon="10.52616326935157"><ele>98.0</ele><time>2026-03-22T10:18:33Z</time></trkpt><trkpt lat="45.46602130585645" lon="10.52604856669767"><ele>98.0</ele><time>2026-03-22T10:18:35Z</time></trkpt><trkpt lat="45.466054084863536" lon="10.525925024439314"><ele>98.16666666666666</ele><time>2026-03-22T10:18:37Z</time></trkpt><trkpt lat="45.46613081909784" lon="10.52598172993712"><ele>98.33333333333333</ele><time>2026-03-22T10:18:39Z</time></trkpt><trkpt lat="45.46617865953774" lon="10.52607408503924"><ele>98.5</ele><time>2026-03-22T10:18:41Z</time></trkpt><trkpt lat="45.46623769464504" lon="10.526169077489923"><ele>98.66666666666666</ele><time>2026-03-22T10:18:43Z</time></trkpt><trkpt lat="45.46629818346775" lon="10.526270466500902"><ele>98.83333333333333</ele><time>2026-03-22T10:18:45Z</time></trkpt><trkpt lat="45.4663623032889" lon="10.52637131717734"><ele>99.0</ele><time>2026-03-22T10:18:47Z</time></trkpt><trkpt lat="45.46642726436381" lon="10.526461430791924"><ele>100.2</ele><time>2026-03-22T10:18:49Z</time></trkpt><trkpt lat="45.46652187631305" lon="10.526497835212158"><ele>101.4</ele><time>2026-03-22T10:18:51Z</time></trkpt><trkpt lat="45.466590908600246" lon="10.526381673534889"><ele>102.6</ele><time>2026-03-22T10:18:53Z</time></trkpt><trkpt lat="45.466638681704936" lon="10.526255386911814"><ele>103.8</ele><time>2026-03-22T10:18:55Z</time></trkpt><trkpt lat="45.46668887490842" lon="10.52613445019116"><ele>105.0</ele><time>2026-03-22T10:18:57Z</time></trkpt><trkpt lat="45.46674913137959" lon="10.526030583212313"><ele>105.0</ele><time>2026-03-22T10:18:59Z</time></trkpt><trkpt lat="45.46679477024598" lon="10.525930704434908"><ele>105.0</ele><time>2026-03-22T10:19:01Z</time></trkpt><trkpt lat="45.46684445879615" lon="10.525832019586467"><ele>105.0</ele><time>2026-03-22T10:19:03Z</time></trkpt><trkpt lat="45.46688825165749" lon="10.525725639964387"><ele>105.0</ele><time>2026-03-22T10:19:05Z</time></trkpt><trkpt lat="45.46693228310889" lon="10.525625160626701"><ele>105.0</ele><time>2026-03-22T10:19:07Z</time></trkpt><trkpt lat="45.46697831849583" lon="10.525527494888834"><ele>105.0</ele><time>2026-03-22T10:19:09Z</time></trkpt><trkpt lat="45.46701837796379" lon="10.525428457734566"><ele>104.66666666666667</ele><time>2026-03-22T10:19:11Z</time></trkpt><trkpt lat="45.467062909339994" lon="10.52533412758968"><ele>104.33333333333334</ele><time>2026-03-22T10:19:13Z</time></trkpt><trkpt lat="45.46709988953243" lon="10.525240636251532"><ele>104.0</ele><time>2026-03-22T10:19:15Z</time></trkpt><trkpt lat="45.467142491717276" lon="10.525143389881944"><ele>103.66666666666667</ele><time>2026-03-22T10:19:17Z</time></trkpt><trkpt lat="45.46717908655628" lon="10.525046338946327"><ele>103.33333333333334</ele><time>2026-03-22T10:19:19Z</time></trkpt><trkpt lat="45.467211767134735" lon="10.524945424684766"><ele>103.0</ele><time>2026-03-22T10:19:21Z</time></trkpt><trkpt lat="45.46724782441826" lon="10.524843968954213"><ele>104.28571428571428</ele><time>2026-03-22T10:19:23Z</time></trkpt><trkpt lat="45.467284918315414" lon="10.524740876840987"><ele>105.57142857142857</ele><time>2026-03-22T10:19:25Z</time></trkpt><trkpt lat="45.46732213966789" lon="10.524643258985796"><ele>106.85714285714286</ele><time>2026-03-22T10:19:27Z</time></trkpt><trkpt lat="45.467351359123505" lon="10.524550197942887"><ele>108.14285714285714</ele><time>2026-03-22T10:19:29Z</time></trkpt><trkpt lat="45.4673875624688" lon="10.524466040242583"><ele>109.42857142857143</ele><time>2026-03-22T10:19:31Z</time></trkpt><trkpt lat="45.46741828952256" lon="10.524382279496095"><ele>110.71428571428571</ele><time>2026-03-22T10:19:33Z</time></trkpt><trkpt lat="45.467441765741285" lon="10.524292849887784"><ele>112.0</ele><time>2026-03-22T10:19:35Z</time></trkpt><trkpt lat="45.46747550194518" lon="10.524211695683656"><ele>112.0</ele><time>2026-03-22T10:19:37Z</time></trkpt><trkpt lat="45.46751039338142" lon="10.524126934680565"><ele>112.0</ele><time>2026-03-22T10:19:39Z</time></trkpt><trkpt lat="45.46754158461996" lon="10.524045782670864"><ele>112.0</ele><time>2026-03-22T10:19:41Z</time></trkpt><trkpt lat="45.46756900087611" lon="10.52396109416427"><ele>112.0</ele><time>2026-03-22T10:19:43Z</time></trkpt><trkpt lat="45.46759658560244" lon="10.523869161441846"><ele>112.0</ele><time>2026-03-22T10:19:45Z</time></trkpt><trkpt lat="45.46762264391708" lon="10.523783866204056"><ele>112.0</ele><time>2026-03-22T10:19:47Z</time></trkpt><trkpt lat="45.46765428067655" lon="10.52369453915768"><ele>112.0</ele><time>2026-03-22T10:19:49Z</time></trkpt><trkpt lat="45.46768278374223" lon="10.52360987540792"><ele>112.85714285714286</ele><time>2026-03-22T10:19:51Z</time></trkpt><trkpt lat="45.46771053258304" lon="10.523523997208663"><ele>113.71428571428572</ele><time>2026-03-22T10:19:53Z</time></trkpt><trkpt lat="45.467737400733306" lon="10.523430880528865"><ele>114.57142857142857</ele><time>2026-03-22T10:19:55Z</time></trkpt><trkpt lat="45.46776961464103" lon="10.523343748123812"><ele>115.42857142857143</ele><time>2026-03-22T10:19:57Z</time></trkpt><trkpt lat="45.4677945911605" lon="10.523249212825373"><ele>116.28571428571429</ele><time>2026-03-22T10:19:59Z</time></trkpt><trkpt lat="45.46781761145056" lon="10.52315643825017"><ele>117.14285714285714</ele><time>2026-03-22T10:20:01Z</time></trkpt><trkpt lat="45.467834693304845" lon="10.523054610781392"><ele>118.0</ele><time>2026-03-22T10:20:03Z</time></trkpt><trkpt lat="45.46785653599611" lon="10.52295434320345"><ele>119.42857142857142</ele><time>2026-03-22T10:20:05Z</time></trkpt><trkpt lat="45.467880839220854" lon="10.52286952534917"><ele>120.85714285714286</ele><time>2026-03-22T10:20:07Z</time></trkpt><trkpt lat="45.467901383857274" lon="10.522773687267867"><ele>122.28571428571428</ele><time>2026-03-22T10:20:09Z</time></trkpt><trkpt lat="45.467920052308386" lon="10.52267640127333"><ele>123.71428571428571</ele><time>2026-03-22T10:20:11Z</time></trkpt><trkpt lat="45.46794268708323" lon="10.522556669049113"><ele>125.14285714285714</ele><time>2026-03-22T10:20:14Z</time></trkpt><trkpt lat="45.46795048690103" lon="10.52246500255932"><ele>126.57142857142857</ele><time>2026-03-22T10:20:28Z</time></trkpt><trkpt lat="45.46797034125144" lon="10.522360454270668"><ele>128.0</ele><time>2026-03-22T10:20:31Z</time></trkpt><trkpt lat="45.467999314021036" lon="10.522236466094743"><ele>128.14285714285714</ele><time>2026-03-22T10:20:34Z</time></trkpt><trkpt lat="45.46801624483741" lon="10.522144974738431"><ele>128.28571428571428</ele><time>2026-03-22T10:20:36Z</time></trkpt><trkpt lat="45.46805412200548" lon="10.522037187807259"><ele>128.42857142857142</ele><time>2026-03-22T10:20:39Z</time></trkpt><trkpt lat="45.46808574493164" lon="10.521953748473384"><ele>128.57142857142856</ele><time>2026-03-22T10:20:44Z</time></trkpt><trkpt lat="45.46805055490135" lon="10.522040847473539"><ele>128.71428571428572</ele><time>2026-03-22T10:21:56Z</time></trkpt><trkpt lat="45.46801364401906" lon="10.522133996821525"><ele>128.85714285714283</ele><time>2026-03-22T10:21:59Z</time></trkpt><trkpt lat="45.46800480428706" lon="10.522235549269363"><ele>129.0</ele><time>2026-03-22T10:22:01Z</time></trkpt><trkpt lat="45.46798565973532" lon="10.522352012391112"><ele>129.0</ele><time>2026-03-22T10:22:03Z</time></trkpt><trkpt lat="45.467959856795204" lon="10.522488206605628"><ele>129.0</ele><time>2026-03-22T10:22:05Z</time></trkpt><trkpt lat="45.46792996157376" lon="10.522646818359599"><ele>129.0</ele><time>2026-03-22T10:22:07Z</time></trkpt><trkpt lat="45.46791029332197" lon="10.52273392769965"><ele>129.0</ele><time>2026-03-22T10:22:08Z</time></trkpt><trkpt lat="45.46788089073868" lon="10.522869504458928"><ele>129.0</ele><time>2026-03-22T10:22:09Z</time></trkpt><trkpt lat="45.467856516771185" lon="10.523001420041675"><ele>127.16666666666667</ele><time>2026-03-22T10:22:10Z</time></trkpt><trkpt lat="45.46783601798018" lon="10.523115023881914"><ele>125.33333333333334</ele><time>2026-03-22T10:22:11Z</time></trkpt><trkpt lat="45.46781797775999" lon="10.523230626257009"><ele>123.5</ele><time>2026-03-22T10:22:12Z</time></trkpt><trkpt lat="45.46778581259302" lon="10.523341993393222"><ele>121.66666666666667</ele><time>2026-03-22T10:22:13Z</time></trkpt><trkpt lat="45.46775332840057" lon="10.523466291231586"><ele>119.83333333333334</ele><time>2026-03-22T10:22:14Z</time></trkpt><trkpt lat="45.467719381963235" lon="10.523586361669945"><ele>118.0</ele><time>2026-03-22T10:22:15Z</time></trkpt><trkpt lat="45.46767935504374" lon="10.523710941729384"><ele>116.80000000000001</ele><time>2026-03-22T10:22:16Z</time></trkpt><trkpt lat="45.46763828171029" lon="10.523832624229783"><ele>115.60000000000001</ele><time>2026-03-22T10:22:17Z</time></trkpt><trkpt lat="45.467593956657076" lon="10.523964070439973"><ele>114.39999999999999</ele><time>2026-03-22T10:22:18Z</time></trkpt><trkpt lat="45.46754579994534" lon="10.52409047179295"><ele>113.19999999999999</ele><time>2026-03-22T10:22:19Z</time></trkpt><trkpt lat="45.46750067327138" lon="10.52422603366767"><ele>112.0</ele><time>2026-03-22T10:22:20Z</time></trkpt><trkpt lat="45.467450382176466" lon="10.524361675902624"><ele>112.0</ele><time>2026-03-22T10:22:21Z</time></trkpt><trkpt lat="45.46740791845706" lon="10.524503068263154"><ele>111.99999999999999</ele><time>2026-03-22T10:22:22Z</time></trkpt><trkpt lat="45.46735924867102" lon="10.524639519427295"><ele>111.99999999999999</ele><time>2026-03-22T10:22:23Z</time></trkpt><trkpt lat="45.46730360060397" lon="10.524770295392667"><ele>112.0</ele><time>2026-03-22T10:22:24Z</time></trkpt><trkpt lat="45.46724943282905" lon="10.524896049320619"><ele>112.0</ele><time>2026-03-22T10:22:25Z</time></trkpt><trkpt lat="45.46719549466408" lon="10.52503007045359"><ele>112.39999999999999</ele><time>2026-03-22T10:22:26Z</time></trkpt><trkpt lat="45.46714301022202" lon="10.525163142443443"><ele>112.79999999999998</ele><time>2026-03-22T10:22:27Z</time></trkpt><trkpt lat="45.46708481780829" lon="10.525289233438842"><ele>113.2</ele><time>2026-03-22T10:22:28Z</time></trkpt><trkpt lat="45.46702395810265" lon="10.525416144717628"><ele>113.6</ele><time>2026-03-22T10:22:29Z</time></trkpt><trkpt lat="45.46695596085218" lon="10.525534583160931"><ele>114.0</ele><time>2026-03-22T10:22:30Z</time></trkpt><trkpt lat="45.466912242120166" lon="10.52567588400672"><ele>112.80000000000001</ele><time>2026-03-22T10:22:31Z</time></trkpt><trkpt lat="45.466858447691756" lon="10.525811511350161"><ele>111.60000000000001</ele><time>2026-03-22T10:22:32Z</time></trkpt><trkpt lat="45.466800420394335" lon="10.525926010445007"><ele>110.4</ele><time>2026-03-22T10:22:33Z</time></trkpt><trkpt lat="45.466735204580424" lon="10.526033911716098"><ele>109.2</ele><time>2026-03-22T10:22:34Z</time></trkpt><trkpt lat="45.46667265068207" lon="10.526136524487463"><ele>108.0</ele><time>2026-03-22T10:22:35Z</time></trkpt><trkpt lat="45.46662285969695" lon="10.526252560111264"><ele>108.0</ele><time>2026-03-22T10:22:36Z</time></trkpt><trkpt lat="45.46657940511779" lon="10.526357965272867"><ele>108.0</ele><time>2026-03-22T10:22:37Z</time></trkpt><trkpt lat="45.46653889224635" lon="10.526438593834113"><ele>108.0</ele><time>2026-03-22T10:22:38Z</time></trkpt><trkpt lat="45.466430470357224" lon="10.526469472359937"><ele>108.0</ele><time>2026-03-22T10:22:40Z</time></trkpt><trkpt lat="45.466377453763954" lon="10.526406805831337"><ele>108.0</ele><time>2026-03-22T10:22:41Z</time></trkpt><trkpt lat="45.46634778083556" lon="10.5263247064363"><ele>108.0</ele><time>2026-03-22T10:22:42Z</time></trkpt><trkpt lat="45.46628983270184" lon="10.526213438956585"><ele>106.2</ele><time>2026-03-22T10:22:44Z</time></trkpt><trkpt lat="45.46622120717163" lon="10.52610857417272"><ele>104.4</ele><time>2026-03-22T10:22:46Z</time></trkpt><trkpt lat="45.46615418024545" lon="10.526011791377604"><ele>102.60000000000001</ele><time>2026-03-22T10:22:48Z</time></trkpt><trkpt lat="45.46609343775767" lon="10.525924232171171"><ele>100.80000000000001</ele><time>2026-03-22T10:22:50Z</time></trkpt><trkpt lat="45.46600525605289" lon="10.525935927620967"><ele>99.0</ele><time>2026-03-22T10:22:52Z</time></trkpt><trkpt lat="45.465958770199286" lon="10.526057770519088"><ele>99.0</ele><time>2026-03-22T10:22:54Z</time></trkpt><trkpt lat="45.46593160926724" lon="10.526186037382846"><ele>99.0</ele><time>2026-03-22T10:22:57Z</time></trkpt><trkpt lat="45.46590693686789" lon="10.526294617297035"><ele>99.0</ele><time>2026-03-22T10:22:59Z</time></trkpt><trkpt lat="45.46586931050673" lon="10.526380907288488"><ele>99.0</ele><time>2026-03-22T10:23:01Z</time></trkpt><trkpt lat="45.46585202411724" lon="10.52647981921265"><ele>99.0</ele><time>2026-03-22T10:23:03Z</time></trkpt><trkpt lat="45.46588028080767" lon="10.526581567826858"><ele>99.0</ele><time>2026-03-22T10:23:05Z</time></trkpt><trkpt lat="45.46593933260268" lon="10.526640560331897"><ele>98.83333333333333</ele><time>2026-03-22T10:23:07Z</time></trkpt><trkpt lat="45.466002171970004" lon="10.526669605693744"><ele>98.66666666666666</ele><time>2026-03-22T10:23:09Z</time></trkpt><trkpt lat="45.46606822217421" lon="10.526660657432645"><ele>98.5</ele><time>2026-03-22T10:23:11Z</time></trkpt><trkpt lat="45.46616672435663" lon="10.526642706409197"><ele>98.33333333333333</ele><time>2026-03-22T10:23:14Z</time></trkpt><trkpt lat="45.466243096860254" lon="10.526635740877115"><ele>98.16666666666666</ele><time>2026-03-22T10:23:17Z</time></trkpt><trkpt lat="45.46630543619182" lon="10.526675778027215"><ele>98.0</ele><time>2026-03-22T10:23:21Z</time></trkpt><trkpt lat="45.46635149793492" lon="10.526763454182609"><ele>98.14285714285714</ele><time>2026-03-22T10:23:25Z</time></trkpt><trkpt lat="45.46638895031244" lon="10.526853023723266"><ele>98.28571428571428</ele><time>2026-03-22T10:23:33Z</time></trkpt><trkpt lat="45.46643674159611" lon="10.526931153377264"><ele>98.42857142857143</ele><time>2026-03-22T10:23:36Z</time></trkpt><trkpt lat="45.46648816049071" lon="10.526992395118969"><ele>98.57142857142857</ele><time>2026-03-22T10:23:39Z</time></trkpt><trkpt lat="45.4665341730429" lon="10.527068063047459"><ele>98.71428571428571</ele><time>2026-03-22T10:23:42Z</time></trkpt><trkpt lat="45.46659421563146" lon="10.527117448989555"><ele>98.85714285714286</ele><time>2026-03-22T10:23:44Z</time></trkpt><trkpt lat="45.466659775951605" lon="10.527188004289263"><ele>99.0</ele><time>2026-03-22T10:23:46Z</time></trkpt><trkpt lat="45.46672950883666" lon="10.52725450090425"><ele>99.0</ele><time>2026-03-22T10:23:48Z</time></trkpt><trkpt lat="45.46679293692901" lon="10.527311362012716"><ele>99.0</ele><time>2026-03-22T10:23:50Z</time></trkpt><trkpt lat="45.46687565843938" lon="10.527332046271553"><ele>99.0</ele><time>2026-03-22T10:23:52Z</time></trkpt><trkpt lat="45.46695981909798" lon="10.52738603141477"><ele>99.0</ele><time>2026-03-22T10:23:54Z</time></trkpt><trkpt lat="45.467046712144075" lon="10.527440768726002"><ele>99.0</ele><time>2026-03-22T10:23:56Z</time></trkpt><trkpt lat="45.46713672069002" lon="10.52750265509804"><ele>99.0</ele><time>2026-03-22T10:23:58Z</time></trkpt><trkpt lat="45.46722511588652" lon="10.52756664490347"><ele>98.80000000000001</ele><time>2026-03-22T10:24:00Z</time></trkpt><trkpt lat="45.46731764085453" lon="10.52762955352811"><ele>98.60000000000001</ele><time>2026-03-22T10:24:02Z</time></trkpt><trkpt lat="45.46742146077732" lon="10.527699915823698"><ele>98.4</ele><time>2026-03-22T10:24:04Z</time></trkpt><trkpt lat="45.46752141251122" lon="10.52776775803744"><ele>98.2</ele><time>2026-03-22T10:24:06Z</time></trkpt><trkpt lat="45.46762150506513" lon="10.527841215994176"><ele>98.0</ele><time>2026-03-22T10:24:08Z</time></trkpt><trkpt lat="45.467724587057006" lon="10.527912220010268"><ele>97.60000000000001</ele><time>2026-03-22T10:24:10Z</time></trkpt><trkpt lat="45.4678271294544" lon="10.527987065730983"><ele>97.2</ele><time>2026-03-22T10:24:12Z</time></trkpt><trkpt lat="45.467916939308274" lon="10.528061628811557"><ele>96.8</ele><time>2026-03-22T10:24:14Z</time></trkpt><trkpt lat="45.46801298486945" lon="10.528121506581524"><ele>96.4</ele><time>2026-03-22T10:24:16Z</time></trkpt><trkpt lat="45.46811710290572" lon="10.528174962877845"><ele>96.0</ele><time>2026-03-22T10:24:18Z</time></trkpt><trkpt lat="45.46821252124252" lon="10.528242397256976"><ele>96.0</ele><time>2026-03-22T10:24:20Z</time></trkpt><trkpt lat="45.468314904563236" lon="10.528313035361391"><ele>96.0</ele><time>2026-03-22T10:24:22Z</time></trkpt><trkpt lat="45.46841785182797" lon="10.528384470463038"><ele>96.0</ele><time>2026-03-22T10:24:24Z</time></trkpt><trkpt lat="45.46851435534977" lon="10.528456352948526"><ele>96.0</ele><time>2026-03-22T10:24:26Z</time></trkpt><trkpt lat="45.468596718083724" lon="10.528519889260666"><ele>96.0</ele><time>2026-03-22T10:24:28Z</time></trkpt><trkpt lat="45.468678239269586" lon="10.528580175544178"><ele>96.0</ele><time>2026-03-22T10:24:30Z</time></trkpt><trkpt lat="45.46876126475125" lon="10.528646353625545"><ele>96.0</ele><time>2026-03-22T10:24:32Z</time></trkpt><trkpt lat="45.468845492902865" lon="10.528714777680005"><ele>96.0</ele><time>2026-03-22T10:24:34Z</time></trkpt><trkpt lat="45.4689342916006" lon="10.528778835283143"><ele>96.0</ele><time>2026-03-22T10:24:36Z</time></trkpt><trkpt lat="45.46902281928382" lon="10.528845096344787"><ele>96.0</ele><time>2026-03-22T10:24:38Z</time></trkpt><trkpt lat="45.469102613913805" lon="10.528900416916377"><ele>96.0</ele><time>2026-03-22T10:24:40Z</time></trkpt><trkpt lat="45.46917190691927" lon="10.528975098792273"><ele>96.0</ele><time>2026-03-22T10:24:42Z</time></trkpt><trkpt lat="45.46926200735632" lon="10.528994851187162"><ele>96.0</ele><time>2026-03-22T10:24:44Z</time></trkpt><trkpt lat="45.46933182986882" lon="10.528914505620593"><ele>96.0</ele><time>2026-03-22T10:24:46Z</time></trkpt><trkpt lat="45.46934845025402" lon="10.528785791452433"><ele>96.0</ele><time>2026-03-22T10:24:48Z</time></trkpt><trkpt lat="45.469343360506635" lon="10.528662418628835"><ele>96.0</ele><time>2026-03-22T10:24:50Z</time></trkpt><trkpt lat="45.46934161969652" lon="10.528538931108766"><ele>96.33333333333333</ele><time>2026-03-22T10:24:52Z</time></trkpt><trkpt lat="45.469323112855676" lon="10.528427322192437"><ele>96.66666666666666</ele><time>2026-03-22T10:24:54Z</time></trkpt><trkpt lat="45.46929916748314" lon="10.528327203925672"><ele>97.0</ele><time>2026-03-22T10:24:56Z</time></trkpt><trkpt lat="45.46928751700756" lon="10.528221048363521"><ele>97.33333333333333</ele><time>2026-03-22T10:24:58Z</time></trkpt><trkpt lat="45.469274543398186" lon="10.52811533844035"><ele>97.66666666666666</ele><time>2026-03-22T10:25:00Z</time></trkpt><trkpt lat="45.46925582965831" lon="10.527997928258575"><ele>98.0</ele><time>2026-03-22T10:25:02Z</time></trkpt><trkpt lat="45.46922386538579" lon="10.527874317855234"><ele>98.80000000000001</ele><time>2026-03-22T10:25:04Z</time></trkpt><trkpt lat="45.46921113620136" lon="10.527753079890104"><ele>99.6</ele><time>2026-03-22T10:25:06Z</time></trkpt><trkpt lat="45.46919046354613" lon="10.527623417538532"><ele>100.4</ele><time>2026-03-22T10:25:08Z</time></trkpt><trkpt lat="45.46916683885954" lon="10.527498748789126"><ele>101.19999999999999</ele><time>2026-03-22T10:25:10Z</time></trkpt><trkpt lat="45.46913754040154" lon="10.527356114127436"><ele>102.0</ele><time>2026-03-22T10:25:12Z</time></trkpt><trkpt lat="45.46912043386441" lon="10.527240661712204"><ele>102.0</ele><time>2026-03-22T10:25:14Z</time></trkpt><trkpt lat="45.46910321304552" lon="10.527105466736726"><ele>102.0</ele><time>2026-03-22T10:25:16Z</time></trkpt><trkpt lat="45.46907837917282" lon="10.5269704358379"><ele>102.0</ele><time>2026-03-22T10:25:18Z</time></trkpt><trkpt lat="45.469055670645794" lon="10.526831749041566"><ele>102.0</ele><time>2026-03-22T10:25:20Z</time></trkpt><trkpt lat="45.46903601815606" lon="10.526693980196082"><ele>102.0</ele><time>2026-03-22T10:25:21.999Z</time></trkpt><trkpt lat="45.46901381503444" lon="10.52655183497958"><ele>102.6</ele><time>2026-03-22T10:25:23.999Z</time></trkpt><trkpt lat="45.4689876860594" lon="10.526414223812331"><ele>103.19999999999999</ele><time>2026-03-22T10:25:26Z</time></trkpt><trkpt lat="45.46896935972065" lon="10.526272447084242"><ele>103.8</ele><time>2026-03-22T10:25:28Z</time></trkpt><trkpt lat="45.4689434885545" lon="10.526123632883994"><ele>104.4</ele><time>2026-03-22T10:25:30Z</time></trkpt><trkpt lat="45.468921809333" lon="10.525980839557377"><ele>105.0</ele><time>2026-03-22T10:25:32Z</time></trkpt><trkpt lat="45.46890050139669" lon="10.525852618485374"><ele>106.4</ele><time>2026-03-22T10:25:34Z</time></trkpt><trkpt lat="45.46888615664071" lon="10.52571656162742"><ele>107.8</ele><time>2026-03-22T10:25:36Z</time></trkpt><trkpt lat="45.46885908346833" lon="10.525583689856546"><ele>109.19999999999999</ele><time>2026-03-22T10:25:38Z</time></trkpt><trkpt lat="45.468833177266795" lon="10.525445962860047"><ele>110.6</ele><time>2026-03-22T10:25:40Z</time></trkpt><trkpt lat="45.46881225803626" lon="10.525311072461951"><ele>112.0</ele><time>2026-03-22T10:25:42Z</time></trkpt><trkpt lat="45.46878682276166" lon="10.525170813865202"><ele>112.39999999999999</ele><time>2026-03-22T10:25:44Z</time></trkpt><trkpt lat="45.46876347416962" lon="10.525041445109208"><ele>112.79999999999998</ele><time>2026-03-22T10:25:46Z</time></trkpt><trkpt lat="45.46873940198705" lon="10.524905694629544"><ele>113.2</ele><time>2026-03-22T10:25:48Z</time></trkpt><trkpt lat="45.46871943843368" lon="10.524762533389755"><ele>113.6</ele><time>2026-03-22T10:25:50Z</time></trkpt><trkpt lat="45.468698819123276" lon="10.524601192771854"><ele>114.0</ele><time>2026-03-22T10:25:52Z</time></trkpt><trkpt lat="45.46868309472929" lon="10.524448421784093"><ele>114.6</ele><time>2026-03-22T10:25:54Z</time></trkpt><trkpt lat="45.468673321407735" lon="10.524302904380216"><ele>115.2</ele><time>2026-03-22T10:25:56Z</time></trkpt><trkpt lat="45.46866232479539" lon="10.52415481137138"><ele>115.79999999999998</ele><time>2026-03-22T10:25:58Z</time></trkpt><trkpt lat="45.46866712451219" lon="10.524002308623402"><ele>116.39999999999999</ele><time>2026-03-22T10:26:00Z</time></trkpt><trkpt lat="45.46867549037769" lon="10.523856851643208"><ele>117.0</ele><time>2026-03-22T10:26:02Z</time></trkpt><trkpt lat="45.46868442058106" lon="10.523712751080518"><ele>117.8</ele><time>2026-03-22T10:26:04Z</time></trkpt><trkpt lat="45.46869826875647" lon="10.523574853061236"><ele>118.6</ele><time>2026-03-22T10:26:06Z</time></trkpt><trkpt lat="45.46871095522837" lon="10.523437684964486"><ele>119.39999999999999</ele><time>2026-03-22T10:26:08Z</time></trkpt><trkpt lat="45.468719984805404" lon="10.523303769444246"><ele>120.19999999999999</ele><time>2026-03-22T10:26:10Z</time></trkpt><trkpt lat="45.46872866775083" lon="10.523158615496651"><ele>121.0</ele><time>2026-03-22T10:26:12Z</time></trkpt><trkpt lat="45.46874502442895" lon="10.523021046025972"><ele>122.6</ele><time>2026-03-22T10:26:14Z</time></trkpt><trkpt lat="45.468755794973006" lon="10.52289469190605"><ele>124.19999999999999</ele><time>2026-03-22T10:26:16Z</time></trkpt><trkpt lat="45.46876548552215" lon="10.522756922383675"><ele>125.80000000000001</ele><time>2026-03-22T10:26:18Z</time></trkpt><trkpt lat="45.46877378224872" lon="10.522618243294934"><ele>127.4</ele><time>2026-03-22T10:26:20Z</time></trkpt><trkpt lat="45.46878282585139" lon="10.522485017107176"><ele>129.0</ele><time>2026-03-22T10:26:22Z</time></trkpt><trkpt lat="45.46879228817191" lon="10.522358503733141"><ele>129.83333333333334</ele><time>2026-03-22T10:26:24Z</time></trkpt><trkpt lat="45.46880232279675" lon="10.522230465132191"><ele>130.66666666666666</ele><time>2026-03-22T10:26:26Z</time></trkpt><trkpt lat="45.46881785914217" lon="10.522112061563188"><ele>131.5</ele><time>2026-03-22T10:26:28Z</time></trkpt><trkpt lat="45.46881700210285" lon="10.521995485625867"><ele>132.33333333333331</ele><time>2026-03-22T10:26:30Z</time></trkpt><trkpt lat="45.468819936275835" lon="10.52187769238023"><ele>133.16666666666666</ele><time>2026-03-22T10:26:32Z</time></trkpt><trkpt lat="45.46882186267359" lon="10.521752884289645"><ele>134.0</ele><time>2026-03-22T10:26:34Z</time></trkpt><trkpt lat="45.46882605145705" lon="10.521623975362006"><ele>134.5</ele><time>2026-03-22T10:26:36Z</time></trkpt><trkpt lat="45.468837819778855" lon="10.52150179686522"><ele>135.0</ele><time>2026-03-22T10:26:38Z</time></trkpt><trkpt lat="45.46884241389224" lon="10.521374566148376"><ele>135.5</ele><time>2026-03-22T10:26:40Z</time></trkpt><trkpt lat="45.46885090895404" lon="10.52125588939205"><ele>136.0</ele><time>2026-03-22T10:26:42Z</time></trkpt><trkpt lat="45.468856940038286" lon="10.521135326772082"><ele>136.5</ele><time>2026-03-22T10:26:44Z</time></trkpt><trkpt lat="45.46885764565611" lon="10.521005302581004"><ele>137.0</ele><time>2026-03-22T10:26:46Z</time></trkpt><trkpt lat="45.46886302868079" lon="10.520871094114456"><ele>137.0</ele><time>2026-03-22T10:26:48Z</time></trkpt><trkpt lat="45.46887889411175" lon="10.520746787707491"><ele>137.0</ele><time>2026-03-22T10:26:50Z</time></trkpt><trkpt lat="45.46888766434575" lon="10.52062204210609"><ele>137.0</ele><time>2026-03-22T10:26:52Z</time></trkpt><trkpt lat="45.46888956233748" lon="10.520487904389293"><ele>137.0</ele><time>2026-03-22T10:26:54Z</time></trkpt><trkpt lat="45.4689012505357" lon="10.520367040289939"><ele>137.0</ele><time>2026-03-22T10:26:56Z</time></trkpt><trkpt lat="45.46891101999626" lon="10.520250971753542"><ele>137.0</ele><time>2026-03-22T10:26:58Z</time></trkpt><trkpt lat="45.46896234552149" lon="10.520167781298722"><ele>135.33333333333331</ele><time>2026-03-22T10:27:00Z</time></trkpt><trkpt lat="45.469029505502334" lon="10.520131152065265"><ele>133.66666666666666</ele><time>2026-03-22T10:27:02Z</time></trkpt><trkpt lat="45.469076354894284" lon="10.520060111083506"><ele>132.0</ele><time>2026-03-22T10:27:04Z</time></trkpt><trkpt lat="45.46908308476962" lon="10.519946081556627"><ele>130.33333333333334</ele><time>2026-03-22T10:27:06Z</time></trkpt><trkpt lat="45.46903805356858" lon="10.519852655258346"><ele>128.66666666666669</ele><time>2026-03-22T10:27:08Z</time></trkpt><trkpt lat="45.46895662939942" lon="10.51979038117076"><ele>127.0</ele><time>2026-03-22T10:27:10Z</time></trkpt><trkpt lat="45.46892148536594" lon="10.51970491805718"><ele>127.0</ele><time>2026-03-22T10:27:12Z</time></trkpt><trkpt lat="45.46891491545092" lon="10.51960089552593"><ele>127.0</ele><time>2026-03-22T10:27:16Z</time></trkpt><trkpt lat="45.46888835676884" lon="10.519504583808601"><ele>127.0</ele><time>2026-03-22T10:27:49Z</time></trkpt><trkpt lat="45.46888211966471" lon="10.519412978606542"><ele>127.0</ele><time>2026-03-22T10:27:52Z</time></trkpt><trkpt lat="45.46888812950854" lon="10.519286963715139"><ele>127.0</ele><time>2026-03-22T10:27:55Z</time></trkpt><trkpt lat="45.46888932095556" lon="10.519188936000786"><ele>127.0</ele><time>2026-03-22T10:27:57Z</time></trkpt><trkpt lat="45.46888670915364" lon="10.519086715239693"><ele>127.0</ele><time>2026-03-22T10:27:59Z</time></trkpt><trkpt lat="45.468879368476436" lon="10.518974175742159"><ele>126.50000000000001</ele><time>2026-03-22T10:28:01Z</time></trkpt><trkpt lat="45.46886835832322" lon="10.518864550111964"><ele>126.0</ele><time>2026-03-22T10:28:03Z</time></trkpt><trkpt lat="45.468855836324686" lon="10.518757375733244"><ele>125.5</ele><time>2026-03-22T10:28:05Z</time></trkpt><trkpt lat="45.468848881981636" lon="10.51864748185806"><ele>125.0</ele><time>2026-03-22T10:28:07Z</time></trkpt><trkpt lat="45.46883382027894" lon="10.518538725852522"><ele>124.50000000000001</ele><time>2026-03-22T10:28:09Z</time></trkpt><trkpt lat="45.46881917592945" lon="10.518430659993431"><ele>124.0</ele><time>2026-03-22T10:28:11Z</time></trkpt><trkpt lat="45.46880489996274" lon="10.51832870030376"><ele>124.00000000000001</ele><time>2026-03-22T10:28:13Z</time></trkpt><trkpt lat="45.46878358607338" lon="10.51822651727527"><ele>124.0</ele><time>2026-03-22T10:28:15Z</time></trkpt><trkpt lat="45.46876790553219" lon="10.518114502405199"><ele>124.0</ele><time>2026-03-22T10:28:17Z</time></trkpt><trkpt lat="45.468751482047466" lon="10.518006661535894"><ele>124.0</ele><time>2026-03-22T10:28:19Z</time></trkpt><trkpt lat="45.46873577997262" lon="10.517908033250347"><ele>124.00000000000001</ele><time>2026-03-22T10:28:21Z</time></trkpt><trkpt lat="45.468777841343716" lon="10.517819004078326"><ele>124.0</ele><time>2026-03-22T10:28:24Z</time></trkpt><trkpt lat="45.468855116589744" lon="10.517809086948128"><ele>125.00000000000001</ele><time>2026-03-22T10:28:27Z</time></trkpt><trkpt lat="45.46893707383792" lon="10.517808133817951"><ele>126.0</ele><time>2026-03-22T10:28:30Z</time></trkpt><trkpt lat="45.46901880792737" lon="10.5178065159498"><ele>127.0</ele><time>2026-03-22T10:28:33Z</time></trkpt><trkpt lat="45.46909494842149" lon="10.517805429600513"><ele>128.0</ele><time>2026-03-22T10:28:36Z</time></trkpt><trkpt lat="45.46916034376234" lon="10.517816204819685"><ele>129.0</ele><time>2026-03-22T10:28:38Z</time></trkpt><trkpt lat="45.469231520751066" lon="10.517821769548428"><ele>130.0</ele><time>2026-03-22T10:28:40Z</time></trkpt><trkpt lat="45.46930772175446" lon="10.517826557059475"><ele>130.0</ele><time>2026-03-22T10:28:42Z</time></trkpt><trkpt lat="45.46938869352314" lon="10.5178366546062"><ele>130.0</ele><time>2026-03-22T10:28:44Z</time></trkpt><trkpt lat="45.46947443101176" lon="10.517842728313195"><ele>130.0</ele><time>2026-03-22T10:28:46Z</time></trkpt><trkpt lat="45.46956054802595" lon="10.517863385818096"><ele>130.0</ele><time>2026-03-22T10:28:48Z</time></trkpt><trkpt lat="45.46964096410558" lon="10.51788491689648"><ele>130.0</ele><time>2026-03-22T10:28:50Z</time></trkpt><trkpt lat="45.46972334570627" lon="10.517902462748548"><ele>130.0</ele><time>2026-03-22T10:28:52.001Z</time></trkpt><trkpt lat="45.46981533175089" lon="10.517924720263043"><ele>129.0</ele><time>2026-03-22T10:28:54.001Z</time></trkpt><trkpt lat="45.46992033752189" lon="10.517949271779353"><ele>128.0</ele><time>2026-03-22T10:28:56.001Z</time></trkpt><trkpt lat="45.47002122474862" lon="10.51797799188738"><ele>127.0</ele><time>2026-03-22T10:28:58.001Z</time></trkpt><trkpt lat="45.470139180704145" lon="10.518035945791034"><ele>126.0</ele><time>2026-03-22T10:29:00.001Z</time></trkpt><trkpt lat="45.470261963764834" lon="10.518063079314148"><ele>126.0</ele><time>2026-03-22T10:29:02.001Z</time></trkpt><trkpt lat="45.470325803757405" lon="10.51805224803475"><ele>126.0</ele><time>2026-03-22T10:29:03.001Z</time></trkpt><trkpt lat="45.47044209437211" lon="10.51798825896955"><ele>126.0</ele><time>2026-03-22T10:29:05.001Z</time></trkpt><trkpt lat="45.470541127888715" lon="10.51788267598248"><ele>126.0</ele><time>2026-03-22T10:29:07.001Z</time></trkpt><trkpt lat="45.47062023661498" lon="10.517755940260525"><ele>126.0</ele><time>2026-03-22T10:29:09.001Z</time></trkpt><trkpt lat="45.47069261329551" lon="10.517621157960672"><ele>126.0</ele><time>2026-03-22T10:29:11.001Z</time></trkpt><trkpt lat="45.470795808484965" lon="10.517415498073175"><ele>126.0</ele><time>2026-03-22T10:29:14.001Z</time></trkpt><trkpt lat="45.470870675797364" lon="10.5172908420696"><ele>126.0</ele><time>2026-03-22T10:29:16.001Z</time></trkpt><trkpt lat="45.470936447874664" lon="10.51716352569163"><ele>126.0</ele><time>2026-03-22T10:29:18.001Z</time></trkpt><trkpt lat="45.47100082836622" lon="10.517043162126372"><ele>126.0</ele><time>2026-03-22T10:29:20.001Z</time></trkpt><trkpt lat="45.47106341931138" lon="10.516933287970645"><ele>126.0</ele><time>2026-03-22T10:29:22.001Z</time></trkpt><trkpt lat="45.471118330326576" lon="10.516821675566792"><ele>126.0</ele><time>2026-03-22T10:29:24.001Z</time></trkpt><trkpt lat="45.47117719401875" lon="10.51672329005231"><ele>126.0</ele><time>2026-03-22T10:29:26.001Z</time></trkpt><trkpt lat="45.471230086015055" lon="10.516619309151283"><ele>126.0</ele><time>2026-03-22T10:29:28.001Z</time></trkpt><trkpt lat="45.47128019063108" lon="10.516502036054046"><ele>126.0</ele><time>2026-03-22T10:29:30.001Z</time></trkpt><trkpt lat="45.47132062150406" lon="10.51637909696314"><ele>126.0</ele><time>2026-03-22T10:29:32.001Z</time></trkpt><trkpt lat="45.47136011043283" lon="10.516269211205904"><ele>126.0</ele><time>2026-03-22T10:29:34Z</time></trkpt><trkpt lat="45.471400898947124" lon="10.51615350612219"><ele>126.0</ele><time>2026-03-22T10:29:36Z</time></trkpt><trkpt lat="45.471434511419744" lon="10.516034989187794"><ele>126.0</ele><time>2026-03-22T10:29:38Z</time></trkpt><trkpt lat="45.471468799753524" lon="10.515910199474579"><ele>127.0</ele><time>2026-03-22T10:29:40Z</time></trkpt><trkpt lat="45.471496468848585" lon="10.515785126750007"><ele>128.0</ele><time>2026-03-22T10:29:42Z</time></trkpt><trkpt lat="45.471525486319194" lon="10.515661574612237"><ele>129.0</ele><time>2026-03-22T10:29:44Z</time></trkpt><trkpt lat="45.47154592213503" lon="10.515534019098993"><ele>130.0</ele><time>2026-03-22T10:29:46Z</time></trkpt><trkpt lat="45.47155101265662" lon="10.515406418928526"><ele>131.0</ele><time>2026-03-22T10:29:48Z</time></trkpt><trkpt lat="45.47152828280665" lon="10.51528881720738"><ele>131.0</ele><time>2026-03-22T10:29:50Z</time></trkpt><trkpt lat="45.47147460366686" lon="10.515184910969662"><ele>131.0</ele><time>2026-03-22T10:29:52Z</time></trkpt><trkpt lat="45.47142867182671" lon="10.515076870308778"><ele>131.0</ele><time>2026-03-22T10:29:54Z</time></trkpt><trkpt lat="45.471372569906634" lon="10.51497830640548"><ele>131.0</ele><time>2026-03-22T10:29:56Z</time></trkpt><trkpt lat="45.471321750579996" lon="10.514879056233696"><ele>131.0</ele><time>2026-03-22T10:29:58Z</time></trkpt><trkpt lat="45.47126531799801" lon="10.514770835732138"><ele>131.0</ele><time>2026-03-22T10:30:00Z</time></trkpt><trkpt lat="45.47120718558195" lon="10.51464977232195"><ele>131.4</ele><time>2026-03-22T10:30:02Z</time></trkpt><trkpt lat="45.47115025104016" lon="10.514527250704202"><ele>131.8</ele><time>2026-03-22T10:30:04Z</time></trkpt><trkpt lat="45.47109575733085" lon="10.514407020470594"><ele>132.20000000000002</ele><time>2026-03-22T10:30:06Z</time></trkpt><trkpt lat="45.47104055926153" lon="10.514290095140435"><ele>132.6</ele><time>2026-03-22T10:30:08Z</time></trkpt><trkpt lat="45.470992227912845" lon="10.514169128500589"><ele>133.0</ele><time>2026-03-22T10:30:10Z</time></trkpt><trkpt lat="45.470946297781005" lon="10.514041418303366"><ele>133.0</ele><time>2026-03-22T10:30:12Z</time></trkpt><trkpt lat="45.470906698208665" lon="10.513916965554914"><ele>133.0</ele><time>2026-03-22T10:30:14Z</time></trkpt><trkpt lat="45.4708587738942" lon="10.513799240335024"><ele>133.0</ele><time>2026-03-22T10:30:16Z</time></trkpt><trkpt lat="45.47082055830056" lon="10.513681661805927"><ele>133.0</ele><time>2026-03-22T10:30:18Z</time></trkpt><trkpt lat="45.470775359585126" lon="10.513567765453336"><ele>133.0</ele><time>2026-03-22T10:30:20Z</time></trkpt><trkpt lat="45.47073491951675" lon="10.513464481542892"><ele>132.83333333333334</ele><time>2026-03-22T10:30:22Z</time></trkpt><trkpt lat="45.470693484583926" lon="10.513365831020716"><ele>132.66666666666669</ele><time>2026-03-22T10:30:24Z</time></trkpt><trkpt lat="45.470648994090375" lon="10.513270603838041"><ele>132.5</ele><time>2026-03-22T10:30:26Z</time></trkpt><trkpt lat="45.47060669410914" lon="10.513187335175678"><ele>132.33333333333334</ele><time>2026-03-22T10:30:28Z</time></trkpt><trkpt lat="45.47055518455114" lon="10.51310871521153"><ele>132.16666666666666</ele><time>2026-03-22T10:30:30Z</time></trkpt><trkpt lat="45.4705069099597" lon="10.513008523227887"><ele>132.0</ele><time>2026-03-22T10:30:32Z</time></trkpt><trkpt lat="45.470465174005824" lon="10.512909605082095"><ele>132.83333333333334</ele><time>2026-03-22T10:30:34Z</time></trkpt><trkpt lat="45.47042098408231" lon="10.512817142100056"><ele>133.66666666666666</ele><time>2026-03-22T10:30:36Z</time></trkpt><trkpt lat="45.47037907278322" lon="10.512710124770862"><ele>134.5</ele><time>2026-03-22T10:30:38Z</time></trkpt><trkpt lat="45.470329160964745" lon="10.51260270426366"><ele>135.33333333333331</ele><time>2026-03-22T10:30:40Z</time></trkpt><trkpt lat="45.47026863689659" lon="10.512499768036877"><ele>136.16666666666666</ele><time>2026-03-22T10:30:42Z</time></trkpt><trkpt lat="45.470212302269815" lon="10.512391139940068"><ele>137.0</ele><time>2026-03-22T10:30:44Z</time></trkpt><trkpt lat="45.47014636467923" lon="10.512280285373514"><ele>137.0</ele><time>2026-03-22T10:30:46Z</time></trkpt><trkpt lat="45.47008779454916" lon="10.512162006302429"><ele>137.0</ele><time>2026-03-22T10:30:48Z</time></trkpt><trkpt lat="45.47004032887528" lon="10.512035047517163"><ele>137.0</ele><time>2026-03-22T10:30:50Z</time></trkpt><trkpt lat="45.46999622879488" lon="10.511902123216515"><ele>137.0</ele><time>2026-03-22T10:30:52Z</time></trkpt><trkpt lat="45.46995545548158" lon="10.511772152113187"><ele>137.0</ele><time>2026-03-22T10:30:54.001Z</time></trkpt><trkpt lat="45.469911036672364" lon="10.511648156721646"><ele>135.79999999999998</ele><time>2026-03-22T10:30:56.001Z</time></trkpt><trkpt lat="45.46986681046415" lon="10.511529656294762"><ele>134.6</ele><time>2026-03-22T10:30:58.001Z</time></trkpt><trkpt lat="45.46983622702244" lon="10.511403274899115"><ele>133.39999999999998</ele><time>2026-03-22T10:31:00.001Z</time></trkpt><trkpt lat="45.469808412938285" lon="10.51127556233216"><ele>132.2</ele><time>2026-03-22T10:31:02.001Z</time></trkpt><trkpt lat="45.46977674647412" lon="10.511146157500985"><ele>131.0</ele><time>2026-03-22T10:31:04.001Z</time></trkpt><trkpt lat="45.46974242548331" lon="10.51101828293863"><ele>130.8</ele><time>2026-03-22T10:31:06.001Z</time></trkpt><trkpt lat="45.469708981373735" lon="10.510891124085505"><ele>130.6</ele><time>2026-03-22T10:31:08.001Z</time></trkpt><trkpt lat="45.4696762915079" lon="10.510762314938566"><ele>130.4</ele><time>2026-03-22T10:31:10.001Z</time></trkpt><trkpt lat="45.469640501291416" lon="10.510623305041333"><ele>130.2</ele><time>2026-03-22T10:31:12.001Z</time></trkpt><trkpt lat="45.469601339350305" lon="10.510483854676844"><ele>130.0</ele><time>2026-03-22T10:31:14.001Z</time></trkpt><trkpt lat="45.469559025616945" lon="10.510342416628294"><ele>129.5</ele><time>2026-03-22T10:31:16.001Z</time></trkpt><trkpt lat="45.46951847163628" lon="10.510193224280522"><ele>129.0</ele><time>2026-03-22T10:31:18.001Z</time></trkpt><trkpt lat="45.46949951190734" lon="10.510106628415809"><ele>128.5</ele><time>2026-03-22T10:31:19.001Z</time></trkpt><trkpt lat="45.4694697287988" lon="10.510027517892913"><ele>128.0</ele><time>2026-03-22T10:31:20.001Z</time></trkpt><trkpt lat="45.4694365701702" lon="10.50994763324158"><ele>127.50000000000001</ele><time>2026-03-22T10:31:21.001Z</time></trkpt><trkpt lat="45.469394753092914" lon="10.50979893603359"><ele>127.0</ele><time>2026-03-22T10:31:23.001Z</time></trkpt><trkpt lat="45.46935887143583" lon="10.509721047978665"><ele>127.19999999999999</ele><time>2026-03-22T10:31:24.001Z</time></trkpt><trkpt lat="45.469307118835246" lon="10.509569225824126"><ele>127.39999999999999</ele><time>2026-03-22T10:31:26.001Z</time></trkpt><trkpt lat="45.46927981667791" lon="10.509471142939809"><ele>127.60000000000001</ele><time>2026-03-22T10:31:27.001Z</time></trkpt><trkpt lat="45.46924512230239" lon="10.509389958474198"><ele>127.80000000000001</ele><time>2026-03-22T10:31:28.001Z</time></trkpt><trkpt lat="45.46917231176894" lon="10.509246885610503"><ele>128.0</ele><time>2026-03-22T10:31:30.001Z</time></trkpt><trkpt lat="45.46914640724321" lon="10.509157410003667"><ele>128.0</ele><time>2026-03-22T10:31:31.001Z</time></trkpt><trkpt lat="45.4691037288264" lon="10.508993974942113"><ele>128.0</ele><time>2026-03-22T10:31:33.001Z</time></trkpt><trkpt lat="45.46905414553517" lon="10.508838197279832"><ele>128.0</ele><time>2026-03-22T10:31:35.001Z</time></trkpt><trkpt lat="45.469011720457466" lon="10.508675866891036"><ele>128.0</ele><time>2026-03-22T10:31:37.001Z</time></trkpt><trkpt lat="45.46898128154908" lon="10.508523994710883"><ele>128.25</ele><time>2026-03-22T10:31:39.001Z</time></trkpt><trkpt lat="45.46895579806338" lon="10.508370281288768"><ele>128.5</ele><time>2026-03-22T10:31:41Z</time></trkpt><trkpt lat="45.46894328242297" lon="10.508213954526902"><ele>128.75</ele><time>2026-03-22T10:31:43Z</time></trkpt><trkpt lat="45.4689533363776" lon="10.508045992665684"><ele>129.0</ele><time>2026-03-22T10:31:45Z</time></trkpt><trkpt lat="45.468969248344706" lon="10.50788374247128"><ele>129.0</ele><time>2026-03-22T10:31:47Z</time></trkpt><trkpt lat="45.46899487639554" lon="10.507730073961989"><ele>129.0</ele><time>2026-03-22T10:31:49Z</time></trkpt><trkpt lat="45.46903150019328" lon="10.507584632205367"><ele>129.0</ele><time>2026-03-22T10:31:51Z</time></trkpt><trkpt lat="45.46906908385831" lon="10.507457061053831"><ele>129.0</ele><time>2026-03-22T10:31:53Z</time></trkpt><trkpt lat="45.46911151114405" lon="10.507353284366003"><ele>129.0</ele><time>2026-03-22T10:31:55Z</time></trkpt><trkpt lat="45.469149706080685" lon="10.507259842505508"><ele>129.0</ele><time>2026-03-22T10:31:57Z</time></trkpt><trkpt lat="45.46918889080872" lon="10.50715594118664"><ele>129.0</ele><time>2026-03-22T10:31:59Z</time></trkpt><trkpt lat="45.469226624519386" lon="10.507042414715775"><ele>129.0</ele><time>2026-03-22T10:32:01Z</time></trkpt><trkpt lat="45.469263368212324" lon="10.506931242250984"><ele>129.0</ele><time>2026-03-22T10:32:03Z</time></trkpt><trkpt lat="45.46930476722172" lon="10.506821720933457"><ele>129.0</ele><time>2026-03-22T10:32:05Z</time></trkpt><trkpt lat="45.46933581398299" lon="10.506694732970278"><ele>129.0</ele><time>2026-03-22T10:32:07Z</time></trkpt><trkpt lat="45.469362246412366" lon="10.506567544927545"><ele>129.16666666666666</ele><time>2026-03-22T10:32:09Z</time></trkpt><trkpt lat="45.46937931454373" lon="10.506440048587779"><ele>129.33333333333334</ele><time>2026-03-22T10:32:11Z</time></trkpt><trkpt lat="45.469389615940514" lon="10.50631160466283"><ele>129.5</ele><time>2026-03-22T10:32:13Z</time></trkpt><trkpt lat="45.46941048293779" lon="10.506198090716866"><ele>129.66666666666669</ele><time>2026-03-22T10:32:15Z</time></trkpt><trkpt lat="45.46943048405936" lon="10.50608085846941"><ele>129.83333333333334</ele><time>2026-03-22T10:32:17Z</time></trkpt><trkpt lat="45.469453964615134" lon="10.505973002118449"><ele>130.0</ele><time>2026-03-22T10:32:19Z</time></trkpt><trkpt lat="45.469474382674015" lon="10.505858673198569"><ele>130.8</ele><time>2026-03-22T10:32:21Z</time></trkpt><trkpt lat="45.46949782144379" lon="10.50573085641506"><ele>131.6</ele><time>2026-03-22T10:32:23Z</time></trkpt><trkpt lat="45.46952123628871" lon="10.505603404631998"><ele>132.4</ele><time>2026-03-22T10:32:25Z</time></trkpt><trkpt lat="45.469527922110345" lon="10.505473811847475"><ele>133.2</ele><time>2026-03-22T10:32:27Z</time></trkpt><trkpt lat="45.46956079229848" lon="10.50534661730575"><ele>134.0</ele><time>2026-03-22T10:32:29Z</time></trkpt><trkpt lat="45.469579636676976" lon="10.50522277067799"><ele>132.16666666666666</ele><time>2026-03-22T10:32:31Z</time></trkpt><trkpt lat="45.46960910692326" lon="10.505095508045953"><ele>130.33333333333331</ele><time>2026-03-22T10:32:33Z</time></trkpt><trkpt lat="45.4696389074917" lon="10.504979378306167"><ele>128.5</ele><time>2026-03-22T10:32:35Z</time></trkpt><trkpt lat="45.4696480477579" lon="10.504859401210073"><ele>126.66666666666666</ele><time>2026-03-22T10:32:37Z</time></trkpt><trkpt lat="45.46964407953426" lon="10.50475965493061"><ele>124.83333333333333</ele><time>2026-03-22T10:32:39Z</time></trkpt><trkpt lat="45.46964377716491" lon="10.504651040871009"><ele>123.0</ele><time>2026-03-22T10:32:41Z</time></trkpt><trkpt lat="45.46964104474901" lon="10.504552305067872"><ele>122.80000000000001</ele><time>2026-03-22T10:32:43Z</time></trkpt><trkpt lat="45.469643167278086" lon="10.504433108517345"><ele>122.60000000000001</ele><time>2026-03-22T10:32:45Z</time></trkpt><trkpt lat="45.4696233005184" lon="10.504297646915626"><ele>122.39999999999999</ele><time>2026-03-22T10:32:47Z</time></trkpt><trkpt lat="45.46962385763222" lon="10.504136265198841"><ele>122.19999999999999</ele><time>2026-03-22T10:32:49Z</time></trkpt><trkpt lat="45.469639959937524" lon="10.503970706960772"><ele>122.0</ele><time>2026-03-22T10:32:51Z</time></trkpt><trkpt lat="45.469654617227626" lon="10.503806871002284"><ele>123.0</ele><time>2026-03-22T10:32:53Z</time></trkpt><trkpt lat="45.46968023087811" lon="10.503653671056327"><ele>123.99999999999999</ele><time>2026-03-22T10:32:55Z</time></trkpt><trkpt lat="45.46972541061007" lon="10.503528728306419"><ele>124.99999999999999</ele><time>2026-03-22T10:32:57Z</time></trkpt><trkpt lat="45.469782629366264" lon="10.503386287957197"><ele>126.0</ele><time>2026-03-22T10:32:59Z</time></trkpt><trkpt lat="45.46981991852845" lon="10.50326152614283"><ele>127.0</ele><time>2026-03-22T10:33:01Z</time></trkpt><trkpt lat="45.46987749023701" lon="10.50314942420251"><ele>127.0</ele><time>2026-03-22T10:33:03Z</time></trkpt><trkpt lat="45.46991744094925" lon="10.50302073877969"><ele>126.99999999999999</ele><time>2026-03-22T10:33:05Z</time></trkpt><trkpt lat="45.469974577296156" lon="10.50290434512194"><ele>126.99999999999999</ele><time>2026-03-22T10:33:07Z</time></trkpt><trkpt lat="45.47002930701125" lon="10.502786545698083"><ele>127.0</ele><time>2026-03-22T10:33:09Z</time></trkpt><trkpt lat="45.47008122016928" lon="10.50266879378653"><ele>127.0</ele><time>2026-03-22T10:33:11Z</time></trkpt><trkpt lat="45.47013763828184" lon="10.50255062719219"><ele>128.5</ele><time>2026-03-22T10:33:13Z</time></trkpt><trkpt lat="45.47019134076922" lon="10.502425734051894"><ele>130.0</ele><time>2026-03-22T10:33:15.001Z</time></trkpt><trkpt lat="45.470237023153246" lon="10.502295760412816"><ele>131.5</ele><time>2026-03-22T10:33:17.001Z</time></trkpt><trkpt lat="45.4702642792957" lon="10.502206285836953"><ele>133.0</ele><time>2026-03-22T10:33:19.001Z</time></trkpt><trkpt lat="45.47027088631046" lon="10.502108428035683"><ele>134.5</ele><time>2026-03-22T10:33:27.001Z</time></trkpt><trkpt lat="45.47027832720673" lon="10.502017468122453"><ele>136.0</ele><time>2026-03-22T10:33:30.001Z</time></trkpt><trkpt lat="45.470300617075054" lon="10.501920512560764"><ele>135.83333333333334</ele><time>2026-03-22T10:33:33.001Z</time></trkpt><trkpt lat="45.470322654676" lon="10.501794922570857"><ele>135.66666666666669</ele><time>2026-03-22T10:33:36.001Z</time></trkpt><trkpt lat="45.47035970203183" lon="10.501687299792325"><ele>135.5</ele><time>2026-03-22T10:33:39.001Z</time></trkpt><trkpt lat="45.4703830070435" lon="10.501566771821599"><ele>135.33333333333334</ele><time>2026-03-22T10:33:42.001Z</time></trkpt><trkpt lat="45.470408855612845" lon="10.501479310440395"><ele>135.16666666666666</ele><time>2026-03-22T10:33:44.001Z</time></trkpt><trkpt lat="45.470461087513975" lon="10.501422929224288"><ele>135.0</ele><time>2026-03-22T10:33:46Z</time></trkpt><trkpt lat="45.470550355051124" lon="10.501410181563752"><ele>135.0</ele><time>2026-03-22T10:33:48Z</time></trkpt><trkpt lat="45.4706321959156" lon="10.501368002219856"><ele>135.0</ele><time>2026-03-22T10:33:50Z</time></trkpt><trkpt lat="45.47072105349758" lon="10.501333345487385"><ele>135.0</ele><time>2026-03-22T10:33:52Z</time></trkpt><trkpt lat="45.470810117495795" lon="10.501303200841308"><ele>135.0</ele><time>2026-03-22T10:33:54Z</time></trkpt><trkpt lat="45.470902240293455" lon="10.501267148670296"><ele>135.0</ele><time>2026-03-22T10:33:56Z</time></trkpt><trkpt lat="45.470997500302154" lon="10.501250203791404"><ele>135.0</ele><time>2026-03-22T10:33:58Z</time></trkpt><trkpt lat="45.471107398703566" lon="10.501246143769515"><ele>135.0</ele><time>2026-03-22T10:34:00Z</time></trkpt><trkpt lat="45.471223958830684" lon="10.501251204729732"><ele>135.0</ele><time>2026-03-22T10:34:02Z</time></trkpt><trkpt lat="45.47132244682866" lon="10.501205411307932"><ele>135.0</ele><time>2026-03-22T10:34:04Z</time></trkpt><trkpt lat="45.47140915391925" lon="10.501114236823614"><ele>135.0</ele><time>2026-03-22T10:34:06Z</time></trkpt><trkpt lat="45.471478812460916" lon="10.500991379015433"><ele>134.6</ele><time>2026-03-22T10:34:08Z</time></trkpt><trkpt lat="45.47156385776943" lon="10.500894273455483"><ele>134.2</ele><time>2026-03-22T10:34:10Z</time></trkpt><trkpt lat="45.47163894637078" lon="10.500789290346557"><ele>133.8</ele><time>2026-03-22T10:34:12Z</time></trkpt><trkpt lat="45.47170778953137" lon="10.500664929111528"><ele>133.4</ele><time>2026-03-22T10:34:14Z</time></trkpt><trkpt lat="45.47177157897344" lon="10.500539761434386"><ele>133.0</ele><time>2026-03-22T10:34:16Z</time></trkpt><trkpt lat="45.471844540400475" lon="10.500426638767573"><ele>132.8</ele><time>2026-03-22T10:34:18Z</time></trkpt><trkpt lat="45.47192451594566" lon="10.50033188954294"><ele>132.60000000000002</ele><time>2026-03-22T10:34:20Z</time></trkpt><trkpt lat="45.472004614328576" lon="10.500242350996936"><ele>132.39999999999998</ele><time>2026-03-22T10:34:22Z</time></trkpt><trkpt lat="45.47208571991241" lon="10.500146736135012"><ele>132.2</ele><time>2026-03-22T10:34:24Z</time></trkpt><trkpt lat="45.47216371412986" lon="10.500037467084843"><ele>132.0</ele><time>2026-03-22T10:34:26Z</time></trkpt><trkpt lat="45.4722295171167" lon="10.499922969328898"><ele>132.79999999999998</ele><time>2026-03-22T10:34:28Z</time></trkpt><trkpt lat="45.47228998443925" lon="10.499805372700235"><ele>133.6</ele><time>2026-03-22T10:34:30Z</time></trkpt><trkpt lat="45.472351064798474" lon="10.499690868604507"><ele>134.39999999999998</ele><time>2026-03-22T10:34:32Z</time></trkpt><trkpt lat="45.47241705581079" lon="10.499596717940692"><ele>135.2</ele><time>2026-03-22T10:34:34Z</time></trkpt><trkpt lat="45.47249076073214" lon="10.499525405814552"><ele>136.0</ele><time>2026-03-22T10:34:36Z</time></trkpt><trkpt lat="45.47256426480623" lon="10.499456713841743"><ele>136.0</ele><time>2026-03-22T10:34:38Z</time></trkpt><trkpt lat="45.4726464378115" lon="10.499395094349252"><ele>136.0</ele><time>2026-03-22T10:34:40Z</time></trkpt><trkpt lat="45.47273162671158" lon="10.499312475548695"><ele>136.0</ele><time>2026-03-22T10:34:42Z</time></trkpt><trkpt lat="45.472806966900116" lon="10.499192807961244"><ele>136.0</ele><time>2026-03-22T10:34:44Z</time></trkpt><trkpt lat="45.47285870960827" lon="10.499044784873384"><ele>136.0</ele><time>2026-03-22T10:34:46Z</time></trkpt><trkpt lat="45.472892129346704" lon="10.498887969648383"><ele>136.0</ele><time>2026-03-22T10:34:48Z</time></trkpt><trkpt lat="45.472923132391294" lon="10.498737079823716"><ele>136.0</ele><time>2026-03-22T10:34:50Z</time></trkpt><trkpt lat="45.4729674330728" lon="10.498593520501775"><ele>136.0</ele><time>2026-03-22T10:34:52Z</time></trkpt><trkpt lat="45.473028487262845" lon="10.498474373295116"><ele>136.0</ele><time>2026-03-22T10:34:54Z</time></trkpt><trkpt lat="45.473098637131606" lon="10.498376207480657"><ele>136.0</ele><time>2026-03-22T10:34:56Z</time></trkpt><trkpt lat="45.473165572087765" lon="10.498274317742995"><ele>136.16666666666669</ele><time>2026-03-22T10:34:58Z</time></trkpt><trkpt lat="45.47323168624074" lon="10.498190259406382"><ele>136.33333333333334</ele><time>2026-03-22T10:35:00Z</time></trkpt><trkpt lat="45.47330403929058" lon="10.498098625235448"><ele>136.5</ele><time>2026-03-22T10:35:02Z</time></trkpt><trkpt lat="45.473370349230045" lon="10.498021442284664"><ele>136.66666666666666</ele><time>2026-03-22T10:35:04Z</time></trkpt><trkpt lat="45.47343464073512" lon="10.497943716475802"><ele>136.83333333333331</ele><time>2026-03-22T10:35:06Z</time></trkpt><trkpt lat="45.4735090638885" lon="10.497874143033924"><ele>137.0</ele><time>2026-03-22T10:35:08Z</time></trkpt><trkpt lat="45.47357652050883" lon="10.497785842572156"><ele>137.0</ele><time>2026-03-22T10:35:10Z</time></trkpt><trkpt lat="45.473650320882705" lon="10.497692318632351"><ele>137.0</ele><time>2026-03-22T10:35:12Z</time></trkpt><trkpt lat="45.47373278318057" lon="10.49760775630863"><ele>137.0</ele><time>2026-03-22T10:35:14Z</time></trkpt><trkpt lat="45.47381583494825" lon="10.497527892011123"><ele>137.0</ele><time>2026-03-22T10:35:16Z</time></trkpt><trkpt lat="45.4738936679442" lon="10.497451811528649"><ele>137.0</ele><time>2026-03-22T10:35:18Z</time></trkpt><trkpt lat="45.47397621057785" lon="10.497368410706637"><ele>137.0</ele><time>2026-03-22T10:35:20Z</time></trkpt><trkpt lat="45.474045570630544" lon="10.497276797696399"><ele>137.0</ele><time>2026-03-22T10:35:22Z</time></trkpt><trkpt lat="45.47411498865556" lon="10.497180709580862"><ele>137.0</ele><time>2026-03-22T10:35:24Z</time></trkpt><trkpt lat="45.47418630211279" lon="10.497081907908392"><ele>137.0</ele><time>2026-03-22T10:35:26Z</time></trkpt><trkpt lat="45.47425496476211" lon="10.496975465477826"><ele>137.0</ele><time>2026-03-22T10:35:28Z</time></trkpt><trkpt lat="45.474336693669784" lon="10.496886594897028"><ele>137.0</ele><time>2026-03-22T10:35:30Z</time></trkpt><trkpt lat="45.47442359064665" lon="10.496813467288984"><ele>137.0</ele><time>2026-03-22T10:35:32.001Z</time></trkpt><trkpt lat="45.474511198626175" lon="10.496734424928157"><ele>137.0</ele><time>2026-03-22T10:35:34.001Z</time></trkpt><trkpt lat="45.47461107126906" lon="10.49670298316715"><ele>137.0</ele><time>2026-03-22T10:35:36.001Z</time></trkpt><trkpt lat="45.47470525322824" lon="10.49665380390071"><ele>137.0</ele><time>2026-03-22T10:35:38.001Z</time></trkpt><trkpt lat="45.47480336236637" lon="10.496625962909183"><ele>137.0</ele><time>2026-03-22T10:35:40.001Z</time></trkpt><trkpt lat="45.474904793973664" lon="10.496608552475195"><ele>137.0</ele><time>2026-03-22T10:35:42.001Z</time></trkpt><trkpt lat="45.475005051924136" lon="10.496588507940167"><ele>137.0</ele><time>2026-03-22T10:35:44.001Z</time></trkpt><trkpt lat="45.475105098936936" lon="10.4965681873596"><ele>137.0</ele><time>2026-03-22T10:35:46.001Z</time></trkpt><trkpt lat="45.47520420534784" lon="10.496549026134623"><ele>137.0</ele><time>2026-03-22T10:35:48.001Z</time></trkpt><trkpt lat="45.47529612355211" lon="10.496551347104747"><ele>137.0</ele><time>2026-03-22T10:35:50.001Z</time></trkpt><trkpt lat="45.475389700027605" lon="10.496530788971134"><ele>137.0</ele><time>2026-03-22T10:35:52Z</time></trkpt><trkpt lat="45.47548198739137" lon="10.496512774494951"><ele>137.0</ele><time>2026-03-22T10:35:54Z</time></trkpt><trkpt lat="45.47556884274132" lon="10.496500099582006"><ele>137.0</ele><time>2026-03-22T10:35:56Z</time></trkpt><trkpt lat="45.475647594733104" lon="10.496467319099429"><ele>137.0</ele><time>2026-03-22T10:35:58Z</time></trkpt><trkpt lat="45.475737736909466" lon="10.496446057429601"><ele>137.0</ele><time>2026-03-22T10:36:00Z</time></trkpt><trkpt lat="45.475802546437684" lon="10.496375282834295"><ele>137.0</ele><time>2026-03-22T10:36:02Z</time></trkpt><trkpt lat="45.47580563204994" lon="10.496266043783606"><ele>137.0</ele><time>2026-03-22T10:36:04Z</time></trkpt><trkpt lat="45.47578643037197" lon="10.496167538813555"><ele>137.0</ele><time>2026-03-22T10:36:06Z</time></trkpt><trkpt lat="45.47578089795086" lon="10.49603775532416"><ele>137.0</ele><time>2026-03-22T10:36:09Z</time></trkpt><trkpt lat="45.47577281197405" lon="10.495899541104546"><ele>137.0</ele><time>2026-03-22T10:36:12Z</time></trkpt><trkpt lat="45.47576348072551" lon="10.495801299130331"><ele>137.0</ele><time>2026-03-22T10:36:14Z</time></trkpt><trkpt lat="45.475756338301316" lon="10.495698253326553"><ele>137.16666666666666</ele><time>2026-03-22T10:36:16Z</time></trkpt><trkpt lat="45.475752431959165" lon="10.495592421159264"><ele>137.33333333333331</ele><time>2026-03-22T10:36:18Z</time></trkpt><trkpt lat="45.475748565976254" lon="10.495487793330991"><ele>137.5</ele><time>2026-03-22T10:36:20Z</time></trkpt><trkpt lat="45.47574423904188" lon="10.495379447978529"><ele>137.66666666666666</ele><time>2026-03-22T10:36:22Z</time></trkpt><trkpt lat="45.47574416638943" lon="10.495271618418302"><ele>137.83333333333334</ele><time>2026-03-22T10:36:24Z</time></trkpt><trkpt lat="45.47573702125585" lon="10.495159294581176"><ele>138.0</ele><time>2026-03-22T10:36:26Z</time></trkpt><trkpt lat="45.475727993681936" lon="10.495044875527892"><ele>138.5</ele><time>2026-03-22T10:36:28Z</time></trkpt><trkpt lat="45.47572463125928" lon="10.49493269644832"><ele>139.0</ele><time>2026-03-22T10:36:30Z</time></trkpt><trkpt lat="45.47571465030449" lon="10.494840319584702"><ele>139.5</ele><time>2026-03-22T10:36:32Z</time></trkpt><trkpt lat="45.4757053355082" lon="10.494709097342838"><ele>140.0</ele><time>2026-03-22T10:36:35Z</time></trkpt><trkpt lat="45.47572690554204" lon="10.494609645268794"><ele>140.5</ele><time>2026-03-22T10:36:38Z</time></trkpt><trkpt lat="45.47571364519622" lon="10.494737443969099"><ele>141.0</ele><time>2026-03-22T10:36:46Z</time></trkpt><trkpt lat="45.4757243984724" lon="10.494857112098748"><ele>141.0</ele><time>2026-03-22T10:36:48Z</time></trkpt><trkpt lat="45.475736409050924" lon="10.49499457858669"><ele>141.0</ele><time>2026-03-22T10:36:50Z</time></trkpt><trkpt lat="45.47574319018933" lon="10.49513875625335"><ele>141.0</ele><time>2026-03-22T10:36:52Z</time></trkpt><trkpt lat="45.47574763930672" lon="10.495281127407077"><ele>141.0</ele><time>2026-03-22T10:36:54Z</time></trkpt><trkpt lat="45.47575711054956" lon="10.495428410982823"><ele>141.0</ele><time>2026-03-22T10:36:56Z</time></trkpt><trkpt lat="45.47576088053198" lon="10.495549618615463"><ele>140.4</ele><time>2026-03-22T10:36:57Z</time></trkpt><trkpt lat="45.47575793963261" lon="10.49565089002426"><ele>139.8</ele><time>2026-03-22T10:36:58Z</time></trkpt><trkpt lat="45.47576699706952" lon="10.495805639869273"><ele>139.20000000000002</ele><time>2026-03-22T10:37:00Z</time></trkpt><trkpt lat="45.47578108890633" lon="10.495959417124816"><ele>138.6</ele><time>2026-03-22T10:37:02Z</time></trkpt><trkpt lat="45.47578099562744" lon="10.496104587905151"><ele>138.0</ele><time>2026-03-22T10:37:04Z</time></trkpt><trkpt lat="45.47579884692619" lon="10.496226501337041"><ele>137.8</ele><time>2026-03-22T10:37:06Z</time></trkpt><trkpt lat="45.475805003571026" lon="10.496354037106197"><ele>137.60000000000002</ele><time>2026-03-22T10:37:08Z</time></trkpt><trkpt lat="45.47584821488208" lon="10.49646926661871"><ele>137.39999999999998</ele><time>2026-03-22T10:37:10Z</time></trkpt><trkpt lat="45.47590816995518" lon="10.496586958204375"><ele>137.2</ele><time>2026-03-22T10:37:12Z</time></trkpt><trkpt lat="45.47596424084313" lon="10.496730028524182"><ele>137.0</ele><time>2026-03-22T10:37:14Z</time></trkpt><trkpt lat="45.47597719562858" lon="10.49688403497671"><ele>137.0</ele><time>2026-03-22T10:37:16Z</time></trkpt><trkpt lat="45.47594930176058" lon="10.497016171578652"><ele>137.0</ele><time>2026-03-22T10:37:18Z</time></trkpt><trkpt lat="45.47592890988473" lon="10.497126677768057"><ele>137.0</ele><time>2026-03-22T10:37:20Z</time></trkpt><trkpt lat="45.475942540373694" lon="10.497020498763765"><ele>137.0</ele><time>2026-03-22T10:37:29Z</time></trkpt><trkpt lat="45.47596440164897" lon="10.496890303564436"><ele>137.0</ele><time>2026-03-22T10:37:32Z</time></trkpt><trkpt lat="45.4759634839035" lon="10.496796469254793"><ele>137.0</ele><time>2026-03-22T10:37:34Z</time></trkpt><trkpt lat="45.47594108166143" lon="10.496668625021684"><ele>137.00000000000003</ele><time>2026-03-22T10:37:37Z</time></trkpt><trkpt lat="45.475904952040594" lon="10.496578996594346"><ele>137.0</ele><time>2026-03-22T10:37:39Z</time></trkpt><trkpt lat="45.475863601480874" lon="10.496498282327906"><ele>137.0</ele><time>2026-03-22T10:37:41.001Z</time></trkpt><trkpt lat="45.4758259176028" lon="10.49641126089378"><ele>137.0</ele><time>2026-03-22T10:37:43.001Z</time></trkpt><trkpt lat="45.4758003795516" lon="10.49632191341543"><ele>137.0</ele><time>2026-03-22T10:37:45.001Z</time></trkpt><trkpt lat="45.47579627212788" lon="10.496218679231266"><ele>137.00000000000003</ele><time>2026-03-22T10:37:47.001Z</time></trkpt><trkpt lat="45.475787792075444" lon="10.496109826616864"><ele>137.0</ele><time>2026-03-22T10:37:49.001Z</time></trkpt><trkpt lat="45.47577872958736" lon="10.495995688800571"><ele>137.2</ele><time>2026-03-22T10:37:51.001Z</time></trkpt><trkpt lat="45.47577376923598" lon="10.495872626142656"><ele>137.39999999999998</ele><time>2026-03-22T10:37:53.001Z</time></trkpt><trkpt lat="45.47576260531265" lon="10.495739354797436"><ele>137.60000000000002</ele><time>2026-03-22T10:37:55.001Z</time></trkpt><trkpt lat="45.475757734298774" lon="10.49559983177799"><ele>137.8</ele><time>2026-03-22T10:37:57.001Z</time></trkpt><trkpt lat="45.47574879129186" lon="10.4954543374941"><ele>138.0</ele><time>2026-03-22T10:37:59Z</time></trkpt><trkpt lat="45.475746436962744" lon="10.495311401256032"><ele>138.6</ele><time>2026-03-22T10:38:01Z</time></trkpt><trkpt lat="45.475741769057066" lon="10.49517051761886"><ele>139.20000000000002</ele><time>2026-03-22T10:38:03Z</time></trkpt><trkpt lat="45.47573100150943" lon="10.495031515486987"><ele>139.8</ele><time>2026-03-22T10:38:05Z</time></trkpt><trkpt lat="45.47572291115374" lon="10.494899040820336"><ele>140.4</ele><time>2026-03-22T10:38:07Z</time></trkpt><trkpt lat="45.475720063183005" lon="10.494777599426875"><ele>141.0</ele><time>2026-03-22T10:38:09Z</time></trkpt><trkpt lat="45.47571032110214" lon="10.494656667832517"><ele>142.16666666666666</ele><time>2026-03-22T10:38:11Z</time></trkpt><trkpt lat="45.47568549319243" lon="10.494535674964292"><ele>143.33333333333334</ele><time>2026-03-22T10:38:13Z</time></trkpt><trkpt lat="45.475641081277516" lon="10.494432392773053"><ele>144.5</ele><time>2026-03-22T10:38:15Z</time></trkpt><trkpt lat="45.4756122736091" lon="10.494332394244255"><ele>145.66666666666669</ele><time>2026-03-22T10:38:17Z</time></trkpt><trkpt lat="45.47557404961279" lon="10.49422124104584"><ele>146.83333333333334</ele><time>2026-03-22T10:38:19Z</time></trkpt><trkpt lat="45.47554574442428" lon="10.494106501048966"><ele>148.0</ele><time>2026-03-22T10:38:21Z</time></trkpt><trkpt lat="45.47551788396961" lon="10.49399418225394"><ele>148.0</ele><time>2026-03-22T10:38:23Z</time></trkpt><trkpt lat="45.47550066153675" lon="10.493886676207564"><ele>148.0</ele><time>2026-03-22T10:38:25Z</time></trkpt><trkpt lat="45.47549145865843" lon="10.493776794530719"><ele>148.0</ele><time>2026-03-22T10:38:27Z</time></trkpt><trkpt lat="45.47548731408905" lon="10.493666281871075"><ele>148.0</ele><time>2026-03-22T10:38:29Z</time></trkpt><trkpt lat="45.47550609979379" lon="10.493567464090285"><ele>148.0</ele><time>2026-03-22T10:38:32Z</time></trkpt><trkpt lat="45.475532759961204" lon="10.493467907131407"><ele>148.0</ele><time>2026-03-22T10:38:35Z</time></trkpt><trkpt lat="45.47555684645779" lon="10.493384330233399"><ele>148.0</ele><time>2026-03-22T10:38:38Z</time></trkpt><trkpt lat="45.47558609730912" lon="10.493296678201935"><ele>148.33333333333334</ele><time>2026-03-22T10:38:43Z</time></trkpt><trkpt lat="45.4755826779828" lon="10.493206959989049"><ele>148.66666666666669</ele><time>2026-03-22T10:38:46Z</time></trkpt><trkpt lat="45.47550912890316" lon="10.49314593951929"><ele>149.0</ele><time>2026-03-22T10:38:49Z</time></trkpt><trkpt lat="45.4754412278142" lon="10.493091673723809"><ele>149.33333333333334</ele><time>2026-03-22T10:38:52Z</time></trkpt><trkpt lat="45.47535936895022" lon="10.493025590773932"><ele>149.66666666666666</ele><time>2026-03-22T10:38:55Z</time></trkpt><trkpt lat="45.475300092180426" lon="10.492979484482719"><ele>150.0</ele><time>2026-03-22T10:38:57Z</time></trkpt><trkpt lat="45.47523772430363" lon="10.492932736591793"><ele>150.42857142857142</ele><time>2026-03-22T10:38:59Z</time></trkpt><trkpt lat="45.47517656225561" lon="10.492887421622783"><ele>150.85714285714286</ele><time>2026-03-22T10:39:01Z</time></trkpt><trkpt lat="45.47511533215185" lon="10.49284181479357"><ele>151.28571428571428</ele><time>2026-03-22T10:39:03Z</time></trkpt><trkpt lat="45.47504854362509" lon="10.492802811739134"><ele>151.71428571428572</ele><time>2026-03-22T10:39:05Z</time></trkpt><trkpt lat="45.47497860220384" lon="10.492753672756056"><ele>152.14285714285714</ele><time>2026-03-22T10:39:07Z</time></trkpt><trkpt lat="45.47490683991981" lon="10.492707421608994"><ele>152.57142857142856</ele><time>2026-03-22T10:39:09Z</time></trkpt><trkpt lat="45.47483311719307" lon="10.492657791933345"><ele>153.0</ele><time>2026-03-22T10:39:11Z</time></trkpt><trkpt lat="45.474759297352435" lon="10.492606447647148"><ele>153.0</ele><time>2026-03-22T10:39:13Z</time></trkpt><trkpt lat="45.47468192404243" lon="10.492557649040855"><ele>153.0</ele><time>2026-03-22T10:39:15Z</time></trkpt><trkpt lat="45.47460487972757" lon="10.492505067407063"><ele>153.0</ele><time>2026-03-22T10:39:17Z</time></trkpt><trkpt lat="45.474526870345215" lon="10.492453573472275"><ele>153.0</ele><time>2026-03-22T10:39:19Z</time></trkpt><trkpt lat="45.474444940330855" lon="10.492407027272323"><ele>153.0</ele><time>2026-03-22T10:39:21Z</time></trkpt><trkpt lat="45.47435955029756" lon="10.492359316897835"><ele>153.0</ele><time>2026-03-22T10:39:23Z</time></trkpt><trkpt lat="45.474275584981555" lon="10.492315054416375"><ele>153.0</ele><time>2026-03-22T10:39:25Z</time></trkpt><trkpt lat="45.47418740709981" lon="10.492267238399599"><ele>153.0</ele><time>2026-03-22T10:39:27Z</time></trkpt><trkpt lat="45.47409995214" lon="10.492217764914157"><ele>153.0</ele><time>2026-03-22T10:39:29Z</time></trkpt><trkpt lat="45.4740080900454" lon="10.492170316148767"><ele>153.0</ele><time>2026-03-22T10:39:31Z</time></trkpt><trkpt lat="45.47391752476299" lon="10.492128329336838"><ele>153.0</ele><time>2026-03-22T10:39:33Z</time></trkpt><trkpt lat="45.473826970917905" lon="10.492084726467276"><ele>153.16666666666666</ele><time>2026-03-22T10:39:35Z</time></trkpt><trkpt lat="45.47373743471087" lon="10.492040126749176"><ele>153.33333333333334</ele><time>2026-03-22T10:39:37Z</time></trkpt><trkpt lat="45.47365475226383" lon="10.49199966007398"><ele>153.5</ele><time>2026-03-22T10:39:39Z</time></trkpt><trkpt lat="45.473584764331434" lon="10.49195923253719"><ele>153.66666666666669</ele><time>2026-03-22T10:39:41Z</time></trkpt><trkpt lat="45.4735097896688" lon="10.491928291115078"><ele>153.83333333333334</ele><time>2026-03-22T10:39:43.001Z</time></trkpt><trkpt lat="45.473428920247144" lon="10.491895457528685"><ele>154.0</ele><time>2026-03-22T10:39:45.001Z</time></trkpt><trkpt lat="45.47334341298812" lon="10.491852595972821"><ele>154.0</ele><time>2026-03-22T10:39:47.001Z</time></trkpt><trkpt lat="45.47325494536059" lon="10.491812348559206"><ele>154.0</ele><time>2026-03-22T10:39:49.001Z</time></trkpt><trkpt lat="45.47316646100853" lon="10.491775516542617"><ele>154.0</ele><time>2026-03-22T10:39:51.001Z</time></trkpt><trkpt lat="45.47307965771921" lon="10.491737327766478"><ele>154.0</ele><time>2026-03-22T10:39:53.001Z</time></trkpt><trkpt lat="45.47298586894305" lon="10.491699705182345"><ele>154.0</ele><time>2026-03-22T10:39:55.001Z</time></trkpt><trkpt lat="45.47289480959334" lon="10.491653768178123"><ele>153.6</ele><time>2026-03-22T10:39:57.001Z</time></trkpt><trkpt lat="45.472798638565564" lon="10.49161712754817"><ele>153.2</ele><time>2026-03-22T10:39:59.001Z</time></trkpt><trkpt lat="45.47270486407413" lon="10.491569756745124"><ele>152.79999999999998</ele><time>2026-03-22T10:40:01.001Z</time></trkpt><trkpt lat="45.472608202292534" lon="10.49151195813138"><ele>152.4</ele><time>2026-03-22T10:40:03.001Z</time></trkpt><trkpt lat="45.47250938670733" lon="10.491461355867006"><ele>152.0</ele><time>2026-03-22T10:40:05Z</time></trkpt><trkpt lat="45.472406275924484" lon="10.491417849441495"><ele>152.0</ele><time>2026-03-22T10:40:07Z</time></trkpt><trkpt lat="45.47230224040864" lon="10.491371218954093"><ele>152.0</ele><time>2026-03-22T10:40:09Z</time></trkpt><trkpt lat="45.47219871728741" lon="10.491326045077516"><ele>152.0</ele><time>2026-03-22T10:40:11Z</time></trkpt><trkpt lat="45.472095415377574" lon="10.491275770585517"><ele>152.0</ele><time>2026-03-22T10:40:13Z</time></trkpt><trkpt lat="45.4719945632215" lon="10.491231135812583"><ele>152.0</ele><time>2026-03-22T10:40:15Z</time></trkpt><trkpt lat="45.47189514607889" lon="10.491192859876211"><ele>152.4</ele><time>2026-03-22T10:40:17Z</time></trkpt><trkpt lat="45.47179152147374" lon="10.491153306708451"><ele>152.79999999999998</ele><time>2026-03-22T10:40:19Z</time></trkpt><trkpt lat="45.47169357879005" lon="10.491102180110042"><ele>153.2</ele><time>2026-03-22T10:40:21Z</time></trkpt><trkpt lat="45.47159483602045" lon="10.491057041768153"><ele>153.6</ele><time>2026-03-22T10:40:23Z</time></trkpt><trkpt lat="45.47149835744988" lon="10.491019371433863"><ele>154.0</ele><time>2026-03-22T10:40:25Z</time></trkpt><trkpt lat="45.4714030875287" lon="10.490980490466109"><ele>154.0</ele><time>2026-03-22T10:40:27Z</time></trkpt><trkpt lat="45.47130845163214" lon="10.49094052435636"><ele>154.0</ele><time>2026-03-22T10:40:29Z</time></trkpt><trkpt lat="45.47120622680406" lon="10.490895528485877"><ele>154.0</ele><time>2026-03-22T10:40:31Z</time></trkpt><trkpt lat="45.471102261897755" lon="10.490846983537027"><ele>154.0</ele><time>2026-03-22T10:40:33Z</time></trkpt><trkpt lat="45.471006293759956" lon="10.490806017157782"><ele>154.0</ele><time>2026-03-22T10:40:35Z</time></trkpt><trkpt lat="45.47090863842627" lon="10.490767668099647"><ele>154.4</ele><time>2026-03-22T10:40:37Z</time></trkpt><trkpt lat="45.47081447742515" lon="10.490720044187867"><ele>154.8</ele><time>2026-03-22T10:40:39Z</time></trkpt><trkpt lat="45.47071750459077" lon="10.490683703961562"><ele>155.2</ele><time>2026-03-22T10:40:41Z</time></trkpt><trkpt lat="45.47062014684348" lon="10.49064179162044"><ele>155.6</ele><time>2026-03-22T10:40:43Z</time></trkpt><trkpt lat="45.47052635206487" lon="10.490599581840739"><ele>156.0</ele><time>2026-03-22T10:40:45Z</time></trkpt><trkpt lat="45.47043413065431" lon="10.490558799567442"><ele>156.4</ele><time>2026-03-22T10:40:47Z</time></trkpt><trkpt lat="45.470342828982915" lon="10.490522244946966"><ele>156.8</ele><time>2026-03-22T10:40:49Z</time></trkpt><trkpt lat="45.47025237284125" lon="10.490489703185194"><ele>157.20000000000002</ele><time>2026-03-22T10:40:51Z</time></trkpt><trkpt lat="45.47016189833241" lon="10.490443828590456"><ele>157.6</ele><time>2026-03-22T10:40:53Z</time></trkpt><trkpt lat="45.470070379433125" lon="10.4903994624624"><ele>158.0</ele><time>2026-03-22T10:40:55Z</time></trkpt><trkpt lat="45.46997729940288" lon="10.490357683441678"><ele>158.20000000000002</ele><time>2026-03-22T10:40:57Z</time></trkpt><trkpt lat="45.469881848162345" lon="10.490307492254217"><ele>158.4</ele><time>2026-03-22T10:40:59Z</time></trkpt><trkpt lat="45.46978636357993" lon="10.490268748614476"><ele>158.60000000000002</ele><time>2026-03-22T10:41:01Z</time></trkpt><trkpt lat="45.46969288406852" lon="10.490232481136788"><ele>158.8</ele><time>2026-03-22T10:41:03Z</time></trkpt><trkpt lat="45.469601146491186" lon="10.490196226428042"><ele>159.0</ele><time>2026-03-22T10:41:05Z</time></trkpt><trkpt lat="45.46950919593919" lon="10.490157896993246"><ele>159.4</ele><time>2026-03-22T10:41:07Z</time></trkpt><trkpt lat="45.46941945211888" lon="10.49011304138004"><ele>159.8</ele><time>2026-03-22T10:41:09Z</time></trkpt><trkpt lat="45.46932586135514" lon="10.490067871336613"><ele>160.20000000000002</ele><time>2026-03-22T10:41:11Z</time></trkpt><trkpt lat="45.46923619766121" lon="10.490024759192352"><ele>160.60000000000002</ele><time>2026-03-22T10:41:13Z</time></trkpt><trkpt lat="45.469148706825095" lon="10.48998541726964"><ele>161.0</ele><time>2026-03-22T10:41:15Z</time></trkpt><trkpt lat="45.469065069904396" lon="10.489954872619501"><ele>161.0</ele><time>2026-03-22T10:41:17Z</time></trkpt><trkpt lat="45.468983910060665" lon="10.489919603998949"><ele>161.0</ele><time>2026-03-22T10:41:19Z</time></trkpt><trkpt lat="45.46890474491875" lon="10.489882790588629"><ele>161.0</ele><time>2026-03-22T10:41:21Z</time></trkpt><trkpt lat="45.46882296719059" lon="10.489854897625326"><ele>161.0</ele><time>2026-03-22T10:41:23Z</time></trkpt><trkpt lat="45.46874369005609" lon="10.48981536994813"><ele>161.0</ele><time>2026-03-22T10:41:25Z</time></trkpt><trkpt lat="45.46866469332103" lon="10.489777730104617"><ele>161.0</ele><time>2026-03-22T10:41:27Z</time></trkpt><trkpt lat="45.468590030060255" lon="10.48974236249841"><ele>161.66666666666666</ele><time>2026-03-22T10:41:29Z</time></trkpt><trkpt lat="45.46851178805222" lon="10.489708516249312"><ele>162.33333333333331</ele><time>2026-03-22T10:41:31Z</time></trkpt><trkpt lat="45.468431146259235" lon="10.48967445204261"><ele>163.0</ele><time>2026-03-22T10:41:33Z</time></trkpt><trkpt lat="45.46834900824966" lon="10.489636269287413"><ele>163.66666666666666</ele><time>2026-03-22T10:41:35Z</time></trkpt><trkpt lat="45.46826410447412" lon="10.489592175551353"><ele>164.33333333333334</ele><time>2026-03-22T10:41:37Z</time></trkpt><trkpt lat="45.46816941391" lon="10.489556018251852"><ele>165.0</ele><time>2026-03-22T10:41:39Z</time></trkpt><trkpt lat="45.468073889653404" lon="10.489511421699518"><ele>165.6</ele><time>2026-03-22T10:41:41Z</time></trkpt><trkpt lat="45.46797780142306" lon="10.48946666443376"><ele>166.2</ele><time>2026-03-22T10:41:43Z</time></trkpt><trkpt lat="45.46787487544035" lon="10.489425423178147"><ele>166.8</ele><time>2026-03-22T10:41:45Z</time></trkpt><trkpt lat="45.46777168546526" lon="10.489377491387394"><ele>167.4</ele><time>2026-03-22T10:41:47Z</time></trkpt><trkpt lat="45.467663930312746" lon="10.489337363778432"><ele>168.0</ele><time>2026-03-22T10:41:49Z</time></trkpt><trkpt lat="45.46755146406216" lon="10.489295004081143"><ele>168.0</ele><time>2026-03-22T10:41:51Z</time></trkpt><trkpt lat="45.46743707445307" lon="10.489249344400836"><ele>168.0</ele><time>2026-03-22T10:41:53Z</time></trkpt><trkpt lat="45.46732127872085" lon="10.489208919556075"><ele>168.0</ele><time>2026-03-22T10:41:55Z</time></trkpt><trkpt lat="45.467201972458994" lon="10.48917259867688"><ele>168.0</ele><time>2026-03-22T10:41:57Z</time></trkpt><trkpt lat="45.46713981562411" lon="10.48915367189965"><ele>168.0</ele><time>2026-03-22T10:41:58Z</time></trkpt><trkpt lat="45.467019363368266" lon="10.489116297547788"><ele>167.60000000000002</ele><time>2026-03-22T10:42:00Z</time></trkpt><trkpt lat="45.46689658329738" lon="10.489073691645528"><ele>167.20000000000002</ele><time>2026-03-22T10:42:02Z</time></trkpt><trkpt lat="45.46677337529327" lon="10.489043639320952"><ele>166.8</ele><time>2026-03-22T10:42:04Z</time></trkpt><trkpt lat="45.46664946305472" lon="10.489016548424283"><ele>166.4</ele><time>2026-03-22T10:42:06.001Z</time></trkpt><trkpt lat="45.466586286712676" lon="10.489006420747062"><ele>166.0</ele><time>2026-03-22T10:42:07.001Z</time></trkpt><trkpt lat="45.466522895737874" lon="10.488993845816685"><ele>166.0</ele><time>2026-03-22T10:42:08.001Z</time></trkpt><trkpt lat="45.46646085008132" lon="10.488978314722432"><ele>166.0</ele><time>2026-03-22T10:42:09.001Z</time></trkpt><trkpt lat="45.466399146798004" lon="10.48895753066184"><ele>166.0</ele><time>2026-03-22T10:42:10Z</time></trkpt><trkpt lat="45.466275055385104" lon="10.48892535179531"><ele>166.0</ele><time>2026-03-22T10:42:12Z</time></trkpt><trkpt lat="45.46615230019109" lon="10.488903728059608"><ele>166.0</ele><time>2026-03-22T10:42:14Z</time></trkpt><trkpt lat="45.466028169046595" lon="10.488877275210157"><ele>164.25</ele><time>2026-03-22T10:42:16Z</time></trkpt><trkpt lat="45.46590825389796" lon="10.488851601474295"><ele>162.5</ele><time>2026-03-22T10:42:18Z</time></trkpt><trkpt lat="45.465788375744644" lon="10.488824585659922"><ele>160.75</ele><time>2026-03-22T10:42:20Z</time></trkpt><trkpt lat="45.46567186186882" lon="10.48880282975276"><ele>159.0</ele><time>2026-03-22T10:42:22Z</time></trkpt><trkpt lat="45.465554897400196" lon="10.48877695122365"><ele>160.2</ele><time>2026-03-22T10:42:24Z</time></trkpt><trkpt lat="45.465441992583536" lon="10.48875998640265"><ele>161.4</ele><time>2026-03-22T10:42:26Z</time></trkpt><trkpt lat="45.46532970229667" lon="10.488744649871796"><ele>162.6</ele><time>2026-03-22T10:42:28Z</time></trkpt><trkpt lat="45.46522084857848" lon="10.488740801694624"><ele>163.8</ele><time>2026-03-22T10:42:30Z</time></trkpt><trkpt lat="45.465111980846245" lon="10.4887428601365"><ele>165.0</ele><time>2026-03-22T10:42:32Z</time></trkpt><trkpt lat="45.46500212967962" lon="10.488755078784456"><ele>165.0</ele><time>2026-03-22T10:42:34Z</time></trkpt><trkpt lat="45.46488870607455" lon="10.488775078625254"><ele>165.0</ele><time>2026-03-22T10:42:36Z</time></trkpt><trkpt lat="45.4647722974797" lon="10.48880119107178"><ele>165.0</ele><time>2026-03-22T10:42:38Z</time></trkpt><trkpt lat="45.46466289911322" lon="10.488840133639536"><ele>165.0</ele><time>2026-03-22T10:42:40Z</time></trkpt><trkpt lat="45.46455480966172" lon="10.488883688258861"><ele>165.6</ele><time>2026-03-22T10:42:42Z</time></trkpt><trkpt lat="45.464452671050566" lon="10.488943080971213"><ele>166.2</ele><time>2026-03-22T10:42:44Z</time></trkpt><trkpt lat="45.46435508477808" lon="10.489005790115442"><ele>166.8</ele><time>2026-03-22T10:42:46Z</time></trkpt><trkpt lat="45.46425178021294" lon="10.489075712070358"><ele>167.4</ele><time>2026-03-22T10:42:48Z</time></trkpt><trkpt lat="45.464151751633146" lon="10.489143996262676"><ele>168.0</ele><time>2026-03-22T10:42:50Z</time></trkpt><trkpt lat="45.46405301031364" lon="10.489221040527372"><ele>168.0</ele><time>2026-03-22T10:42:52Z</time></trkpt><trkpt lat="45.4639557264251" lon="10.489297779549826"><ele>168.0</ele><time>2026-03-22T10:42:54Z</time></trkpt><trkpt lat="45.46385986693704" lon="10.48937512149589"><ele>168.0</ele><time>2026-03-22T10:42:56Z</time></trkpt><trkpt lat="45.463764511449995" lon="10.489445207779392"><ele>168.0</ele><time>2026-03-22T10:42:58Z</time></trkpt><trkpt lat="45.46367839767828" lon="10.489518422735767"><ele>168.0</ele><time>2026-03-22T10:43:00Z</time></trkpt><trkpt lat="45.4636011210474" lon="10.489597468753267"><ele>168.0</ele><time>2026-03-22T10:43:02Z</time></trkpt><trkpt lat="45.463520868377984" lon="10.489661761506357"><ele>168.0</ele><time>2026-03-22T10:43:04Z</time></trkpt><trkpt lat="45.463435176117144" lon="10.489726140803592"><ele>168.0</ele><time>2026-03-22T10:43:06Z</time></trkpt><trkpt lat="45.46334429327091" lon="10.489791330481852"><ele>168.0</ele><time>2026-03-22T10:43:08Z</time></trkpt><trkpt lat="45.46325084733849" lon="10.489862709621194"><ele>168.0</ele><time>2026-03-22T10:43:10Z</time></trkpt><trkpt lat="45.463155633973365" lon="10.4899389561918"><ele>168.0</ele><time>2026-03-22T10:43:12Z</time></trkpt><trkpt lat="45.46305762816231" lon="10.49001765618118"><ele>168.0</ele><time>2026-03-22T10:43:14Z</time></trkpt><trkpt lat="45.462952249084715" lon="10.49008941626655"><ele>168.0</ele><time>2026-03-22T10:43:16Z</time></trkpt><trkpt lat="45.46283846752897" lon="10.490135088451169"><ele>168.0</ele><time>2026-03-22T10:43:18Z</time></trkpt><trkpt lat="45.46271980162015" lon="10.49015376931916"><ele>168.25</ele><time>2026-03-22T10:43:20Z</time></trkpt><trkpt lat="45.46259850754332" lon="10.490135477305584"><ele>168.5</ele><time>2026-03-22T10:43:22Z</time></trkpt><trkpt lat="45.462483432853944" lon="10.49009061439078"><ele>168.75</ele><time>2026-03-22T10:43:24Z</time></trkpt><trkpt lat="45.462370388348226" lon="10.490031458454888"><ele>169.0</ele><time>2026-03-22T10:43:26Z</time></trkpt><trkpt lat="45.46227037249683" lon="10.489946424259314"><ele>169.0</ele><time>2026-03-22T10:43:28Z</time></trkpt><trkpt lat="45.462174892527" lon="10.489848502312471"><ele>169.0</ele><time>2026-03-22T10:43:30Z</time></trkpt><trkpt lat="45.46209041647632" lon="10.489760672899806"><ele>169.0</ele><time>2026-03-22T10:43:32Z</time></trkpt><trkpt lat="45.46201002740233" lon="10.489670187052498"><ele>169.0</ele><time>2026-03-22T10:43:34Z</time></trkpt><trkpt lat="45.46192525067712" lon="10.489588707240538"><ele>169.0</ele><time>2026-03-22T10:43:36Z</time></trkpt><trkpt lat="45.46187140354616" lon="10.489456020942876"><ele>168.75</ele><time>2026-03-22T10:43:38Z</time></trkpt><trkpt lat="45.46181529240281" lon="10.489316599701693"><ele>168.5</ele><time>2026-03-22T10:43:40Z</time></trkpt><trkpt lat="45.46176134106656" lon="10.489170687201117"><ele>168.25</ele><time>2026-03-22T10:43:42Z</time></trkpt><trkpt lat="45.46170841388015" lon="10.489026300794446"><ele>168.0</ele><time>2026-03-22T10:43:44Z</time></trkpt><trkpt lat="45.46166714486874" lon="10.488880511660371"><ele>168.0</ele><time>2026-03-22T10:43:46Z</time></trkpt><trkpt lat="45.46161587380378" lon="10.48875236771717"><ele>168.0</ele><time>2026-03-22T10:43:48Z</time></trkpt><trkpt lat="45.461523598047904" lon="10.48867245360892"><ele>168.0</ele><time>2026-03-22T10:43:50Z</time></trkpt><trkpt lat="45.46140947820707" lon="10.488654223693947"><ele>168.0</ele><time>2026-03-22T10:43:52Z</time></trkpt><trkpt lat="45.46133651799866" lon="10.488631948112102"><ele>168.0</ele><time>2026-03-22T10:43:53Z</time></trkpt><trkpt lat="45.46125327529434" lon="10.488606748153076"><ele>168.0</ele><time>2026-03-22T10:43:54Z</time></trkpt><trkpt lat="45.461175587204494" lon="10.488569825086937"><ele>168.0</ele><time>2026-03-22T10:43:55Z</time></trkpt><trkpt lat="45.46110766591064" lon="10.488531363195149"><ele>168.0</ele><time>2026-03-22T10:43:56Z</time></trkpt><trkpt lat="45.46103010263623" lon="10.48850475719985"><ele>168.0</ele><time>2026-03-22T10:43:57Z</time></trkpt><trkpt lat="45.460953706947606" lon="10.488478028065016"><ele>168.0</ele><time>2026-03-22T10:43:58Z</time></trkpt><trkpt lat="45.46087225966468" lon="10.488455245725689"><ele>168.0</ele><time>2026-03-22T10:43:59Z</time></trkpt><trkpt lat="45.46079392762805" lon="10.488433490483082"><ele>168.0</ele><time>2026-03-22T10:44:00Z</time></trkpt><trkpt lat="45.460718948734126" lon="10.488425778915508"><ele>168.0</ele><time>2026-03-22T10:44:01Z</time></trkpt><trkpt lat="45.46064624457075" lon="10.48842396637494"><ele>168.0</ele><time>2026-03-22T10:44:02Z</time></trkpt><trkpt lat="45.46057142057711" lon="10.488424804102895"><ele>168.0</ele><time>2026-03-22T10:44:03Z</time></trkpt><trkpt lat="45.460501250663306" lon="10.488432813449986"><ele>168.0</ele><time>2026-03-22T10:44:04Z</time></trkpt><trkpt lat="45.46043154793166" lon="10.48844543133763"><ele>168.0</ele><time>2026-03-22T10:44:05Z</time></trkpt><trkpt lat="45.46036152824537" lon="10.488462995602132"><ele>168.0</ele><time>2026-03-22T10:44:06Z</time></trkpt><trkpt lat="45.460291405777184" lon="10.488474004672355"><ele>167.14285714285714</ele><time>2026-03-22T10:44:07Z</time></trkpt><trkpt lat="45.46022652088083" lon="10.488483796162877"><ele>166.28571428571428</ele><time>2026-03-22T10:44:08Z</time></trkpt><trkpt lat="45.46016271968856" lon="10.48849184180431"><ele>165.42857142857144</ele><time>2026-03-22T10:44:09Z</time></trkpt><trkpt lat="45.46009859374241" lon="10.488480661643216"><ele>164.57142857142856</ele><time>2026-03-22T10:44:10Z</time></trkpt><trkpt lat="45.46003521702434" lon="10.488444214433295"><ele>163.71428571428572</ele><time>2026-03-22T10:44:11Z</time></trkpt><trkpt lat="45.459979305744795" lon="10.488398439745897"><ele>162.85714285714286</ele><time>2026-03-22T10:44:12Z</time></trkpt><trkpt lat="45.459924703450376" lon="10.48834884349562"><ele>162.0</ele><time>2026-03-22T10:44:13Z</time></trkpt><trkpt lat="45.45986823005879" lon="10.488304714641604"><ele>162.0</ele><time>2026-03-22T10:44:14Z</time></trkpt><trkpt lat="45.459748958694476" lon="10.488236625146875"><ele>162.0</ele><time>2026-03-22T10:44:16Z</time></trkpt><trkpt lat="45.45968892385648" lon="10.488209579812679"><ele>162.0</ele><time>2026-03-22T10:44:17Z</time></trkpt><trkpt lat="45.45957330015244" lon="10.488141222420719"><ele>162.0</ele><time>2026-03-22T10:44:19Z</time></trkpt><trkpt lat="45.45951317562233" lon="10.488109268457324"><ele>162.0</ele><time>2026-03-22T10:44:20Z</time></trkpt><trkpt lat="45.45945135009865" lon="10.48808053398182"><ele>162.0</ele><time>2026-03-22T10:44:21Z</time></trkpt><trkpt lat="45.4593907541233" lon="10.488050552984394"><ele>161.8</ele><time>2026-03-22T10:44:22Z</time></trkpt><trkpt lat="45.45933014384307" lon="10.488023032080402"><ele>161.6</ele><time>2026-03-22T10:44:23Z</time></trkpt><trkpt lat="45.459269907061" lon="10.487995095140072"><ele>161.4</ele><time>2026-03-22T10:44:24Z</time></trkpt><trkpt lat="45.459153460484295" lon="10.487934649048865"><ele>161.20000000000002</ele><time>2026-03-22T10:44:26Z</time></trkpt><trkpt lat="45.45904610600327" lon="10.4878680923175"><ele>161.0</ele><time>2026-03-22T10:44:28Z</time></trkpt><trkpt lat="45.45894512141908" lon="10.487798945204906"><ele>161.16666666666666</ele><time>2026-03-22T10:44:30Z</time></trkpt><trkpt lat="45.45886027903878" lon="10.487724631751304"><ele>161.33333333333331</ele><time>2026-03-22T10:44:32Z</time></trkpt><trkpt lat="45.458792124388054" lon="10.487707372239749"><ele>161.5</ele><time>2026-03-22T10:44:35Z</time></trkpt><trkpt lat="45.45873518362501" lon="10.487773531405264"><ele>161.66666666666666</ele><time>2026-03-22T10:44:37Z</time></trkpt><trkpt lat="45.45877513716335" lon="10.48762703067085"><ele>161.83333333333334</ele><time>2026-03-22T10:44:49Z</time></trkpt><trkpt lat="45.45871179257181" lon="10.487544916609856"><ele>162.0</ele><time>2026-03-22T10:44:52Z</time></trkpt><trkpt lat="45.45864717545081" lon="10.487489969438345"><ele>162.0</ele><time>2026-03-22T10:44:54Z</time></trkpt><trkpt lat="45.45859322085962" lon="10.487432217032469"><ele>162.0</ele><time>2026-03-22T10:44:55Z</time></trkpt><trkpt lat="45.458508577461394" lon="10.487362571926564"><ele>162.0</ele><time>2026-03-22T10:44:57Z</time></trkpt><trkpt lat="45.45841908445066" lon="10.487291769533387"><ele>162.0</ele><time>2026-03-22T10:44:59Z</time></trkpt><trkpt lat="45.45832922286636" lon="10.487213561162715"><ele>162.0</ele><time>2026-03-22T10:45:01Z</time></trkpt><trkpt lat="45.45823815960166" lon="10.487127874757082"><ele>162.0</ele><time>2026-03-22T10:45:03Z</time></trkpt><trkpt lat="45.45815333334542" lon="10.487034146061468"><ele>162.0</ele><time>2026-03-22T10:45:05Z</time></trkpt><trkpt lat="45.45808304102601" lon="10.486943462839813"><ele>162.0</ele><time>2026-03-22T10:45:07Z</time></trkpt><trkpt lat="45.458036237706956" lon="10.48686625796068"><ele>162.0</ele><time>2026-03-22T10:45:09Z</time></trkpt><trkpt lat="45.458008449794995" lon="10.48677846113193"><ele>162.0</ele><time>2026-03-22T10:45:13Z</time></trkpt><trkpt lat="45.45796513695919" lon="10.486705585453528"><ele>162.0</ele><time>2026-03-22T10:45:15Z</time></trkpt><trkpt lat="45.457889134016284" lon="10.486682469888503"><ele>162.0</ele><time>2026-03-22T10:45:17Z</time></trkpt><trkpt lat="45.45781467530851" lon="10.486732501508742"><ele>162.0</ele><time>2026-03-22T10:45:19Z</time></trkpt><trkpt lat="45.45775686663366" lon="10.48684193666005"><ele>162.0</ele><time>2026-03-22T10:45:21Z</time></trkpt><trkpt lat="45.457724587149734" lon="10.486984891148502"><ele>162.0</ele><time>2026-03-22T10:45:23Z</time></trkpt><trkpt lat="45.45769074178159" lon="10.487162610272698"><ele>162.0</ele><time>2026-03-22T10:45:25Z</time></trkpt><trkpt lat="45.45768039844106" lon="10.487258970015747"><ele>161.0</ele><time>2026-03-22T10:45:26Z</time></trkpt><trkpt lat="45.45767758816576" lon="10.487352154368532"><ele>160.0</ele><time>2026-03-22T10:45:27Z</time></trkpt><trkpt lat="45.45765868048317" lon="10.48743951247728"><ele>159.0</ele><time>2026-03-22T10:45:28Z</time></trkpt><trkpt lat="45.4576499116955" lon="10.487608220967195"><ele>158.0</ele><time>2026-03-22T10:45:30Z</time></trkpt><trkpt lat="45.45768804992344" lon="10.487769807879781"><ele>157.0</ele><time>2026-03-22T10:45:32Z</time></trkpt><trkpt lat="45.457729859808275" lon="10.48791987634152"><ele>157.0</ele><time>2026-03-22T10:45:34Z</time></trkpt><trkpt lat="45.45777170492159" lon="10.488063586038217"><ele>157.0</ele><time>2026-03-22T10:45:36Z</time></trkpt><trkpt lat="45.45782044008948" lon="10.48819563568421"><ele>157.0</ele><time>2026-03-22T10:45:38Z</time></trkpt><trkpt lat="45.45786897978889" lon="10.48832732267236"><ele>157.0</ele><time>2026-03-22T10:45:40Z</time></trkpt><trkpt lat="45.457916086674565" lon="10.488461875579073"><ele>157.0</ele><time>2026-03-22T10:45:42Z</time></trkpt><trkpt lat="45.457968025876596" lon="10.488590624955151"><ele>157.8</ele><time>2026-03-22T10:45:44Z</time></trkpt><trkpt lat="45.45800539177429" lon="10.48872853958154"><ele>158.6</ele><time>2026-03-22T10:45:46Z</time></trkpt><trkpt lat="45.458055337248176" lon="10.48885816181905"><ele>159.4</ele><time>2026-03-22T10:45:48Z</time></trkpt><trkpt lat="45.45810918619463" lon="10.488977787092953"><ele>160.20000000000002</ele><time>2026-03-22T10:45:50Z</time></trkpt><trkpt lat="45.458133560233264" lon="10.489124057472612"><ele>161.0</ele><time>2026-03-22T10:45:52Z</time></trkpt><trkpt lat="45.458130695674924" lon="10.489277101855635"><ele>161.0</ele><time>2026-03-22T10:45:54Z</time></trkpt><trkpt lat="45.45811336494826" lon="10.48938762130476"><ele>161.0</ele><time>2026-03-22T10:45:57Z</time></trkpt><trkpt lat="45.45803880412148" lon="10.489462676235785"><ele>161.0</ele><time>2026-03-22T10:46:00Z</time></trkpt><trkpt lat="45.45796216760128" lon="10.48951119158441"><ele>161.0</ele><time>2026-03-22T10:46:02Z</time></trkpt><trkpt lat="45.457890762364755" lon="10.489571003788845"><ele>161.0</ele><time>2026-03-22T10:46:04Z</time></trkpt><trkpt lat="45.457810773647786" lon="10.489628880836642"><ele>161.0</ele><time>2026-03-22T10:46:06Z</time></trkpt><trkpt lat="45.457729073104574" lon="10.48967435438554"><ele>161.0</ele><time>2026-03-22T10:46:08Z</time></trkpt><trkpt lat="45.45763995386634" lon="10.489723397589264"><ele>161.0</ele><time>2026-03-22T10:46:10Z</time></trkpt><trkpt lat="45.45754873161855" lon="10.489771869654394"><ele>161.0</ele><time>2026-03-22T10:46:12Z</time></trkpt><trkpt lat="45.45744940360868" lon="10.489782563525448"><ele>161.0</ele><time>2026-03-22T10:46:14Z</time></trkpt><trkpt lat="45.4573605340772" lon="10.489692117030367"><ele>161.0</ele><time>2026-03-22T10:46:16Z</time></trkpt><trkpt lat="45.457283846887734" lon="10.489577249872244"><ele>161.0</ele><time>2026-03-22T10:46:18Z</time></trkpt><trkpt lat="45.45719632009215" lon="10.489469364666265"><ele>161.0</ele><time>2026-03-22T10:46:20Z</time></trkpt><trkpt lat="45.457116102880285" lon="10.489351502822569"><ele>161.0</ele><time>2026-03-22T10:46:22Z</time></trkpt><trkpt lat="45.45703677812297" lon="10.48922614713541"><ele>161.0</ele><time>2026-03-22T10:46:24Z</time></trkpt><trkpt lat="45.45695312237837" lon="10.489102619644294"><ele>160.8</ele><time>2026-03-22T10:46:26Z</time></trkpt><trkpt lat="45.4569120271824" lon="10.489034062720219"><ele>160.60000000000002</ele><time>2026-03-22T10:46:27Z</time></trkpt><trkpt lat="45.456878649741576" lon="10.48895586189905"><ele>160.4</ele><time>2026-03-22T10:46:28Z</time></trkpt><trkpt lat="45.45681753342559" lon="10.48880284498097"><ele>160.2</ele><time>2026-03-22T10:46:30Z</time></trkpt><trkpt lat="45.4567797686941" lon="10.488632992039346"><ele>160.0</ele><time>2026-03-22T10:46:32Z</time></trkpt><trkpt lat="45.45672497246823" lon="10.488484792274452"><ele>159.83333333333334</ele><time>2026-03-22T10:46:34Z</time></trkpt><trkpt lat="45.45669008481905" lon="10.488407964651262"><ele>159.66666666666669</ele><time>2026-03-22T10:46:35Z</time></trkpt><trkpt lat="45.4566341048752" lon="10.488252599071295"><ele>159.5</ele><time>2026-03-22T10:46:37Z</time></trkpt><trkpt lat="45.45660365126189" lon="10.488171644960003"><ele>159.33333333333334</ele><time>2026-03-22T10:46:38Z</time></trkpt><trkpt lat="45.456571770608505" lon="10.488093629940426"><ele>159.16666666666666</ele><time>2026-03-22T10:46:39Z</time></trkpt><trkpt lat="45.456539912091834" lon="10.488015573963374"><ele>159.0</ele><time>2026-03-22T10:46:40Z</time></trkpt><trkpt lat="45.45648446370653" lon="10.487856300334442"><ele>158.42857142857142</ele><time>2026-03-22T10:46:42Z</time></trkpt><trkpt lat="45.45645449572324" lon="10.48777703034304"><ele>157.85714285714286</ele><time>2026-03-22T10:46:43Z</time></trkpt><trkpt lat="45.45642196127979" lon="10.4876987932305"><ele>157.28571428571428</ele><time>2026-03-22T10:46:44Z</time></trkpt><trkpt lat="45.456386179769076" lon="10.487622498363777"><ele>156.71428571428572</ele><time>2026-03-22T10:46:45Z</time></trkpt><trkpt lat="45.456346655996605" lon="10.487546343518991"><ele>156.14285714285714</ele><time>2026-03-22T10:46:46Z</time></trkpt><trkpt lat="45.45630922033139" lon="10.487469986549394"><ele>155.57142857142858</ele><time>2026-03-22T10:46:47Z</time></trkpt><trkpt lat="45.456271408571276" lon="10.487391756725074"><ele>155.0</ele><time>2026-03-22T10:46:48Z</time></trkpt><trkpt lat="45.4562263419357" lon="10.487319850679238"><ele>155.42857142857144</ele><time>2026-03-22T10:46:49Z</time></trkpt><trkpt lat="45.456178835615816" lon="10.487248827385084"><ele>155.85714285714286</ele><time>2026-03-22T10:46:50Z</time></trkpt><trkpt lat="45.45612967993775" lon="10.487179864574651"><ele>156.28571428571428</ele><time>2026-03-22T10:46:51Z</time></trkpt><trkpt lat="45.45607852396462" lon="10.48711499858476"><ele>156.71428571428572</ele><time>2026-03-22T10:46:52Z</time></trkpt><trkpt lat="45.45602408863218" lon="10.487048681925964"><ele>157.14285714285714</ele><time>2026-03-22T10:46:53Z</time></trkpt><trkpt lat="45.45597050282767" lon="10.486987509237352"><ele>157.57142857142858</ele><time>2026-03-22T10:46:54Z</time></trkpt><trkpt lat="45.45591066755241" lon="10.48693075396147"><ele>158.0</ele><time>2026-03-22T10:46:55Z</time></trkpt><trkpt lat="45.45584884736231" lon="10.486876808874964"><ele>158.00000000000003</ele><time>2026-03-22T10:46:56Z</time></trkpt><trkpt lat="45.45578653546454" lon="10.486823715106192"><ele>158.0</ele><time>2026-03-22T10:46:57Z</time></trkpt><trkpt lat="45.455720374795376" lon="10.486769670551222"><ele>158.0</ele><time>2026-03-22T10:46:58Z</time></trkpt><trkpt lat="45.45565654401445" lon="10.486716601854166"><ele>158.0</ele><time>2026-03-22T10:46:59Z</time></trkpt><trkpt lat="45.455590413119104" lon="10.486666839971729"><ele>158.0</ele><time>2026-03-22T10:47:00Z</time></trkpt><trkpt lat="45.4555229973201" lon="10.48661978224061"><ele>158.00000000000003</ele><time>2026-03-22T10:47:01Z</time></trkpt><trkpt lat="45.45545650273494" lon="10.486568886241956"><ele>158.0</ele><time>2026-03-22T10:47:02Z</time></trkpt><trkpt lat="45.455390832658445" lon="10.486517208922024"><ele>157.33333333333331</ele><time>2026-03-22T10:47:03Z</time></trkpt><trkpt lat="45.455323808351686" lon="10.48646646924476"><ele>156.66666666666666</ele><time>2026-03-22T10:47:04Z</time></trkpt><trkpt lat="45.45525510794295" lon="10.486416925902626"><ele>156.0</ele><time>2026-03-22T10:47:05Z</time></trkpt><trkpt lat="45.45519039395814" lon="10.486365908371537"><ele>155.33333333333334</ele><time>2026-03-22T10:47:06Z</time></trkpt><trkpt lat="45.455123389022276" lon="10.486315270416853"><ele>154.66666666666669</ele><time>2026-03-22T10:47:07Z</time></trkpt><trkpt lat="45.45505728191868" lon="10.486267748708006"><ele>154.0</ele><time>2026-03-22T10:47:08Z</time></trkpt><trkpt lat="45.45499242522597" lon="10.48621335509672"><ele>154.0</ele><time>2026-03-22T10:47:09Z</time></trkpt><trkpt lat="45.454930475727785" lon="10.486154042489016"><ele>154.0</ele><time>2026-03-22T10:47:10Z</time></trkpt><trkpt lat="45.454865906612305" lon="10.486098361647443"><ele>154.0</ele><time>2026-03-22T10:47:11Z</time></trkpt><trkpt lat="45.454801035568366" lon="10.486048557163615"><ele>154.0</ele><time>2026-03-22T10:47:12Z</time></trkpt><trkpt lat="45.45473594396238" lon="10.486000050176186"><ele>154.0</ele><time>2026-03-22T10:47:13Z</time></trkpt><trkpt lat="45.454670327069046" lon="10.485949279448532"><ele>154.0</ele><time>2026-03-22T10:47:14Z</time></trkpt><trkpt lat="45.454602570377766" lon="10.485899140378864"><ele>154.0</ele><time>2026-03-22T10:47:15Z</time></trkpt><trkpt lat="45.454537322721215" lon="10.485845600626465"><ele>154.66666666666669</ele><time>2026-03-22T10:47:16Z</time></trkpt><trkpt lat="45.454468320830074" lon="10.485792094214082"><ele>155.33333333333334</ele><time>2026-03-22T10:47:17Z</time></trkpt><trkpt lat="45.454401388126705" lon="10.485739902218773"><ele>156.0</ele><time>2026-03-22T10:47:18Z</time></trkpt><trkpt lat="45.454331992187946" lon="10.485686682241587"><ele>156.66666666666666</ele><time>2026-03-22T10:47:19Z</time></trkpt><trkpt lat="45.454264519144864" lon="10.485635489981894"><ele>157.33333333333331</ele><time>2026-03-22T10:47:20Z</time></trkpt><trkpt lat="45.4541963801041" lon="10.4855839114017"><ele>158.0</ele><time>2026-03-22T10:47:21Z</time></trkpt><trkpt lat="45.454126428987024" lon="10.485532167433123"><ele>158.0</ele><time>2026-03-22T10:47:22Z</time></trkpt><trkpt lat="45.45405683329662" lon="10.485476789496822"><ele>158.0</ele><time>2026-03-22T10:47:23Z</time></trkpt><trkpt lat="45.45398746239953" lon="10.48542236201277"><ele>158.0</ele><time>2026-03-22T10:47:24Z</time></trkpt><trkpt lat="45.45391730574704" lon="10.485370410808075"><ele>158.0</ele><time>2026-03-22T10:47:25Z</time></trkpt><trkpt lat="45.45384621149812" lon="10.485321195813928"><ele>158.0</ele><time>2026-03-22T10:47:26Z</time></trkpt><trkpt lat="45.45377775888512" lon="10.48527251548853"><ele>158.0</ele><time>2026-03-22T10:47:27Z</time></trkpt><trkpt lat="45.45370983621587" lon="10.485226989281257"><ele>157.33333333333331</ele><time>2026-03-22T10:47:28Z</time></trkpt><trkpt lat="45.45363807262986" lon="10.485182631565564"><ele>156.66666666666666</ele><time>2026-03-22T10:47:29Z</time></trkpt><trkpt lat="45.45357209839478" lon="10.48513298669888"><ele>156.0</ele><time>2026-03-22T10:47:30Z</time></trkpt><trkpt lat="45.45350876902665" lon="10.485088002062357"><ele>155.33333333333334</ele><time>2026-03-22T10:47:31Z</time></trkpt><trkpt lat="45.453405838155625" lon="10.48508195649509"><ele>154.66666666666669</ele><time>2026-03-22T10:47:33Z</time></trkpt><trkpt lat="45.45330583412925" lon="10.48504215193463"><ele>154.0</ele><time>2026-03-22T10:47:35Z</time></trkpt><trkpt lat="45.45320350824384" lon="10.484991886619012"><ele>154.0</ele><time>2026-03-22T10:47:37Z</time></trkpt><trkpt lat="45.453163673583425" lon="10.484915356511035"><ele>154.0</ele><time>2026-03-22T10:47:39Z</time></trkpt><trkpt lat="45.453088135333196" lon="10.484894674521705"><ele>154.0</ele><time>2026-03-22T10:47:41Z</time></trkpt><trkpt lat="45.45304698219233" lon="10.484982536471904"><ele>154.0</ele><time>2026-03-22T10:47:43Z</time></trkpt><trkpt lat="45.452967129901516" lon="10.485041848662355"><ele>154.0</ele><time>2026-03-22T10:47:45Z</time></trkpt><trkpt lat="45.45288810916095" lon="10.485085010705797"><ele>154.0</ele><time>2026-03-22T10:47:47Z</time></trkpt><trkpt lat="45.4528032557256" lon="10.48511358329137"><ele>154.4</ele><time>2026-03-22T10:47:49Z</time></trkpt><trkpt lat="45.452711321028524" lon="10.48511308116861"><ele>154.8</ele><time>2026-03-22T10:47:51Z</time></trkpt><trkpt lat="45.45262152573099" lon="10.485125476690126"><ele>155.2</ele><time>2026-03-22T10:47:53Z</time></trkpt><trkpt lat="45.45252694647521" lon="10.485136577412398"><ele>155.6</ele><time>2026-03-22T10:47:55Z</time></trkpt><trkpt lat="45.45242694365088" lon="10.485109648040098"><ele>156.0</ele><time>2026-03-22T10:47:57Z</time></trkpt><trkpt lat="45.45232761833782" lon="10.485104405544776"><ele>156.0</ele><time>2026-03-22T10:47:59Z</time></trkpt><trkpt lat="45.452223021741545" lon="10.485082884283008"><ele>156.0</ele><time>2026-03-22T10:48:01Z</time></trkpt><trkpt lat="45.452107161429595" lon="10.485052136181016"><ele>156.0</ele><time>2026-03-22T10:48:03Z</time></trkpt><trkpt lat="45.45199787827964" lon="10.4850140792665"><ele>156.0</ele><time>2026-03-22T10:48:05Z</time></trkpt><trkpt lat="45.45187617469013" lon="10.484996836849655"><ele>156.0</ele><time>2026-03-22T10:48:07Z</time></trkpt><trkpt lat="45.45181393311765" lon="10.484982208658892"><ele>156.0</ele><time>2026-03-22T10:48:08Z</time></trkpt><trkpt lat="45.45169521316828" lon="10.484914688644354"><ele>156.0</ele><time>2026-03-22T10:48:10Z</time></trkpt><trkpt lat="45.45158048298307" lon="10.484836326490292"><ele>156.0</ele><time>2026-03-22T10:48:12Z</time></trkpt><trkpt lat="45.451466114828584" lon="10.484779341329785"><ele>156.0</ele><time>2026-03-22T10:48:14Z</time></trkpt><trkpt lat="45.45134998359399" lon="10.484725889830855"><ele>156.4</ele><time>2026-03-22T10:48:16Z</time></trkpt><trkpt lat="45.4512293871758" lon="10.484680143422777"><ele>156.8</ele><time>2026-03-22T10:48:18Z</time></trkpt><trkpt lat="45.4511645537616" lon="10.484664231468024"><ele>157.20000000000002</ele><time>2026-03-22T10:48:19Z</time></trkpt><trkpt lat="45.45104898825861" lon="10.484664619379819"><ele>157.6</ele><time>2026-03-22T10:48:21Z</time></trkpt><trkpt lat="45.450927370613485" lon="10.484644997878128"><ele>158.0</ele><time>2026-03-22T10:48:23Z</time></trkpt><trkpt lat="45.45086261094363" lon="10.484627816503506"><ele>158.0</ele><time>2026-03-22T10:48:24Z</time></trkpt><trkpt lat="45.45074554506699" lon="10.48462002262522"><ele>158.0</ele><time>2026-03-22T10:48:26Z</time></trkpt><trkpt lat="45.45063478757297" lon="10.484573832582802"><ele>158.0</ele><time>2026-03-22T10:48:28Z</time></trkpt><trkpt lat="45.450545202724044" lon="10.484521757244407"><ele>158.0</ele><time>2026-03-22T10:48:30Z</time></trkpt><trkpt lat="45.45043720562144" lon="10.484481984737386"><ele>158.0</ele><time>2026-03-22T10:48:32Z</time></trkpt><trkpt lat="45.45033058596694" lon="10.484458066395328"><ele>156.0</ele><time>2026-03-22T10:48:34Z</time></trkpt><trkpt lat="45.45022097059403" lon="10.484446903001535"><ele>154.0</ele><time>2026-03-22T10:48:36Z</time></trkpt><trkpt lat="45.45011137460714" lon="10.484433083003765"><ele>152.0</ele><time>2026-03-22T10:48:38Z</time></trkpt><trkpt lat="45.449987907046044" lon="10.484392600593486"><ele>150.0</ele><time>2026-03-22T10:48:40Z</time></trkpt><trkpt lat="45.449923967031964" lon="10.484379227744517"><ele>148.0</ele><time>2026-03-22T10:48:41Z</time></trkpt><trkpt lat="45.449859629266875" lon="10.48438501800545"><ele>148.0</ele><time>2026-03-22T10:48:42Z</time></trkpt><trkpt lat="45.44979420618787" lon="10.484392735805436"><ele>148.0</ele><time>2026-03-22T10:48:43Z</time></trkpt><trkpt lat="45.44972702172944" lon="10.484411240277918"><ele>148.0</ele><time>2026-03-22T10:48:44Z</time></trkpt><trkpt lat="45.44966300239239" lon="10.484428620215436"><ele>148.0</ele><time>2026-03-22T10:48:45Z</time></trkpt><trkpt lat="45.44959859872623" lon="10.484440480149674"><ele>148.0</ele><time>2026-03-22T10:48:46Z</time></trkpt><trkpt lat="45.44953521980583" lon="10.48444715939804"><ele>148.0</ele><time>2026-03-22T10:48:47Z</time></trkpt><trkpt lat="45.44940400563666" lon="10.484455016390426"><ele>147.5</ele><time>2026-03-22T10:48:49Z</time></trkpt><trkpt lat="45.44927861835056" lon="10.4844592047381"><ele>147.0</ele><time>2026-03-22T10:48:51Z</time></trkpt><trkpt lat="45.4491619455813" lon="10.484463374327836"><ele>146.5</ele><time>2026-03-22T10:48:53Z</time></trkpt><trkpt lat="45.44904271444243" lon="10.484464328165132"><ele>146.0</ele><time>2026-03-22T10:48:55Z</time></trkpt><trkpt lat="45.44892931769679" lon="10.48446025915348"><ele>146.0</ele><time>2026-03-22T10:48:57Z</time></trkpt><trkpt lat="45.448820628017515" lon="10.484465570427496"><ele>146.0</ele><time>2026-03-22T10:48:59Z</time></trkpt><trkpt lat="45.44871066873692" lon="10.484476116807027"><ele>146.0</ele><time>2026-03-22T10:49:01Z</time></trkpt><trkpt lat="45.44860109834971" lon="10.484480747828524"><ele>146.0</ele><time>2026-03-22T10:49:03Z</time></trkpt><trkpt lat="45.448499138607374" lon="10.48446871390863"><ele>146.0</ele><time>2026-03-22T10:49:05Z</time></trkpt><trkpt lat="45.448382697563396" lon="10.484449266246717"><ele>146.2</ele><time>2026-03-22T10:49:07Z</time></trkpt><trkpt lat="45.44825693006904" lon="10.484452154888025"><ele>146.39999999999998</ele><time>2026-03-22T10:49:09Z</time></trkpt><trkpt lat="45.448193506675324" lon="10.484440740221238"><ele>146.6</ele><time>2026-03-22T10:49:10Z</time></trkpt><trkpt lat="45.4480674981949" lon="10.484430585519757"><ele>146.79999999999998</ele><time>2026-03-22T10:49:12Z</time></trkpt><trkpt lat="45.44795204165577" lon="10.484425872576688"><ele>147.0</ele><time>2026-03-22T10:49:14Z</time></trkpt><trkpt lat="45.447842705210334" lon="10.484362921153679"><ele>147.79999999999998</ele><time>2026-03-22T10:49:16Z</time></trkpt><trkpt lat="45.44775536229803" lon="10.48426753592871"><ele>148.6</ele><time>2026-03-22T10:49:18Z</time></trkpt><trkpt lat="45.44768974617341" lon="10.4842265098255"><ele>149.39999999999998</ele><time>2026-03-22T10:49:19Z</time></trkpt><trkpt lat="45.44759101360552" lon="10.48409102233923"><ele>150.2</ele><time>2026-03-22T10:49:21Z</time></trkpt><trkpt lat="45.44753750127819" lon="10.483997666109179"><ele>151.0</ele><time>2026-03-22T10:49:22Z</time></trkpt><trkpt lat="45.447475091611174" lon="10.483933067444502"><ele>151.00000000000003</ele><time>2026-03-22T10:49:23Z</time></trkpt><trkpt lat="45.447405197358876" lon="10.483893321983622"><ele>151.0</ele><time>2026-03-22T10:49:24Z</time></trkpt><trkpt lat="45.44733000040786" lon="10.483872303662894"><ele>151.0</ele><time>2026-03-22T10:49:25Z</time></trkpt><trkpt lat="45.447255536683286" lon="10.483855452244326"><ele>151.0</ele><time>2026-03-22T10:49:26Z</time></trkpt><trkpt lat="45.44719265193661" lon="10.483839413558503"><ele>151.0</ele><time>2026-03-22T10:49:27Z</time></trkpt><trkpt lat="45.44712233963289" lon="10.483819834073591"><ele>151.00000000000003</ele><time>2026-03-22T10:49:28Z</time></trkpt><trkpt lat="45.44705617337731" lon="10.483807483536136"><ele>151.0</ele><time>2026-03-22T10:49:29Z</time></trkpt><trkpt lat="45.446990687045584" lon="10.483796665248843"><ele>151.33333333333334</ele><time>2026-03-22T10:49:30Z</time></trkpt><trkpt lat="45.44692575765628" lon="10.48378669468542"><ele>151.66666666666669</ele><time>2026-03-22T10:49:31Z</time></trkpt><trkpt lat="45.44686040372536" lon="10.48377935133198"><ele>152.0</ele><time>2026-03-22T10:49:32Z</time></trkpt><trkpt lat="45.44679571542915" lon="10.483770029262326"><ele>152.33333333333334</ele><time>2026-03-22T10:49:33Z</time></trkpt><trkpt lat="45.44667368663335" lon="10.483748682711663"><ele>152.66666666666666</ele><time>2026-03-22T10:49:35Z</time></trkpt><trkpt lat="45.44655658902732" lon="10.483710856247466"><ele>153.0</ele><time>2026-03-22T10:49:37Z</time></trkpt><trkpt lat="45.44644176801013" lon="10.483679718033143"><ele>150.75</ele><time>2026-03-22T10:49:39Z</time></trkpt><trkpt lat="45.446321753358916" lon="10.483664414077568"><ele>148.5</ele><time>2026-03-22T10:49:41Z</time></trkpt><trkpt lat="45.44620199086259" lon="10.483645125079969"><ele>146.25</ele><time>2026-03-22T10:49:43Z</time></trkpt><trkpt lat="45.446080885458514" lon="10.483617293408718"><ele>144.0</ele><time>2026-03-22T10:49:45Z</time></trkpt><trkpt lat="45.44596274359639" lon="10.483598421893335"><ele>144.0</ele><time>2026-03-22T10:49:47Z</time></trkpt><trkpt lat="45.445899620508015" lon="10.483591691893624"><ele>144.0</ele><time>2026-03-22T10:49:48Z</time></trkpt><trkpt lat="45.44578069186242" lon="10.4835574282537"><ele>144.0</ele><time>2026-03-22T10:49:50Z</time></trkpt><trkpt lat="45.44565777345639" lon="10.483535077249563"><ele>144.0</ele><time>2026-03-22T10:49:52Z</time></trkpt><trkpt lat="45.445536320242375" lon="10.483515609114972"><ele>144.0</ele><time>2026-03-22T10:49:54Z</time></trkpt><trkpt lat="45.44541269462132" lon="10.483491216240425"><ele>144.0</ele><time>2026-03-22T10:49:56Z</time></trkpt><trkpt lat="45.44529455077409" lon="10.483474500452806"><ele>144.0</ele><time>2026-03-22T10:49:58Z</time></trkpt><trkpt lat="45.4451777851318" lon="10.483438740955027"><ele>144.0</ele><time>2026-03-22T10:50:00Z</time></trkpt><trkpt lat="45.445057847347" lon="10.483408526972346"><ele>144.0</ele><time>2026-03-22T10:50:02Z</time></trkpt><trkpt lat="45.44494102046286" lon="10.483384670242355"><ele>144.0</ele><time>2026-03-22T10:50:04Z</time></trkpt><trkpt lat="45.44482855839753" lon="10.483329245308418"><ele>144.0</ele><time>2026-03-22T10:50:06Z</time></trkpt><trkpt lat="45.444708344933936" lon="10.483334288313289"><ele>144.0</ele><time>2026-03-22T10:50:08Z</time></trkpt><trkpt lat="45.4445941792658" lon="10.483328805841701"><ele>144.0</ele><time>2026-03-22T10:50:10Z</time></trkpt><trkpt lat="45.4444779251638" lon="10.483303419087905"><ele>144.0</ele><time>2026-03-22T10:50:12Z</time></trkpt><trkpt lat="45.44436115287129" lon="10.483301005099607"><ele>144.0</ele><time>2026-03-22T10:50:14Z</time></trkpt><trkpt lat="45.44423964032872" lon="10.483279163479997"><ele>144.0</ele><time>2026-03-22T10:50:16Z</time></trkpt><trkpt lat="45.44412664084455" lon="10.483226899975953"><ele>144.0</ele><time>2026-03-22T10:50:18Z</time></trkpt><trkpt lat="45.44400448147122" lon="10.483204253897766"><ele>144.0</ele><time>2026-03-22T10:50:20Z</time></trkpt><trkpt lat="45.443888788126415" lon="10.483173685707062"><ele>144.0</ele><time>2026-03-22T10:50:22Z</time></trkpt><trkpt lat="45.44382570231159" lon="10.483157850703403"><ele>144.0</ele><time>2026-03-22T10:50:23Z</time></trkpt><trkpt lat="45.443712729932685" lon="10.48310740668563"><ele>144.0</ele><time>2026-03-22T10:50:25Z</time></trkpt><trkpt lat="45.44359195184686" lon="10.483088249830194"><ele>144.0</ele><time>2026-03-22T10:50:27Z</time></trkpt><trkpt lat="45.443474198033265" lon="10.483079355948435"><ele>144.25</ele><time>2026-03-22T10:50:29Z</time></trkpt><trkpt lat="45.4433612189593" lon="10.48306504528157"><ele>144.5</ele><time>2026-03-22T10:50:31Z</time></trkpt><trkpt lat="45.44324380748301" lon="10.483038694964165"><ele>144.75</ele><time>2026-03-22T10:50:33Z</time></trkpt><trkpt lat="45.44312849292159" lon="10.483001663671061"><ele>145.0</ele><time>2026-03-22T10:50:35Z</time></trkpt><trkpt lat="45.44301659081737" lon="10.48297070754535"><ele>145.25</ele><time>2026-03-22T10:50:37Z</time></trkpt><trkpt lat="45.442906181535236" lon="10.482940913475547"><ele>145.5</ele><time>2026-03-22T10:50:39Z</time></trkpt><trkpt lat="45.44279320591098" lon="10.482890500211921"><ele>145.75</ele><time>2026-03-22T10:50:41Z</time></trkpt><trkpt lat="45.442688986315645" lon="10.482820927499658"><ele>146.0</ele><time>2026-03-22T10:50:43Z</time></trkpt><trkpt lat="45.44259111917623" lon="10.482760402915366"><ele>145.0</ele><time>2026-03-22T10:50:45Z</time></trkpt><trkpt lat="45.442498818672895" lon="10.48268878791904"><ele>144.0</ele><time>2026-03-22T10:50:47Z</time></trkpt><trkpt lat="45.44240830244497" lon="10.482611812092712"><ele>143.0</ele><time>2026-03-22T10:50:49Z</time></trkpt><trkpt lat="45.442320784771006" lon="10.482538240462553"><ele>142.0</ele><time>2026-03-22T10:50:51Z</time></trkpt><trkpt lat="45.442231506018004" lon="10.48248100728445"><ele>141.0</ele><time>2026-03-22T10:50:53Z</time></trkpt><trkpt lat="45.44215031577575" lon="10.482428431420844"><ele>141.0</ele><time>2026-03-22T10:50:55Z</time></trkpt><trkpt lat="45.44206659393049" lon="10.482366612756897"><ele>141.0</ele><time>2026-03-22T10:50:57Z</time></trkpt><trkpt lat="45.44198436186209" lon="10.482311004433079"><ele>141.0</ele><time>2026-03-22T10:50:59Z</time></trkpt><trkpt lat="45.44190833733547" lon="10.482250086157036"><ele>141.0</ele><time>2026-03-22T10:51:01Z</time></trkpt><trkpt lat="45.441813696142965" lon="10.482222231496042"><ele>141.0</ele><time>2026-03-22T10:51:03Z</time></trkpt><trkpt lat="45.44173324520056" lon="10.482269736606746"><ele>141.0</ele><time>2026-03-22T10:51:05Z</time></trkpt><trkpt lat="45.44163115190455" lon="10.482270441892517"><ele>141.0</ele><time>2026-03-22T10:51:07Z</time></trkpt><trkpt lat="45.441512849955515" lon="10.482244036767575"><ele>141.0</ele><time>2026-03-22T10:51:09Z</time></trkpt><trkpt lat="45.441405403130744" lon="10.482219501611882"><ele>141.0</ele><time>2026-03-22T10:51:11Z</time></trkpt><trkpt lat="45.441299058868694" lon="10.482193741104878"><ele>141.0</ele><time>2026-03-22T10:51:13Z</time></trkpt><trkpt lat="45.441191941710215" lon="10.482165128270474"><ele>141.0</ele><time>2026-03-22T10:51:15Z</time></trkpt><trkpt lat="45.44108095616884" lon="10.482140291583764"><ele>141.0</ele><time>2026-03-22T10:51:17Z</time></trkpt><trkpt lat="45.4409637678501" lon="10.482114509168419"><ele>141.0</ele><time>2026-03-22T10:51:19Z</time></trkpt><trkpt lat="45.440847081901246" lon="10.48208598223557"><ele>141.0</ele><time>2026-03-22T10:51:21Z</time></trkpt><trkpt lat="45.44072740700921" lon="10.482058929034784"><ele>140.4</ele><time>2026-03-22T10:51:23Z</time></trkpt><trkpt lat="45.44066476926552" lon="10.48204937969258"><ele>139.8</ele><time>2026-03-22T10:51:24Z</time></trkpt><trkpt lat="45.44054925773601" lon="10.482029033711555"><ele>139.20000000000002</ele><time>2026-03-22T10:51:26Z</time></trkpt><trkpt lat="45.44042560281327" lon="10.48201881254658"><ele>138.6</ele><time>2026-03-22T10:51:28Z</time></trkpt><trkpt lat="45.44031167361194" lon="10.482011596223469"><ele>138.0</ele><time>2026-03-22T10:51:30Z</time></trkpt><trkpt lat="45.44019807631332" lon="10.482001811030413"><ele>137.5</ele><time>2026-03-22T10:51:32Z</time></trkpt><trkpt lat="45.44008266009866" lon="10.481998380024637"><ele>137.0</ele><time>2026-03-22T10:51:34Z</time></trkpt><trkpt lat="45.439966030362285" lon="10.481995702717404"><ele>136.5</ele><time>2026-03-22T10:51:36Z</time></trkpt><trkpt lat="45.43984983037248" lon="10.48199017570775"><ele>136.0</ele><time>2026-03-22T10:51:38Z</time></trkpt><trkpt lat="45.43973308986762" lon="10.481983290440915"><ele>136.5</ele><time>2026-03-22T10:51:40Z</time></trkpt><trkpt lat="45.439615960614965" lon="10.481985669188088"><ele>137.0</ele><time>2026-03-22T10:51:42Z</time></trkpt><trkpt lat="45.43950189662908" lon="10.482007073736643"><ele>137.5</ele><time>2026-03-22T10:51:44Z</time></trkpt><trkpt lat="45.43939670567502" lon="10.482054512468153"><ele>138.0</ele><time>2026-03-22T10:51:46Z</time></trkpt><trkpt lat="45.43929243762249" lon="10.482114477286958"><ele>138.4</ele><time>2026-03-22T10:51:48Z</time></trkpt><trkpt lat="45.43918904857297" lon="10.48216825326363"><ele>138.8</ele><time>2026-03-22T10:51:50Z</time></trkpt><trkpt lat="45.4390885213592" lon="10.482241612955155"><ele>139.2</ele><time>2026-03-22T10:51:52Z</time></trkpt><trkpt lat="45.43900335146203" lon="10.482324499777068"><ele>139.6</ele><time>2026-03-22T10:51:54Z</time></trkpt><trkpt lat="45.43892263057713" lon="10.482402917928395"><ele>140.0</ele><time>2026-03-22T10:51:56Z</time></trkpt><trkpt lat="45.43883864463124" lon="10.482483765172546"><ele>139.8</ele><time>2026-03-22T10:51:58Z</time></trkpt><trkpt lat="45.43875615740519" lon="10.482572635394806"><ele>139.6</ele><time>2026-03-22T10:52:00Z</time></trkpt><trkpt lat="45.438675867636164" lon="10.482654965994396"><ele>139.4</ele><time>2026-03-22T10:52:02Z</time></trkpt><trkpt lat="45.43859494462121" lon="10.482740391145704"><ele>139.2</ele><time>2026-03-22T10:52:04Z</time></trkpt><trkpt lat="45.43851575270986" lon="10.482821531034956"><ele>139.0</ele><time>2026-03-22T10:52:06Z</time></trkpt><trkpt lat="45.43844973094617" lon="10.482930239626166"><ele>139.4</ele><time>2026-03-22T10:52:08Z</time></trkpt><trkpt lat="45.43838783724695" lon="10.483035252445609"><ele>139.8</ele><time>2026-03-22T10:52:10Z</time></trkpt><trkpt lat="45.438341803213476" lon="10.483149576981708"><ele>140.2</ele><time>2026-03-22T10:52:12Z</time></trkpt><trkpt lat="45.438301198500795" lon="10.483272459198941"><ele>140.6</ele><time>2026-03-22T10:52:14Z</time></trkpt><trkpt lat="45.43826520533085" lon="10.483390983109247"><ele>141.0</ele><time>2026-03-22T10:52:16Z</time></trkpt><trkpt lat="45.43823525007782" lon="10.48350209115234"><ele>141.0</ele><time>2026-03-22T10:52:18Z</time></trkpt><trkpt lat="45.438199871575726" lon="10.483601004851833"><ele>141.0</ele><time>2026-03-22T10:52:20Z</time></trkpt><trkpt lat="45.43815986505127" lon="10.4837247579839"><ele>141.0</ele><time>2026-03-22T10:52:23Z</time></trkpt><trkpt lat="45.438095933374655" lon="10.483792500291013"><ele>141.0</ele><time>2026-03-22T10:52:26Z</time></trkpt><trkpt lat="45.43803216037135" lon="10.483793626386033"><ele>141.0</ele><time>2026-03-22T10:52:29Z</time></trkpt><trkpt lat="45.43796101530802" lon="10.483805583368204"><ele>141.0</ele><time>2026-03-22T10:52:31Z</time></trkpt><trkpt lat="45.43788040479305" lon="10.4838334245967"><ele>140.4</ele><time>2026-03-22T10:52:33Z</time></trkpt><trkpt lat="45.437798413069444" lon="10.48387469192397"><ele>139.8</ele><time>2026-03-22T10:52:35Z</time></trkpt><trkpt lat="45.43773692450362" lon="10.48397056337481"><ele>139.20000000000002</ele><time>2026-03-22T10:52:37Z</time></trkpt><trkpt lat="45.437675552507564" lon="10.484063801256243"><ele>138.6</ele><time>2026-03-22T10:52:39Z</time></trkpt><trkpt lat="45.43760210611398" lon="10.484138496166084"><ele>138.0</ele><time>2026-03-22T10:52:41Z</time></trkpt><trkpt lat="45.43753284198276" lon="10.484242056339516"><ele>138.0</ele><time>2026-03-22T10:52:43Z</time></trkpt><trkpt lat="45.4374708652453" lon="10.484352678258928"><ele>138.0</ele><time>2026-03-22T10:52:45Z</time></trkpt><trkpt lat="45.437399857001516" lon="10.484458446818667"><ele>138.0</ele><time>2026-03-22T10:52:47Z</time></trkpt><trkpt lat="45.437330032042865" lon="10.484559123576792"><ele>138.0</ele><time>2026-03-22T10:52:49Z</time></trkpt><trkpt lat="45.43726342867383" lon="10.484661643872439"><ele>138.0</ele><time>2026-03-22T10:52:51Z</time></trkpt><trkpt lat="45.43718910273333" lon="10.48474775415853"><ele>138.20000000000002</ele><time>2026-03-22T10:52:53Z</time></trkpt><trkpt lat="45.43710284418848" lon="10.484833851572755"><ele>138.4</ele><time>2026-03-22T10:52:55Z</time></trkpt><trkpt lat="45.43701272364533" lon="10.484910297460347"><ele>138.60000000000002</ele><time>2026-03-22T10:52:57Z</time></trkpt><trkpt lat="45.436910265307056" lon="10.484979192089972"><ele>138.8</ele><time>2026-03-22T10:52:59Z</time></trkpt><trkpt lat="45.43680958423071" lon="10.485040796829594"><ele>139.0</ele><time>2026-03-22T10:53:01Z</time></trkpt><trkpt lat="45.43671015123523" lon="10.485104565160178"><ele>139.0</ele><time>2026-03-22T10:53:03Z</time></trkpt><trkpt lat="45.436603394778906" lon="10.48517254274244"><ele>139.0</ele><time>2026-03-22T10:53:05Z</time></trkpt><trkpt lat="45.43649700355381" lon="10.485226949166869"><ele>139.0</ele><time>2026-03-22T10:53:07Z</time></trkpt><trkpt lat="45.43638557268602" lon="10.485277980467787"><ele>139.0</ele><time>2026-03-22T10:53:09Z</time></trkpt><trkpt lat="45.43627906011995" lon="10.485328026702383"><ele>138.6</ele><time>2026-03-22T10:53:11Z</time></trkpt><trkpt lat="45.43617406095434" lon="10.485374744154804"><ele>138.2</ele><time>2026-03-22T10:53:13Z</time></trkpt><trkpt lat="45.436076475945534" lon="10.485412835878469"><ele>137.79999999999998</ele><time>2026-03-22T10:53:15Z</time></trkpt><trkpt lat="45.435985057477005" lon="10.485433430684763"><ele>137.4</ele><time>2026-03-22T10:53:17Z</time></trkpt><trkpt lat="45.435884841649745" lon="10.485443360233651"><ele>137.0</ele><time>2026-03-22T10:53:19Z</time></trkpt><trkpt lat="45.43579000365335" lon="10.485444647848546"><ele>137.79999999999998</ele><time>2026-03-22T10:53:21Z</time></trkpt><trkpt lat="45.43568866153234" lon="10.485449365375164"><ele>138.6</ele><time>2026-03-22T10:53:23Z</time></trkpt><trkpt lat="45.43559244795513" lon="10.485475069600756"><ele>139.39999999999998</ele><time>2026-03-22T10:53:25Z</time></trkpt><trkpt lat="45.43548934691888" lon="10.485467369310966"><ele>140.2</ele><time>2026-03-22T10:53:27Z</time></trkpt><trkpt lat="45.43538674479155" lon="10.485470827680397"><ele>141.0</ele><time>2026-03-22T10:53:29Z</time></trkpt><trkpt lat="45.435283532075054" lon="10.485473053113575"><ele>141.0</ele><time>2026-03-22T10:53:31Z</time></trkpt><trkpt lat="45.4351784245996" lon="10.485474206231816"><ele>141.0</ele><time>2026-03-22T10:53:33Z</time></trkpt><trkpt lat="45.435081929748335" lon="10.485478093076967"><ele>141.0</ele><time>2026-03-22T10:53:35Z</time></trkpt><trkpt lat="45.43498562283625" lon="10.485477774828029"><ele>141.0</ele><time>2026-03-22T10:53:37Z</time></trkpt><trkpt lat="45.43489025390873" lon="10.485478385385287"><ele>141.0</ele><time>2026-03-22T10:53:39Z</time></trkpt><trkpt lat="45.43479585765058" lon="10.48547661390477"><ele>141.0</ele><time>2026-03-22T10:53:41Z</time></trkpt><trkpt lat="45.4346951906" lon="10.485476269571711"><ele>141.0</ele><time>2026-03-22T10:53:43Z</time></trkpt><trkpt lat="45.4345994518022" lon="10.485481725103908"><ele>141.0</ele><time>2026-03-22T10:53:45Z</time></trkpt><trkpt lat="45.43450370030069" lon="10.485484085697156"><ele>141.0</ele><time>2026-03-22T10:53:47Z</time></trkpt><trkpt lat="45.434408190887524" lon="10.485488262697832"><ele>141.0</ele><time>2026-03-22T10:53:49Z</time></trkpt><trkpt lat="45.434308888252104" lon="10.485491353048301"><ele>141.2</ele><time>2026-03-22T10:53:51Z</time></trkpt><trkpt lat="45.43421534048676" lon="10.485498005966894"><ele>141.39999999999998</ele><time>2026-03-22T10:53:53Z</time></trkpt><trkpt lat="45.43412175331674" lon="10.485496523882281"><ele>141.6</ele><time>2026-03-22T10:53:55Z</time></trkpt><trkpt lat="45.43402029715157" lon="10.48549755114369"><ele>141.79999999999998</ele><time>2026-03-22T10:53:57Z</time></trkpt><trkpt lat="45.43392717526515" lon="10.485477904132928"><ele>142.0</ele><time>2026-03-22T10:53:59Z</time></trkpt><trkpt lat="45.433841010409644" lon="10.48544660317701"><ele>141.79999999999998</ele><time>2026-03-22T10:54:01Z</time></trkpt><trkpt lat="45.43375082695026" lon="10.48540735847877"><ele>141.6</ele><time>2026-03-22T10:54:03Z</time></trkpt><trkpt lat="45.4336614843931" lon="10.485352308168093"><ele>141.39999999999998</ele><time>2026-03-22T10:54:05Z</time></trkpt><trkpt lat="45.433568853759226" lon="10.48529285455573"><ele>141.2</ele><time>2026-03-22T10:54:07Z</time></trkpt><trkpt lat="45.43348619306433" lon="10.48520790667188"><ele>141.0</ele><time>2026-03-22T10:54:09Z</time></trkpt><trkpt lat="45.43341338327684" lon="10.485114586826702"><ele>141.0</ele><time>2026-03-22T10:54:11Z</time></trkpt><trkpt lat="45.433357816391734" lon="10.48502730240784"><ele>141.0</ele><time>2026-03-22T10:54:13Z</time></trkpt><trkpt lat="45.433318316440385" lon="10.48494732526201"><ele>141.0</ele><time>2026-03-22T10:54:15Z</time></trkpt><trkpt lat="45.43327120424314" lon="10.484856614920105"><ele>141.0</ele><time>2026-03-22T10:54:18Z</time></trkpt><trkpt lat="45.433206020443265" lon="10.48493066230927"><ele>141.0</ele><time>2026-03-22T10:54:21Z</time></trkpt><trkpt lat="45.43316760312939" lon="10.485011849679175"><ele>141.0</ele><time>2026-03-22T10:54:23Z</time></trkpt><trkpt lat="45.433115216693785" lon="10.485124237733835"><ele>141.0</ele><time>2026-03-22T10:54:26Z</time></trkpt><trkpt lat="45.433077560553386" lon="10.485216341022713"><ele>141.0</ele><time>2026-03-22T10:54:28Z</time></trkpt><trkpt lat="45.433049099289455" lon="10.485312208295037"><ele>141.0</ele><time>2026-03-22T10:54:30Z</time></trkpt><trkpt lat="45.43302103126774" lon="10.485414621499787"><ele>141.0</ele><time>2026-03-22T10:54:32Z</time></trkpt><trkpt lat="45.43299248657701" lon="10.485504752039235"><ele>141.0</ele><time>2026-03-22T10:54:34Z</time></trkpt><trkpt lat="45.43295920663969" lon="10.485611262551414"><ele>141.0</ele><time>2026-03-22T10:54:36Z</time></trkpt><trkpt lat="45.432921209536275" lon="10.485701481371994"><ele>142.42857142857144</ele><time>2026-03-22T10:54:38Z</time></trkpt><trkpt lat="45.43289674267245" lon="10.485800153006142"><ele>143.85714285714286</ele><time>2026-03-22T10:54:40Z</time></trkpt><trkpt lat="45.43287072447111" lon="10.48590256100775"><ele>145.28571428571428</ele><time>2026-03-22T10:54:42Z</time></trkpt><trkpt lat="45.43285381046033" lon="10.485992728309178"><ele>146.71428571428572</ele><time>2026-03-22T10:54:44Z</time></trkpt><trkpt lat="45.43283838574831" lon="10.486084578759566"><ele>148.14285714285714</ele><time>2026-03-22T10:54:46Z</time></trkpt><trkpt lat="45.43278834554374" lon="10.486164203523538"><ele>149.57142857142858</ele><time>2026-03-22T10:54:49Z</time></trkpt><trkpt lat="45.43271273473201" lon="10.48613711182871"><ele>151.0</ele><time>2026-03-22T10:54:54Z</time></trkpt><trkpt lat="45.43265195575369" lon="10.486109105475606"><ele>151.0</ele><time>2026-03-22T10:54:57Z</time></trkpt><trkpt lat="45.43258011179357" lon="10.486094172130557"><ele>151.0</ele><time>2026-03-22T10:55:00Z</time></trkpt><trkpt lat="45.43250520217188" lon="10.486064400441592"><ele>151.0</ele><time>2026-03-22T10:55:03Z</time></trkpt><trkpt lat="45.432424280002756" lon="10.486039824801667"><ele>151.0</ele><time>2026-03-22T10:55:06Z</time></trkpt><trkpt lat="45.43234295537968" lon="10.486011042935909"><ele>151.0</ele><time>2026-03-22T10:55:09Z</time></trkpt><trkpt lat="45.43225617566703" lon="10.48598661470198"><ele>151.0</ele><time>2026-03-22T10:55:12Z</time></trkpt><trkpt lat="45.43216194527288" lon="10.485964160141632"><ele>151.57142857142858</ele><time>2026-03-22T10:55:15Z</time></trkpt><trkpt lat="45.43209754436267" lon="10.485949670771774"><ele>152.14285714285714</ele><time>2026-03-22T10:55:17Z</time></trkpt><trkpt lat="45.43201263098681" lon="10.485956303418254"><ele>152.71428571428572</ele><time>2026-03-22T10:55:20Z</time></trkpt><trkpt lat="45.43195058699348" lon="10.485985178217893"><ele>153.28571428571428</ele><time>2026-03-22T10:55:22Z</time></trkpt><trkpt lat="45.43188950250654" lon="10.486025859275165"><ele>153.85714285714286</ele><time>2026-03-22T10:55:24Z</time></trkpt><trkpt lat="45.43182792004322" lon="10.486044737014176"><ele>154.42857142857144</ele><time>2026-03-22T10:55:26Z</time></trkpt><trkpt lat="45.431765915051216" lon="10.486062080585278"><ele>155.0</ele><time>2026-03-22T10:55:28Z</time></trkpt><trkpt lat="45.43168150684664" lon="10.486086084296069"><ele>155.0</ele><time>2026-03-22T10:55:31Z</time></trkpt><trkpt lat="45.43160953354651" lon="10.486116624672997"><ele>155.0</ele><time>2026-03-22T10:55:34Z</time></trkpt><trkpt lat="45.43152708434357" lon="10.486137935466665"><ele>155.0</ele><time>2026-03-22T10:55:37Z</time></trkpt><trkpt lat="45.43144826931013" lon="10.486174983012258"><ele>155.0</ele><time>2026-03-22T10:55:40Z</time></trkpt><trkpt lat="45.431386404528" lon="10.486207377656878"><ele>155.0</ele><time>2026-03-22T10:55:43Z</time></trkpt><trkpt lat="45.431323938645754" lon="10.48628642747893"><ele>155.0</ele><time>2026-03-22T10:55:46Z</time></trkpt><trkpt lat="45.431256003130734" lon="10.486369082557278"><ele>155.57142857142858</ele><time>2026-03-22T10:55:49Z</time></trkpt><trkpt lat="45.43121598239027" lon="10.486441347344433"><ele>156.14285714285714</ele><time>2026-03-22T10:55:51Z</time></trkpt><trkpt lat="45.43118167301996" lon="10.486518922327807"><ele>156.71428571428572</ele><time>2026-03-22T10:55:53Z</time></trkpt><trkpt lat="45.43112658141581" lon="10.486625258082189"><ele>157.28571428571428</ele><time>2026-03-22T10:55:56Z</time></trkpt><trkpt lat="45.43107982558929" lon="10.486713887807962"><ele>157.85714285714286</ele><time>2026-03-22T10:55:59Z</time></trkpt><trkpt lat="45.43104104550479" lon="10.48678623424364"><ele>158.42857142857142</ele><time>2026-03-22T10:56:01Z</time></trkpt><trkpt lat="45.43101069903755" lon="10.486868313658352"><ele>159.0</ele><time>2026-03-22T10:56:03Z</time></trkpt><trkpt lat="45.4309738972839" lon="10.486982529618517"><ele>159.0</ele><time>2026-03-22T10:56:06Z</time></trkpt><trkpt lat="45.43091476703387" lon="10.48707850152273"><ele>159.0</ele><time>2026-03-22T10:56:09Z</time></trkpt><trkpt lat="45.43085817931918" lon="10.487182207902219"><ele>159.0</ele><time>2026-03-22T10:56:12Z</time></trkpt><trkpt lat="45.43083950159003" lon="10.48728756567309"><ele>159.0</ele><time>2026-03-22T10:56:14Z</time></trkpt><trkpt lat="45.43092013116085" lon="10.487323921672"><ele>159.0</ele><time>2026-03-22T10:56:17Z</time></trkpt><trkpt lat="45.430994557186324" lon="10.48736348184953"><ele>159.0</ele><time>2026-03-22T10:56:20Z</time></trkpt><trkpt lat="45.43106519752845" lon="10.487403119915568"><ele>160.0</ele><time>2026-03-22T10:56:23Z</time></trkpt><trkpt lat="45.43112431354137" lon="10.487434973438964"><ele>161.0</ele><time>2026-03-22T10:56:25Z</time></trkpt><trkpt lat="45.43117552658117" lon="10.487489699667512"><ele>162.0</ele><time>2026-03-22T10:56:27Z</time></trkpt><trkpt lat="45.4312240090607" lon="10.487584423385293"><ele>163.0</ele><time>2026-03-22T10:56:30Z</time></trkpt><trkpt lat="45.43126887905879" lon="10.487695315321115"><ele>164.0</ele><time>2026-03-22T10:56:33Z</time></trkpt><trkpt lat="45.43132319848481" lon="10.487805788863076"><ele>165.0</ele><time>2026-03-22T10:56:36Z</time></trkpt><trkpt lat="45.43135905854979" lon="10.487918189628951"><ele>166.83333333333334</ele><time>2026-03-22T10:56:39Z</time></trkpt><trkpt lat="45.431409106407855" lon="10.4880171081403"><ele>168.66666666666666</ele><time>2026-03-22T10:56:42Z</time></trkpt><trkpt lat="45.43146290615326" lon="10.488118994775988"><ele>170.5</ele><time>2026-03-22T10:56:45Z</time></trkpt><trkpt lat="45.43151553908814" lon="10.488221701564639"><ele>172.33333333333331</ele><time>2026-03-22T10:56:48Z</time></trkpt><trkpt lat="45.431569937292664" lon="10.48827619494182"><ele>174.16666666666666</ele><time>2026-03-22T10:56:51Z</time></trkpt><trkpt lat="45.43161972180874" lon="10.488348262534178"><ele>176.0</ele><time>2026-03-22T10:56:54Z</time></trkpt><trkpt lat="45.43167153008726" lon="10.488442061030012"><ele>176.0</ele><time>2026-03-22T10:56:57Z</time></trkpt><trkpt lat="45.43171885275448" lon="10.488528538347417"><ele>176.0</ele><time>2026-03-22T10:57:00Z</time></trkpt><trkpt lat="45.43178021919607" lon="10.488616954432786"><ele>176.0</ele><time>2026-03-22T10:57:03Z</time></trkpt><trkpt lat="45.43184421505701" lon="10.488665562622069"><ele>176.0</ele><time>2026-03-22T10:57:06Z</time></trkpt><trkpt lat="45.431916587140876" lon="10.488674296652745"><ele>176.0</ele><time>2026-03-22T10:57:09Z</time></trkpt><trkpt lat="45.43199686042284" lon="10.488619070846656"><ele>176.0</ele><time>2026-03-22T10:57:12Z</time></trkpt><trkpt lat="45.43206306333666" lon="10.488598435790518"><ele>176.0</ele><time>2026-03-22T10:57:15Z</time></trkpt><trkpt lat="45.43213053759479" lon="10.488623141743448"><ele>176.0</ele><time>2026-03-22T10:57:18Z</time></trkpt><trkpt lat="45.43215928824021" lon="10.488729499519527"><ele>176.0</ele><time>2026-03-22T10:57:21Z</time></trkpt><trkpt lat="45.43212847311107" lon="10.488822780587741"><ele>176.0</ele><time>2026-03-22T10:57:24Z</time></trkpt><trkpt lat="45.43210548631405" lon="10.488909431164842"><ele>176.0</ele><time>2026-03-22T10:57:27Z</time></trkpt><trkpt lat="45.43208372432384" lon="10.489002101252327"><ele>176.0</ele><time>2026-03-22T10:57:30Z</time></trkpt><trkpt lat="45.4320620591044" lon="10.489089941812942"><ele>176.0</ele><time>2026-03-22T10:57:33Z</time></trkpt><trkpt lat="45.43203739239968" lon="10.48918130983364"><ele>176.83333333333331</ele><time>2026-03-22T10:57:36Z</time></trkpt><trkpt lat="45.43201757164802" lon="10.489282371811091"><ele>177.66666666666666</ele><time>2026-03-22T10:57:39Z</time></trkpt><trkpt lat="45.431993838865864" lon="10.489380971462724"><ele>178.5</ele><time>2026-03-22T10:57:42Z</time></trkpt><trkpt lat="45.43196670773866" lon="10.489472974475293"><ele>179.33333333333334</ele><time>2026-03-22T10:57:45Z</time></trkpt><trkpt lat="45.4319124844809" lon="10.489545126972107"><ele>180.16666666666669</ele><time>2026-03-22T10:57:48Z</time></trkpt><trkpt lat="45.4318493287746" lon="10.489614471195896"><ele>181.0</ele><time>2026-03-22T10:57:51Z</time></trkpt><trkpt lat="45.431841054315356" lon="10.489729334104458"><ele>182.83333333333334</ele><time>2026-03-22T10:57:55Z</time></trkpt><trkpt lat="45.431873429081804" lon="10.489830227925571"><ele>184.66666666666669</ele><time>2026-03-22T10:57:59Z</time></trkpt><trkpt lat="45.431867922808394" lon="10.48995253549859"><ele>186.5</ele><time>2026-03-22T10:58:03Z</time></trkpt><trkpt lat="45.43191451120961" lon="10.490030083686616"><ele>188.33333333333334</ele><time>2026-03-22T10:58:06Z</time></trkpt><trkpt lat="45.4319981582668" lon="10.490055108000607"><ele>190.16666666666666</ele><time>2026-03-22T10:58:09Z</time></trkpt><trkpt lat="45.432060749028246" lon="10.490092234995998"><ele>192.0</ele><time>2026-03-22T10:58:12Z</time></trkpt><trkpt lat="45.43212887480064" lon="10.49012397884575"><ele>190.0</ele><time>2026-03-22T10:58:16Z</time></trkpt><trkpt lat="45.432193664969176" lon="10.49015583577999"><ele>188.0</ele><time>2026-03-22T10:58:20Z</time></trkpt><trkpt lat="45.43226039905107" lon="10.490202610382877"><ele>186.0</ele><time>2026-03-22T10:58:23Z</time></trkpt><trkpt lat="45.43232830392525" lon="10.490273722867974"><ele>184.0</ele><time>2026-03-22T10:58:26Z</time></trkpt><trkpt lat="45.432399523244314" lon="10.4903022202626"><ele>182.0</ele><time>2026-03-22T10:58:28Z</time></trkpt><trkpt lat="45.432477463988384" lon="10.490367466858132"><ele>180.0</ele><time>2026-03-22T10:58:31Z</time></trkpt><trkpt lat="45.43253749760193" lon="10.490419158172685"><ele>182.42857142857142</ele><time>2026-03-22T10:58:33Z</time></trkpt><trkpt lat="45.43259456554613" lon="10.490457958615819"><ele>184.85714285714286</ele><time>2026-03-22T10:58:35Z</time></trkpt><trkpt lat="45.43265273212415" lon="10.49051597274171"><ele>187.28571428571428</ele><time>2026-03-22T10:58:37Z</time></trkpt><trkpt lat="45.43270742224858" lon="10.490579661362355"><ele>189.71428571428572</ele><time>2026-03-22T10:58:39Z</time></trkpt><trkpt lat="45.432763489267266" lon="10.490625353815517"><ele>192.14285714285717</ele><time>2026-03-22T10:58:41Z</time></trkpt><trkpt lat="45.432821400508146" lon="10.49067254491119"><ele>194.57142857142858</ele><time>2026-03-22T10:58:43Z</time></trkpt><trkpt lat="45.43287499910025" lon="10.490720368671711"><ele>197.0</ele><time>2026-03-22T10:58:45Z</time></trkpt><trkpt lat="45.43293558402346" lon="10.4907566579976"><ele>195.16666666666669</ele><time>2026-03-22T10:58:47Z</time></trkpt><trkpt lat="45.433003563852715" lon="10.490794177644421"><ele>193.33333333333334</ele><time>2026-03-22T10:58:49Z</time></trkpt><trkpt lat="45.43305820022033" lon="10.490847921433664"><ele>191.5</ele><time>2026-03-22T10:58:51Z</time></trkpt><trkpt lat="45.43314180270331" lon="10.490906024811373"><ele>189.66666666666669</ele><time>2026-03-22T10:58:54Z</time></trkpt><trkpt lat="45.43322409645553" lon="10.490974552436501"><ele>187.83333333333334</ele><time>2026-03-22T10:58:57Z</time></trkpt><trkpt lat="45.43330553633314" lon="10.491028668399812"><ele>186.0</ele><time>2026-03-22T10:59:00Z</time></trkpt><trkpt lat="45.433361265157494" lon="10.491075880607712"><ele>186.00000000000003</ele><time>2026-03-22T10:59:02Z</time></trkpt><trkpt lat="45.433413062726004" lon="10.491127555685098"><ele>186.0</ele><time>2026-03-22T10:59:04Z</time></trkpt><trkpt lat="45.433467803675136" lon="10.491186550122155"><ele>186.0</ele><time>2026-03-22T10:59:06Z</time></trkpt><trkpt lat="45.43353447341317" lon="10.49126702987624"><ele>186.0</ele><time>2026-03-22T10:59:09Z</time></trkpt><trkpt lat="45.43357591434537" lon="10.491335750319102"><ele>186.0</ele><time>2026-03-22T10:59:11Z</time></trkpt><trkpt lat="45.43364333697119" lon="10.491418655893748"><ele>186.00000000000003</ele><time>2026-03-22T10:59:14Z</time></trkpt><trkpt lat="45.43370826963572" lon="10.491479250450206"><ele>186.0</ele><time>2026-03-22T10:59:17Z</time></trkpt><trkpt lat="45.43378753572055" lon="10.49154138926026"><ele>186.5</ele><time>2026-03-22T10:59:20Z</time></trkpt><trkpt lat="45.43385573611354" lon="10.491610922494434"><ele>187.0</ele><time>2026-03-22T10:59:23Z</time></trkpt><trkpt lat="45.433904377332716" lon="10.491668232966195"><ele>187.5</ele><time>2026-03-22T10:59:25Z</time></trkpt><trkpt lat="45.43395528667714" lon="10.491725392253324"><ele>188.0</ele><time>2026-03-22T10:59:27Z</time></trkpt><trkpt lat="45.43401490231771" lon="10.491764046976126"><ele>188.5</ele><time>2026-03-22T10:59:29Z</time></trkpt><trkpt lat="45.43408998608605" lon="10.491823859141293"><ele>189.0</ele><time>2026-03-22T10:59:31Z</time></trkpt><trkpt lat="45.43417221062285" lon="10.491861947204738"><ele>189.0</ele><time>2026-03-22T10:59:33Z</time></trkpt><trkpt lat="45.4342533969869" lon="10.491904269134137"><ele>189.0</ele><time>2026-03-22T10:59:35Z</time></trkpt><trkpt lat="45.43433096819834" lon="10.49197435385557"><ele>189.0</ele><time>2026-03-22T10:59:38Z</time></trkpt><trkpt lat="45.4343987807562" lon="10.492039399481758"><ele>189.0</ele><time>2026-03-22T10:59:41Z</time></trkpt><trkpt lat="45.43444964169568" lon="10.4920929103195"><ele>189.0</ele><time>2026-03-22T10:59:43Z</time></trkpt><trkpt lat="45.43450509842768" lon="10.492159238033896"><ele>189.0</ele><time>2026-03-22T10:59:45Z</time></trkpt><trkpt lat="45.43455156010319" lon="10.4922392763769"><ele>189.42857142857142</ele><time>2026-03-22T10:59:47Z</time></trkpt><trkpt lat="45.43460819504924" lon="10.492306173989386"><ele>189.85714285714286</ele><time>2026-03-22T10:59:49Z</time></trkpt><trkpt lat="45.434667368446625" lon="10.492359058176024"><ele>190.28571428571428</ele><time>2026-03-22T10:59:51Z</time></trkpt><trkpt lat="45.434732971618644" lon="10.492408564162512"><ele>190.71428571428572</ele><time>2026-03-22T10:59:53Z</time></trkpt><trkpt lat="45.434798088315254" lon="10.492446025601645"><ele>191.14285714285714</ele><time>2026-03-22T10:59:55Z</time></trkpt><trkpt lat="45.434866294336054" lon="10.492461292534973"><ele>191.57142857142856</ele><time>2026-03-22T10:59:57Z</time></trkpt><trkpt lat="45.43493160062145" lon="10.492471439713691"><ele>192.0</ele><time>2026-03-22T10:59:59Z</time></trkpt><trkpt lat="45.43500254769642" lon="10.492480229289107"><ele>192.0</ele><time>2026-03-22T11:00:01Z</time></trkpt><trkpt lat="45.43507817174186" lon="10.492521642858533"><ele>192.0</ele><time>2026-03-22T11:00:03Z</time></trkpt><trkpt lat="45.435162031117564" lon="10.492579306622371"><ele>192.0</ele><time>2026-03-22T11:00:05Z</time></trkpt><trkpt lat="45.435239028863975" lon="10.492606121708251"><ele>192.0</ele><time>2026-03-22T11:00:07Z</time></trkpt><trkpt lat="45.43531955088619" lon="10.492633180565695"><ele>192.0</ele><time>2026-03-22T11:00:09Z</time></trkpt><trkpt lat="45.435393890159425" lon="10.492621442939583"><ele>192.0</ele><time>2026-03-22T11:00:11Z</time></trkpt><trkpt lat="45.43546155919917" lon="10.492599335229732"><ele>192.33333333333334</ele><time>2026-03-22T11:00:13Z</time></trkpt><trkpt lat="45.43554336771072" lon="10.492600910365416"><ele>192.66666666666669</ele><time>2026-03-22T11:00:15Z</time></trkpt><trkpt lat="45.43561239574608" lon="10.492613008394535"><ele>193.0</ele><time>2026-03-22T11:00:17Z</time></trkpt><trkpt lat="45.43562944400933" lon="10.492719904830697"><ele>193.33333333333334</ele><time>2026-03-22T11:00:20Z</time></trkpt><trkpt lat="45.435616918297725" lon="10.492824784502822"><ele>193.66666666666669</ele><time>2026-03-22T11:00:23Z</time></trkpt><trkpt lat="45.43561811994611" lon="10.492944416303887"><ele>194.0</ele><time>2026-03-22T11:00:26Z</time></trkpt><trkpt lat="45.4356353596922" lon="10.49303167072014"><ele>195.16666666666669</ele><time>2026-03-22T11:00:28Z</time></trkpt><trkpt lat="45.43566996777612" lon="10.49313884011984"><ele>196.33333333333334</ele><time>2026-03-22T11:00:31Z</time></trkpt><trkpt lat="45.4356921245906" lon="10.49322402615644"><ele>197.5</ele><time>2026-03-22T11:00:33Z</time></trkpt><trkpt lat="45.43572475555857" lon="10.493350419687879"><ele>198.66666666666669</ele><time>2026-03-22T11:00:36Z</time></trkpt><trkpt lat="45.435754278412844" lon="10.493473269978388"><ele>199.83333333333334</ele><time>2026-03-22T11:00:39Z</time></trkpt><trkpt lat="45.4357950012535" lon="10.493596774190138"><ele>201.0</ele><time>2026-03-22T11:00:42Z</time></trkpt><trkpt lat="45.43583482530001" lon="10.493703568902673"><ele>203.0</ele><time>2026-03-22T11:00:45Z</time></trkpt><trkpt lat="45.4358823468614" lon="10.493793473871056"><ele>205.0</ele><time>2026-03-22T11:00:48Z</time></trkpt><trkpt lat="45.435922790485606" lon="10.49389184654369"><ele>207.0</ele><time>2026-03-22T11:00:51Z</time></trkpt><trkpt lat="45.435975563702634" lon="10.493946206948376"><ele>209.0</ele><time>2026-03-22T11:00:54Z</time></trkpt><trkpt lat="45.43602418949108" lon="10.49401512080703"><ele>211.0</ele><time>2026-03-22T11:00:57Z</time></trkpt><trkpt lat="45.43606869733428" lon="10.494109495649198"><ele>213.0</ele><time>2026-03-22T11:01:01Z</time></trkpt><trkpt lat="45.43610133990585" lon="10.494210688260972"><ele>213.0</ele><time>2026-03-22T11:01:06Z</time></trkpt><trkpt lat="45.436135629937915" lon="10.494309401311103"><ele>213.0</ele><time>2026-03-22T11:01:36Z</time></trkpt><trkpt lat="45.43618768783947" lon="10.49439656691216"><ele>213.0</ele><time>2026-03-22T11:01:39Z</time></trkpt><trkpt lat="45.436224295506825" lon="10.494486467930322"><ele>213.0</ele><time>2026-03-22T11:01:42Z</time></trkpt><trkpt lat="45.436258166709045" lon="10.494580932176023"><ele>213.0</ele><time>2026-03-22T11:01:45Z</time></trkpt><trkpt lat="45.43628807664283" lon="10.49467813438743"><ele>213.0</ele><time>2026-03-22T11:01:48Z</time></trkpt><trkpt lat="45.43630869117768" lon="10.494778198543608"><ele>214.57142857142856</ele><time>2026-03-22T11:01:51Z</time></trkpt><trkpt lat="45.43633049581193" lon="10.494868254220325"><ele>216.14285714285714</ele><time>2026-03-22T11:01:54Z</time></trkpt><trkpt lat="45.43636502508998" lon="10.494963216686232"><ele>217.71428571428572</ele><time>2026-03-22T11:01:57Z</time></trkpt><trkpt lat="45.436390193747904" lon="10.495045678935345"><ele>219.28571428571428</ele><time>2026-03-22T11:02:00Z</time></trkpt><trkpt lat="45.436455767709205" lon="10.495100653291972"><ele>220.85714285714286</ele><time>2026-03-22T11:02:03Z</time></trkpt><trkpt lat="45.43639455424433" lon="10.495137153747288"><ele>222.42857142857142</ele><time>2026-03-22T11:02:08Z</time></trkpt><trkpt lat="45.43633113750961" lon="10.49511051090042"><ele>224.0</ele><time>2026-03-22T11:02:11Z</time></trkpt><trkpt lat="45.436261680351" lon="10.495093018877142"><ele>224.00000000000003</ele><time>2026-03-22T11:02:15Z</time></trkpt><trkpt lat="45.43619672132394" lon="10.495086464926086"><ele>224.0</ele><time>2026-03-22T11:02:19Z</time></trkpt><trkpt lat="45.436116283673755" lon="10.495092037149677"><ele>224.0</ele><time>2026-03-22T11:02:23Z</time></trkpt><trkpt lat="45.436023920610864" lon="10.495142713523332"><ele>224.0</ele><time>2026-03-22T11:02:26Z</time></trkpt><trkpt lat="45.43595173777006" lon="10.495193825105083"><ele>224.00000000000003</ele><time>2026-03-22T11:02:28Z</time></trkpt><trkpt lat="45.43589348604321" lon="10.495246944161932"><ele>224.0</ele><time>2026-03-22T11:02:30Z</time></trkpt><trkpt lat="45.43583458309906" lon="10.495293721231416"><ele>224.00000000000003</ele><time>2026-03-22T11:02:32Z</time></trkpt><trkpt lat="45.43574376160197" lon="10.495324387196352"><ele>224.0</ele><time>2026-03-22T11:02:35Z</time></trkpt><trkpt lat="45.43566320041254" lon="10.495321984270024"><ele>224.0</ele><time>2026-03-22T11:02:38Z</time></trkpt><trkpt lat="45.43557887835077" lon="10.495335952162145"><ele>224.0</ele><time>2026-03-22T11:02:41Z</time></trkpt><trkpt lat="45.4355125044732" lon="10.495356173384172"><ele>224.00000000000003</ele><time>2026-03-22T11:02:44Z</time></trkpt><trkpt lat="45.43544756554124" lon="10.4953493271656"><ele>224.0</ele><time>2026-03-22T11:02:46Z</time></trkpt><trkpt lat="45.435378331687886" lon="10.495335575223832"><ele>224.33333333333334</ele><time>2026-03-22T11:02:48Z</time></trkpt><trkpt lat="45.43530979772388" lon="10.495334059448853"><ele>224.66666666666669</ele><time>2026-03-22T11:02:50Z</time></trkpt><trkpt lat="45.43524918474844" lon="10.495302711474567"><ele>225.0</ele><time>2026-03-22T11:02:52Z</time></trkpt><trkpt lat="45.435201488597336" lon="10.495219133138638"><ele>225.33333333333331</ele><time>2026-03-22T11:02:54Z</time></trkpt><trkpt lat="45.43512990188615" lon="10.495130339880596"><ele>225.66666666666666</ele><time>2026-03-22T11:02:57Z</time></trkpt><trkpt lat="45.43504745982506" lon="10.49508944708454"><ele>226.0</ele><time>2026-03-22T11:03:00Z</time></trkpt><trkpt lat="45.4349769295291" lon="10.495016221286766"><ele>225.99999999999997</ele><time>2026-03-22T11:03:03Z</time></trkpt><trkpt lat="45.434917722478744" lon="10.494934521183218"><ele>226.0</ele><time>2026-03-22T11:03:06Z</time></trkpt><trkpt lat="45.43487650345507" lon="10.494864568387205"><ele>226.0</ele><time>2026-03-22T11:03:08Z</time></trkpt><trkpt lat="45.434847180521786" lon="10.494749942438801"><ele>226.0</ele><time>2026-03-22T11:03:11Z</time></trkpt><trkpt lat="45.434791020821656" lon="10.494672505157492"><ele>225.99999999999997</ele><time>2026-03-22T11:03:14Z</time></trkpt><trkpt lat="45.43472324658802" lon="10.494618738681257"><ele>226.0</ele><time>2026-03-22T11:03:18Z</time></trkpt><trkpt lat="45.43464385099259" lon="10.494602521652505"><ele>224.66666666666666</ele><time>2026-03-22T11:03:28Z</time></trkpt><trkpt lat="45.43459152269576" lon="10.494538261611345"><ele>223.33333333333331</ele><time>2026-03-22T11:03:32Z</time></trkpt><trkpt lat="45.434527682278" lon="10.49450479749767"><ele>222.0</ele><time>2026-03-22T11:03:35Z</time></trkpt><trkpt lat="45.4344539014586" lon="10.494455851698655"><ele>220.66666666666669</ele><time>2026-03-22T11:03:38Z</time></trkpt><trkpt lat="45.434378749235904" lon="10.494411096593439"><ele>219.33333333333334</ele><time>2026-03-22T11:03:41Z</time></trkpt><trkpt lat="45.43432285484135" lon="10.494344560378028"><ele>218.0</ele><time>2026-03-22T11:03:44Z</time></trkpt><trkpt lat="45.43424167997973" lon="10.494295461729987"><ele>218.0</ele><time>2026-03-22T11:03:47Z</time></trkpt><trkpt lat="45.4341743719734" lon="10.494260826696683"><ele>218.0</ele><time>2026-03-22T11:03:49Z</time></trkpt><trkpt lat="45.4341000300047" lon="10.494222895793563"><ele>218.0</ele><time>2026-03-22T11:03:51Z</time></trkpt><trkpt lat="45.434012391417696" lon="10.494153623469451"><ele>218.0</ele><time>2026-03-22T11:03:53Z</time></trkpt><trkpt lat="45.43392982124713" lon="10.494058711833556"><ele>218.0</ele><time>2026-03-22T11:03:55Z</time></trkpt><trkpt lat="45.43384213866584" lon="10.493967633105195"><ele>218.66666666666669</ele><time>2026-03-22T11:03:57Z</time></trkpt><trkpt lat="45.433752305508634" lon="10.49394479490437"><ele>219.33333333333334</ele><time>2026-03-22T11:03:59Z</time></trkpt><trkpt lat="45.43367096340199" lon="10.493901817492223"><ele>220.0</ele><time>2026-03-22T11:04:02Z</time></trkpt><trkpt lat="45.433606964110446" lon="10.493850886103278"><ele>220.66666666666669</ele><time>2026-03-22T11:04:04Z</time></trkpt><trkpt lat="45.43354911269236" lon="10.49379609739886"><ele>221.33333333333334</ele><time>2026-03-22T11:04:06Z</time></trkpt><trkpt lat="45.43347354876987" lon="10.493763476669491"><ele>222.0</ele><time>2026-03-22T11:04:09Z</time></trkpt><trkpt lat="45.433425152481185" lon="10.493681680131056"><ele>222.0</ele><time>2026-03-22T11:04:12Z</time></trkpt><trkpt lat="45.433337475494945" lon="10.493638374225807"><ele>222.0</ele><time>2026-03-22T11:04:15Z</time></trkpt><trkpt lat="45.43322904845289" lon="10.493589969679656"><ele>222.0</ele><time>2026-03-22T11:04:17Z</time></trkpt><trkpt lat="45.433173148422746" lon="10.493546671275384"><ele>222.0</ele><time>2026-03-22T11:04:18Z</time></trkpt><trkpt lat="45.43309214807356" lon="10.493435112741757"><ele>222.0</ele><time>2026-03-22T11:04:20Z</time></trkpt><trkpt lat="45.43302224742032" lon="10.493298098622942"><ele>221.0</ele><time>2026-03-22T11:04:22Z</time></trkpt><trkpt lat="45.43293604183278" lon="10.493208534432249"><ele>220.0</ele><time>2026-03-22T11:04:24Z</time></trkpt><trkpt lat="45.43288551272898" lon="10.493099717639792"><ele>219.0</ele><time>2026-03-22T11:04:26Z</time></trkpt><trkpt lat="45.43283366461148" lon="10.49303298338808"><ele>218.0</ele><time>2026-03-22T11:04:28Z</time></trkpt><trkpt lat="45.4327699225152" lon="10.492967565290892"><ele>217.0</ele><time>2026-03-22T11:04:30Z</time></trkpt><trkpt lat="45.43274248064844" lon="10.4928846592656"><ele>216.0</ele><time>2026-03-22T11:04:32Z</time></trkpt><trkpt lat="45.43269481553723" lon="10.49280499300187"><ele>216.0</ele><time>2026-03-22T11:04:34Z</time></trkpt><trkpt lat="45.4326497367927" lon="10.49273793147761"><ele>216.0</ele><time>2026-03-22T11:04:36Z</time></trkpt><trkpt lat="45.432596795079675" lon="10.492639213792836"><ele>216.0</ele><time>2026-03-22T11:04:39Z</time></trkpt><trkpt lat="45.43257318522058" lon="10.49254567320195"><ele>216.0</ele><time>2026-03-22T11:04:41Z</time></trkpt><trkpt lat="45.43251242447051" lon="10.49241957896393"><ele>216.0</ele><time>2026-03-22T11:04:44Z</time></trkpt><trkpt lat="45.4324530871232" lon="10.492388185146845"><ele>216.0</ele><time>2026-03-22T11:04:45Z</time></trkpt><trkpt lat="45.43238189957105" lon="10.492320289596723"><ele>216.0</ele><time>2026-03-22T11:04:47Z</time></trkpt><trkpt lat="45.43231972550301" lon="10.492266369699324"><ele>216.0</ele><time>2026-03-22T11:04:49Z</time></trkpt><trkpt lat="45.43228209625618" lon="10.492172425841398"><ele>216.0</ele><time>2026-03-22T11:04:51Z</time></trkpt><trkpt lat="45.432225602275466" lon="10.492122151225484"><ele>216.0</ele><time>2026-03-22T11:04:53Z</time></trkpt><trkpt lat="45.43216162766225" lon="10.49208791566909"><ele>216.0</ele><time>2026-03-22T11:04:55Z</time></trkpt><trkpt lat="45.43211592520512" lon="10.492007678509843"><ele>216.0</ele><time>2026-03-22T11:04:57Z</time></trkpt><trkpt lat="45.432040047488584" lon="10.491918264417464"><ele>215.5</ele><time>2026-03-22T11:04:59Z</time></trkpt><trkpt lat="45.431992511458056" lon="10.491810164902974"><ele>215.0</ele><time>2026-03-22T11:05:01Z</time></trkpt><trkpt lat="45.43193070930017" lon="10.491708629680193"><ele>214.5</ele><time>2026-03-22T11:05:03Z</time></trkpt><trkpt lat="45.43184478635525" lon="10.491691593457183"><ele>214.0</ele><time>2026-03-22T11:05:05Z</time></trkpt><trkpt lat="45.43179788467042" lon="10.491614855319373"><ele>213.5</ele><time>2026-03-22T11:05:08Z</time></trkpt><trkpt lat="45.43175759607804" lon="10.491534556727125"><ele>213.0</ele><time>2026-03-22T11:05:11Z</time></trkpt><trkpt lat="45.43168092682577" lon="10.49147641052299"><ele>212.99999999999997</ele><time>2026-03-22T11:05:14Z</time></trkpt><trkpt lat="45.43164381265576" lon="10.49134724381703"><ele>213.0</ele><time>2026-03-22T11:05:17Z</time></trkpt><trkpt lat="45.43160021065856" lon="10.491273156682665"><ele>213.0</ele><time>2026-03-22T11:05:19Z</time></trkpt><trkpt lat="45.43154236945729" lon="10.491223976189943"><ele>213.0</ele><time>2026-03-22T11:05:21Z</time></trkpt><trkpt lat="45.43148649045759" lon="10.491170900812753"><ele>213.0</ele><time>2026-03-22T11:05:24Z</time></trkpt><trkpt lat="45.431432874776085" lon="10.491112951808404"><ele>212.99999999999997</ele><time>2026-03-22T11:05:27Z</time></trkpt><trkpt lat="45.431393632572785" lon="10.491032480542408"><ele>213.0</ele><time>2026-03-22T11:05:38Z</time></trkpt><trkpt lat="45.431339799784894" lon="10.490976256191432"><ele>211.0</ele><time>2026-03-22T11:05:41Z</time></trkpt><trkpt lat="45.4312609092972" lon="10.49089943327699"><ele>209.0</ele><time>2026-03-22T11:05:44Z</time></trkpt><trkpt lat="45.43119286577197" lon="10.490813714666595"><ele>207.0</ele><time>2026-03-22T11:05:47Z</time></trkpt><trkpt lat="45.431152376397456" lon="10.490737944378356"><ele>205.0</ele><time>2026-03-22T11:05:49Z</time></trkpt><trkpt lat="45.431085376974664" lon="10.490681161371235"><ele>203.0</ele><time>2026-03-22T11:05:51Z</time></trkpt><trkpt lat="45.43104502017206" lon="10.490589519050648"><ele>201.0</ele><time>2026-03-22T11:05:53Z</time></trkpt><trkpt lat="45.43104487762352" lon="10.490493294814543"><ele>200.5</ele><time>2026-03-22T11:05:55Z</time></trkpt><trkpt lat="45.43102575755674" lon="10.490394794226802"><ele>200.0</ele><time>2026-03-22T11:05:58Z</time></trkpt><trkpt lat="45.43095676155436" lon="10.490303685534634"><ele>199.5</ele><time>2026-03-22T11:06:01Z</time></trkpt><trkpt lat="45.43090956523331" lon="10.490196772784307"><ele>199.0</ele><time>2026-03-22T11:06:04Z</time></trkpt><trkpt lat="45.43087848491164" lon="10.490065157778595"><ele>198.5</ele><time>2026-03-22T11:06:06Z</time></trkpt><trkpt lat="45.430810046392395" lon="10.489985077005677"><ele>198.0</ele><time>2026-03-22T11:06:09Z</time></trkpt><trkpt lat="45.430782005914246" lon="10.489892030310973"><ele>198.0</ele><time>2026-03-22T11:06:11Z</time></trkpt><trkpt lat="45.430738643625965" lon="10.489823205574472"><ele>198.0</ele><time>2026-03-22T11:06:15Z</time></trkpt><trkpt lat="45.430677914754504" lon="10.489759589565242"><ele>198.0</ele><time>2026-03-22T11:06:18Z</time></trkpt><trkpt lat="45.430609464417216" lon="10.489722235798009"><ele>198.0</ele><time>2026-03-22T11:06:21Z</time></trkpt><trkpt lat="45.43055584645257" lon="10.489640617200774"><ele>198.0</ele><time>2026-03-22T11:06:23Z</time></trkpt><trkpt lat="45.43049865857845" lon="10.489575320307065"><ele>198.0</ele><time>2026-03-22T11:06:26Z</time></trkpt><trkpt lat="45.430449809046365" lon="10.489505263329482"><ele>198.0</ele><time>2026-03-22T11:06:30Z</time></trkpt><trkpt lat="45.43038248334605" lon="10.489464199931026"><ele>196.42857142857144</ele><time>2026-03-22T11:06:38Z</time></trkpt><trkpt lat="45.43031277865354" lon="10.489492587580774"><ele>194.85714285714283</ele><time>2026-03-22T11:06:41Z</time></trkpt><trkpt lat="45.430293778527044" lon="10.489397975975999"><ele>193.28571428571428</ele><time>2026-03-22T11:07:06Z</time></trkpt><trkpt lat="45.43033313601758" lon="10.489320862731303"><ele>191.71428571428572</ele><time>2026-03-22T11:07:19Z</time></trkpt><trkpt lat="45.43037099547731" lon="10.489240667772464"><ele>190.14285714285717</ele><time>2026-03-22T11:07:30Z</time></trkpt><trkpt lat="45.43033433714037" lon="10.489153714377704"><ele>188.57142857142856</ele><time>2026-03-22T11:07:36Z</time></trkpt><trkpt lat="45.430281333706944" lon="10.489068061363676"><ele>187.0</ele><time>2026-03-22T11:07:40Z</time></trkpt><trkpt lat="45.430296947971584" lon="10.4889571546554"><ele>187.0</ele><time>2026-03-22T11:07:43Z</time></trkpt><trkpt lat="45.430277750972905" lon="10.488852817062329"><ele>187.0</ele><time>2026-03-22T11:07:47Z</time></trkpt><trkpt lat="45.4302661388017" lon="10.488756839678937"><ele>187.0</ele><time>2026-03-22T11:07:50Z</time></trkpt><trkpt lat="45.430197380338555" lon="10.488730017804686"><ele>187.0</ele><time>2026-03-22T11:07:53Z</time></trkpt><trkpt lat="45.43014326353006" lon="10.488660617897864"><ele>187.0</ele><time>2026-03-22T11:07:56Z</time></trkpt><trkpt lat="45.43008339857569" lon="10.488588264974078"><ele>187.0</ele><time>2026-03-22T11:07:58Z</time></trkpt><trkpt lat="45.43003188529961" lon="10.488502213831786"><ele>187.0</ele><time>2026-03-22T11:08:12Z</time></trkpt><trkpt lat="45.43006066746062" lon="10.488403740469487"><ele>185.16666666666669</ele><time>2026-03-22T11:08:16Z</time></trkpt><trkpt lat="45.43007417817063" lon="10.488314822835106"><ele>183.33333333333334</ele><time>2026-03-22T11:08:21Z</time></trkpt><trkpt lat="45.43007002793379" lon="10.488202102940834"><ele>181.5</ele><time>2026-03-22T11:08:34Z</time></trkpt><trkpt lat="45.430040538545995" lon="10.488097332740942"><ele>179.66666666666666</ele><time>2026-03-22T11:08:37Z</time></trkpt><trkpt lat="45.43002886738212" lon="10.487992149320618"><ele>177.83333333333331</ele><time>2026-03-22T11:08:39Z</time></trkpt><trkpt lat="45.43001919365316" lon="10.4878821961852"><ele>176.0</ele><time>2026-03-22T11:08:41Z</time></trkpt><trkpt lat="45.430012367647905" lon="10.487772701019654"><ele>174.71428571428572</ele><time>2026-03-22T11:08:43Z</time></trkpt><trkpt lat="45.42997879851579" lon="10.487650823602989"><ele>173.42857142857142</ele><time>2026-03-22T11:08:46Z</time></trkpt><trkpt lat="45.42997697101071" lon="10.487559092595895"><ele>172.14285714285714</ele><time>2026-03-22T11:08:48Z</time></trkpt><trkpt lat="45.42996208242449" lon="10.487461964803702"><ele>170.85714285714286</ele><time>2026-03-22T11:08:50Z</time></trkpt><trkpt lat="45.4299520399333" lon="10.487360738256111"><ele>169.57142857142858</ele><time>2026-03-22T11:08:52Z</time></trkpt><trkpt lat="45.429950740763644" lon="10.487246150716949"><ele>168.28571428571428</ele><time>2026-03-22T11:08:54Z</time></trkpt><trkpt lat="45.429954428027614" lon="10.487154621471026"><ele>167.0</ele><time>2026-03-22T11:08:56Z</time></trkpt><trkpt lat="45.429906865249826" lon="10.487080567764448"><ele>167.0</ele><time>2026-03-22T11:08:59Z</time></trkpt><trkpt lat="45.4298300472984" lon="10.487090091317024"><ele>167.0</ele><time>2026-03-22T11:09:02Z</time></trkpt><trkpt lat="45.42976168272418" lon="10.487089762226562"><ele>167.0</ele><time>2026-03-22T11:09:04Z</time></trkpt><trkpt lat="45.4296959276955" lon="10.487094435449915"><ele>167.0</ele><time>2026-03-22T11:09:06Z</time></trkpt><trkpt lat="45.42963225616577" lon="10.487116785795934"><ele>167.0</ele><time>2026-03-22T11:09:08Z</time></trkpt><trkpt lat="45.429538000059026" lon="10.487151654315499"><ele>167.0</ele><time>2026-03-22T11:09:11Z</time></trkpt><trkpt lat="45.429469071904315" lon="10.4871779367957"><ele>167.0</ele><time>2026-03-22T11:09:13Z</time></trkpt><trkpt lat="45.429402019098774" lon="10.487200675957514"><ele>167.83333333333331</ele><time>2026-03-22T11:09:15Z</time></trkpt><trkpt lat="45.42933574899775" lon="10.487226318769313"><ele>168.66666666666666</ele><time>2026-03-22T11:09:17Z</time></trkpt><trkpt lat="45.4292378222254" lon="10.487238472759227"><ele>169.5</ele><time>2026-03-22T11:09:20Z</time></trkpt><trkpt lat="45.429157506633516" lon="10.48725580943653"><ele>170.33333333333334</ele><time>2026-03-22T11:09:22Z</time></trkpt><trkpt lat="45.429083159943644" lon="10.487250231130476"><ele>171.16666666666669</ele><time>2026-03-22T11:09:24Z</time></trkpt><trkpt lat="45.42900824696627" lon="10.487241154001975"><ele>172.0</ele><time>2026-03-22T11:09:26Z</time></trkpt><trkpt lat="45.42893973765491" lon="10.487283089943276"><ele>172.00000000000003</ele><time>2026-03-22T11:09:28Z</time></trkpt><trkpt lat="45.428865663244075" lon="10.487283507807936"><ele>172.0</ele><time>2026-03-22T11:09:30Z</time></trkpt><trkpt lat="45.4287955452818" lon="10.487288281035816"><ele>172.0</ele><time>2026-03-22T11:09:32Z</time></trkpt><trkpt lat="45.4287309512557" lon="10.487314129414699"><ele>172.0</ele><time>2026-03-22T11:09:34Z</time></trkpt><trkpt lat="45.42866065217467" lon="10.487329855901471"><ele>172.0</ele><time>2026-03-22T11:09:36Z</time></trkpt><trkpt lat="45.42858597941709" lon="10.487319084277795"><ele>172.00000000000003</ele><time>2026-03-22T11:09:38Z</time></trkpt><trkpt lat="45.428519762850634" lon="10.487313197313801"><ele>172.0</ele><time>2026-03-22T11:09:40Z</time></trkpt><trkpt lat="45.42844619369719" lon="10.487313965529502"><ele>173.5</ele><time>2026-03-22T11:09:42Z</time></trkpt><trkpt lat="45.42837678033082" lon="10.487305161785253"><ele>175.0</ele><time>2026-03-22T11:09:44Z</time></trkpt><trkpt lat="45.42829485872146" lon="10.487312522947951"><ele>176.5</ele><time>2026-03-22T11:09:47Z</time></trkpt><trkpt lat="45.42820493424903" lon="10.48731954679159"><ele>178.0</ele><time>2026-03-22T11:09:50Z</time></trkpt><trkpt lat="45.42813529136392" lon="10.48732353158704"><ele>179.5</ele><time>2026-03-22T11:09:52Z</time></trkpt><trkpt lat="45.428047069805466" lon="10.48733877386497"><ele>181.0</ele><time>2026-03-22T11:09:55Z</time></trkpt><trkpt lat="45.42798420432703" lon="10.48735206763921"><ele>181.33333333333334</ele><time>2026-03-22T11:09:57Z</time></trkpt><trkpt lat="45.4279102528439" lon="10.4874234860577"><ele>181.66666666666669</ele><time>2026-03-22T11:10:00Z</time></trkpt><trkpt lat="45.427831380986625" lon="10.487478375602556"><ele>182.0</ele><time>2026-03-22T11:10:03Z</time></trkpt><trkpt lat="45.4277718038824" lon="10.487526138095614"><ele>182.33333333333334</ele><time>2026-03-22T11:10:06Z</time></trkpt><trkpt lat="45.4276937693375" lon="10.48757424592257"><ele>182.66666666666666</ele><time>2026-03-22T11:10:09Z</time></trkpt><trkpt lat="45.427639405801976" lon="10.48765880677085"><ele>183.0</ele><time>2026-03-22T11:10:12Z</time></trkpt><trkpt lat="45.42758747063009" lon="10.487732932280084"><ele>183.0</ele><time>2026-03-22T11:10:15Z</time></trkpt><trkpt lat="45.42753662294258" lon="10.487823147266337"><ele>183.0</ele><time>2026-03-22T11:10:18Z</time></trkpt><trkpt lat="45.42750109372725" lon="10.487915809476334"><ele>183.0</ele><time>2026-03-22T11:10:20Z</time></trkpt><trkpt lat="45.42747039020881" lon="10.488011636971898"><ele>183.0</ele><time>2026-03-22T11:10:22Z</time></trkpt><trkpt lat="45.42745759591371" lon="10.488157258832677"><ele>183.0</ele><time>2026-03-22T11:10:24Z</time></trkpt><trkpt lat="45.427435753051874" lon="10.488317154397805"><ele>183.0</ele><time>2026-03-22T11:10:26Z</time></trkpt><trkpt lat="45.42742907906255" lon="10.488416115357522"><ele>183.0</ele><time>2026-03-22T11:10:27Z</time></trkpt><trkpt lat="45.427429469499444" lon="10.48858430538964"><ele>183.0</ele><time>2026-03-22T11:10:29Z</time></trkpt><trkpt lat="45.42741562455075" lon="10.488752952497332"><ele>183.0</ele><time>2026-03-22T11:10:31Z</time></trkpt><trkpt lat="45.42741114296051" lon="10.488915036546011"><ele>183.0</ele><time>2026-03-22T11:10:33Z</time></trkpt><trkpt lat="45.427409173577466" lon="10.489071991404272"><ele>182.66666666666666</ele><time>2026-03-22T11:10:35Z</time></trkpt><trkpt lat="45.427404592320116" lon="10.48920863694069"><ele>182.33333333333334</ele><time>2026-03-22T11:10:37Z</time></trkpt><trkpt lat="45.427382391291886" lon="10.48933831674782"><ele>182.0</ele><time>2026-03-22T11:10:39Z</time></trkpt><trkpt lat="45.42735233328777" lon="10.489455187800498"><ele>181.66666666666669</ele><time>2026-03-22T11:10:41Z</time></trkpt><trkpt lat="45.42732386302527" lon="10.489569846370715"><ele>181.33333333333334</ele><time>2026-03-22T11:10:43Z</time></trkpt><trkpt lat="45.427281028737426" lon="10.489672673684694"><ele>181.0</ele><time>2026-03-22T11:10:45Z</time></trkpt><trkpt lat="45.42723707572366" lon="10.489759955806614"><ele>181.0</ele><time>2026-03-22T11:10:47Z</time></trkpt><trkpt lat="45.42718102990046" lon="10.489838719268803"><ele>181.0</ele><time>2026-03-22T11:10:49Z</time></trkpt><trkpt lat="45.4271246405438" lon="10.489917783757479"><ele>181.0</ele><time>2026-03-22T11:10:51Z</time></trkpt><trkpt lat="45.427069131083" lon="10.489997187565235"><ele>181.0</ele><time>2026-03-22T11:10:53Z</time></trkpt><trkpt lat="45.42701531061231" lon="10.490058190138734"><ele>181.0</ele><time>2026-03-22T11:10:55Z</time></trkpt><trkpt lat="45.42694641501899" lon="10.490126920289832"><ele>181.0</ele><time>2026-03-22T11:10:58Z</time></trkpt><trkpt lat="45.426881150224794" lon="10.49012729197547"><ele>180.42857142857142</ele><time>2026-03-22T11:11:00Z</time></trkpt><trkpt lat="45.42680426685579" lon="10.490114690352442"><ele>179.85714285714283</ele><time>2026-03-22T11:11:03Z</time></trkpt><trkpt lat="45.426735861320005" lon="10.490195854950185"><ele>179.28571428571428</ele><time>2026-03-22T11:11:07Z</time></trkpt><trkpt lat="45.426673809034874" lon="10.490239698931301"><ele>178.71428571428572</ele><time>2026-03-22T11:11:09Z</time></trkpt><trkpt lat="45.426607094519966" lon="10.490271860197003"><ele>178.14285714285714</ele><time>2026-03-22T11:11:11Z</time></trkpt><trkpt lat="45.42654302441153" lon="10.490309137132558"><ele>177.57142857142858</ele><time>2026-03-22T11:11:13Z</time></trkpt><trkpt lat="45.42648294374174" lon="10.490354368396858"><ele>177.0</ele><time>2026-03-22T11:11:15Z</time></trkpt><trkpt lat="45.42638899073137" lon="10.490364243102103"><ele>177.0</ele><time>2026-03-22T11:11:18Z</time></trkpt><trkpt lat="45.42631532157605" lon="10.490341609215966"><ele>177.0</ele><time>2026-03-22T11:11:20Z</time></trkpt><trkpt lat="45.4262420963051" lon="10.490313624380843"><ele>177.0</ele><time>2026-03-22T11:11:22Z</time></trkpt><trkpt lat="45.42616910201266" lon="10.490293817187556"><ele>177.0</ele><time>2026-03-22T11:11:24Z</time></trkpt><trkpt lat="45.426096160356366" lon="10.490278566741775"><ele>177.0</ele><time>2026-03-22T11:11:26Z</time></trkpt><trkpt lat="45.42602644942081" lon="10.490269987269457"><ele>177.0</ele><time>2026-03-22T11:11:28Z</time></trkpt><trkpt lat="45.42597069504591" lon="10.49022404212521"><ele>177.0</ele><time>2026-03-22T11:11:30Z</time></trkpt><trkpt lat="45.42591636741249" lon="10.490174668723306"><ele>176.2857142857143</ele><time>2026-03-22T11:11:32Z</time></trkpt><trkpt lat="45.42585031385011" lon="10.49015106130997"><ele>175.57142857142856</ele><time>2026-03-22T11:11:34Z</time></trkpt><trkpt lat="45.425776285055925" lon="10.490110129561879"><ele>174.85714285714286</ele><time>2026-03-22T11:11:37Z</time></trkpt><trkpt lat="45.425738825680696" lon="10.490031215976153"><ele>174.14285714285717</ele><time>2026-03-22T11:11:41Z</time></trkpt><trkpt lat="45.425719475242325" lon="10.489930100906275"><ele>173.42857142857144</ele><time>2026-03-22T11:11:45Z</time></trkpt><trkpt lat="45.425693597802294" lon="10.489828986154677"><ele>172.71428571428572</ele><time>2026-03-22T11:11:49Z</time></trkpt><trkpt lat="45.42563339459689" lon="10.489762989377782"><ele>172.0</ele><time>2026-03-22T11:11:52Z</time></trkpt><trkpt lat="45.425579899671156" lon="10.489687045643542"><ele>172.0</ele><time>2026-03-22T11:11:55Z</time></trkpt><trkpt lat="45.42550218253349" lon="10.48964659406353"><ele>172.0</ele><time>2026-03-22T11:12:00Z</time></trkpt><trkpt lat="45.425436383245" lon="10.48967487802637"><ele>172.0</ele><time>2026-03-22T11:12:04Z</time></trkpt><trkpt lat="45.425348550657574" lon="10.489682488427208"><ele>172.0</ele><time>2026-03-22T11:12:08Z</time></trkpt><trkpt lat="45.425260418599024" lon="10.489627538449238"><ele>172.0</ele><time>2026-03-22T11:12:12Z</time></trkpt><trkpt lat="45.42516464054515" lon="10.4896709914835"><ele>172.0</ele><time>2026-03-22T11:12:14Z</time></trkpt><trkpt lat="45.42506589479409" lon="10.489629011520728"><ele>170.5</ele><time>2026-03-22T11:12:17Z</time></trkpt><trkpt lat="45.424998071589414" lon="10.48956276115586"><ele>169.0</ele><time>2026-03-22T11:12:20Z</time></trkpt><trkpt lat="45.424936562856026" lon="10.489530612655958"><ele>167.5</ele><time>2026-03-22T11:12:23Z</time></trkpt><trkpt lat="45.424858631626726" lon="10.48954278985709"><ele>166.0</ele><time>2026-03-22T11:12:39Z</time></trkpt><trkpt lat="45.42477787043887" lon="10.489514096277329"><ele>164.5</ele><time>2026-03-22T11:12:42Z</time></trkpt><trkpt lat="45.42469773396919" lon="10.489474604048723"><ele>163.0</ele><time>2026-03-22T11:12:46Z</time></trkpt><trkpt lat="45.42462347255624" lon="10.489440878887804"><ele>161.57142857142858</ele><time>2026-03-22T11:12:49Z</time></trkpt><trkpt lat="45.42456774275136" lon="10.489367029639583"><ele>160.14285714285714</ele><time>2026-03-22T11:12:51Z</time></trkpt><trkpt lat="45.42450310895491" lon="10.48937797652307"><ele>158.71428571428572</ele><time>2026-03-22T11:12:54Z</time></trkpt><trkpt lat="45.42443429241863" lon="10.489393453859734"><ele>157.28571428571428</ele><time>2026-03-22T11:12:57Z</time></trkpt><trkpt lat="45.42436154113684" lon="10.489381802079908"><ele>155.85714285714286</ele><time>2026-03-22T11:13:00Z</time></trkpt><trkpt lat="45.424301025155145" lon="10.489343150164013"><ele>154.42857142857142</ele><time>2026-03-22T11:13:06Z</time></trkpt><trkpt lat="45.42423280681493" lon="10.489307059910915"><ele>153.0</ele><time>2026-03-22T11:13:09Z</time></trkpt><trkpt lat="45.42415776319878" lon="10.489322922382636"><ele>153.0</ele><time>2026-03-22T11:13:12Z</time></trkpt><trkpt lat="45.42408341102959" lon="10.489263620713052"><ele>153.0</ele><time>2026-03-22T11:13:16Z</time></trkpt><trkpt lat="45.42403787162959" lon="10.489197747961564"><ele>153.0</ele><time>2026-03-22T11:13:18Z</time></trkpt><trkpt lat="45.423981886471154" lon="10.48915337918554"><ele>153.0</ele><time>2026-03-22T11:13:20Z</time></trkpt><trkpt lat="45.423914642146066" lon="10.489118653344566"><ele>153.0</ele><time>2026-03-22T11:13:22Z</time></trkpt><trkpt lat="45.423864513605594" lon="10.489029893047272"><ele>153.0</ele><time>2026-03-22T11:13:24Z</time></trkpt><trkpt lat="45.42378547921531" lon="10.488995126481555"><ele>153.0</ele><time>2026-03-22T11:13:27Z</time></trkpt><trkpt lat="45.42374862280955" lon="10.488893687645113"><ele>153.0</ele><time>2026-03-22T11:13:31Z</time></trkpt><trkpt lat="45.42365907261537" lon="10.488857149682797"><ele>153.0</ele><time>2026-03-22T11:13:35Z</time></trkpt><trkpt lat="45.42357608756346" lon="10.488818740697242"><ele>153.0</ele><time>2026-03-22T11:13:38Z</time></trkpt><trkpt lat="45.42351746483567" lon="10.488776871547554"><ele>153.0</ele><time>2026-03-22T11:13:40Z</time></trkpt><trkpt lat="45.423430220907264" lon="10.488825622613474"><ele>153.0</ele><time>2026-03-22T11:13:43Z</time></trkpt><trkpt lat="45.423373527468506" lon="10.488881920651018"><ele>153.0</ele><time>2026-03-22T11:14:29Z</time></trkpt><trkpt lat="45.42330983390052" lon="10.488829966429735"><ele>153.0</ele><time>2026-03-22T11:14:32Z</time></trkpt><trkpt lat="45.42324436448027" lon="10.48877859122288"><ele>153.0</ele><time>2026-03-22T11:14:35Z</time></trkpt><trkpt lat="45.4231592888886" lon="10.488710028210292"><ele>153.0</ele><time>2026-03-22T11:14:38Z</time></trkpt><trkpt lat="45.423095874812425" lon="10.48865878266336"><ele>153.0</ele><time>2026-03-22T11:14:40Z</time></trkpt><trkpt lat="45.42302531744952" lon="10.488600283030358"><ele>153.0</ele><time>2026-03-22T11:14:43Z</time></trkpt><trkpt lat="45.422959240087685" lon="10.488518350695593"><ele>153.0</ele><time>2026-03-22T11:14:46Z</time></trkpt><trkpt lat="45.42288278583994" lon="10.48847285655049"><ele>152.5</ele><time>2026-03-22T11:14:49Z</time></trkpt><trkpt lat="45.4228010973656" lon="10.488411171741344"><ele>152.0</ele><time>2026-03-22T11:14:52Z</time></trkpt><trkpt lat="45.42274644416782" lon="10.488364645162754"><ele>151.5</ele><time>2026-03-22T11:14:54Z</time></trkpt><trkpt lat="45.42268896186117" lon="10.488325154761686"><ele>151.0</ele><time>2026-03-22T11:14:56Z</time></trkpt><trkpt lat="45.42263547332574" lon="10.488263227060385"><ele>150.5</ele><time>2026-03-22T11:14:58Z</time></trkpt><trkpt lat="45.422582650632435" lon="10.488185194080192"><ele>150.0</ele><time>2026-03-22T11:15:00Z</time></trkpt><trkpt lat="45.42253591358718" lon="10.488081510640756"><ele>150.0</ele><time>2026-03-22T11:15:03Z</time></trkpt><trkpt lat="45.42250218886795" lon="10.487972271233403"><ele>150.0</ele><time>2026-03-22T11:15:05Z</time></trkpt><trkpt lat="45.42246784573406" lon="10.487881994613707"><ele>150.0</ele><time>2026-03-22T11:15:07Z</time></trkpt><trkpt lat="45.42245063516168" lon="10.48777626536496"><ele>150.0</ele><time>2026-03-22T11:15:09Z</time></trkpt><trkpt lat="45.42242927671303" lon="10.487678917503214"><ele>150.0</ele><time>2026-03-22T11:15:11Z</time></trkpt><trkpt lat="45.42242461355909" lon="10.487568113231005"><ele>150.0</ele><time>2026-03-22T11:15:13Z</time></trkpt><trkpt lat="45.4224179761417" lon="10.487468152769736"><ele>149.57142857142856</ele><time>2026-03-22T11:15:15Z</time></trkpt><trkpt lat="45.422400069965555" lon="10.487361391563487"><ele>149.14285714285714</ele><time>2026-03-22T11:15:17Z</time></trkpt><trkpt lat="45.42240331039818" lon="10.487269557532416"><ele>148.71428571428572</ele><time>2026-03-22T11:15:19Z</time></trkpt><trkpt lat="45.42242414525388" lon="10.48718045623676"><ele>148.28571428571428</ele><time>2026-03-22T11:15:21Z</time></trkpt><trkpt lat="45.422417825998245" lon="10.487050367002233"><ele>147.85714285714286</ele><time>2026-03-22T11:15:24Z</time></trkpt><trkpt lat="45.422424183793694" lon="10.486960208144719"><ele>147.42857142857142</ele><time>2026-03-22T11:15:26Z</time></trkpt><trkpt lat="45.42243881440658" lon="10.486871351088109"><ele>147.0</ele><time>2026-03-22T11:15:28Z</time></trkpt><trkpt lat="45.42243718937836" lon="10.486731937706168"><ele>146.5</ele><time>2026-03-22T11:15:31Z</time></trkpt><trkpt lat="45.422445460374114" lon="10.486599271204543"><ele>146.0</ele><time>2026-03-22T11:15:34Z</time></trkpt><trkpt lat="45.42244058928015" lon="10.48650861424446"><ele>145.5</ele><time>2026-03-22T11:15:36Z</time></trkpt><trkpt lat="45.422423713314245" lon="10.48637123145999"><ele>145.0</ele><time>2026-03-22T11:15:39Z</time></trkpt><trkpt lat="45.422389169759946" lon="10.486269000770319"><ele>144.5</ele><time>2026-03-22T11:15:41Z</time></trkpt><trkpt lat="45.4223637276379" lon="10.486157699497362"><ele>144.0</ele><time>2026-03-22T11:15:43Z</time></trkpt><trkpt lat="45.42230518061795" lon="10.486049332046942"><ele>143.6</ele><time>2026-03-22T11:15:45Z</time></trkpt><trkpt lat="45.42224212545512" lon="10.485947742550326"><ele>143.2</ele><time>2026-03-22T11:15:47Z</time></trkpt><trkpt lat="45.42217027209118" lon="10.485862308917632"><ele>142.79999999999998</ele><time>2026-03-22T11:15:49Z</time></trkpt><trkpt lat="45.422088004752815" lon="10.485791998575575"><ele>142.4</ele><time>2026-03-22T11:15:51Z</time></trkpt><trkpt lat="45.422002600011304" lon="10.485732499516196"><ele>142.0</ele><time>2026-03-22T11:15:53Z</time></trkpt><trkpt lat="45.421918204503356" lon="10.485669450132878"><ele>141.6</ele><time>2026-03-22T11:15:55Z</time></trkpt><trkpt lat="45.4218264133557" lon="10.485621975125326"><ele>141.2</ele><time>2026-03-22T11:15:57Z</time></trkpt><trkpt lat="45.421736563030706" lon="10.485608392715216"><ele>140.8</ele><time>2026-03-22T11:15:59Z</time></trkpt><trkpt lat="45.42164884108841" lon="10.485607383630146"><ele>140.4</ele><time>2026-03-22T11:16:01Z</time></trkpt><trkpt lat="45.42156311928622" lon="10.485574918386563"><ele>140.0</ele><time>2026-03-22T11:16:03Z</time></trkpt><trkpt lat="45.42147589002214" lon="10.485548250269593"><ele>140.0</ele><time>2026-03-22T11:16:05Z</time></trkpt><trkpt lat="45.42138318814196" lon="10.485532432969592"><ele>140.0</ele><time>2026-03-22T11:16:07Z</time></trkpt><trkpt lat="45.42129504549598" lon="10.48548715372217"><ele>140.0</ele><time>2026-03-22T11:16:09Z</time></trkpt><trkpt lat="45.42120023864981" lon="10.485472580466453"><ele>140.0</ele><time>2026-03-22T11:16:11Z</time></trkpt><trkpt lat="45.421109496474436" lon="10.485459067414283"><ele>140.0</ele><time>2026-03-22T11:16:13Z</time></trkpt><trkpt lat="45.42101085081274" lon="10.48545229748378"><ele>139.83333333333331</ele><time>2026-03-22T11:16:15Z</time></trkpt><trkpt lat="45.42092670154959" lon="10.485475671509265"><ele>139.66666666666666</ele><time>2026-03-22T11:16:17Z</time></trkpt><trkpt lat="45.42083269117166" lon="10.485464788895499"><ele>139.5</ele><time>2026-03-22T11:16:19Z</time></trkpt><trkpt lat="45.42075158236038" lon="10.485481052630588"><ele>139.33333333333334</ele><time>2026-03-22T11:16:21Z</time></trkpt><trkpt lat="45.420732563926215" lon="10.485577318207925"><ele>139.16666666666669</ele><time>2026-03-22T11:16:24Z</time></trkpt><trkpt lat="45.42080533883028" lon="10.485614937147576"><ele>139.0</ele><time>2026-03-22T11:16:27Z</time></trkpt><trkpt lat="45.42088068875292" lon="10.485644466853731"><ele>139.0</ele><time>2026-03-22T11:16:29Z</time></trkpt><trkpt lat="45.420970272095225" lon="10.485653957902556"><ele>139.0</ele><time>2026-03-22T11:16:32Z</time></trkpt><trkpt lat="45.42104869738882" lon="10.485702642608889"><ele>139.0</ele><time>2026-03-22T11:16:35Z</time></trkpt><trkpt lat="45.42109876419537" lon="10.485764583302037"><ele>139.0</ele><time>2026-03-22T11:16:37Z</time></trkpt><trkpt lat="45.42119775242475" lon="10.48578420151434"><ele>139.0</ele><time>2026-03-22T11:16:40Z</time></trkpt><trkpt lat="45.42120908472808" lon="10.48590812474493"><ele>139.0</ele><time>2026-03-22T11:16:43Z</time></trkpt><trkpt lat="45.42118314028062" lon="10.485994817827647"><ele>139.0</ele><time>2026-03-22T11:16:45Z</time></trkpt><trkpt lat="45.421152964493636" lon="10.486073568684777"><ele>139.0</ele><time>2026-03-22T11:16:47Z</time></trkpt><trkpt lat="45.42112510472675" lon="10.486197087894132"><ele>139.0</ele><time>2026-03-22T11:16:50Z</time></trkpt><trkpt lat="45.42110823802595" lon="10.486286242970573"><ele>139.0</ele><time>2026-03-22T11:16:52Z</time></trkpt><trkpt lat="45.421137165153894" lon="10.486383933581257"><ele>139.0</ele><time>2026-03-22T11:16:55Z</time></trkpt><trkpt lat="45.42117817963964" lon="10.486493587452081"><ele>139.0</ele><time>2026-03-22T11:16:58Z</time></trkpt><trkpt lat="45.421170038440536" lon="10.486606410856893"><ele>140.83333333333334</ele><time>2026-03-22T11:17:01Z</time></trkpt><trkpt lat="45.42109763310594" lon="10.48666259599877"><ele>142.66666666666669</ele><time>2026-03-22T11:17:06Z</time></trkpt><trkpt lat="45.42101337622748" lon="10.486642985633422"><ele>144.5</ele><time>2026-03-22T11:17:09Z</time></trkpt><trkpt lat="45.420937471967164" lon="10.486634127652943"><ele>146.33333333333334</ele><time>2026-03-22T11:17:12Z</time></trkpt><trkpt lat="45.42085430063565" lon="10.486607376370971"><ele>148.16666666666666</ele><time>2026-03-22T11:17:15Z</time></trkpt><trkpt lat="45.42076897406992" lon="10.48658166314819"><ele>150.0</ele><time>2026-03-22T11:17:18Z</time></trkpt><trkpt lat="45.42068957786208" lon="10.486560770836059"><ele>150.0</ele><time>2026-03-22T11:17:21Z</time></trkpt><trkpt lat="45.42060587823494" lon="10.48654103628473"><ele>150.0</ele><time>2026-03-22T11:17:24Z</time></trkpt><trkpt lat="45.42051765745571" lon="10.4865194003615"><ele>150.0</ele><time>2026-03-22T11:17:27Z</time></trkpt><trkpt lat="45.42044867362718" lon="10.486507320238259"><ele>150.0</ele><time>2026-03-22T11:17:31Z</time></trkpt><trkpt lat="45.42035981897991" lon="10.48652555388978"><ele>150.0</ele><time>2026-03-22T11:17:35Z</time></trkpt><trkpt lat="45.42032991492732" lon="10.486607079644296"><ele>150.0</ele><time>2026-03-22T11:17:37Z</time></trkpt><trkpt lat="45.42033182660472" lon="10.486703404545674"><ele>150.5</ele><time>2026-03-22T11:17:39Z</time></trkpt><trkpt lat="45.420346442101746" lon="10.48680081892116"><ele>151.0</ele><time>2026-03-22T11:17:41Z</time></trkpt><trkpt lat="45.42035094079979" lon="10.486896486893091"><ele>151.5</ele><time>2026-03-22T11:17:43Z</time></trkpt><trkpt lat="45.420351418209215" lon="10.486987158078499"><ele>152.0</ele><time>2026-03-22T11:17:45Z</time></trkpt><trkpt lat="45.42036824412955" lon="10.487105073084527"><ele>152.5</ele><time>2026-03-22T11:17:48Z</time></trkpt><trkpt lat="45.42037512847228" lon="10.48724576609993"><ele>153.0</ele><time>2026-03-22T11:17:51Z</time></trkpt><trkpt lat="45.42037014461474" lon="10.487339577503132"><ele>153.5</ele><time>2026-03-22T11:17:53Z</time></trkpt><trkpt lat="45.42040754602221" lon="10.487456584571909"><ele>154.0</ele><time>2026-03-22T11:17:56Z</time></trkpt><trkpt lat="45.42044526643811" lon="10.487532225870021"><ele>154.5</ele><time>2026-03-22T11:17:58Z</time></trkpt><trkpt lat="45.42048985991074" lon="10.487626273696586"><ele>155.0</ele><time>2026-03-22T11:18:01Z</time></trkpt><trkpt lat="45.42055120372725" lon="10.487686000969349"><ele>155.5</ele><time>2026-03-22T11:18:04Z</time></trkpt><trkpt lat="45.42061719262979" lon="10.487719865983633"><ele>156.0</ele><time>2026-03-22T11:18:07Z</time></trkpt><trkpt lat="45.42069660417197" lon="10.487726309680534"><ele>156.0</ele><time>2026-03-22T11:18:10Z</time></trkpt><trkpt lat="45.42076235059572" lon="10.487746618835528"><ele>156.0</ele><time>2026-03-22T11:18:13Z</time></trkpt><trkpt lat="45.420838302498346" lon="10.487769076277548"><ele>156.0</ele><time>2026-03-22T11:18:16Z</time></trkpt><trkpt lat="45.420920637101055" lon="10.487773301721251"><ele>156.0</ele><time>2026-03-22T11:18:19Z</time></trkpt><trkpt lat="45.42099597974293" lon="10.487777234498374"><ele>156.0</ele><time>2026-03-22T11:18:22Z</time></trkpt><trkpt lat="45.42108565777947" lon="10.487785194147095"><ele>156.0</ele><time>2026-03-22T11:18:25Z</time></trkpt><trkpt lat="45.421165898805384" lon="10.487796621026487"><ele>156.0</ele><time>2026-03-22T11:18:28Z</time></trkpt><trkpt lat="45.42123736238049" lon="10.487808658354083"><ele>156.0</ele><time>2026-03-22T11:18:31Z</time></trkpt><trkpt lat="45.421308208681175" lon="10.487807626338611"><ele>156.0</ele><time>2026-03-22T11:18:34Z</time></trkpt><trkpt lat="45.42133590213351" lon="10.487714275725875"><ele>156.0</ele><time>2026-03-22T11:18:39Z</time></trkpt><trkpt lat="45.42132386690074" lon="10.487618333317743"><ele>156.0</ele><time>2026-03-22T11:18:41Z</time></trkpt><trkpt lat="45.42129497187538" lon="10.48752171922969"><ele>156.0</ele><time>2026-03-22T11:18:44Z</time></trkpt><trkpt lat="45.42127739871491" lon="10.487404198740364"><ele>156.0</ele><time>2026-03-22T11:18:47Z</time></trkpt><trkpt lat="45.42126883268231" lon="10.487313776158967"><ele>156.0</ele><time>2026-03-22T11:18:50Z</time></trkpt><trkpt lat="45.421264886441925" lon="10.48720727396539"><ele>156.0</ele><time>2026-03-22T11:18:53Z</time></trkpt><trkpt lat="45.421258382013" lon="10.487105268318976"><ele>156.0</ele><time>2026-03-22T11:18:55Z</time></trkpt><trkpt lat="45.4212311118556" lon="10.486991613381761"><ele>156.0</ele><time>2026-03-22T11:18:58Z</time></trkpt><trkpt lat="45.42120154605814" lon="10.486908461794254"><ele>156.0</ele><time>2026-03-22T11:19:00Z</time></trkpt><trkpt lat="45.421168171653434" lon="10.486784185416216"><ele>156.0</ele><time>2026-03-22T11:19:03Z</time></trkpt><trkpt lat="45.42115588525139" lon="10.486647521049095"><ele>155.14285714285714</ele><time>2026-03-22T11:19:06Z</time></trkpt><trkpt lat="45.421166431381465" lon="10.486542626975803"><ele>154.28571428571428</ele><time>2026-03-22T11:19:09Z</time></trkpt><trkpt lat="45.42120072224925" lon="10.48646515313793"><ele>153.42857142857142</ele><time>2026-03-22T11:19:13Z</time></trkpt><trkpt lat="45.42125948294482" lon="10.486497574878838"><ele>152.57142857142856</ele><time>2026-03-22T11:19:16Z</time></trkpt><trkpt lat="45.421324579124" lon="10.486519632924987"><ele>151.71428571428572</ele><time>2026-03-22T11:19:18Z</time></trkpt><trkpt lat="45.421401641829824" lon="10.48653414035551"><ele>150.85714285714283</ele><time>2026-03-22T11:19:21Z</time></trkpt><trkpt lat="45.421463888425556" lon="10.486590185374116"><ele>150.0</ele><time>2026-03-22T11:19:24Z</time></trkpt><trkpt lat="45.42152291857009" lon="10.48664834366037"><ele>149.83333333333334</ele><time>2026-03-22T11:19:26Z</time></trkpt><trkpt lat="45.42160442567433" lon="10.486680256623213"><ele>149.66666666666666</ele><time>2026-03-22T11:19:29Z</time></trkpt><trkpt lat="45.42167655542764" lon="10.486736878640714"><ele>149.5</ele><time>2026-03-22T11:19:32Z</time></trkpt><trkpt lat="45.42174642002883" lon="10.486826786787116"><ele>149.33333333333331</ele><time>2026-03-22T11:19:35Z</time></trkpt><trkpt lat="45.421827996327806" lon="10.486860891676207"><ele>149.16666666666666</ele><time>2026-03-22T11:19:38Z</time></trkpt><trkpt lat="45.421834806037886" lon="10.486959736030958"><ele>149.0</ele><time>2026-03-22T11:19:40Z</time></trkpt><trkpt lat="45.42183863004205" lon="10.487050946812202"><ele>149.0</ele><time>2026-03-22T11:19:42Z</time></trkpt><trkpt lat="45.421921298717635" lon="10.487091065236319"><ele>149.0</ele><time>2026-03-22T11:19:45Z</time></trkpt><trkpt lat="45.42200026756667" lon="10.487114049823541"><ele>149.0</ele><time>2026-03-22T11:19:48Z</time></trkpt><trkpt lat="45.42199443421948" lon="10.487224844600533"><ele>149.0</ele><time>2026-03-22T11:20:53Z</time></trkpt><trkpt lat="45.421973512517695" lon="10.487322008807475"><ele>149.0</ele><time>2026-03-22T11:20:57Z</time></trkpt><trkpt lat="45.42196894499297" lon="10.487420104575722"><ele>149.0</ele><time>2026-03-22T11:21:00Z</time></trkpt><trkpt lat="45.42193371045676" lon="10.48750317095666"><ele>149.71428571428572</ele><time>2026-03-22T11:21:02Z</time></trkpt><trkpt lat="45.42191471830508" lon="10.487615486819204"><ele>150.42857142857142</ele><time>2026-03-22T11:21:05Z</time></trkpt><trkpt lat="45.42190300401778" lon="10.487705489972004"><ele>151.14285714285714</ele><time>2026-03-22T11:21:07Z</time></trkpt><trkpt lat="45.42186546654899" lon="10.487781086872376"><ele>151.85714285714286</ele><time>2026-03-22T11:21:10Z</time></trkpt><trkpt lat="45.42184041357848" lon="10.487888796836687"><ele>152.57142857142856</ele><time>2026-03-22T11:21:13Z</time></trkpt><trkpt lat="45.42183793064351" lon="10.48800120487443"><ele>153.28571428571428</ele><time>2026-03-22T11:21:17Z</time></trkpt><trkpt lat="45.42180902837964" lon="10.488097227326131"><ele>154.0</ele><time>2026-03-22T11:21:22Z</time></trkpt><trkpt lat="45.421769721191865" lon="10.488168327236394"><ele>155.83333333333334</ele><time>2026-03-22T11:21:36Z</time></trkpt><trkpt lat="45.42168519939143" lon="10.48818430068791"><ele>157.66666666666669</ele><time>2026-03-22T11:21:49Z</time></trkpt><trkpt lat="45.42161474598244" lon="10.488185654650767"><ele>159.5</ele><time>2026-03-22T11:21:51Z</time></trkpt><trkpt lat="45.421539313810385" lon="10.488213605633744"><ele>161.33333333333334</ele><time>2026-03-22T11:21:53Z</time></trkpt><trkpt lat="45.42146633909671" lon="10.488255791028319"><ele>163.16666666666666</ele><time>2026-03-22T11:21:57Z</time></trkpt><trkpt lat="45.42139791996581" lon="10.48828976115475"><ele>165.0</ele><time>2026-03-22T11:22:00Z</time></trkpt><trkpt lat="45.42132489651221" lon="10.488262151800539"><ele>165.14285714285717</ele><time>2026-03-22T11:22:11Z</time></trkpt><trkpt lat="45.42127068889089" lon="10.488211155628521"><ele>165.28571428571428</ele><time>2026-03-22T11:22:16Z</time></trkpt><trkpt lat="45.421221585385005" lon="10.488143480120819"><ele>165.42857142857144</ele><time>2026-03-22T11:22:22Z</time></trkpt><trkpt lat="45.42116562382221" lon="10.48809241788066"><ele>165.57142857142858</ele><time>2026-03-22T11:22:24Z</time></trkpt><trkpt lat="45.42108513284523" lon="10.48808262470733"><ele>165.71428571428572</ele><time>2026-03-22T11:22:27Z</time></trkpt><trkpt lat="45.42102877049258" lon="10.488025726329207"><ele>165.85714285714286</ele><time>2026-03-22T11:22:30Z</time></trkpt><trkpt lat="45.42095610861411" lon="10.48799631998445"><ele>166.0</ele><time>2026-03-22T11:22:34Z</time></trkpt><trkpt lat="45.42089329231857" lon="10.487961321868084"><ele>166.0</ele><time>2026-03-22T11:22:38Z</time></trkpt><trkpt lat="45.42085092254727" lon="10.488037404420005"><ele>166.0</ele><time>2026-03-22T11:22:41Z</time></trkpt><trkpt lat="45.420796365691096" lon="10.488087235552781"><ele>166.0</ele><time>2026-03-22T11:22:45Z</time></trkpt><trkpt lat="45.4207185436021" lon="10.488040417130088"><ele>166.0</ele><time>2026-03-22T11:22:48Z</time></trkpt><trkpt lat="45.42063456477931" lon="10.488071303124029"><ele>166.0</ele><time>2026-03-22T11:22:51Z</time></trkpt><trkpt lat="45.42056232625027" lon="10.488060340928186"><ele>166.0</ele><time>2026-03-22T11:22:56Z</time></trkpt><trkpt lat="45.420492008891024" lon="10.488030973825062"><ele>165.28571428571428</ele><time>2026-03-22T11:22:59Z</time></trkpt><trkpt lat="45.42041321401933" lon="10.4880163035076"><ele>164.57142857142858</ele><time>2026-03-22T11:23:22Z</time></trkpt><trkpt lat="45.4203643706582" lon="10.487943247415568"><ele>163.85714285714286</ele><time>2026-03-22T11:23:37Z</time></trkpt><trkpt lat="45.420355807969926" lon="10.487848360963072"><ele>163.14285714285714</ele><time>2026-03-22T11:23:52Z</time></trkpt><trkpt lat="45.42037148797207" lon="10.487750003906852"><ele>162.42857142857144</ele><time>2026-03-22T11:24:05.001Z</time></trkpt><trkpt lat="45.42037470976706" lon="10.487653209045597"><ele>161.71428571428572</ele><time>2026-03-22T11:24:15Z</time></trkpt><trkpt lat="45.4203891694244" lon="10.487557468524523"><ele>161.0</ele><time>2026-03-22T11:24:19Z</time></trkpt><trkpt lat="45.42037140693031" lon="10.487437787374523"><ele>160.33333333333331</ele><time>2026-03-22T11:24:22Z</time></trkpt><trkpt lat="45.42036620390594" lon="10.487346201051349"><ele>159.66666666666666</ele><time>2026-03-22T11:24:24Z</time></trkpt><trkpt lat="45.42035134529548" lon="10.487232622861699"><ele>159.0</ele><time>2026-03-22T11:24:27Z</time></trkpt><trkpt lat="45.4203628027075" lon="10.48713461473842"><ele>158.33333333333334</ele><time>2026-03-22T11:24:30Z</time></trkpt><trkpt lat="45.420356519999466" lon="10.487038540812376"><ele>157.66666666666669</ele><time>2026-03-22T11:24:33Z</time></trkpt><trkpt lat="45.42034988750918" lon="10.48693215115101"><ele>157.0</ele><time>2026-03-22T11:24:36Z</time></trkpt><trkpt lat="45.42034177331047" lon="10.486788396583668"><ele>156.33333333333334</ele><time>2026-03-22T11:24:39Z</time></trkpt><trkpt lat="45.420333775174235" lon="10.486676264403863"><ele>155.66666666666669</ele><time>2026-03-22T11:24:41Z</time></trkpt><trkpt lat="45.42035688098209" lon="10.486568919547135"><ele>155.0</ele><time>2026-03-22T11:24:43Z</time></trkpt><trkpt lat="45.42043119270675" lon="10.48653007240507"><ele>154.33333333333334</ele><time>2026-03-22T11:24:46Z</time></trkpt><trkpt lat="45.42051047340967" lon="10.486546331492208"><ele>153.66666666666666</ele><time>2026-03-22T11:24:50Z</time></trkpt><trkpt lat="45.4205866346977" lon="10.486561372648454"><ele>153.0</ele><time>2026-03-22T11:24:53Z</time></trkpt><trkpt lat="45.42066336897281" lon="10.486579060133222"><ele>152.4</ele><time>2026-03-22T11:24:56Z</time></trkpt><trkpt lat="45.42074234651318" lon="10.486595822614335"><ele>151.8</ele><time>2026-03-22T11:24:59Z</time></trkpt><trkpt lat="45.42081845109318" lon="10.486618956451569"><ele>151.2</ele><time>2026-03-22T11:25:01Z</time></trkpt><trkpt lat="45.420912423793254" lon="10.486650133994173"><ele>150.6</ele><time>2026-03-22T11:25:03Z</time></trkpt><trkpt lat="45.42101745996759" lon="10.486667817388268"><ele>150.0</ele><time>2026-03-22T11:25:05Z</time></trkpt><trkpt lat="45.421119844184076" lon="10.486677285039145"><ele>150.0</ele><time>2026-03-22T11:25:07Z</time></trkpt><trkpt lat="45.421181492660075" lon="10.486611528751125"><ele>150.0</ele><time>2026-03-22T11:25:09Z</time></trkpt><trkpt lat="45.42119698535114" lon="10.486470276709252"><ele>150.0</ele><time>2026-03-22T11:25:11Z</time></trkpt><trkpt lat="45.42115850746742" lon="10.486390622447816"><ele>150.0</ele><time>2026-03-22T11:25:12Z</time></trkpt><trkpt lat="45.42111569824723" lon="10.486286092397437"><ele>150.0</ele><time>2026-03-22T11:25:14Z</time></trkpt><trkpt lat="45.42113115448524" lon="10.486155374571014"><ele>150.0</ele><time>2026-03-22T11:25:16Z</time></trkpt><trkpt lat="45.42115479434484" lon="10.486054924422039"><ele>148.16666666666666</ele><time>2026-03-22T11:25:18Z</time></trkpt><trkpt lat="45.42119391415837" lon="10.485976356813548"><ele>146.33333333333334</ele><time>2026-03-22T11:25:20Z</time></trkpt><trkpt lat="45.421231809770234" lon="10.485864073579046"><ele>144.5</ele><time>2026-03-22T11:25:22Z</time></trkpt><trkpt lat="45.42118101230328" lon="10.485749885147458"><ele>142.66666666666669</ele><time>2026-03-22T11:25:24Z</time></trkpt><trkpt lat="45.42109402135334" lon="10.485742068847902"><ele>140.83333333333334</ele><time>2026-03-22T11:25:26Z</time></trkpt><trkpt lat="45.42101743619651" lon="10.485695348991639"><ele>139.0</ele><time>2026-03-22T11:25:28Z</time></trkpt><trkpt lat="45.420939640380574" lon="10.485632473456073"><ele>139.0</ele><time>2026-03-22T11:25:30Z</time></trkpt><trkpt lat="45.42085325156987" lon="10.485604730833302"><ele>139.0</ele><time>2026-03-22T11:25:32Z</time></trkpt><trkpt lat="45.420757156485365" lon="10.485578722114079"><ele>139.0</ele><time>2026-03-22T11:25:34Z</time></trkpt><trkpt lat="45.420692685903056" lon="10.485545612694777"><ele>139.0</ele><time>2026-03-22T11:25:35Z</time></trkpt><trkpt lat="45.42062587627653" lon="10.485513840547158"><ele>139.0</ele><time>2026-03-22T11:25:36Z</time></trkpt><trkpt lat="45.42056428727307" lon="10.485491621751056"><ele>139.0</ele><time>2026-03-22T11:25:37Z</time></trkpt><trkpt lat="45.42043815448011" lon="10.485477110212894"><ele>139.6</ele><time>2026-03-22T11:25:39Z</time></trkpt><trkpt lat="45.420321978977405" lon="10.485452261812537"><ele>140.2</ele><time>2026-03-22T11:25:41Z</time></trkpt><trkpt lat="45.42021438961808" lon="10.485403344974872"><ele>140.79999999999998</ele><time>2026-03-22T11:25:43Z</time></trkpt><trkpt lat="45.42011645666041" lon="10.485362747274575"><ele>141.4</ele><time>2026-03-22T11:25:45Z</time></trkpt><trkpt lat="45.420022238345005" lon="10.485318812948067"><ele>142.0</ele><time>2026-03-22T11:25:47Z</time></trkpt><trkpt lat="45.41993305240765" lon="10.485251553193548"><ele>140.66666666666669</ele><time>2026-03-22T11:25:49Z</time></trkpt><trkpt lat="45.41986175319404" lon="10.485182665957705"><ele>139.33333333333334</ele><time>2026-03-22T11:25:51.001Z</time></trkpt><trkpt lat="45.419781641751875" lon="10.485109849933613"><ele>138.0</ele><time>2026-03-22T11:25:53.001Z</time></trkpt><trkpt lat="45.419709577050384" lon="10.485045869250985"><ele>136.66666666666666</ele><time>2026-03-22T11:25:55.001Z</time></trkpt><trkpt lat="45.41965441031119" lon="10.484966007352131"><ele>135.33333333333331</ele><time>2026-03-22T11:25:57.001Z</time></trkpt><trkpt lat="45.41959423958066" lon="10.484897145248581"><ele>134.0</ele><time>2026-03-22T11:25:59.001Z</time></trkpt><trkpt lat="45.41953666832479" lon="10.484832198118964"><ele>134.0</ele><time>2026-03-22T11:26:01.001Z</time></trkpt><trkpt lat="45.41950010487172" lon="10.48475306863694"><ele>134.0</ele><time>2026-03-22T11:26:03.001Z</time></trkpt><trkpt lat="45.41943870820161" lon="10.48466700704535"><ele>134.0</ele><time>2026-03-22T11:26:06.001Z</time></trkpt><trkpt lat="45.41939021417894" lon="10.484607763240147"><ele>134.0</ele><time>2026-03-22T11:26:09.001Z</time></trkpt><trkpt lat="45.41935724676159" lon="10.48452286182488"><ele>134.0</ele><time>2026-03-22T11:26:14.001Z</time></trkpt><trkpt lat="45.41936232844327" lon="10.484418521049987"><ele>134.0</ele><time>2026-03-22T11:26:17Z</time></trkpt><trkpt lat="45.41935110309492" lon="10.484301569940431"><ele>134.0</ele><time>2026-03-22T11:26:20Z</time></trkpt><trkpt lat="45.41936869479947" lon="10.484176980484216"><ele>133.14285714285714</ele><time>2026-03-22T11:26:23Z</time></trkpt><trkpt lat="45.419382003039956" lon="10.48408755051168"><ele>132.28571428571428</ele><time>2026-03-22T11:26:25Z</time></trkpt><trkpt lat="45.41938553806104" lon="10.483986373034034"><ele>131.42857142857142</ele><time>2026-03-22T11:26:27Z</time></trkpt><trkpt lat="45.419398416228866" lon="10.483882451571123"><ele>130.57142857142856</ele><time>2026-03-22T11:26:29Z</time></trkpt><trkpt lat="45.419420298250316" lon="10.4837817376618"><ele>129.7142857142857</ele><time>2026-03-22T11:26:31Z</time></trkpt><trkpt lat="45.419414207913725" lon="10.48367750265631"><ele>128.85714285714286</ele><time>2026-03-22T11:26:33Z</time></trkpt><trkpt lat="45.41937021162695" lon="10.4835849636579"><ele>128.0</ele><time>2026-03-22T11:26:35Z</time></trkpt><trkpt lat="45.41931173464437" lon="10.483495496495596"><ele>127.4</ele><time>2026-03-22T11:26:37Z</time></trkpt><trkpt lat="45.419240604598755" lon="10.483415543012102"><ele>126.80000000000001</ele><time>2026-03-22T11:26:39Z</time></trkpt><trkpt lat="45.41916935279491" lon="10.483336547174796"><ele>126.2</ele><time>2026-03-22T11:26:41Z</time></trkpt><trkpt lat="45.419090742924304" lon="10.483257667581187"><ele>125.6</ele><time>2026-03-22T11:26:43Z</time></trkpt><trkpt lat="45.41901599483553" lon="10.4831788751996"><ele>125.0</ele><time>2026-03-22T11:26:45Z</time></trkpt><trkpt lat="45.41893649073394" lon="10.483097001516148"><ele>125.0</ele><time>2026-03-22T11:26:47Z</time></trkpt><trkpt lat="45.41886265740704" lon="10.482990223757632"><ele>125.0</ele><time>2026-03-22T11:26:49Z</time></trkpt><trkpt lat="45.418853787046125" lon="10.48283440647898"><ele>125.0</ele><time>2026-03-22T11:26:51Z</time></trkpt><trkpt lat="45.41884617886266" lon="10.48274357097086"><ele>125.0</ele><time>2026-03-22T11:26:52Z</time></trkpt><trkpt lat="45.41884321906159" lon="10.482570143875261"><ele>125.0</ele><time>2026-03-22T11:26:54Z</time></trkpt><trkpt lat="45.418835799673275" lon="10.482393677208943"><ele>124.75</ele><time>2026-03-22T11:26:56Z</time></trkpt><trkpt lat="45.41883266385487" lon="10.482219819029142"><ele>124.5</ele><time>2026-03-22T11:26:58Z</time></trkpt><trkpt lat="45.418805957073786" lon="10.482053852832422"><ele>124.25</ele><time>2026-03-22T11:27:00Z</time></trkpt><trkpt lat="45.418734459261415" lon="10.481905410548867"><ele>124.0</ele><time>2026-03-22T11:27:02Z</time></trkpt><trkpt lat="45.41861970409087" lon="10.481877594773785"><ele>124.0</ele><time>2026-03-22T11:27:04Z</time></trkpt><trkpt lat="45.41852919049703" lon="10.481850148723595"><ele>124.0</ele><time>2026-03-22T11:27:06Z</time></trkpt><trkpt lat="45.41843639643097" lon="10.481781845461635"><ele>124.0</ele><time>2026-03-22T11:27:08Z</time></trkpt><trkpt lat="45.418334309576416" lon="10.481748062559499"><ele>124.0</ele><time>2026-03-22T11:27:10Z</time></trkpt><trkpt lat="45.41824013711128" lon="10.481705372244285"><ele>124.0</ele><time>2026-03-22T11:27:12Z</time></trkpt><trkpt lat="45.4181429095616" lon="10.481666500572967"><ele>124.0</ele><time>2026-03-22T11:27:14Z</time></trkpt><trkpt lat="45.418048973944224" lon="10.48162515157303"><ele>124.0</ele><time>2026-03-22T11:27:16Z</time></trkpt><trkpt lat="45.41796662725192" lon="10.481573370778495"><ele>124.0</ele><time>2026-03-22T11:27:18Z</time></trkpt><trkpt lat="45.41786357306026" lon="10.48153412626186"><ele>124.0</ele><time>2026-03-22T11:27:20Z</time></trkpt><trkpt lat="45.41776363801175" lon="10.4814916174318"><ele>124.0</ele><time>2026-03-22T11:27:22Z</time></trkpt><trkpt lat="45.417661618763084" lon="10.48144556909645"><ele>124.4</ele><time>2026-03-22T11:27:24Z</time></trkpt><trkpt lat="45.41756231598157" lon="10.4814043376002"><ele>124.80000000000001</ele><time>2026-03-22T11:27:26Z</time></trkpt><trkpt lat="45.417460230520064" lon="10.481349772911477"><ele>125.19999999999999</ele><time>2026-03-22T11:27:28Z</time></trkpt><trkpt lat="45.417363791413614" lon="10.481276844561359"><ele>125.6</ele><time>2026-03-22T11:27:30Z</time></trkpt><trkpt lat="45.417266418728246" lon="10.481225425167144"><ele>126.0</ele><time>2026-03-22T11:27:32Z</time></trkpt><trkpt lat="45.41717412783814" lon="10.481155538888977"><ele>125.19999999999999</ele><time>2026-03-22T11:27:34Z</time></trkpt><trkpt lat="45.417091824418335" lon="10.481083713244495"><ele>124.39999999999999</ele><time>2026-03-22T11:27:36Z</time></trkpt><trkpt lat="45.41700730274864" lon="10.48101679394363"><ele>123.6</ele><time>2026-03-22T11:27:38Z</time></trkpt><trkpt lat="45.41693621139413" lon="10.480906843309246"><ele>122.8</ele><time>2026-03-22T11:27:40Z</time></trkpt><trkpt lat="45.41687941892549" lon="10.480793597669587"><ele>122.0</ele><time>2026-03-22T11:27:42Z</time></trkpt><trkpt lat="45.41682520629627" lon="10.480680700864177"><ele>122.0</ele><time>2026-03-22T11:27:44Z</time></trkpt><trkpt lat="45.41676916242973" lon="10.480567010414815"><ele>121.99999999999999</ele><time>2026-03-22T11:27:46Z</time></trkpt><trkpt lat="45.41672168498827" lon="10.480452472549612"><ele>121.99999999999999</ele><time>2026-03-22T11:27:48Z</time></trkpt><trkpt lat="45.41666317521208" lon="10.480343576798719"><ele>122.0</ele><time>2026-03-22T11:27:50Z</time></trkpt><trkpt lat="45.41660457494483" lon="10.480235867009648"><ele>122.0</ele><time>2026-03-22T11:27:52Z</time></trkpt><trkpt lat="45.41652597306609" lon="10.48014696617868"><ele>122.19999999999999</ele><time>2026-03-22T11:27:54Z</time></trkpt><trkpt lat="45.41643920342296" lon="10.480094196026922"><ele>122.39999999999999</ele><time>2026-03-22T11:27:56Z</time></trkpt><trkpt lat="45.41634690276289" lon="10.480047525568812"><ele>122.60000000000001</ele><time>2026-03-22T11:27:58Z</time></trkpt><trkpt lat="45.41626142372907" lon="10.479990318742702"><ele>122.80000000000001</ele><time>2026-03-22T11:28:00.001Z</time></trkpt><trkpt lat="45.41615895860742" lon="10.479951148216784"><ele>123.0</ele><time>2026-03-22T11:28:02.001Z</time></trkpt><trkpt lat="45.41605042841894" lon="10.479906888507825"><ele>123.0</ele><time>2026-03-22T11:28:04.001Z</time></trkpt><trkpt lat="45.41593963526241" lon="10.479861335585221"><ele>123.0</ele><time>2026-03-22T11:28:06.001Z</time></trkpt><trkpt lat="45.415877404721606" lon="10.479837858712973"><ele>123.0</ele><time>2026-03-22T11:28:07.001Z</time></trkpt><trkpt lat="45.41581314398662" lon="10.479806849030243"><ele>123.0</ele><time>2026-03-22T11:28:08.001Z</time></trkpt><trkpt lat="45.41574768535549" lon="10.479778409895266"><ele>123.0</ele><time>2026-03-22T11:28:09.001Z</time></trkpt><trkpt lat="45.41567595381752" lon="10.479749842206665"><ele>123.0</ele><time>2026-03-22T11:28:10.001Z</time></trkpt><trkpt lat="45.41560226452045" lon="10.479724241966343"><ele>123.0</ele><time>2026-03-22T11:28:11.001Z</time></trkpt><trkpt lat="45.41553668718185" lon="10.479694473594181"><ele>123.0</ele><time>2026-03-22T11:28:12.001Z</time></trkpt><trkpt lat="45.41546957113603" lon="10.479667828909486"><ele>123.0</ele><time>2026-03-22T11:28:13.001Z</time></trkpt><trkpt lat="45.415403048104345" lon="10.479643825082888"><ele>123.0</ele><time>2026-03-22T11:28:14.001Z</time></trkpt><trkpt lat="45.41533963649199" lon="10.479623340664709"><ele>123.0</ele><time>2026-03-22T11:28:15.001Z</time></trkpt><trkpt lat="45.4152765979852" lon="10.479603578937732"><ele>123.0</ele><time>2026-03-22T11:28:16.001Z</time></trkpt><trkpt lat="45.4151568469846" lon="10.47954742785282"><ele>122.0</ele><time>2026-03-22T11:28:18.001Z</time></trkpt><trkpt lat="45.41504478859365" lon="10.479497919412264"><ele>121.00000000000001</ele><time>2026-03-22T11:28:20.001Z</time></trkpt><trkpt lat="45.41493206592553" lon="10.479453816443941"><ele>120.00000000000001</ele><time>2026-03-22T11:28:22Z</time></trkpt><trkpt lat="45.41483482493718" lon="10.479414932601559"><ele>119.0</ele><time>2026-03-22T11:28:24Z</time></trkpt><trkpt lat="45.41475821685091" lon="10.479440607585634"><ele>118.0</ele><time>2026-03-22T11:28:27Z</time></trkpt><trkpt lat="45.414752429262464" lon="10.479541257879838"><ele>118.0</ele><time>2026-03-22T11:28:29Z</time></trkpt><trkpt lat="45.41475094066287" lon="10.47964235791384"><ele>118.0</ele><time>2026-03-22T11:28:31Z</time></trkpt><trkpt lat="45.414743210493214" lon="10.479742009272833"><ele>118.0</ele><time>2026-03-22T11:28:33Z</time></trkpt><trkpt lat="45.41474206098823" lon="10.479845780038396"><ele>118.0</ele><time>2026-03-22T11:28:35Z</time></trkpt><trkpt lat="45.41472965638261" lon="10.479942889994666"><ele>118.0</ele><time>2026-03-22T11:28:37Z</time></trkpt><trkpt lat="45.41465897390624" lon="10.479994730256434"><ele>118.0</ele><time>2026-03-22T11:28:39Z</time></trkpt><trkpt lat="45.414585087540736" lon="10.480010278068443"><ele>118.0</ele><time>2026-03-22T11:28:41Z</time></trkpt><trkpt lat="45.41452196466518" lon="10.480034888323452"><ele>117.85714285714286</ele><time>2026-03-22T11:28:43Z</time></trkpt><trkpt lat="45.41446311693073" lon="10.480076696242088"><ele>117.71428571428572</ele><time>2026-03-22T11:28:45Z</time></trkpt><trkpt lat="45.41440354175096" lon="10.480122094351435"><ele>117.57142857142858</ele><time>2026-03-22T11:28:47Z</time></trkpt><trkpt lat="45.414345170797965" lon="10.480158872824001"><ele>117.42857142857143</ele><time>2026-03-22T11:28:49Z</time></trkpt><trkpt lat="45.414279127040665" lon="10.480204832448383"><ele>117.2857142857143</ele><time>2026-03-22T11:28:51Z</time></trkpt><trkpt lat="45.41422825850488" lon="10.480284653550797"><ele>117.14285714285715</ele><time>2026-03-22T11:28:53Z</time></trkpt><trkpt lat="45.414184689324976" lon="10.480362117743997"><ele>117.0</ele><time>2026-03-22T11:28:55Z</time></trkpt><trkpt lat="45.41413890896679" lon="10.480440966959977"><ele>117.0</ele><time>2026-03-22T11:28:57Z</time></trkpt><trkpt lat="45.414108457288165" lon="10.480528087554484"><ele>117.00000000000001</ele><time>2026-03-22T11:28:59Z</time></trkpt><trkpt lat="45.414068345554604" lon="10.480608897158815"><ele>117.0</ele><time>2026-03-22T11:29:01Z</time></trkpt><trkpt lat="45.414023973628" lon="10.48069170134149"><ele>117.0</ele><time>2026-03-22T11:29:03Z</time></trkpt><trkpt lat="45.41397045652697" lon="10.480765074622445"><ele>117.00000000000001</ele><time>2026-03-22T11:29:05Z</time></trkpt><trkpt lat="45.41391107142039" lon="10.480838515632954"><ele>117.0</ele><time>2026-03-22T11:29:07Z</time></trkpt><trkpt lat="45.413855722451686" lon="10.480913516203987"><ele>117.0</ele><time>2026-03-22T11:29:09Z</time></trkpt><trkpt lat="45.413795489931964" lon="10.480983400994054"><ele>116.71428571428572</ele><time>2026-03-22T11:29:11Z</time></trkpt><trkpt lat="45.41374105667626" lon="10.481057800353733"><ele>116.42857142857144</ele><time>2026-03-22T11:29:13Z</time></trkpt><trkpt lat="45.41368072957537" lon="10.481124637939455"><ele>116.14285714285714</ele><time>2026-03-22T11:29:15Z</time></trkpt><trkpt lat="45.41362623659492" lon="10.481203473036874"><ele>115.85714285714286</ele><time>2026-03-22T11:29:17Z</time></trkpt><trkpt lat="45.413571089451054" lon="10.481276878285184"><ele>115.57142857142857</ele><time>2026-03-22T11:29:19Z</time></trkpt><trkpt lat="45.41351797876121" lon="10.481339986100323"><ele>115.28571428571428</ele><time>2026-03-22T11:29:21Z</time></trkpt><trkpt lat="45.41345339145266" lon="10.481390826273795"><ele>114.99999999999999</ele><time>2026-03-22T11:29:23Z</time></trkpt><trkpt lat="45.413394234613094" lon="10.48143745905427"><ele>114.99999999999999</ele><time>2026-03-22T11:29:25Z</time></trkpt><trkpt lat="45.41332353582352" lon="10.481478464317977"><ele>115.0</ele><time>2026-03-22T11:29:27Z</time></trkpt><trkpt lat="45.41325346610013" lon="10.481513084513706"><ele>114.99999999999999</ele><time>2026-03-22T11:29:29Z</time></trkpt><trkpt lat="45.41318916863648" lon="10.481545963647054"><ele>114.99999999999999</ele><time>2026-03-22T11:29:31Z</time></trkpt><trkpt lat="45.413117140176766" lon="10.481582337185756"><ele>115.0</ele><time>2026-03-22T11:29:33Z</time></trkpt><trkpt lat="45.41305077860804" lon="10.48162071036376"><ele>114.99999999999999</ele><time>2026-03-22T11:29:35Z</time></trkpt><trkpt lat="45.412980230697514" lon="10.481657264282411"><ele>114.99999999999999</ele><time>2026-03-22T11:29:37Z</time></trkpt><trkpt lat="45.41291533385729" lon="10.481699758655093"><ele>115.33333333333334</ele><time>2026-03-22T11:29:39Z</time></trkpt><trkpt lat="45.41286372450356" lon="10.481754220743747"><ele>115.66666666666667</ele><time>2026-03-22T11:29:41Z</time></trkpt><trkpt lat="45.41280342831672" lon="10.481798404270819"><ele>116.0</ele><time>2026-03-22T11:29:44Z</time></trkpt><trkpt lat="45.41272443628401" lon="10.481821924986544"><ele>116.33333333333334</ele><time>2026-03-22T11:29:47Z</time></trkpt><trkpt lat="45.41265572602213" lon="10.481861900301602"><ele>116.66666666666667</ele><time>2026-03-22T11:29:49Z</time></trkpt><trkpt lat="45.41257455273397" lon="10.48193251829456"><ele>117.0</ele><time>2026-03-22T11:29:53Z</time></trkpt><trkpt lat="45.41255381133137" lon="10.482054597785728"><ele>117.0</ele><time>2026-03-22T11:29:56Z</time></trkpt><trkpt lat="45.41255771701776" lon="10.482167379936715"><ele>117.0</ele><time>2026-03-22T11:29:59Z</time></trkpt><trkpt lat="45.41258437932439" lon="10.482280182664617"><ele>117.0</ele><time>2026-03-22T11:30:02Z</time></trkpt><trkpt lat="45.41261068798055" lon="10.482379365297751"><ele>117.0</ele><time>2026-03-22T11:30:05Z</time></trkpt><trkpt lat="45.41265285570144" lon="10.48247183840289"><ele>117.0</ele><time>2026-03-22T11:30:08Z</time></trkpt><trkpt lat="45.41268890565773" lon="10.482570793472382"><ele>117.0</ele><time>2026-03-22T11:30:11Z</time></trkpt><trkpt lat="45.41272139070489" lon="10.482681175403924"><ele>117.0</ele><time>2026-03-22T11:30:14Z</time></trkpt><trkpt lat="45.412753999803584" lon="10.482759867359512"><ele>117.00000000000001</ele><time>2026-03-22T11:30:16Z</time></trkpt><trkpt lat="45.41278499894482" lon="10.482846167917458"><ele>117.0</ele><time>2026-03-22T11:30:18Z</time></trkpt><trkpt lat="45.41281299399444" lon="10.482932733691085"><ele>117.0</ele><time>2026-03-22T11:30:20Z</time></trkpt><trkpt lat="45.4128474433173" lon="10.483019094958772"><ele>117.00000000000001</ele><time>2026-03-22T11:30:22Z</time></trkpt><trkpt lat="45.412879087492975" lon="10.48311626553396"><ele>117.0</ele><time>2026-03-22T11:30:24Z</time></trkpt><trkpt lat="45.41291577262805" lon="10.483216901607976"><ele>117.0</ele><time>2026-03-22T11:30:26Z</time></trkpt><trkpt lat="45.41295071167552" lon="10.483317951880291"><ele>117.0</ele><time>2026-03-22T11:30:28Z</time></trkpt><trkpt lat="45.41298610087562" lon="10.48341667761507"><ele>117.0</ele><time>2026-03-22T11:30:30Z</time></trkpt><trkpt lat="45.41301956089338" lon="10.483513826098596"><ele>117.0</ele><time>2026-03-22T11:30:32Z</time></trkpt><trkpt lat="45.41304757883416" lon="10.48361308133309"><ele>117.0</ele><time>2026-03-22T11:30:34Z</time></trkpt><trkpt lat="45.41308454023159" lon="10.483714581235827"><ele>117.0</ele><time>2026-03-22T11:30:36Z</time></trkpt><trkpt lat="45.41311201528704" lon="10.483813668123313"><ele>117.0</ele><time>2026-03-22T11:30:38Z</time></trkpt><trkpt lat="45.4131435674441" lon="10.483914909209801"><ele>117.0</ele><time>2026-03-22T11:30:40Z</time></trkpt><trkpt lat="45.413176629838894" lon="10.484006533070685"><ele>117.0</ele><time>2026-03-22T11:30:42Z</time></trkpt><trkpt lat="45.413202774442496" lon="10.484104993556812"><ele>117.0</ele><time>2026-03-22T11:30:44Z</time></trkpt><trkpt lat="45.41323578386137" lon="10.484202800107836"><ele>117.0</ele><time>2026-03-22T11:30:46Z</time></trkpt><trkpt lat="45.41326802019923" lon="10.48430465065618"><ele>117.0</ele><time>2026-03-22T11:30:48Z</time></trkpt><trkpt lat="45.41330323315764" lon="10.484404099366701"><ele>117.0</ele><time>2026-03-22T11:30:50Z</time></trkpt><trkpt lat="45.41333406914002" lon="10.484500452116409"><ele>118.0</ele><time>2026-03-22T11:30:52Z</time></trkpt><trkpt lat="45.41336416857389" lon="10.48460998657529"><ele>119.0</ele><time>2026-03-22T11:30:54Z</time></trkpt><trkpt lat="45.413396603970426" lon="10.484708524301736"><ele>120.0</ele><time>2026-03-22T11:30:56Z</time></trkpt><trkpt lat="45.41343168613997" lon="10.48480393936015"><ele>121.0</ele><time>2026-03-22T11:30:58Z</time></trkpt><trkpt lat="45.41345748040919" lon="10.484907015662943"><ele>122.0</ele><time>2026-03-22T11:31:00Z</time></trkpt><trkpt lat="45.41349198030585" lon="10.4850012476893"><ele>123.0</ele><time>2026-03-22T11:31:02Z</time></trkpt><trkpt lat="45.413523418434565" lon="10.485104103138086"><ele>123.00000000000001</ele><time>2026-03-22T11:31:04Z</time></trkpt><trkpt lat="45.41355295645482" lon="10.48520766792088"><ele>123.0</ele><time>2026-03-22T11:31:06Z</time></trkpt><trkpt lat="45.41358252745281" lon="10.485308888485054"><ele>123.00000000000001</ele><time>2026-03-22T11:31:08Z</time></trkpt><trkpt lat="45.41360336859809" lon="10.485414272314685"><ele>123.00000000000001</ele><time>2026-03-22T11:31:10Z</time></trkpt><trkpt lat="45.41362342909436" lon="10.485512293318896"><ele>123.0</ele><time>2026-03-22T11:31:12Z</time></trkpt><trkpt lat="45.41364686940838" lon="10.485606363871682"><ele>123.00000000000001</ele><time>2026-03-22T11:31:14Z</time></trkpt><trkpt lat="45.41366982804531" lon="10.485704515900323"><ele>123.00000000000001</ele><time>2026-03-22T11:31:16Z</time></trkpt><trkpt lat="45.4136964828143" lon="10.485808788504608"><ele>123.5</ele><time>2026-03-22T11:31:18Z</time></trkpt><trkpt lat="45.41371390570586" lon="10.485916232166954"><ele>124.0</ele><time>2026-03-22T11:31:20Z</time></trkpt><trkpt lat="45.41373698944702" lon="10.486025516356225"><ele>124.5</ele><time>2026-03-22T11:31:22Z</time></trkpt><trkpt lat="45.4137440494141" lon="10.486133161626654"><ele>125.0</ele><time>2026-03-22T11:31:24Z</time></trkpt><trkpt lat="45.41375351861022" lon="10.486247096277223"><ele>125.5</ele><time>2026-03-22T11:31:26Z</time></trkpt><trkpt lat="45.413774452960894" lon="10.486351260297932"><ele>126.0</ele><time>2026-03-22T11:31:28Z</time></trkpt><trkpt lat="45.41377926735342" lon="10.486462694684143"><ele>125.85714285714286</ele><time>2026-03-22T11:31:30Z</time></trkpt><trkpt lat="45.41380128433098" lon="10.486572134932311"><ele>125.71428571428572</ele><time>2026-03-22T11:31:32Z</time></trkpt><trkpt lat="45.41380800989263" lon="10.4866748943279"><ele>125.57142857142857</ele><time>2026-03-22T11:31:34Z</time></trkpt><trkpt lat="45.41381418525251" lon="10.486781335238161"><ele>125.42857142857143</ele><time>2026-03-22T11:31:36Z</time></trkpt><trkpt lat="45.41381820440222" lon="10.486881589805332"><ele>125.28571428571429</ele><time>2026-03-22T11:31:38Z</time></trkpt><trkpt lat="45.41382618920806" lon="10.486979629433895"><ele>125.14285714285714</ele><time>2026-03-22T11:31:40Z</time></trkpt><trkpt lat="45.413824678828384" lon="10.487079991860517"><ele>125.0</ele><time>2026-03-22T11:31:42Z</time></trkpt><trkpt lat="45.41382166108855" lon="10.487179430874866"><ele>125.0</ele><time>2026-03-22T11:31:44Z</time></trkpt><trkpt lat="45.41382134267179" lon="10.487276939984453"><ele>125.0</ele><time>2026-03-22T11:31:46Z</time></trkpt><trkpt lat="45.413821252101094" lon="10.487373579521376"><ele>125.0</ele><time>2026-03-22T11:31:48Z</time></trkpt><trkpt lat="45.41382532363028" lon="10.487473738168982"><ele>125.0</ele><time>2026-03-22T11:31:50Z</time></trkpt><trkpt lat="45.413827887252125" lon="10.487575712515971"><ele>125.0</ele><time>2026-03-22T11:31:52Z</time></trkpt><trkpt lat="45.4138433390195" lon="10.487674719307421"><ele>125.0</ele><time>2026-03-22T11:31:54Z</time></trkpt><trkpt lat="45.41384268057051" lon="10.487786542494783"><ele>125.0</ele><time>2026-03-22T11:31:56Z</time></trkpt><trkpt lat="45.41384075543114" lon="10.487901075018339"><ele>125.14285714285714</ele><time>2026-03-22T11:31:58Z</time></trkpt><trkpt lat="45.4138456349405" lon="10.48800654962754"><ele>125.28571428571429</ele><time>2026-03-22T11:32:00Z</time></trkpt><trkpt lat="45.4138439647254" lon="10.488117409610817"><ele>125.42857142857143</ele><time>2026-03-22T11:32:02Z</time></trkpt><trkpt lat="45.41384564243036" lon="10.488218281764444"><ele>125.57142857142857</ele><time>2026-03-22T11:32:04Z</time></trkpt><trkpt lat="45.41384632712116" lon="10.488313529942669"><ele>125.71428571428572</ele><time>2026-03-22T11:32:06Z</time></trkpt><trkpt lat="45.41384905506573" lon="10.488412404629527"><ele>125.85714285714286</ele><time>2026-03-22T11:32:08Z</time></trkpt><trkpt lat="45.413860768894814" lon="10.488508394383922"><ele>126.0</ele><time>2026-03-22T11:32:10Z</time></trkpt><trkpt lat="45.41386655706655" lon="10.488599866363053"><ele>126.0</ele><time>2026-03-22T11:32:12Z</time></trkpt><trkpt lat="45.41387155895621" lon="10.488696820531661"><ele>126.0</ele><time>2026-03-22T11:32:14Z</time></trkpt><trkpt lat="45.413869077008876" lon="10.488795310025552"><ele>126.0</ele><time>2026-03-22T11:32:16Z</time></trkpt><trkpt lat="45.41387573787562" lon="10.488890971417964"><ele>126.0</ele><time>2026-03-22T11:32:18Z</time></trkpt><trkpt lat="45.41388160799386" lon="10.488980384170265"><ele>126.0</ele><time>2026-03-22T11:32:20Z</time></trkpt><trkpt lat="45.413874928865575" lon="10.489076038435536"><ele>126.0</ele><time>2026-03-22T11:32:22Z</time></trkpt><trkpt lat="45.413874799236225" lon="10.489168609433994"><ele>126.0</ele><time>2026-03-22T11:32:24Z</time></trkpt><trkpt lat="45.4138754272262" lon="10.489272995760977"><ele>125.57142857142857</ele><time>2026-03-22T11:32:26Z</time></trkpt><trkpt lat="45.41387280042283" lon="10.489372697713266"><ele>125.14285714285714</ele><time>2026-03-22T11:32:28Z</time></trkpt><trkpt lat="45.41387387336129" lon="10.489464077468025"><ele>124.71428571428572</ele><time>2026-03-22T11:32:30Z</time></trkpt><trkpt lat="45.4138787070323" lon="10.48955755161264"><ele>124.28571428571429</ele><time>2026-03-22T11:32:32Z</time></trkpt><trkpt lat="45.41387571553236" lon="10.489650295229916"><ele>123.85714285714286</ele><time>2026-03-22T11:32:33.999Z</time></trkpt><trkpt lat="45.41387197849922" lon="10.48974943951416"><ele>123.42857142857144</ele><time>2026-03-22T11:32:35.999Z</time></trkpt><trkpt lat="45.413870449582966" lon="10.489868927061568"><ele>123.00000000000001</ele><time>2026-03-22T11:32:38.999Z</time></trkpt><trkpt lat="45.41385345898936" lon="10.489998991354788"><ele>123.00000000000001</ele><time>2026-03-22T11:32:41.999Z</time></trkpt><trkpt lat="45.413847668204525" lon="10.490095404000964"><ele>123.0</ele><time>2026-03-22T11:32:44Z</time></trkpt><trkpt lat="45.413849500631514" lon="10.490189807628589"><ele>123.00000000000001</ele><time>2026-03-22T11:32:46Z</time></trkpt><trkpt lat="45.4138619161015" lon="10.490287534588523"><ele>123.00000000000001</ele><time>2026-03-22T11:32:48Z</time></trkpt><trkpt lat="45.41386595621961" lon="10.49038387965486"><ele>123.0</ele><time>2026-03-22T11:32:50Z</time></trkpt><trkpt lat="45.4138682678648" lon="10.490481792461889"><ele>123.00000000000001</ele><time>2026-03-22T11:32:52Z</time></trkpt><trkpt lat="45.41387586311349" lon="10.490579091556699"><ele>123.00000000000001</ele><time>2026-03-22T11:32:54Z</time></trkpt><trkpt lat="45.41387656647974" lon="10.490671882525183"><ele>123.00000000000001</ele><time>2026-03-22T11:32:56Z</time></trkpt><trkpt lat="45.413886724659946" lon="10.490772143245783"><ele>123.0</ele><time>2026-03-22T11:32:58Z</time></trkpt><trkpt lat="45.4138900264572" lon="10.4908692883843"><ele>123.00000000000001</ele><time>2026-03-22T11:33:00Z</time></trkpt><trkpt lat="45.413897104366576" lon="10.490973415774382"><ele>123.00000000000001</ele><time>2026-03-22T11:33:02Z</time></trkpt><trkpt lat="45.413911044409865" lon="10.49107803810902"><ele>123.0</ele><time>2026-03-22T11:33:04Z</time></trkpt><trkpt lat="45.41392301175117" lon="10.491182340664427"><ele>123.00000000000001</ele><time>2026-03-22T11:33:06Z</time></trkpt><trkpt lat="45.41393890471929" lon="10.491285429114871"><ele>123.00000000000001</ele><time>2026-03-22T11:33:08Z</time></trkpt><trkpt lat="45.4139564783636" lon="10.491386310393835"><ele>123.00000000000001</ele><time>2026-03-22T11:33:10Z</time></trkpt><trkpt lat="45.41397373552707" lon="10.491496140683875"><ele>123.0</ele><time>2026-03-22T11:33:12Z</time></trkpt><trkpt lat="45.41398601774564" lon="10.491602372145463"><ele>123.00000000000001</ele><time>2026-03-22T11:33:14Z</time></trkpt><trkpt lat="45.41400457960928" lon="10.491700079347078"><ele>123.00000000000001</ele><time>2026-03-22T11:33:16Z</time></trkpt><trkpt lat="45.41402683076526" lon="10.491794548068253"><ele>123.0</ele><time>2026-03-22T11:33:18Z</time></trkpt><trkpt lat="45.41404963386489" lon="10.491893112422854"><ele>123.00000000000001</ele><time>2026-03-22T11:33:20Z</time></trkpt><trkpt lat="45.414074432758305" lon="10.491990628943608"><ele>123.00000000000001</ele><time>2026-03-22T11:33:22Z</time></trkpt><trkpt lat="45.414096972968444" lon="10.492086445777186"><ele>123.0</ele><time>2026-03-22T11:33:24Z</time></trkpt><trkpt lat="45.414121934393215" lon="10.492187843025112"><ele>123.0</ele><time>2026-03-22T11:33:26Z</time></trkpt><trkpt lat="45.41415014848976" lon="10.492287072164752"><ele>123.0</ele><time>2026-03-22T11:33:28Z</time></trkpt><trkpt lat="45.41417653456898" lon="10.492384624003291"><ele>123.0</ele><time>2026-03-22T11:33:30Z</time></trkpt><trkpt lat="45.41420500091858" lon="10.492482598247742"><ele>123.0</ele><time>2026-03-22T11:33:32Z</time></trkpt><trkpt lat="45.414237797234" lon="10.492566967060737"><ele>123.0</ele><time>2026-03-22T11:33:34Z</time></trkpt><trkpt lat="45.41428345518808" lon="10.492679764154888"><ele>123.0</ele><time>2026-03-22T11:33:37Z</time></trkpt><trkpt lat="45.414231115460844" lon="10.492770087573746"><ele>123.0</ele><time>2026-03-22T11:33:40Z</time></trkpt><trkpt lat="45.41415563070734" lon="10.492778202693337"><ele>123.0</ele><time>2026-03-22T11:33:42Z</time></trkpt><trkpt lat="45.41408443596656" lon="10.49278460667437"><ele>123.0</ele><time>2026-03-22T11:33:44Z</time></trkpt><trkpt lat="45.414021349468925" lon="10.492845640387852"><ele>123.0</ele><time>2026-03-22T11:33:46Z</time></trkpt><trkpt lat="45.413973163136255" lon="10.492920632175608"><ele>123.0</ele><time>2026-03-22T11:33:48Z</time></trkpt><trkpt lat="45.413926847307" lon="10.493011133330453"><ele>122.85714285714288</ele><time>2026-03-22T11:33:50Z</time></trkpt><trkpt lat="45.4138826242208" lon="10.493103097419938"><ele>122.71428571428572</ele><time>2026-03-22T11:33:52Z</time></trkpt><trkpt lat="45.413840255488246" lon="10.49318477484961"><ele>122.57142857142857</ele><time>2026-03-22T11:33:54Z</time></trkpt><trkpt lat="45.413793874772075" lon="10.49326511956412"><ele>122.42857142857143</ele><time>2026-03-22T11:33:56Z</time></trkpt><trkpt lat="45.41375256294819" lon="10.493352588956602"><ele>122.28571428571428</ele><time>2026-03-22T11:33:58Z</time></trkpt><trkpt lat="45.41370250396196" lon="10.49343321420428"><ele>122.14285714285712</ele><time>2026-03-22T11:34:00Z</time></trkpt><trkpt lat="45.41365234213669" lon="10.493509574188453"><ele>121.99999999999999</ele><time>2026-03-22T11:34:02Z</time></trkpt><trkpt lat="45.41360089892386" lon="10.493572184575429"><ele>121.99999999999999</ele><time>2026-03-22T11:34:04Z</time></trkpt><trkpt lat="45.41355019703402" lon="10.493645834244754"><ele>122.0</ele><time>2026-03-22T11:34:06Z</time></trkpt><trkpt lat="45.413494374059525" lon="10.493715362395116"><ele>121.99999999999999</ele><time>2026-03-22T11:34:08Z</time></trkpt><trkpt lat="45.413437671852776" lon="10.493776775035277"><ele>121.99999999999999</ele><time>2026-03-22T11:34:10Z</time></trkpt><trkpt lat="45.4133785589628" lon="10.4938369508764"><ele>122.0</ele><time>2026-03-22T11:34:12Z</time></trkpt><trkpt lat="45.413319117259896" lon="10.49388862397643"><ele>121.99999999999999</ele><time>2026-03-22T11:34:14Z</time></trkpt><trkpt lat="45.41325269590344" lon="10.493947005616796"><ele>121.99999999999999</ele><time>2026-03-22T11:34:16Z</time></trkpt><trkpt lat="45.41319067970287" lon="10.493998494372414"><ele>122.42857142857142</ele><time>2026-03-22T11:34:18Z</time></trkpt><trkpt lat="45.4131284247654" lon="10.494047693471098"><ele>122.85714285714286</ele><time>2026-03-22T11:34:20Z</time></trkpt><trkpt lat="45.413060114789836" lon="10.494097753240634"><ele>123.28571428571428</ele><time>2026-03-22T11:34:22Z</time></trkpt><trkpt lat="45.41300130922126" lon="10.494148871927223"><ele>123.71428571428571</ele><time>2026-03-22T11:34:24Z</time></trkpt><trkpt lat="45.41293607891335" lon="10.49420069558226"><ele>124.14285714285714</ele><time>2026-03-22T11:34:26Z</time></trkpt><trkpt lat="45.412876354025535" lon="10.494250267024572"><ele>124.57142857142857</ele><time>2026-03-22T11:34:28.001Z</time></trkpt><trkpt lat="45.412820378775784" lon="10.494302813217823"><ele>125.0</ele><time>2026-03-22T11:34:30.001Z</time></trkpt><trkpt lat="45.41276542185465" lon="10.494356244298102"><ele>125.49999999999999</ele><time>2026-03-22T11:34:32.001Z</time></trkpt><trkpt lat="45.41271629545117" lon="10.494417908577079"><ele>126.0</ele><time>2026-03-22T11:34:34.001Z</time></trkpt><trkpt lat="45.412643676867255" lon="10.494488434754338"><ele>126.5</ele><time>2026-03-22T11:34:37.001Z</time></trkpt><trkpt lat="45.41257756024442" lon="10.494563225560599"><ele>127.0</ele><time>2026-03-22T11:34:40Z</time></trkpt><trkpt lat="45.41251010263532" lon="10.494644822822794"><ele>127.49999999999999</ele><time>2026-03-22T11:34:43Z</time></trkpt><trkpt lat="45.41246171054889" lon="10.494731971882581"><ele>128.0</ele><time>2026-03-22T11:34:46Z</time></trkpt><trkpt lat="45.41242838741735" lon="10.494827333584322"><ele>128.5</ele><time>2026-03-22T11:34:49Z</time></trkpt><trkpt lat="45.41242018205752" lon="10.494929529172865"><ele>129.0</ele><time>2026-03-22T11:34:52Z</time></trkpt><trkpt lat="45.41243857754427" lon="10.495023489588146"><ele>129.5</ele><time>2026-03-22T11:34:55Z</time></trkpt><trkpt lat="45.41243639798144" lon="10.495133908834994"><ele>130.0</ele><time>2026-03-22T11:34:58Z</time></trkpt><trkpt lat="45.41241031736366" lon="10.495242741723422"><ele>130.5</ele><time>2026-03-22T11:35:01Z</time></trkpt><trkpt lat="45.412356942040645" lon="10.495341106921883"><ele>131.0</ele><time>2026-03-22T11:35:04Z</time></trkpt><trkpt lat="45.41230294390226" lon="10.49544086116576"><ele>131.16666666666666</ele><time>2026-03-22T11:35:07Z</time></trkpt><trkpt lat="45.41224382298138" lon="10.49554430043167"><ele>131.33333333333331</ele><time>2026-03-22T11:35:10Z</time></trkpt><trkpt lat="45.41218912593737" lon="10.495645494767246"><ele>131.5</ele><time>2026-03-22T11:35:13Z</time></trkpt><trkpt lat="45.412127263021716" lon="10.495744058777792"><ele>131.66666666666666</ele><time>2026-03-22T11:35:16Z</time></trkpt><trkpt lat="45.412087120160535" lon="10.495813912012846"><ele>131.83333333333334</ele><time>2026-03-22T11:35:18Z</time></trkpt><trkpt lat="45.41203772002627" lon="10.495891331666044"><ele>132.0</ele><time>2026-03-22T11:35:20Z</time></trkpt><trkpt lat="45.41199099458913" lon="10.495968552973194"><ele>132.0</ele><time>2026-03-22T11:35:22Z</time></trkpt><trkpt lat="45.411943692626274" lon="10.49604400317049"><ele>132.0</ele><time>2026-03-22T11:35:24Z</time></trkpt><trkpt lat="45.411893927926485" lon="10.496122703969036"><ele>132.0</ele><time>2026-03-22T11:35:26Z</time></trkpt><trkpt lat="45.411841200758225" lon="10.496198641849737"><ele>132.0</ele><time>2026-03-22T11:35:28Z</time></trkpt><trkpt lat="45.411787866748824" lon="10.496276324594682"><ele>132.0</ele><time>2026-03-22T11:35:30Z</time></trkpt><trkpt lat="45.411733436258785" lon="10.496346043458098"><ele>132.0</ele><time>2026-03-22T11:35:32Z</time></trkpt><trkpt lat="45.41167943997519" lon="10.496411389396723"><ele>132.0</ele><time>2026-03-22T11:35:34Z</time></trkpt><trkpt lat="45.411625284896246" lon="10.496481983592364"><ele>132.71428571428572</ele><time>2026-03-22T11:35:36Z</time></trkpt><trkpt lat="45.41157327635282" lon="10.496551743939687"><ele>133.42857142857144</ele><time>2026-03-22T11:35:38Z</time></trkpt><trkpt lat="45.4115184663876" lon="10.496622814014204"><ele>134.14285714285717</ele><time>2026-03-22T11:35:40Z</time></trkpt><trkpt lat="45.41146179685696" lon="10.496695207624304"><ele>134.85714285714286</ele><time>2026-03-22T11:35:42Z</time></trkpt><trkpt lat="45.4114079631338" lon="10.496766973699124"><ele>135.57142857142858</ele><time>2026-03-22T11:35:44Z</time></trkpt><trkpt lat="45.41135357678564" lon="10.496838932894503"><ele>136.2857142857143</ele><time>2026-03-22T11:35:46Z</time></trkpt><trkpt lat="45.411302865615134" lon="10.496917215572356"><ele>137.0</ele><time>2026-03-22T11:35:48Z</time></trkpt><trkpt lat="45.411247690916205" lon="10.497002438069897"><ele>137.57142857142858</ele><time>2026-03-22T11:35:50Z</time></trkpt><trkpt lat="45.41119456349174" lon="10.497084717653376"><ele>138.14285714285714</ele><time>2026-03-22T11:35:52Z</time></trkpt><trkpt lat="45.41114724686019" lon="10.497160417563409"><ele>138.71428571428572</ele><time>2026-03-22T11:35:54Z</time></trkpt><trkpt lat="45.411090445017486" lon="10.497236352180874"><ele>139.28571428571428</ele><time>2026-03-22T11:35:56Z</time></trkpt><trkpt lat="45.41103277554227" lon="10.497286077073348"><ele>139.85714285714286</ele><time>2026-03-22T11:35:58Z</time></trkpt><trkpt lat="45.41098219229952" lon="10.497342387155781"><ele>140.42857142857144</ele><time>2026-03-22T11:36:00Z</time></trkpt><trkpt lat="45.41091427258795" lon="10.49741438420711"><ele>141.0</ele><time>2026-03-22T11:36:03Z</time></trkpt><trkpt lat="45.410869906432886" lon="10.497485900353983"><ele>141.28571428571428</ele><time>2026-03-22T11:36:07.001Z</time></trkpt><trkpt lat="45.410886965351025" lon="10.497579417759042"><ele>141.57142857142856</ele><time>2026-03-22T11:36:10.001Z</time></trkpt><trkpt lat="45.41090417498692" lon="10.497669346604225"><ele>141.85714285714283</ele><time>2026-03-22T11:36:12.001Z</time></trkpt><trkpt lat="45.410918515802905" lon="10.497769685013012"><ele>142.14285714285714</ele><time>2026-03-22T11:36:14.001Z</time></trkpt><trkpt lat="45.41089971794697" lon="10.49788283093398"><ele>142.42857142857142</ele><time>2026-03-22T11:36:17.001Z</time></trkpt><trkpt lat="45.41085368547687" lon="10.497950224329951"><ele>142.7142857142857</ele><time>2026-03-22T11:36:19.001Z</time></trkpt><trkpt lat="45.4107719801416" lon="10.4979949728805"><ele>143.0</ele><time>2026-03-22T11:36:22.001Z</time></trkpt><trkpt lat="45.410695278049076" lon="10.49803570690235"><ele>142.99999999999997</ele><time>2026-03-22T11:36:25.001Z</time></trkpt><trkpt lat="45.41062772421148" lon="10.498059255502124"><ele>143.0</ele><time>2026-03-22T11:36:28.001Z</time></trkpt><trkpt lat="45.41056812532683" lon="10.49810015698527"><ele>143.0</ele><time>2026-03-22T11:36:31.001Z</time></trkpt><trkpt lat="45.41049696670607" lon="10.498156356568364"><ele>143.0</ele><time>2026-03-22T11:36:34.001Z</time></trkpt><trkpt lat="45.41042881270301" lon="10.498207375079335"><ele>143.0</ele><time>2026-03-22T11:36:37.001Z</time></trkpt><trkpt lat="45.41035588210729" lon="10.498267278242373"><ele>142.99999999999997</ele><time>2026-03-22T11:36:40.001Z</time></trkpt><trkpt lat="45.41029610041345" lon="10.498300990060072"><ele>143.0</ele><time>2026-03-22T11:36:42.001Z</time></trkpt><trkpt lat="45.410225172637006" lon="10.498329455940418"><ele>142.66666666666666</ele><time>2026-03-22T11:36:45.001Z</time></trkpt><trkpt lat="45.41016384259668" lon="10.498373032366196"><ele>142.33333333333331</ele><time>2026-03-22T11:36:48Z</time></trkpt><trkpt lat="45.41008714392239" lon="10.498425298749012"><ele>142.0</ele><time>2026-03-22T11:36:51Z</time></trkpt><trkpt lat="45.41003040952631" lon="10.498464928998564"><ele>141.66666666666666</ele><time>2026-03-22T11:36:53Z</time></trkpt><trkpt lat="45.40995074115463" lon="10.498502211778753"><ele>141.33333333333334</ele><time>2026-03-22T11:36:56Z</time></trkpt><trkpt lat="45.409883031330764" lon="10.498522647942186"><ele>141.0</ele><time>2026-03-22T11:36:59Z</time></trkpt><trkpt lat="45.40980908419482" lon="10.49845055080306"><ele>141.0</ele><time>2026-03-22T11:37:02Z</time></trkpt><trkpt lat="45.40976934600525" lon="10.498347011985265"><ele>141.0</ele><time>2026-03-22T11:37:04Z</time></trkpt><trkpt lat="45.409702572762995" lon="10.498265845440812"><ele>141.0</ele><time>2026-03-22T11:37:06Z</time></trkpt><trkpt lat="45.409607882122" lon="10.49827272843914"><ele>141.0</ele><time>2026-03-22T11:37:08Z</time></trkpt><trkpt lat="45.40953602716844" lon="10.498379771294083"><ele>141.0</ele><time>2026-03-22T11:37:10Z</time></trkpt><trkpt lat="45.40947368499099" lon="10.498472247308078"><ele>140.4</ele><time>2026-03-22T11:37:12Z</time></trkpt><trkpt lat="45.40941340674738" lon="10.498580607037136"><ele>139.8</ele><time>2026-03-22T11:37:14Z</time></trkpt><trkpt lat="45.409353057556636" lon="10.498668701329523"><ele>139.20000000000002</ele><time>2026-03-22T11:37:16Z</time></trkpt><trkpt lat="45.40927233266298" lon="10.49872984996893"><ele>138.6</ele><time>2026-03-22T11:37:18Z</time></trkpt><trkpt lat="45.409174423132704" lon="10.498726827975368"><ele>138.0</ele><time>2026-03-22T11:37:20Z</time></trkpt><trkpt lat="45.409093635072686" lon="10.498633948955154"><ele>138.0</ele><time>2026-03-22T11:37:22Z</time></trkpt><trkpt lat="45.40903906488333" lon="10.498497065287774"><ele>138.0</ele><time>2026-03-22T11:37:24Z</time></trkpt><trkpt lat="45.40896706767608" lon="10.498379937172942"><ele>138.0</ele><time>2026-03-22T11:37:26Z</time></trkpt><trkpt lat="45.408846740469514" lon="10.498355716897638"><ele>138.0</ele><time>2026-03-22T11:37:28Z</time></trkpt><trkpt lat="45.408791968636045" lon="10.498399958550664"><ele>138.0</ele><time>2026-03-22T11:37:29Z</time></trkpt><trkpt lat="45.40873409960755" lon="10.4985266919716"><ele>138.16666666666666</ele><time>2026-03-22T11:37:31Z</time></trkpt><trkpt lat="45.40868203877219" lon="10.498606804964938"><ele>138.33333333333334</ele><time>2026-03-22T11:37:33Z</time></trkpt><trkpt lat="45.40863420849595" lon="10.498679199631411"><ele>138.5</ele><time>2026-03-22T11:37:35Z</time></trkpt><trkpt lat="45.408576230191656" lon="10.498771444636313"><ele>138.66666666666669</ele><time>2026-03-22T11:37:38Z</time></trkpt><trkpt lat="45.40852006071846" lon="10.49885472700398"><ele>138.83333333333334</ele><time>2026-03-22T11:37:41Z</time></trkpt><trkpt lat="45.40846508428017" lon="10.498957921463571"><ele>139.0</ele><time>2026-03-22T11:37:44Z</time></trkpt><trkpt lat="45.40841982357119" lon="10.499025646868995"><ele>139.14285714285714</ele><time>2026-03-22T11:37:46Z</time></trkpt><trkpt lat="45.408380151582406" lon="10.499105007165074"><ele>139.28571428571428</ele><time>2026-03-22T11:37:48Z</time></trkpt><trkpt lat="45.40833150974198" lon="10.499185428385216"><ele>139.42857142857144</ele><time>2026-03-22T11:37:50Z</time></trkpt><trkpt lat="45.408285141893586" lon="10.4992576354968"><ele>139.57142857142856</ele><time>2026-03-22T11:37:52Z</time></trkpt><trkpt lat="45.40822818866156" lon="10.499334928568738"><ele>139.71428571428572</ele><time>2026-03-22T11:37:54Z</time></trkpt><trkpt lat="45.408181298175016" lon="10.499421261251133"><ele>139.85714285714286</ele><time>2026-03-22T11:37:56Z</time></trkpt><trkpt lat="45.40813224029969" lon="10.499487605272058"><ele>140.0</ele><time>2026-03-22T11:37:58Z</time></trkpt><trkpt lat="45.40807978703672" lon="10.499554443310087"><ele>140.0</ele><time>2026-03-22T11:38:00.001Z</time></trkpt><trkpt lat="45.40803551229492" lon="10.499629124692417"><ele>140.0</ele><time>2026-03-22T11:38:02.001Z</time></trkpt><trkpt lat="45.407987439564536" lon="10.499707761656202"><ele>140.0</ele><time>2026-03-22T11:38:04.001Z</time></trkpt><trkpt lat="45.40794114373036" lon="10.499782080167057"><ele>140.0</ele><time>2026-03-22T11:38:06.001Z</time></trkpt><trkpt lat="45.40789741276657" lon="10.499864047836144"><ele>140.0</ele><time>2026-03-22T11:38:08.001Z</time></trkpt><trkpt lat="45.407850694309836" lon="10.499931019983876"><ele>140.0</ele><time>2026-03-22T11:38:10.001Z</time></trkpt><trkpt lat="45.40780914647949" lon="10.50000313290551"><ele>140.0</ele><time>2026-03-22T11:38:12.001Z</time></trkpt><trkpt lat="45.407743839141546" lon="10.500101323107172"><ele>140.33333333333331</ele><time>2026-03-22T11:38:15.001Z</time></trkpt><trkpt lat="45.407674441231244" lon="10.500185705416587"><ele>140.66666666666666</ele><time>2026-03-22T11:38:18.001Z</time></trkpt><trkpt lat="45.40760006551729" lon="10.500265911101023"><ele>141.0</ele><time>2026-03-22T11:38:21.001Z</time></trkpt><trkpt lat="45.40751069004778" lon="10.50032471046463"><ele>141.33333333333334</ele><time>2026-03-22T11:38:24.001Z</time></trkpt><trkpt lat="45.40743206043182" lon="10.500362367261664"><ele>141.66666666666669</ele><time>2026-03-22T11:38:26.001Z</time></trkpt><trkpt lat="45.407367585517" lon="10.500393086909634"><ele>142.0</ele><time>2026-03-22T11:38:28.001Z</time></trkpt><trkpt lat="45.40729283338456" lon="10.50042160312542"><ele>142.0</ele><time>2026-03-22T11:38:30.001Z</time></trkpt><trkpt lat="45.407230133037885" lon="10.500463094965685"><ele>142.0</ele><time>2026-03-22T11:38:32.001Z</time></trkpt><trkpt lat="45.40716057350327" lon="10.500496769240607"><ele>142.0</ele><time>2026-03-22T11:38:34.001Z</time></trkpt><trkpt lat="45.40709260832482" lon="10.500534620650779"><ele>142.0</ele><time>2026-03-22T11:38:36.001Z</time></trkpt><trkpt lat="45.40702764898952" lon="10.500576943084345"><ele>142.0</ele><time>2026-03-22T11:38:38.001Z</time></trkpt><trkpt lat="45.406960313708325" lon="10.500618098856055"><ele>142.0</ele><time>2026-03-22T11:38:40.001Z</time></trkpt><trkpt lat="45.40689670915131" lon="10.500676845807071"><ele>142.0</ele><time>2026-03-22T11:38:42.001Z</time></trkpt><trkpt lat="45.406849607412866" lon="10.500763602416662"><ele>142.0</ele><time>2026-03-22T11:38:44.001Z</time></trkpt><trkpt lat="45.4068094017637" lon="10.500845447097673"><ele>142.0</ele><time>2026-03-22T11:38:46.001Z</time></trkpt><trkpt lat="45.40678045927881" lon="10.50095180116048"><ele>142.0</ele><time>2026-03-22T11:38:48.001Z</time></trkpt><trkpt lat="45.406753058075736" lon="10.501064588875991"><ele>142.0</ele><time>2026-03-22T11:38:50.001Z</time></trkpt><trkpt lat="45.40672055738286" lon="10.50117710039261"><ele>142.0</ele><time>2026-03-22T11:38:52Z</time></trkpt><trkpt lat="45.406693256270465" lon="10.501282415118544"><ele>142.0</ele><time>2026-03-22T11:38:54Z</time></trkpt><trkpt lat="45.40666283970391" lon="10.50137048829964"><ele>142.0</ele><time>2026-03-22T11:38:56Z</time></trkpt><trkpt lat="45.40663757079327" lon="10.501456968240303"><ele>142.0</ele><time>2026-03-22T11:38:58Z</time></trkpt><trkpt lat="45.40659802193831" lon="10.501576639844746"><ele>142.0</ele><time>2026-03-22T11:39:01Z</time></trkpt><trkpt lat="45.40657470634909" lon="10.501705934999222"><ele>142.0</ele><time>2026-03-22T11:39:04Z</time></trkpt><trkpt lat="45.406595803167676" lon="10.501796172154918"><ele>142.0</ele><time>2026-03-22T11:39:06Z</time></trkpt><trkpt lat="45.40665513000515" lon="10.501850757847352"><ele>142.0</ele><time>2026-03-22T11:39:08Z</time></trkpt><trkpt lat="45.40672833302997" lon="10.501921447324403"><ele>142.0</ele><time>2026-03-22T11:39:11Z</time></trkpt><trkpt lat="45.40680829183592" lon="10.501936532450854"><ele>142.0</ele><time>2026-03-22T11:39:14Z</time></trkpt><trkpt lat="45.40688182564756" lon="10.50200704682611"><ele>142.0</ele><time>2026-03-22T11:39:17Z</time></trkpt><trkpt lat="45.40693212262351" lon="10.502075163544085"><ele>142.0</ele><time>2026-03-22T11:39:19Z</time></trkpt><trkpt lat="45.40698579965086" lon="10.502141129820805"><ele>142.0</ele><time>2026-03-22T11:39:21Z</time></trkpt><trkpt lat="45.407037925204484" lon="10.502197957356675"><ele>142.0</ele><time>2026-03-22T11:39:23Z</time></trkpt><trkpt lat="45.4070940710038" lon="10.502250642282684"><ele>142.0</ele><time>2026-03-22T11:39:25Z</time></trkpt><trkpt lat="45.40715516099703" lon="10.502286502636071"><ele>142.33333333333334</ele><time>2026-03-22T11:39:27Z</time></trkpt><trkpt lat="45.40721975935658" lon="10.50230801146524"><ele>142.66666666666669</ele><time>2026-03-22T11:39:29Z</time></trkpt><trkpt lat="45.407296573747374" lon="10.502284087234"><ele>143.0</ele><time>2026-03-22T11:39:32Z</time></trkpt><trkpt lat="45.40738722131812" lon="10.5022408119328"><ele>143.33333333333334</ele><time>2026-03-22T11:39:35Z</time></trkpt><trkpt lat="45.40748245715902" lon="10.502232250253874"><ele>143.66666666666666</ele><time>2026-03-22T11:39:38Z</time></trkpt><trkpt lat="45.407549139209394" lon="10.502242043022692"><ele>144.0</ele><time>2026-03-22T11:39:40Z</time></trkpt><trkpt lat="45.40761092215268" lon="10.502263676608171"><ele>144.00000000000003</ele><time>2026-03-22T11:39:42Z</time></trkpt><trkpt lat="45.40767566298697" lon="10.50229729065315"><ele>144.0</ele><time>2026-03-22T11:39:44Z</time></trkpt><trkpt lat="45.4077394267385" lon="10.502312877873264"><ele>144.0</ele><time>2026-03-22T11:39:46Z</time></trkpt><trkpt lat="45.407807224784044" lon="10.502338532633324"><ele>144.0</ele><time>2026-03-22T11:39:48Z</time></trkpt><trkpt lat="45.40786874719819" lon="10.502358086883843"><ele>144.0</ele><time>2026-03-22T11:39:50Z</time></trkpt><trkpt lat="45.40793951819079" lon="10.502368884870231"><ele>144.00000000000003</ele><time>2026-03-22T11:39:52Z</time></trkpt><trkpt lat="45.40801224181433" lon="10.502390604344699"><ele>144.0</ele><time>2026-03-22T11:39:54Z</time></trkpt><trkpt lat="45.408084708597336" lon="10.502422874365449"><ele>143.5</ele><time>2026-03-22T11:39:56Z</time></trkpt><trkpt lat="45.40816460459252" lon="10.50246203628732"><ele>143.0</ele><time>2026-03-22T11:39:58Z</time></trkpt><trkpt lat="45.40823742644084" lon="10.502507155703205"><ele>142.5</ele><time>2026-03-22T11:40:00Z</time></trkpt><trkpt lat="45.40829806962489" lon="10.502567861712663"><ele>142.0</ele><time>2026-03-22T11:40:02Z</time></trkpt><trkpt lat="45.408383836308374" lon="10.50263401601746"><ele>141.5</ele><time>2026-03-22T11:40:04Z</time></trkpt><trkpt lat="45.408472321856436" lon="10.50272297516701"><ele>141.0</ele><time>2026-03-22T11:40:06.001Z</time></trkpt><trkpt lat="45.4085385505631" lon="10.502754161198379"><ele>141.0</ele><time>2026-03-22T11:40:07.001Z</time></trkpt><trkpt lat="45.408606092573415" lon="10.502786584837278"><ele>141.0</ele><time>2026-03-22T11:40:08.001Z</time></trkpt><trkpt lat="45.40872461203849" lon="10.50280100635439"><ele>141.0</ele><time>2026-03-22T11:40:10.001Z</time></trkpt><trkpt lat="45.408795898433986" lon="10.502803246916557"><ele>141.0</ele><time>2026-03-22T11:40:11.001Z</time></trkpt><trkpt lat="45.40886991952396" lon="10.502822249068151"><ele>141.0</ele><time>2026-03-22T11:40:12.001Z</time></trkpt><trkpt lat="45.40894485774497" lon="10.502859348359047"><ele>141.0</ele><time>2026-03-22T11:40:13.001Z</time></trkpt><trkpt lat="45.40901400541017" lon="10.502902367667515"><ele>139.83333333333334</ele><time>2026-03-22T11:40:14.001Z</time></trkpt><trkpt lat="45.4090827904221" lon="10.502962354456923"><ele>138.66666666666666</ele><time>2026-03-22T11:40:15.001Z</time></trkpt><trkpt lat="45.40913028410591" lon="10.503031568499182"><ele>137.5</ele><time>2026-03-22T11:40:16.001Z</time></trkpt><trkpt lat="45.40918100069942" lon="10.503104532307855"><ele>136.33333333333331</ele><time>2026-03-22T11:40:17.001Z</time></trkpt><trkpt lat="45.409232570978105" lon="10.503177190808978"><ele>135.16666666666666</ele><time>2026-03-22T11:40:18.001Z</time></trkpt><trkpt lat="45.40932115221742" lon="10.503298925367647"><ele>134.0</ele><time>2026-03-22T11:40:20.001Z</time></trkpt><trkpt lat="45.409368674243396" lon="10.503361973891403"><ele>134.0</ele><time>2026-03-22T11:40:21.001Z</time></trkpt><trkpt lat="45.409457033560486" lon="10.50348668142286"><ele>134.0</ele><time>2026-03-22T11:40:23.001Z</time></trkpt><trkpt lat="45.40950042959017" lon="10.503647311823462"><ele>134.0</ele><time>2026-03-22T11:40:25.001Z</time></trkpt><trkpt lat="45.40951495878589" lon="10.503736706910729"><ele>134.0</ele><time>2026-03-22T11:40:26.001Z</time></trkpt><trkpt lat="45.40953988772154" lon="10.503900781570941"><ele>134.0</ele><time>2026-03-22T11:40:28.001Z</time></trkpt><trkpt lat="45.409560281795976" lon="10.504068428519956"><ele>134.2</ele><time>2026-03-22T11:40:30.001Z</time></trkpt><trkpt lat="45.40959025851298" lon="10.50421621359827"><ele>134.4</ele><time>2026-03-22T11:40:32.001Z</time></trkpt><trkpt lat="45.40962124959348" lon="10.504368880331551"><ele>134.6</ele><time>2026-03-22T11:40:34.001Z</time></trkpt><trkpt lat="45.40965411155643" lon="10.50450430114313"><ele>134.8</ele><time>2026-03-22T11:40:36.001Z</time></trkpt><trkpt lat="45.40967479417053" lon="10.504635035016879"><ele>135.0</ele><time>2026-03-22T11:40:38.001Z</time></trkpt><trkpt lat="45.40973481706457" lon="10.504738876828013"><ele>135.0</ele><time>2026-03-22T11:40:40.001Z</time></trkpt><trkpt lat="45.409805256028875" lon="10.504799613268764"><ele>135.0</ele><time>2026-03-22T11:40:42.001Z</time></trkpt><trkpt lat="45.409867676953915" lon="10.504857514400882"><ele>135.0</ele><time>2026-03-22T11:40:44.001Z</time></trkpt><trkpt lat="45.40993671994717" lon="10.50492617347632"><ele>135.0</ele><time>2026-03-22T11:40:46.001Z</time></trkpt><trkpt lat="45.41000656188064" lon="10.504982194641629"><ele>135.0</ele><time>2026-03-22T11:40:48.001Z</time></trkpt><trkpt lat="45.410058912825775" lon="10.50504503273697"><ele>135.0</ele><time>2026-03-22T11:40:50.001Z</time></trkpt><trkpt lat="45.41013076326141" lon="10.505131667447753"><ele>135.0</ele><time>2026-03-22T11:40:53.001Z</time></trkpt><trkpt lat="45.410199053843655" lon="10.50520447803223"><ele>135.0</ele><time>2026-03-22T11:40:56.001Z</time></trkpt><trkpt lat="45.410272855337" lon="10.505279213316367"><ele>135.0</ele><time>2026-03-22T11:40:59Z</time></trkpt><trkpt lat="45.41032398235279" lon="10.505369430596794"><ele>135.0</ele><time>2026-03-22T11:41:01Z</time></trkpt><trkpt lat="45.41040588020881" lon="10.505482381451838"><ele>135.0</ele><time>2026-03-22T11:41:03Z</time></trkpt><trkpt lat="45.4105028625599" lon="10.505596277174357"><ele>135.4</ele><time>2026-03-22T11:41:05Z</time></trkpt><trkpt lat="45.41054474350842" lon="10.50566815495023"><ele>135.8</ele><time>2026-03-22T11:41:06Z</time></trkpt><trkpt lat="45.41058556390135" lon="10.505742786147303"><ele>136.2</ele><time>2026-03-22T11:41:07Z</time></trkpt><trkpt lat="45.41066734703837" lon="10.505859013220013"><ele>136.6</ele><time>2026-03-22T11:41:09Z</time></trkpt><trkpt lat="45.41072743433698" lon="10.505932820012546"><ele>137.0</ele><time>2026-03-22T11:41:10Z</time></trkpt><trkpt lat="45.41082478305634" lon="10.506056790526657"><ele>137.0</ele><time>2026-03-22T11:41:12Z</time></trkpt><trkpt lat="45.410878564070956" lon="10.506114216089564"><ele>137.0</ele><time>2026-03-22T11:41:13Z</time></trkpt><trkpt lat="45.41092539503331" lon="10.506178253229098"><ele>137.0</ele><time>2026-03-22T11:41:14Z</time></trkpt><trkpt lat="45.41100847399992" lon="10.506307758665491"><ele>137.0</ele><time>2026-03-22T11:41:16Z</time></trkpt><trkpt lat="45.41109981235932" lon="10.506429627737468"><ele>137.0</ele><time>2026-03-22T11:41:18Z</time></trkpt><trkpt lat="45.4111730991189" lon="10.506527791968116"><ele>134.6</ele><time>2026-03-22T11:41:20Z</time></trkpt><trkpt lat="45.41126574444112" lon="10.506624129022672"><ele>132.2</ele><time>2026-03-22T11:41:22Z</time></trkpt><trkpt lat="45.411344193735616" lon="10.506715891616071"><ele>129.8</ele><time>2026-03-22T11:41:24Z</time></trkpt><trkpt lat="45.41142854546752" lon="10.506791596051608"><ele>127.4</ele><time>2026-03-22T11:41:26Z</time></trkpt><trkpt lat="45.411497453944996" lon="10.50688848531318"><ele>125.0</ele><time>2026-03-22T11:41:28Z</time></trkpt><trkpt lat="45.4115350293079" lon="10.507015539722772"><ele>125.0</ele><time>2026-03-22T11:41:30Z</time></trkpt><trkpt lat="45.411546576441054" lon="10.507146956131345"><ele>125.0</ele><time>2026-03-22T11:41:32Z</time></trkpt><trkpt lat="45.41155996204665" lon="10.507267586930473"><ele>125.0</ele><time>2026-03-22T11:41:34Z</time></trkpt><trkpt lat="45.4115736155789" lon="10.507375186990993"><ele>125.0</ele><time>2026-03-22T11:41:36Z</time></trkpt><trkpt lat="45.411585832315964" lon="10.507523827518352"><ele>125.0</ele><time>2026-03-22T11:41:38Z</time></trkpt><trkpt lat="45.41160082147601" lon="10.507676039872397"><ele>125.0</ele><time>2026-03-22T11:41:40Z</time></trkpt><trkpt lat="45.411607220467495" lon="10.507836804048377"><ele>125.0</ele><time>2026-03-22T11:41:42Z</time></trkpt><trkpt lat="45.41160942520043" lon="10.507991538728318"><ele>125.0</ele><time>2026-03-22T11:41:44Z</time></trkpt><trkpt lat="45.41161435584547" lon="10.508141360659174"><ele>125.0</ele><time>2026-03-22T11:41:46Z</time></trkpt><trkpt lat="45.411616328392135" lon="10.508282550787275"><ele>125.0</ele><time>2026-03-22T11:41:48Z</time></trkpt><trkpt lat="45.41162240662496" lon="10.508413840138683"><ele>124.66666666666666</ele><time>2026-03-22T11:41:50Z</time></trkpt><trkpt lat="45.41162570746256" lon="10.508563530988884"><ele>124.33333333333333</ele><time>2026-03-22T11:41:52Z</time></trkpt><trkpt lat="45.411629227534604" lon="10.508701223088334"><ele>124.0</ele><time>2026-03-22T11:41:54Z</time></trkpt><trkpt lat="45.41163429438486" lon="10.508829158262845"><ele>123.66666666666666</ele><time>2026-03-22T11:41:56Z</time></trkpt><trkpt lat="45.41164079305113" lon="10.50893936984051"><ele>123.33333333333333</ele><time>2026-03-22T11:41:59Z</time></trkpt><trkpt lat="45.41169717839271" lon="10.508984147826588"><ele>123.0</ele><time>2026-03-22T11:42:04Z</time></trkpt><trkpt lat="45.41174481865011" lon="10.509085382241048"><ele>122.2857142857143</ele><time>2026-03-22T11:42:08Z</time></trkpt><trkpt lat="45.4118085779957" lon="10.509112946769914"><ele>121.57142857142858</ele><time>2026-03-22T11:42:10Z</time></trkpt><trkpt lat="45.41188231599314" lon="10.509110418017825"><ele>120.85714285714286</ele><time>2026-03-22T11:42:12.001Z</time></trkpt><trkpt lat="45.41195120052587" lon="10.509126594133873"><ele>120.14285714285715</ele><time>2026-03-22T11:42:14.001Z</time></trkpt><trkpt lat="45.41202351802956" lon="10.509141559348151"><ele>119.42857142857144</ele><time>2026-03-22T11:42:16.001Z</time></trkpt><trkpt lat="45.41209398868822" lon="10.509160900599602"><ele>118.71428571428571</ele><time>2026-03-22T11:42:18.001Z</time></trkpt><trkpt lat="45.412166216194336" lon="10.509179457415172"><ele>118.0</ele><time>2026-03-22T11:42:20.001Z</time></trkpt><trkpt lat="45.412239981621234" lon="10.50920189321462"><ele>118.00000000000001</ele><time>2026-03-22T11:42:22.001Z</time></trkpt><trkpt lat="45.41230447963158" lon="10.50926717638627"><ele>118.0</ele><time>2026-03-22T11:42:24.001Z</time></trkpt><trkpt lat="45.412332503165764" lon="10.50937655405965"><ele>118.0</ele><time>2026-03-22T11:42:26.001Z</time></trkpt><trkpt lat="45.41234825916288" lon="10.509479826726517"><ele>118.0</ele><time>2026-03-22T11:42:28.001Z</time></trkpt><trkpt lat="45.412369955744104" lon="10.509567574263725"><ele>118.00000000000001</ele><time>2026-03-22T11:42:30.001Z</time></trkpt><trkpt lat="45.41237193876352" lon="10.509671082381425"><ele>118.0</ele><time>2026-03-22T11:42:33.001Z</time></trkpt><trkpt lat="45.41231021551688" lon="10.509746605808488"><ele>118.0</ele><time>2026-03-22T11:42:37.001Z</time></trkpt><trkpt lat="45.4123168530955" lon="10.509859989317837"><ele>118.0</ele><time>2026-03-22T11:42:40.001Z</time></trkpt><trkpt lat="45.4123232894538" lon="10.509966129725926"><ele>118.0</ele><time>2026-03-22T11:42:43.001Z</time></trkpt><trkpt lat="45.412331274971805" lon="10.510066225889876"><ele>118.0</ele><time>2026-03-22T11:42:46.001Z</time></trkpt><trkpt lat="45.41233645036657" lon="10.510165371960833"><ele>118.0</ele><time>2026-03-22T11:42:49.001Z</time></trkpt><trkpt lat="45.41234609085413" lon="10.510262829479482"><ele>118.0</ele><time>2026-03-22T11:42:52.001Z</time></trkpt><trkpt lat="45.4123504543923" lon="10.510362998598739"><ele>118.0</ele><time>2026-03-22T11:42:55.001Z</time></trkpt><trkpt lat="45.412343559745395" lon="10.510454331210969"><ele>118.0</ele><time>2026-03-22T11:42:58.001Z</time></trkpt><trkpt lat="45.41235424905892" lon="10.510548128059643"><ele>118.0</ele><time>2026-03-22T11:43:01.001Z</time></trkpt><trkpt lat="45.41236484636725" lon="10.510640879673558"><ele>118.0</ele><time>2026-03-22T11:43:04Z</time></trkpt><trkpt lat="45.41237774480463" lon="10.510738314132317"><ele>118.0</ele><time>2026-03-22T11:43:07Z</time></trkpt><trkpt lat="45.412390120405156" lon="10.510826590938864"><ele>118.0</ele><time>2026-03-22T11:43:10Z</time></trkpt><trkpt lat="45.41239512029445" lon="10.510932037499092"><ele>118.0</ele><time>2026-03-22T11:43:14Z</time></trkpt><trkpt lat="45.412409418401026" lon="10.511037842893739"><ele>118.0</ele><time>2026-03-22T11:43:18Z</time></trkpt><trkpt lat="45.412415706755226" lon="10.511135767903388"><ele>118.0</ele><time>2026-03-22T11:43:22Z</time></trkpt><trkpt lat="45.412417522189045" lon="10.511226093894715"><ele>118.0</ele><time>2026-03-22T11:43:25Z</time></trkpt><trkpt lat="45.41241220878605" lon="10.511339659590162"><ele>118.0</ele><time>2026-03-22T11:43:29Z</time></trkpt><trkpt lat="45.41238500310058" lon="10.51142790486451"><ele>118.0</ele><time>2026-03-22T11:43:32Z</time></trkpt><trkpt lat="45.41235206160376" lon="10.511511007179438"><ele>118.0</ele><time>2026-03-22T11:43:35Z</time></trkpt><trkpt lat="45.4123182764778" lon="10.511592640424857"><ele>118.0</ele><time>2026-03-22T11:43:38Z</time></trkpt><trkpt lat="45.41228270644426" lon="10.511698688608355"><ele>118.0</ele><time>2026-03-22T11:43:42Z</time></trkpt><trkpt lat="45.412244976297295" lon="10.511814657103162"><ele>118.00000000000001</ele><time>2026-03-22T11:43:45Z</time></trkpt><trkpt lat="45.41221825214644" lon="10.511942496219326"><ele>118.0</ele><time>2026-03-22T11:43:47Z</time></trkpt><trkpt lat="45.412210022834564" lon="10.51208946880779"><ele>118.0</ele><time>2026-03-22T11:43:49Z</time></trkpt><trkpt lat="45.412245933291445" lon="10.512198208145149"><ele>118.0</ele><time>2026-03-22T11:43:51Z</time></trkpt><trkpt lat="45.41228064948764" lon="10.512282826144753"><ele>118.00000000000001</ele><time>2026-03-22T11:43:53Z</time></trkpt><trkpt lat="45.412313319481626" lon="10.512398115327297"><ele>118.0</ele><time>2026-03-22T11:43:56Z</time></trkpt><trkpt lat="45.412349674948416" lon="10.512512889989447"><ele>118.0</ele><time>2026-03-22T11:43:59Z</time></trkpt><trkpt lat="45.41239253074842" lon="10.512625677442859"><ele>118.0</ele><time>2026-03-22T11:44:02Z</time></trkpt><trkpt lat="45.41242621832716" lon="10.512739891265817"><ele>118.0</ele><time>2026-03-22T11:44:05Z</time></trkpt><trkpt lat="45.41244589405583" lon="10.512834115122997"><ele>118.0</ele><time>2026-03-22T11:44:07Z</time></trkpt><trkpt lat="45.41246385495969" lon="10.51292814712281"><ele>118.0</ele><time>2026-03-22T11:44:09Z</time></trkpt><trkpt lat="45.41248620098468" lon="10.513014932790853"><ele>118.0</ele><time>2026-03-22T11:44:11Z</time></trkpt><trkpt lat="45.412502138370165" lon="10.513108952645862"><ele>118.0</ele><time>2026-03-22T11:44:13Z</time></trkpt><trkpt lat="45.4125230994422" lon="10.51323311435155"><ele>117.85714285714286</ele><time>2026-03-22T11:44:16Z</time></trkpt><trkpt lat="45.41253539525423" lon="10.513322867701667"><ele>117.71428571428572</ele><time>2026-03-22T11:44:18Z</time></trkpt><trkpt lat="45.41255637152697" lon="10.51341173783673"><ele>117.57142857142858</ele><time>2026-03-22T11:44:20Z</time></trkpt><trkpt lat="45.412586663233625" lon="10.513533522150082"><ele>117.42857142857143</ele><time>2026-03-22T11:44:23Z</time></trkpt><trkpt lat="45.41260794245794" lon="10.513647600168685"><ele>117.2857142857143</ele><time>2026-03-22T11:44:26Z</time></trkpt><trkpt lat="45.412608015508205" lon="10.513739207211094"><ele>117.14285714285715</ele><time>2026-03-22T11:44:28.001Z</time></trkpt><trkpt lat="45.412611034830014" lon="10.513830984704672"><ele>117.0</ele><time>2026-03-22T11:44:30.001Z</time></trkpt><trkpt lat="45.41261256155365" lon="10.513925374512636"><ele>117.5</ele><time>2026-03-22T11:44:32.001Z</time></trkpt><trkpt lat="45.412614825824384" lon="10.514061458068246"><ele>118.0</ele><time>2026-03-22T11:44:35.001Z</time></trkpt><trkpt lat="45.41261070487486" lon="10.514184541496004"><ele>118.5</ele><time>2026-03-22T11:44:38.001Z</time></trkpt><trkpt lat="45.41262552844782" lon="10.514288302542628"><ele>119.0</ele><time>2026-03-22T11:44:42.001Z</time></trkpt><trkpt lat="45.41269049116296" lon="10.514322706688281"><ele>119.5</ele><time>2026-03-22T11:44:45.001Z</time></trkpt><trkpt lat="45.41276607964698" lon="10.514315595790649"><ele>120.0</ele><time>2026-03-22T11:44:48.001Z</time></trkpt><trkpt lat="45.412840684310396" lon="10.514349279045152"><ele>120.0</ele><time>2026-03-22T11:44:51.001Z</time></trkpt><trkpt lat="45.41291672178159" lon="10.51434443715609"><ele>120.0</ele><time>2026-03-22T11:44:54.001Z</time></trkpt><trkpt lat="45.41299699904915" lon="10.514360067512282"><ele>120.0</ele><time>2026-03-22T11:44:57.001Z</time></trkpt><trkpt lat="45.41308540096486" lon="10.514368170172608"><ele>120.0</ele><time>2026-03-22T11:45:00.001Z</time></trkpt><trkpt lat="45.41317278656306" lon="10.514380652075644"><ele>120.0</ele><time>2026-03-22T11:45:03.001Z</time></trkpt><trkpt lat="45.41325583435418" lon="10.514386868199189"><ele>120.0</ele><time>2026-03-22T11:45:06.001Z</time></trkpt><trkpt lat="45.41334839584189" lon="10.514391867303692"><ele>119.66666666666667</ele><time>2026-03-22T11:45:09.001Z</time></trkpt><trkpt lat="45.413430896496074" lon="10.51439353644091"><ele>119.33333333333334</ele><time>2026-03-22T11:45:12Z</time></trkpt><trkpt lat="45.41350080201735" lon="10.51444663860854"><ele>119.0</ele><time>2026-03-22T11:45:15Z</time></trkpt><trkpt lat="45.413496659813745" lon="10.514574130001858"><ele>118.66666666666667</ele><time>2026-03-22T11:45:18Z</time></trkpt><trkpt lat="45.41345380300708" lon="10.514685675482959"><ele>118.33333333333334</ele><time>2026-03-22T11:45:21Z</time></trkpt><trkpt lat="45.41343213705179" lon="10.514813881899583"><ele>118.0</ele><time>2026-03-22T11:45:24Z</time></trkpt><trkpt lat="45.4134098173314" lon="10.514906316128377"><ele>117.71428571428571</ele><time>2026-03-22T11:45:26Z</time></trkpt><trkpt lat="45.413386723170824" lon="10.514990926519957"><ele>117.42857142857144</ele><time>2026-03-22T11:45:28Z</time></trkpt><trkpt lat="45.413369744703914" lon="10.515086135160496"><ele>117.14285714285715</ele><time>2026-03-22T11:45:30Z</time></trkpt><trkpt lat="45.4133541463714" lon="10.515183047197933"><ele>116.85714285714286</ele><time>2026-03-22T11:45:32Z</time></trkpt><trkpt lat="45.41333133213251" lon="10.51527991919659"><ele>116.57142857142858</ele><time>2026-03-22T11:45:34Z</time></trkpt><trkpt lat="45.413305740898565" lon="10.515377032595561"><ele>116.2857142857143</ele><time>2026-03-22T11:45:36Z</time></trkpt><trkpt lat="45.41328687707444" lon="10.515468273871848"><ele>116.00000000000001</ele><time>2026-03-22T11:45:38Z</time></trkpt><trkpt lat="45.41325977141381" lon="10.515560105815256"><ele>116.00000000000001</ele><time>2026-03-22T11:45:40Z</time></trkpt><trkpt lat="45.413232694944575" lon="10.515655504648933"><ele>116.0</ele><time>2026-03-22T11:45:42Z</time></trkpt><trkpt lat="45.413207261293756" lon="10.515753546850448"><ele>116.00000000000001</ele><time>2026-03-22T11:45:44Z</time></trkpt><trkpt lat="45.41317626325672" lon="10.515845580280551"><ele>116.00000000000001</ele><time>2026-03-22T11:45:46Z</time></trkpt><trkpt lat="45.41314399324156" lon="10.51593030261954"><ele>116.0</ele><time>2026-03-22T11:45:48Z</time></trkpt><trkpt lat="45.413116032385695" lon="10.516028600917611"><ele>116.00000000000001</ele><time>2026-03-22T11:45:50Z</time></trkpt><trkpt lat="45.41307629913224" lon="10.516127628687732"><ele>116.00000000000001</ele><time>2026-03-22T11:45:52Z</time></trkpt><trkpt lat="45.413038897699174" lon="10.516215571371335"><ele>115.85714285714288</ele><time>2026-03-22T11:45:54Z</time></trkpt><trkpt lat="45.41300868609817" lon="10.51630025598451"><ele>115.71428571428572</ele><time>2026-03-22T11:45:56Z</time></trkpt><trkpt lat="45.412981141548464" lon="10.516380913437256"><ele>115.57142857142857</ele><time>2026-03-22T11:45:58Z</time></trkpt><trkpt lat="45.41295601670887" lon="10.516477191465464"><ele>115.42857142857143</ele><time>2026-03-22T11:46:00Z</time></trkpt><trkpt lat="45.41291566853175" lon="10.516567493874456"><ele>115.28571428571428</ele><time>2026-03-22T11:46:02Z</time></trkpt><trkpt lat="45.412887432569214" lon="10.516656348540861"><ele>115.14285714285712</ele><time>2026-03-22T11:46:04Z</time></trkpt><trkpt lat="45.41286182807613" lon="10.516741091599354"><ele>114.99999999999999</ele><time>2026-03-22T11:46:06Z</time></trkpt><trkpt lat="45.41282440945579" lon="10.516854767359028"><ele>114.83333333333334</ele><time>2026-03-22T11:46:09Z</time></trkpt><trkpt lat="45.412799771245474" lon="10.516949772508195"><ele>114.66666666666667</ele><time>2026-03-22T11:46:12Z</time></trkpt><trkpt lat="45.41277352200759" lon="10.517050447258375"><ele>114.5</ele><time>2026-03-22T11:46:16Z</time></trkpt><trkpt lat="45.41274297911684" lon="10.517144963916035"><ele>114.33333333333334</ele><time>2026-03-22T11:46:19Z</time></trkpt><trkpt lat="45.41271708849466" lon="10.517246334611412"><ele>114.16666666666667</ele><time>2026-03-22T11:46:22Z</time></trkpt><trkpt lat="45.412687287794675" lon="10.51735047625482"><ele>114.0</ele><time>2026-03-22T11:46:26Z</time></trkpt><trkpt lat="45.41263657094875" lon="10.517435804775596"><ele>114.0</ele><time>2026-03-22T11:48:57Z</time></trkpt><trkpt lat="45.4126034051961" lon="10.517525177375507"><ele>114.0</ele><time>2026-03-22T11:49:00Z</time></trkpt><trkpt lat="45.41255272034723" lon="10.517610184221093"><ele>114.0</ele><time>2026-03-22T11:49:03Z</time></trkpt><trkpt lat="45.412494194744795" lon="10.517674530952618"><ele>114.0</ele><time>2026-03-22T11:49:06Z</time></trkpt><trkpt lat="45.41243260430715" lon="10.517746621859255"><ele>114.0</ele><time>2026-03-22T11:49:09Z</time></trkpt><trkpt lat="45.41237347889515" lon="10.5178271307209"><ele>114.0</ele><time>2026-03-22T11:49:12Z</time></trkpt><trkpt lat="45.412310662211986" lon="10.517896061958677"><ele>114.16666666666667</ele><time>2026-03-22T11:49:15Z</time></trkpt><trkpt lat="45.412252539223424" lon="10.517962182337351"><ele>114.33333333333334</ele><time>2026-03-22T11:49:18Z</time></trkpt><trkpt lat="45.41218560030524" lon="10.518033809921025"><ele>114.5</ele><time>2026-03-22T11:49:21Z</time></trkpt><trkpt lat="45.41211156901867" lon="10.518113536077063"><ele>114.66666666666667</ele><time>2026-03-22T11:49:24Z</time></trkpt><trkpt lat="45.4120599594834" lon="10.518174185685279"><ele>114.83333333333334</ele><time>2026-03-22T11:49:26Z</time></trkpt><trkpt lat="45.412009519802695" lon="10.518243588863799"><ele>115.0</ele><time>2026-03-22T11:49:28Z</time></trkpt><trkpt lat="45.411961247753084" lon="10.518325835966417"><ele>115.57142857142856</ele><time>2026-03-22T11:49:30Z</time></trkpt><trkpt lat="45.41191624751546" lon="10.518414139242093"><ele>116.14285714285714</ele><time>2026-03-22T11:49:32Z</time></trkpt><trkpt lat="45.41187337188161" lon="10.518511131912936"><ele>116.71428571428571</ele><time>2026-03-22T11:49:34Z</time></trkpt><trkpt lat="45.41183389158634" lon="10.5186032279795"><ele>117.28571428571428</ele><time>2026-03-22T11:49:36Z</time></trkpt><trkpt lat="45.41178746528677" lon="10.51867499916447"><ele>117.85714285714286</ele><time>2026-03-22T11:49:38Z</time></trkpt><trkpt lat="45.411748355069776" lon="10.518752364086314"><ele>118.42857142857143</ele><time>2026-03-22T11:49:40Z</time></trkpt><trkpt lat="45.411708994599074" lon="10.518825014641461"><ele>119.0</ele><time>2026-03-22T11:49:42Z</time></trkpt><trkpt lat="45.411665387861575" lon="10.518905406374222"><ele>118.99999999999999</ele><time>2026-03-22T11:49:44Z</time></trkpt><trkpt lat="45.411624027958666" lon="10.518974666474051"><ele>119.0</ele><time>2026-03-22T11:49:46Z</time></trkpt><trkpt lat="45.41158611404175" lon="10.519050985403787"><ele>119.0</ele><time>2026-03-22T11:49:48Z</time></trkpt><trkpt lat="45.41152667320934" lon="10.519144016399519"><ele>119.0</ele><time>2026-03-22T11:49:51Z</time></trkpt><trkpt lat="45.41146959996894" lon="10.519249944182931"><ele>118.99999999999999</ele><time>2026-03-22T11:49:54Z</time></trkpt><trkpt lat="45.411447826838426" lon="10.519346625801276"><ele>119.0</ele><time>2026-03-22T11:49:56Z</time></trkpt><trkpt lat="45.4114795609963" lon="10.519465970353174"><ele>119.0</ele><time>2026-03-22T11:49:58Z</time></trkpt><trkpt lat="45.411555734388685" lon="10.519542770642019"><ele>119.0</ele><time>2026-03-22T11:50:00Z</time></trkpt><trkpt lat="45.41161566986849" lon="10.519650975739747"><ele>119.0</ele><time>2026-03-22T11:50:02Z</time></trkpt><trkpt lat="45.41165783760534" lon="10.519787273608511"><ele>119.0</ele><time>2026-03-22T11:50:04Z</time></trkpt><trkpt lat="45.411668688468964" lon="10.519929807135245"><ele>119.0</ele><time>2026-03-22T11:50:06Z</time></trkpt><trkpt lat="45.41166542792869" lon="10.520073460539164"><ele>118.6</ele><time>2026-03-22T11:50:08Z</time></trkpt><trkpt lat="45.41165223366267" lon="10.520212800847624"><ele>118.2</ele><time>2026-03-22T11:50:10Z</time></trkpt><trkpt lat="45.41164158982573" lon="10.520359489895268"><ele>117.79999999999998</ele><time>2026-03-22T11:50:12Z</time></trkpt><trkpt lat="45.41164297156485" lon="10.520508495872296"><ele>117.39999999999999</ele><time>2026-03-22T11:50:14Z</time></trkpt><trkpt lat="45.41163409141864" lon="10.52065879346322"><ele>117.0</ele><time>2026-03-22T11:50:16Z</time></trkpt><trkpt lat="45.4116435716789" lon="10.520807156811916"><ele>116.8</ele><time>2026-03-22T11:50:18Z</time></trkpt><trkpt lat="45.411683151544544" lon="10.520942262818211"><ele>116.6</ele><time>2026-03-22T11:50:20Z</time></trkpt><trkpt lat="45.411761148954966" lon="10.521042268463326"><ele>116.39999999999999</ele><time>2026-03-22T11:50:22Z</time></trkpt><trkpt lat="45.411862853992254" lon="10.521097204597732"><ele>116.19999999999999</ele><time>2026-03-22T11:50:24Z</time></trkpt><trkpt lat="45.411958768067585" lon="10.52115128581038"><ele>116.0</ele><time>2026-03-22T11:50:26Z</time></trkpt><trkpt lat="45.412050613005555" lon="10.521195893620563"><ele>116.19999999999999</ele><time>2026-03-22T11:50:28Z</time></trkpt><trkpt lat="45.41213569035109" lon="10.521262452324267"><ele>116.39999999999999</ele><time>2026-03-22T11:50:30Z</time></trkpt><trkpt lat="45.41220029036174" lon="10.5213693557443"><ele>116.6</ele><time>2026-03-22T11:50:32Z</time></trkpt><trkpt lat="45.412245351965225" lon="10.521513374993201"><ele>116.8</ele><time>2026-03-22T11:50:34Z</time></trkpt><trkpt lat="45.412251500448015" lon="10.521664155612935"><ele>117.0</ele><time>2026-03-22T11:50:36Z</time></trkpt><trkpt lat="45.41222655441725" lon="10.521810769382808"><ele>116.6</ele><time>2026-03-22T11:50:38Z</time></trkpt><trkpt lat="45.412202817209" lon="10.521943363954316"><ele>116.19999999999999</ele><time>2026-03-22T11:50:40Z</time></trkpt><trkpt lat="45.41217412725461" lon="10.522070661097725"><ele>115.8</ele><time>2026-03-22T11:50:42Z</time></trkpt><trkpt lat="45.412136219624585" lon="10.522173690353602"><ele>115.4</ele><time>2026-03-22T11:50:44Z</time></trkpt><trkpt lat="45.41205729318636" lon="10.522205126134201"><ele>115.0</ele><time>2026-03-22T11:50:46Z</time></trkpt><trkpt lat="45.41196013839979" lon="10.522164317685101"><ele>115.0</ele><time>2026-03-22T11:50:48Z</time></trkpt><trkpt lat="45.411871128753546" lon="10.522106087254146"><ele>115.0</ele><time>2026-03-22T11:50:50Z</time></trkpt><trkpt lat="45.41177673132456" lon="10.522052283741772"><ele>115.0</ele><time>2026-03-22T11:50:52Z</time></trkpt><trkpt lat="45.4116736573683" lon="10.522013656321235"><ele>115.0</ele><time>2026-03-22T11:50:54Z</time></trkpt><trkpt lat="45.41157098551261" lon="10.52198774252864"><ele>115.0</ele><time>2026-03-22T11:50:56Z</time></trkpt><trkpt lat="45.41146271212354" lon="10.521983208784633"><ele>115.5</ele><time>2026-03-22T11:50:58Z</time></trkpt><trkpt lat="45.41134989076448" lon="10.521989513363685"><ele>116.0</ele><time>2026-03-22T11:51:00Z</time></trkpt><trkpt lat="45.41124231274188" lon="10.522005054350252"><ele>116.5</ele><time>2026-03-22T11:51:02Z</time></trkpt><trkpt lat="45.411131449130785" lon="10.522025789331364"><ele>117.0</ele><time>2026-03-22T11:51:04Z</time></trkpt><trkpt lat="45.41101737527067" lon="10.522066826935424"><ele>117.0</ele><time>2026-03-22T11:51:06Z</time></trkpt><trkpt lat="45.4109106845418" lon="10.522093317130075"><ele>116.99999999999999</ele><time>2026-03-22T11:51:08Z</time></trkpt><trkpt lat="45.41081002326084" lon="10.522140588008122"><ele>116.99999999999999</ele><time>2026-03-22T11:51:10Z</time></trkpt><trkpt lat="45.41070439315182" lon="10.522171997762083"><ele>117.0</ele><time>2026-03-22T11:51:12Z</time></trkpt><trkpt lat="45.410606356088394" lon="10.522222453757694"><ele>117.0</ele><time>2026-03-22T11:51:14Z</time></trkpt><trkpt lat="45.41050597317233" lon="10.522265673842115"><ele>117.6</ele><time>2026-03-22T11:51:16Z</time></trkpt><trkpt lat="45.41041221704543" lon="10.522312317506033"><ele>118.19999999999999</ele><time>2026-03-22T11:51:18Z</time></trkpt><trkpt lat="45.410313794929195" lon="10.522355826645823"><ele>118.8</ele><time>2026-03-22T11:51:20Z</time></trkpt><trkpt lat="45.410224792478274" lon="10.522396131723214"><ele>119.4</ele><time>2026-03-22T11:51:22Z</time></trkpt><trkpt lat="45.41013521604228" lon="10.522432471236142"><ele>120.0</ele><time>2026-03-22T11:51:24Z</time></trkpt><trkpt lat="45.410049454916624" lon="10.522466633216451"><ele>120.0</ele><time>2026-03-22T11:51:26Z</time></trkpt><trkpt lat="45.40996133504436" lon="10.522500398888441"><ele>120.0</ele><time>2026-03-22T11:51:28Z</time></trkpt><trkpt lat="45.409873890914206" lon="10.52253601530241"><ele>120.0</ele><time>2026-03-22T11:51:30Z</time></trkpt><trkpt lat="45.409787461866784" lon="10.522570079490334"><ele>120.0</ele><time>2026-03-22T11:51:32Z</time></trkpt><trkpt lat="45.40970972867972" lon="10.522611290754549"><ele>120.0</ele><time>2026-03-22T11:51:34Z</time></trkpt><trkpt lat="45.40962608093574" lon="10.522650939169122"><ele>120.0</ele><time>2026-03-22T11:51:36Z</time></trkpt><trkpt lat="45.409544114855095" lon="10.522683256252579"><ele>119.85714285714286</ele><time>2026-03-22T11:51:38Z</time></trkpt><trkpt lat="45.409470351916994" lon="10.522716675460012"><ele>119.71428571428571</ele><time>2026-03-22T11:51:40Z</time></trkpt><trkpt lat="45.40940673380377" lon="10.522746493418628"><ele>119.57142857142857</ele><time>2026-03-22T11:51:42Z</time></trkpt><trkpt lat="45.4093424671075" lon="10.522770939066177"><ele>119.42857142857143</ele><time>2026-03-22T11:51:44Z</time></trkpt><trkpt lat="45.40928041213891" lon="10.522795379491933"><ele>119.28571428571428</ele><time>2026-03-22T11:51:46Z</time></trkpt><trkpt lat="45.4091958499555" lon="10.522823592013415"><ele>119.14285714285714</ele><time>2026-03-22T11:51:49Z</time></trkpt><trkpt lat="45.40911853992933" lon="10.52286135985354"><ele>119.0</ele><time>2026-03-22T11:51:52Z</time></trkpt><trkpt lat="45.40903764368949" lon="10.522902607874629"><ele>118.99999999999999</ele><time>2026-03-22T11:51:55Z</time></trkpt><trkpt lat="45.40894834211438" lon="10.522946575026463"><ele>119.0</ele><time>2026-03-22T11:51:58Z</time></trkpt><trkpt lat="45.40888744282892" lon="10.522974402695626"><ele>119.0</ele><time>2026-03-22T11:52:00Z</time></trkpt><trkpt lat="45.408826258703854" lon="10.523005525690689"><ele>119.0</ele><time>2026-03-22T11:52:02Z</time></trkpt><trkpt lat="45.40873776680131" lon="10.523043372500894"><ele>118.99999999999999</ele><time>2026-03-22T11:52:05Z</time></trkpt><trkpt lat="45.40865561060819" lon="10.523090249411487"><ele>119.0</ele><time>2026-03-22T11:52:08Z</time></trkpt><trkpt lat="45.40859433215423" lon="10.523120964338533"><ele>120.33333333333333</ele><time>2026-03-22T11:52:10Z</time></trkpt><trkpt lat="45.408498101715836" lon="10.523111402783229"><ele>121.66666666666666</ele><time>2026-03-22T11:52:13Z</time></trkpt><trkpt lat="45.40841878525804" lon="10.523132000314874"><ele>123.0</ele><time>2026-03-22T11:52:16Z</time></trkpt><trkpt lat="45.40836297590266" lon="10.523186863008105"><ele>124.33333333333334</ele><time>2026-03-22T11:52:18Z</time></trkpt><trkpt lat="45.40827748943532" lon="10.523249066096014"><ele>125.66666666666667</ele><time>2026-03-22T11:52:21Z</time></trkpt><trkpt lat="45.408215603696114" lon="10.523291554356248"><ele>127.0</ele><time>2026-03-22T11:52:23Z</time></trkpt><trkpt lat="45.408152917264" lon="10.523341652751204"><ele>127.0</ele><time>2026-03-22T11:52:25Z</time></trkpt><trkpt lat="45.40809777783291" lon="10.523385176507064"><ele>127.0</ele><time>2026-03-22T11:52:27Z</time></trkpt><trkpt lat="45.408011955794784" lon="10.523428419827457"><ele>127.0</ele><time>2026-03-22T11:52:30Z</time></trkpt><trkpt lat="45.407956613408025" lon="10.52348723862399"><ele>127.0</ele><time>2026-03-22T11:52:32Z</time></trkpt><trkpt lat="45.407900562382515" lon="10.523531781681696"><ele>127.0</ele><time>2026-03-22T11:52:34Z</time></trkpt><trkpt lat="45.40782667715868" lon="10.523584723905032"><ele>127.0</ele><time>2026-03-22T11:52:37Z</time></trkpt><trkpt lat="45.407771436695825" lon="10.523632535099711"><ele>127.0</ele><time>2026-03-22T11:52:39Z</time></trkpt><trkpt lat="45.407689931356884" lon="10.523694026696397"><ele>127.42857142857143</ele><time>2026-03-22T11:52:42Z</time></trkpt><trkpt lat="45.407636057379236" lon="10.523749875733046"><ele>127.85714285714286</ele><time>2026-03-22T11:52:44Z</time></trkpt><trkpt lat="45.407580319898614" lon="10.523799806794775"><ele>128.28571428571428</ele><time>2026-03-22T11:52:46Z</time></trkpt><trkpt lat="45.4075232748083" lon="10.52385236282459"><ele>128.71428571428572</ele><time>2026-03-22T11:52:48Z</time></trkpt><trkpt lat="45.40746440794175" lon="10.523897218192385"><ele>129.14285714285714</ele><time>2026-03-22T11:52:50Z</time></trkpt><trkpt lat="45.407402868462775" lon="10.52394005310296"><ele>129.57142857142858</ele><time>2026-03-22T11:52:52Z</time></trkpt><trkpt lat="45.40735160913198" lon="10.523992218655525"><ele>130.0</ele><time>2026-03-22T11:52:54Z</time></trkpt><trkpt lat="45.40729878444408" lon="10.52404626454992"><ele>130.00000000000003</ele><time>2026-03-22T11:52:56Z</time></trkpt><trkpt lat="45.407216197261874" lon="10.524110240638203"><ele>130.0</ele><time>2026-03-22T11:52:59Z</time></trkpt><trkpt lat="45.40715696637783" lon="10.524149733226187"><ele>130.0</ele><time>2026-03-22T11:53:01Z</time></trkpt><trkpt lat="45.40707172881438" lon="10.524201154181158"><ele>130.0</ele><time>2026-03-22T11:53:04Z</time></trkpt><trkpt lat="45.40701142527357" lon="10.524233575151147"><ele>130.0</ele><time>2026-03-22T11:53:06Z</time></trkpt><trkpt lat="45.406952652421374" lon="10.524272014291512"><ele>130.00000000000003</ele><time>2026-03-22T11:53:08Z</time></trkpt><trkpt lat="45.40689349715749" lon="10.524314391196686"><ele>130.0</ele><time>2026-03-22T11:53:10Z</time></trkpt><trkpt lat="45.40683167208217" lon="10.524351226471127"><ele>130.57142857142858</ele><time>2026-03-22T11:53:12Z</time></trkpt><trkpt lat="45.406770177925" lon="10.52439134184246"><ele>131.14285714285714</ele><time>2026-03-22T11:53:14Z</time></trkpt><trkpt lat="45.4067128628115" lon="10.524434449405547"><ele>131.71428571428572</ele><time>2026-03-22T11:53:16Z</time></trkpt><trkpt lat="45.406651395738564" lon="10.524476283707513"><ele>132.28571428571428</ele><time>2026-03-22T11:53:18Z</time></trkpt><trkpt lat="45.406594570807556" lon="10.524519107457166"><ele>132.85714285714286</ele><time>2026-03-22T11:53:20Z</time></trkpt><trkpt lat="45.406508121706125" lon="10.52459412841317"><ele>133.42857142857144</ele><time>2026-03-22T11:53:23Z</time></trkpt><trkpt lat="45.406449413901186" lon="10.524643498048595"><ele>134.0</ele><time>2026-03-22T11:53:25Z</time></trkpt><trkpt lat="45.40637288069183" lon="10.524727112322346"><ele>133.33333333333331</ele><time>2026-03-22T11:53:28Z</time></trkpt><trkpt lat="45.40631006433181" lon="10.524799881849257"><ele>132.66666666666666</ele><time>2026-03-22T11:53:30Z</time></trkpt><trkpt lat="45.40624238468439" lon="10.52491282913383"><ele>132.0</ele><time>2026-03-22T11:53:32Z</time></trkpt><trkpt lat="45.40615218588076" lon="10.525037298714404"><ele>131.33333333333334</ele><time>2026-03-22T11:53:34Z</time></trkpt><trkpt lat="45.40610589838733" lon="10.525103321807016"><ele>130.66666666666669</ele><time>2026-03-22T11:53:35Z</time></trkpt><trkpt lat="45.40605793938398" lon="10.525170164214682"><ele>130.0</ele><time>2026-03-22T11:53:36Z</time></trkpt><trkpt lat="45.405960471810246" lon="10.5252877488053"><ele>130.2</ele><time>2026-03-22T11:53:38Z</time></trkpt><trkpt lat="45.40587169643039" lon="10.525399270885295"><ele>130.4</ele><time>2026-03-22T11:53:40Z</time></trkpt><trkpt lat="45.4057855091797" lon="10.525496421068778"><ele>130.6</ele><time>2026-03-22T11:53:42Z</time></trkpt><trkpt lat="45.40571655003361" lon="10.525591346429637"><ele>130.8</ele><time>2026-03-22T11:53:44Z</time></trkpt><trkpt lat="45.405658836930776" lon="10.525686901558036"><ele>131.0</ele><time>2026-03-22T11:53:46Z</time></trkpt><trkpt lat="45.40560503889153" lon="10.52577334497015"><ele>131.0</ele><time>2026-03-22T11:53:48Z</time></trkpt><trkpt lat="45.40554886149469" lon="10.525859511908441"><ele>131.0</ele><time>2026-03-22T11:53:50Z</time></trkpt><trkpt lat="45.405484557314956" lon="10.525940277396911"><ele>131.0</ele><time>2026-03-22T11:53:52Z</time></trkpt><trkpt lat="45.4054278971768" lon="10.526020348758507"><ele>131.0</ele><time>2026-03-22T11:53:54Z</time></trkpt><trkpt lat="45.4053805797896" lon="10.526092765653551"><ele>131.0</ele><time>2026-03-22T11:53:56Z</time></trkpt><trkpt lat="45.40531357880533" lon="10.52619324890096"><ele>131.0</ele><time>2026-03-22T11:53:58Z</time></trkpt><trkpt lat="45.40523092193611" lon="10.526294562807694"><ele>131.2</ele><time>2026-03-22T11:54:00Z</time></trkpt><trkpt lat="45.40513176138312" lon="10.526398875393859"><ele>131.39999999999998</ele><time>2026-03-22T11:54:02Z</time></trkpt><trkpt lat="45.40508460926287" lon="10.526458521998828"><ele>131.6</ele><time>2026-03-22T11:54:03Z</time></trkpt><trkpt lat="45.404995700803944" lon="10.526576493146234"><ele>131.79999999999998</ele><time>2026-03-22T11:54:05Z</time></trkpt><trkpt lat="45.40491205061074" lon="10.526696133921151"><ele>132.0</ele><time>2026-03-22T11:54:07Z</time></trkpt><trkpt lat="45.404830119767084" lon="10.5268166274991"><ele>132.0</ele><time>2026-03-22T11:54:09Z</time></trkpt><trkpt lat="45.40475298199044" lon="10.526931977636307"><ele>132.0</ele><time>2026-03-22T11:54:11Z</time></trkpt><trkpt lat="45.40467804940818" lon="10.527041266050494"><ele>132.0</ele><time>2026-03-22T11:54:13Z</time></trkpt><trkpt lat="45.404609839820104" lon="10.527162298054675"><ele>132.0</ele><time>2026-03-22T11:54:15Z</time></trkpt><trkpt lat="45.40454019622719" lon="10.527266023071041"><ele>132.0</ele><time>2026-03-22T11:54:17Z</time></trkpt><trkpt lat="45.40446567044001" lon="10.52736429475374"><ele>132.2</ele><time>2026-03-22T11:54:19Z</time></trkpt><trkpt lat="45.40439080803006" lon="10.527468036899226"><ele>132.39999999999998</ele><time>2026-03-22T11:54:21Z</time></trkpt><trkpt lat="45.40431878582543" lon="10.52756878325767"><ele>132.60000000000002</ele><time>2026-03-22T11:54:23Z</time></trkpt><trkpt lat="45.404242246401374" lon="10.527658984495831"><ele>132.8</ele><time>2026-03-22T11:54:25Z</time></trkpt><trkpt lat="45.40417367173359" lon="10.527741175190675"><ele>133.0</ele><time>2026-03-22T11:54:27Z</time></trkpt><trkpt lat="45.40410191025497" lon="10.527778077233567"><ele>133.0</ele><time>2026-03-22T11:54:29Z</time></trkpt><trkpt lat="45.40402232124179" lon="10.5277925071633"><ele>133.0</ele><time>2026-03-22T11:54:31Z</time></trkpt><trkpt lat="45.40394712879948" lon="10.52777405414642"><ele>133.0</ele><time>2026-03-22T11:54:33Z</time></trkpt><trkpt lat="45.403875209524756" lon="10.527751530054848"><ele>133.0</ele><time>2026-03-22T11:54:35Z</time></trkpt><trkpt lat="45.40380367410735" lon="10.527761825518253"><ele>133.0</ele><time>2026-03-22T11:54:37Z</time></trkpt><trkpt lat="45.40373051616246" lon="10.52776861707908"><ele>133.0</ele><time>2026-03-22T11:54:39Z</time></trkpt><trkpt lat="45.40365443963162" lon="10.527793066612116"><ele>133.33333333333334</ele><time>2026-03-22T11:54:41Z</time></trkpt><trkpt lat="45.40357390613313" lon="10.527809945041739"><ele>133.66666666666669</ele><time>2026-03-22T11:54:43Z</time></trkpt><trkpt lat="45.40349442205946" lon="10.527836490143041"><ele>134.0</ele><time>2026-03-22T11:54:45Z</time></trkpt><trkpt lat="45.4034200816819" lon="10.52786100049744"><ele>134.33333333333334</ele><time>2026-03-22T11:54:47Z</time></trkpt><trkpt lat="45.40334814364396" lon="10.527879199737209"><ele>134.66666666666666</ele><time>2026-03-22T11:54:49Z</time></trkpt><trkpt lat="45.403269578247894" lon="10.527891094837086"><ele>135.0</ele><time>2026-03-22T11:54:51Z</time></trkpt><trkpt lat="45.40319016286335" lon="10.527926980602789"><ele>135.33333333333334</ele><time>2026-03-22T11:54:53Z</time></trkpt><trkpt lat="45.40310211317181" lon="10.527931403311253"><ele>135.66666666666666</ele><time>2026-03-22T11:54:55Z</time></trkpt><trkpt lat="45.40301545123626" lon="10.527948336060211"><ele>136.0</ele><time>2026-03-22T11:54:57Z</time></trkpt><trkpt lat="45.40293613238271" lon="10.527982576185376"><ele>136.33333333333331</ele><time>2026-03-22T11:54:59Z</time></trkpt><trkpt lat="45.40284276387416" lon="10.528027306420247"><ele>136.66666666666666</ele><time>2026-03-22T11:55:01Z</time></trkpt><trkpt lat="45.40276088667656" lon="10.528083383451458"><ele>137.0</ele><time>2026-03-22T11:55:03Z</time></trkpt><trkpt lat="45.40267503423719" lon="10.528141095573876"><ele>137.2</ele><time>2026-03-22T11:55:05Z</time></trkpt><trkpt lat="45.40259738841058" lon="10.528202489675747"><ele>137.39999999999998</ele><time>2026-03-22T11:55:07Z</time></trkpt><trkpt lat="45.402515806693486" lon="10.528272475543023"><ele>137.60000000000002</ele><time>2026-03-22T11:55:09Z</time></trkpt><trkpt lat="45.4024371499815" lon="10.5283403533608"><ele>137.8</ele><time>2026-03-22T11:55:11Z</time></trkpt><trkpt lat="45.40235494075827" lon="10.528402295008464"><ele>138.0</ele><time>2026-03-22T11:55:13Z</time></trkpt><trkpt lat="45.40228715140226" lon="10.528469096591138"><ele>138.0</ele><time>2026-03-22T11:55:15Z</time></trkpt><trkpt lat="45.40221927007766" lon="10.528525114798095"><ele>138.0</ele><time>2026-03-22T11:55:17Z</time></trkpt><trkpt lat="45.40214605938642" lon="10.528589590620976"><ele>138.0</ele><time>2026-03-22T11:55:19Z</time></trkpt><trkpt lat="45.40206740316215" lon="10.52865838066181"><ele>138.0</ele><time>2026-03-22T11:55:21Z</time></trkpt><trkpt lat="45.40199176054084" lon="10.528720847188064"><ele>138.0</ele><time>2026-03-22T11:55:23Z</time></trkpt><trkpt lat="45.40191454117795" lon="10.528783134381825"><ele>138.0</ele><time>2026-03-22T11:55:25Z</time></trkpt><trkpt lat="45.40183778576603" lon="10.528840080040762"><ele>137.83333333333334</ele><time>2026-03-22T11:55:27Z</time></trkpt><trkpt lat="45.40176040199321" lon="10.528910551955978"><ele>137.66666666666666</ele><time>2026-03-22T11:55:29Z</time></trkpt><trkpt lat="45.401685706873515" lon="10.52896993245511"><ele>137.5</ele><time>2026-03-22T11:55:31Z</time></trkpt><trkpt lat="45.40161154705183" lon="10.529032922338454"><ele>137.33333333333331</ele><time>2026-03-22T11:55:33Z</time></trkpt><trkpt lat="45.40154409956001" lon="10.529090099951445"><ele>137.16666666666666</ele><time>2026-03-22T11:55:35Z</time></trkpt><trkpt lat="45.40148117786008" lon="10.529147697316956"><ele>137.0</ele><time>2026-03-22T11:55:37Z</time></trkpt><trkpt lat="45.40141442733256" lon="10.52919704824816"><ele>137.00000000000003</ele><time>2026-03-22T11:55:39Z</time></trkpt><trkpt lat="45.40135624813363" lon="10.529260156566371"><ele>137.0</ele><time>2026-03-22T11:55:41Z</time></trkpt><trkpt lat="45.40130031828215" lon="10.52932588096464"><ele>137.0</ele><time>2026-03-22T11:55:43Z</time></trkpt><trkpt lat="45.40124383007578" lon="10.529371628205217"><ele>137.0</ele><time>2026-03-22T11:55:45Z</time></trkpt><trkpt lat="45.40118474465419" lon="10.529414109251576"><ele>137.0</ele><time>2026-03-22T11:55:47Z</time></trkpt><trkpt lat="45.40110362517257" lon="10.529479067668973"><ele>137.00000000000003</ele><time>2026-03-22T11:55:50Z</time></trkpt><trkpt lat="45.40105027110002" lon="10.529535441418183"><ele>137.0</ele><time>2026-03-22T11:55:52Z</time></trkpt><trkpt lat="45.400986771451606" lon="10.529587894322876"><ele>136.71428571428572</ele><time>2026-03-22T11:55:54Z</time></trkpt><trkpt lat="45.400922706093176" lon="10.529639407178024"><ele>136.42857142857144</ele><time>2026-03-22T11:55:56Z</time></trkpt><trkpt lat="45.40085687846608" lon="10.529690026382198"><ele>136.14285714285714</ele><time>2026-03-22T11:55:58Z</time></trkpt><trkpt lat="45.400803552783756" lon="10.529758632394536"><ele>135.85714285714286</ele><time>2026-03-22T11:56:00Z</time></trkpt><trkpt lat="45.40081147591109" lon="10.529872043925899"><ele>135.57142857142856</ele><time>2026-03-22T11:56:02Z</time></trkpt><trkpt lat="45.40083928008236" lon="10.529958708257084"><ele>135.28571428571428</ele><time>2026-03-22T11:56:04Z</time></trkpt><trkpt lat="45.40087346832415" lon="10.530038999663239"><ele>135.0</ele><time>2026-03-22T11:56:06Z</time></trkpt><trkpt lat="45.40090837361891" lon="10.530120328176977"><ele>135.0</ele><time>2026-03-22T11:56:08Z</time></trkpt><trkpt lat="45.400936513084545" lon="10.530222285926559"><ele>135.0</ele><time>2026-03-22T11:56:10Z</time></trkpt><trkpt lat="45.40095935011388" lon="10.530322316321927"><ele>135.0</ele><time>2026-03-22T11:56:12Z</time></trkpt><trkpt lat="45.400992163678815" lon="10.530409164839568"><ele>135.0</ele><time>2026-03-22T11:56:14Z</time></trkpt><trkpt lat="45.40101633873147" lon="10.530500780699386"><ele>135.0</ele><time>2026-03-22T11:56:16Z</time></trkpt><trkpt lat="45.40104193628361" lon="10.530586347266777"><ele>135.0</ele><time>2026-03-22T11:56:18Z</time></trkpt><trkpt lat="45.40107456806033" lon="10.530715873604096"><ele>134.83333333333334</ele><time>2026-03-22T11:56:21Z</time></trkpt><trkpt lat="45.401098546271264" lon="10.530815781931183"><ele>134.66666666666666</ele><time>2026-03-22T11:56:23Z</time></trkpt><trkpt lat="45.401119780765825" lon="10.530919451844198"><ele>134.5</ele><time>2026-03-22T11:56:25Z</time></trkpt><trkpt lat="45.401146959046166" lon="10.531031721403645"><ele>134.33333333333331</ele><time>2026-03-22T11:56:27Z</time></trkpt><trkpt lat="45.4011588700564" lon="10.531151262649162"><ele>134.16666666666666</ele><time>2026-03-22T11:56:29Z</time></trkpt><trkpt lat="45.40116813853286" lon="10.531282058722649"><ele>134.0</ele><time>2026-03-22T11:56:31Z</time></trkpt><trkpt lat="45.401174504449514" lon="10.531426175607674"><ele>133.4</ele><time>2026-03-22T11:56:33Z</time></trkpt><trkpt lat="45.401168997029885" lon="10.531578496363771"><ele>132.8</ele><time>2026-03-22T11:56:35Z</time></trkpt><trkpt lat="45.40118000500595" lon="10.531738250353861"><ele>132.2</ele><time>2026-03-22T11:56:37Z</time></trkpt><trkpt lat="45.4012086704101" lon="10.531892221362488"><ele>131.6</ele><time>2026-03-22T11:56:39Z</time></trkpt><trkpt lat="45.401260327068925" lon="10.532040886257544"><ele>131.0</ele><time>2026-03-22T11:56:41Z</time></trkpt><trkpt lat="45.401357335578695" lon="10.532150482360725"><ele>130.33333333333331</ele><time>2026-03-22T11:56:43Z</time></trkpt><trkpt lat="45.40140638455766" lon="10.532212737339119"><ele>129.66666666666666</ele><time>2026-03-22T11:56:44Z</time></trkpt><trkpt lat="45.40151039198684" lon="10.532322408455327"><ele>129.0</ele><time>2026-03-22T11:56:46Z</time></trkpt><trkpt lat="45.40162358203365" lon="10.5323982219091"><ele>128.33333333333334</ele><time>2026-03-22T11:56:48Z</time></trkpt><trkpt lat="45.4016831196255" lon="10.532435444029627"><ele>127.66666666666667</ele><time>2026-03-22T11:56:49Z</time></trkpt><trkpt lat="45.401737586608014" lon="10.532480832001172"><ele>127.0</ele><time>2026-03-22T11:56:50Z</time></trkpt><trkpt lat="45.401805074022725" lon="10.532522765866892"><ele>127.0</ele><time>2026-03-22T11:56:51Z</time></trkpt><trkpt lat="45.40186308382966" lon="10.532564533895535"><ele>127.0</ele><time>2026-03-22T11:56:52Z</time></trkpt><trkpt lat="45.40191938976136" lon="10.532606377438572"><ele>127.0</ele><time>2026-03-22T11:56:53Z</time></trkpt><trkpt lat="45.40198776775391" lon="10.532643464650032"><ele>127.0</ele><time>2026-03-22T11:56:54Z</time></trkpt><trkpt lat="45.40205700368576" lon="10.532670532107513"><ele>127.0</ele><time>2026-03-22T11:56:55Z</time></trkpt><trkpt lat="45.4021273753689" lon="10.532688562424608"><ele>127.0</ele><time>2026-03-22T11:56:56Z</time></trkpt><trkpt lat="45.4021947230091" lon="10.532705047596274"><ele>127.0</ele><time>2026-03-22T11:56:57Z</time></trkpt><trkpt lat="45.40226169601614" lon="10.532723831864722"><ele>126.83333333333334</ele><time>2026-03-22T11:56:58Z</time></trkpt><trkpt lat="45.40232865088705" lon="10.5327396969304"><ele>126.66666666666667</ele><time>2026-03-22T11:56:59Z</time></trkpt><trkpt lat="45.40243187366986" lon="10.532754774241143"><ele>126.5</ele><time>2026-03-22T11:57:01Z</time></trkpt><trkpt lat="45.402505252077056" lon="10.532759762928887"><ele>126.33333333333334</ele><time>2026-03-22T11:57:05Z</time></trkpt><trkpt lat="45.40256858901709" lon="10.532757590560536"><ele>126.16666666666667</ele><time>2026-03-22T11:57:08Z</time></trkpt><trkpt lat="45.402627065543285" lon="10.532836409302424"><ele>126.0</ele><time>2026-03-22T11:57:11Z</time></trkpt><trkpt lat="45.40268016080218" lon="10.532931377605228"><ele>125.66666666666667</ele><time>2026-03-22T11:57:14Z</time></trkpt><trkpt lat="45.402736063900456" lon="10.533027923194766"><ele>125.33333333333334</ele><time>2026-03-22T11:57:17Z</time></trkpt><trkpt lat="45.40277795248004" lon="10.533096911950848"><ele>125.0</ele><time>2026-03-22T11:57:19Z</time></trkpt><trkpt lat="45.40281968797338" lon="10.533169419965132"><ele>124.66666666666667</ele><time>2026-03-22T11:57:21Z</time></trkpt><trkpt lat="45.402858633680175" lon="10.53328333654431"><ele>124.33333333333334</ele><time>2026-03-22T11:57:24Z</time></trkpt><trkpt lat="45.402900303634304" lon="10.53338857226096"><ele>124.0</ele><time>2026-03-22T11:57:27Z</time></trkpt><trkpt lat="45.40295673949077" lon="10.533453880181638"><ele>123.85714285714286</ele><time>2026-03-22T11:57:30Z</time></trkpt><trkpt lat="45.4030073010637" lon="10.53352455917574"><ele>123.71428571428572</ele><time>2026-03-22T11:57:33Z</time></trkpt><trkpt lat="45.403057158968835" lon="10.533579761600613"><ele>123.57142857142858</ele><time>2026-03-22T11:57:35Z</time></trkpt><trkpt lat="45.40313305910084" lon="10.533664007396098"><ele>123.42857142857144</ele><time>2026-03-22T11:57:38Z</time></trkpt><trkpt lat="45.403183565389675" lon="10.53372293221395"><ele>123.28571428571429</ele><time>2026-03-22T11:57:40Z</time></trkpt><trkpt lat="45.40322914703391" lon="10.533791232092266"><ele>123.14285714285717</ele><time>2026-03-22T11:57:42Z</time></trkpt><trkpt lat="45.403281031241946" lon="10.533869824324585"><ele>123.00000000000001</ele><time>2026-03-22T11:57:44Z</time></trkpt><trkpt lat="45.40334174663389" lon="10.533938805835634"><ele>122.66666666666667</ele><time>2026-03-22T11:57:46Z</time></trkpt><trkpt lat="45.40340179161338" lon="10.534005831583666"><ele>122.33333333333334</ele><time>2026-03-22T11:57:48Z</time></trkpt><trkpt lat="45.403456715677656" lon="10.534052860762024"><ele>122.0</ele><time>2026-03-22T11:57:50Z</time></trkpt><trkpt lat="45.40352146434543" lon="10.53408784419206"><ele>121.66666666666667</ele><time>2026-03-22T11:57:52Z</time></trkpt><trkpt lat="45.40358993684995" lon="10.534089476483329"><ele>121.33333333333334</ele><time>2026-03-22T11:57:54Z</time></trkpt><trkpt lat="45.403672600826724" lon="10.534116069172624"><ele>121.0</ele><time>2026-03-22T11:57:56Z</time></trkpt><trkpt lat="45.40377336233563" lon="10.534178118326626"><ele>120.50000000000001</ele><time>2026-03-22T11:57:58Z</time></trkpt><trkpt lat="45.40387931871505" lon="10.534228193484935"><ele>120.0</ele><time>2026-03-22T11:58:00Z</time></trkpt><trkpt lat="45.40394072766911" lon="10.534256213382575"><ele>119.5</ele><time>2026-03-22T11:58:01Z</time></trkpt><trkpt lat="45.40405757740769" lon="10.534309579837622"><ele>119.0</ele><time>2026-03-22T11:58:03Z</time></trkpt><trkpt lat="45.40412316566411" lon="10.534337014578027"><ele>118.50000000000001</ele><time>2026-03-22T11:58:04Z</time></trkpt><trkpt lat="45.404190435977675" lon="10.534369991041407"><ele>118.0</ele><time>2026-03-22T11:58:05Z</time></trkpt><trkpt lat="45.40425633501143" lon="10.534403181936835"><ele>118.0</ele><time>2026-03-22T11:58:06Z</time></trkpt><trkpt lat="45.40431919807108" lon="10.53443860332154"><ele>118.00000000000001</ele><time>2026-03-22T11:58:07Z</time></trkpt><trkpt lat="45.40444348589751" lon="10.534485372343683"><ele>118.00000000000001</ele><time>2026-03-22T11:58:09Z</time></trkpt><trkpt lat="45.40456532080806" lon="10.534533557655706"><ele>118.0</ele><time>2026-03-22T11:58:11Z</time></trkpt><trkpt lat="45.404684474658495" lon="10.534583768292475"><ele>118.0</ele><time>2026-03-22T11:58:13Z</time></trkpt><trkpt lat="45.40479432074955" lon="10.534633007369806"><ele>117.0</ele><time>2026-03-22T11:58:15Z</time></trkpt><trkpt lat="45.40490630062646" lon="10.534683329037188"><ele>116.00000000000001</ele><time>2026-03-22T11:58:17Z</time></trkpt><trkpt lat="45.40501444213221" lon="10.53473606730345"><ele>115.00000000000001</ele><time>2026-03-22T11:58:19Z</time></trkpt><trkpt lat="45.405075877151674" lon="10.534761524627676"><ele>114.0</ele><time>2026-03-22T11:58:20Z</time></trkpt><trkpt lat="45.40518573797549" lon="10.534813177398577"><ele>113.0</ele><time>2026-03-22T11:58:22Z</time></trkpt><trkpt lat="45.405247198763426" lon="10.534841877514825"><ele>113.0</ele><time>2026-03-22T11:58:23Z</time></trkpt><trkpt lat="45.40535915924192" lon="10.534889191978852"><ele>113.00000000000001</ele><time>2026-03-22T11:58:25Z</time></trkpt><trkpt lat="45.405464786279346" lon="10.534937408362964"><ele>113.00000000000001</ele><time>2026-03-22T11:58:27Z</time></trkpt><trkpt lat="45.40557126350899" lon="10.53498078210015"><ele>113.0</ele><time>2026-03-22T11:58:29Z</time></trkpt><trkpt lat="45.405671621862176" lon="10.53501312110355"><ele>113.0</ele><time>2026-03-22T11:58:31Z</time></trkpt><trkpt lat="45.405769373215094" lon="10.534981692108975"><ele>112.83333333333333</ele><time>2026-03-22T11:58:33Z</time></trkpt><trkpt lat="45.40584663942009" lon="10.534995498511389"><ele>112.66666666666666</ele><time>2026-03-22T11:58:35Z</time></trkpt><trkpt lat="45.40591142798881" lon="10.535058590830616"><ele>112.5</ele><time>2026-03-22T11:58:37Z</time></trkpt><trkpt lat="45.40598343827882" lon="10.535120847200824"><ele>112.33333333333334</ele><time>2026-03-22T11:58:39Z</time></trkpt><trkpt lat="45.406059396614694" lon="10.535169234012212"><ele>112.16666666666667</ele><time>2026-03-22T11:58:41Z</time></trkpt><trkpt lat="45.406130172975885" lon="10.53522818724405"><ele>112.0</ele><time>2026-03-22T11:58:43Z</time></trkpt><trkpt lat="45.40621115005" lon="10.535285784472654"><ele>112.0</ele><time>2026-03-22T11:58:45Z</time></trkpt><trkpt lat="45.40628721055142" lon="10.535334323889847"><ele>111.99999999999999</ele><time>2026-03-22T11:58:47Z</time></trkpt><trkpt lat="45.40637304334967" lon="10.53530710243939"><ele>111.99999999999999</ele><time>2026-03-22T11:58:49Z</time></trkpt><trkpt lat="45.40643802097897" lon="10.53521070191066"><ele>112.0</ele><time>2026-03-22T11:58:51Z</time></trkpt><trkpt lat="45.40651458359561" lon="10.535111327300353"><ele>112.0</ele><time>2026-03-22T11:58:53Z</time></trkpt><trkpt lat="45.40658303413077" lon="10.535014599336439"><ele>111.66666666666667</ele><time>2026-03-22T11:58:55Z</time></trkpt><trkpt lat="45.40664945786332" lon="10.534924525314556"><ele>111.33333333333334</ele><time>2026-03-22T11:58:57Z</time></trkpt><trkpt lat="45.40671776920313" lon="10.534855248820177"><ele>111.0</ele><time>2026-03-22T11:58:59Z</time></trkpt><trkpt lat="45.40680135097005" lon="10.534866565011203"><ele>110.66666666666666</ele><time>2026-03-22T11:59:01Z</time></trkpt><trkpt lat="45.40684370149443" lon="10.534988769147336"><ele>110.33333333333333</ele><time>2026-03-22T11:59:03Z</time></trkpt><trkpt lat="45.4068734341136" lon="10.535111640165796"><ele>110.0</ele><time>2026-03-22T11:59:05Z</time></trkpt><trkpt lat="45.40690190443927" lon="10.53522878491088"><ele>110.0</ele><time>2026-03-22T11:59:07Z</time></trkpt><trkpt lat="45.40693628736921" lon="10.53534602290325"><ele>110.0</ele><time>2026-03-22T11:59:09Z</time></trkpt><trkpt lat="45.40696246332712" lon="10.5354717460168"><ele>110.0</ele><time>2026-03-22T11:59:11Z</time></trkpt><trkpt lat="45.40699587537459" lon="10.535601564249358"><ele>110.0</ele><time>2026-03-22T11:59:13Z</time></trkpt><trkpt lat="45.40703644818723" lon="10.535726643452202"><ele>110.0</ele><time>2026-03-22T11:59:15Z</time></trkpt><trkpt lat="45.40706760152694" lon="10.535856033861307"><ele>110.0</ele><time>2026-03-22T11:59:17Z</time></trkpt><trkpt lat="45.407105037398864" lon="10.535984198088432"><ele>110.0</ele><time>2026-03-22T11:59:19Z</time></trkpt><trkpt lat="45.40713509361534" lon="10.536111828982012"><ele>110.0</ele><time>2026-03-22T11:59:21Z</time></trkpt><trkpt lat="45.40717252813054" lon="10.536240077433717"><ele>110.0</ele><time>2026-03-22T11:59:23Z</time></trkpt><trkpt lat="45.40721148469384" lon="10.536368717574403"><ele>110.0</ele><time>2026-03-22T11:59:25Z</time></trkpt><trkpt lat="45.40725190530449" lon="10.536487455416603"><ele>110.2</ele><time>2026-03-22T11:59:27Z</time></trkpt><trkpt lat="45.40728681328891" lon="10.536614455995746"><ele>110.4</ele><time>2026-03-22T11:59:29Z</time></trkpt><trkpt lat="45.407321970431305" lon="10.536738068129155"><ele>110.6</ele><time>2026-03-22T11:59:31Z</time></trkpt><trkpt lat="45.4073560308121" lon="10.53686298919955"><ele>110.8</ele><time>2026-03-22T11:59:33Z</time></trkpt><trkpt lat="45.40739448655071" lon="10.536992788396022"><ele>111.0</ele><time>2026-03-22T11:59:35Z</time></trkpt><trkpt lat="45.40742866033453" lon="10.537116070296888"><ele>111.6</ele><time>2026-03-22T11:59:37Z</time></trkpt><trkpt lat="45.40746217042813" lon="10.537238902901988"><ele>112.19999999999999</ele><time>2026-03-22T11:59:39Z</time></trkpt><trkpt lat="45.407496353725186" lon="10.537374779113254"><ele>112.80000000000001</ele><time>2026-03-22T11:59:41Z</time></trkpt><trkpt lat="45.407529639136754" lon="10.537504902269857"><ele>113.4</ele><time>2026-03-22T11:59:43Z</time></trkpt><trkpt lat="45.40756625697139" lon="10.537624535353883"><ele>114.0</ele><time>2026-03-22T11:59:45Z</time></trkpt><trkpt lat="45.40759782847143" lon="10.537745403080459"><ele>114.0</ele><time>2026-03-22T11:59:47Z</time></trkpt><trkpt lat="45.40765595556073" lon="10.537822818602098"><ele>114.0</ele><time>2026-03-22T11:59:49Z</time></trkpt><trkpt lat="45.407734282040884" lon="10.53780851146008"><ele>114.0</ele><time>2026-03-22T11:59:51Z</time></trkpt><trkpt lat="45.4078016749521" lon="10.53775032116374"><ele>114.0</ele><time>2026-03-22T11:59:53Z</time></trkpt><trkpt lat="45.40788621073785" lon="10.5377139069265"><ele>114.0</ele><time>2026-03-22T11:59:55Z</time></trkpt><trkpt lat="45.407968476682186" lon="10.537669784097808"><ele>114.0</ele><time>2026-03-22T11:59:57Z</time></trkpt><trkpt lat="45.408050833660546" lon="10.537625479770321"><ele>114.4</ele><time>2026-03-22T11:59:59Z</time></trkpt><trkpt lat="45.4081385936086" lon="10.53757272268737"><ele>114.80000000000001</ele><time>2026-03-22T12:00:01Z</time></trkpt><trkpt lat="45.40822370664687" lon="10.537519556731679"><ele>115.19999999999999</ele><time>2026-03-22T12:00:03Z</time></trkpt><trkpt lat="45.40831348417004" lon="10.537471061667706"><ele>115.6</ele><time>2026-03-22T12:00:05Z</time></trkpt><trkpt lat="45.408400141102845" lon="10.53741379651784"><ele>116.0</ele><time>2026-03-22T12:00:07Z</time></trkpt><trkpt lat="45.40849208841206" lon="10.537366197020614"><ele>115.99999999999999</ele><time>2026-03-22T12:00:09Z</time></trkpt><trkpt lat="45.40858530906367" lon="10.537311291044693"><ele>116.0</ele><time>2026-03-22T12:00:11Z</time></trkpt><trkpt lat="45.40867459664515" lon="10.5372591866602"><ele>116.0</ele><time>2026-03-22T12:00:13Z</time></trkpt><trkpt lat="45.40875167148411" lon="10.537225208945896"><ele>116.0</ele><time>2026-03-22T12:00:15Z</time></trkpt><trkpt lat="45.408824148051146" lon="10.537241658470252"><ele>115.99999999999999</ele><time>2026-03-22T12:00:17Z</time></trkpt><trkpt lat="45.408851576176694" lon="10.537367713425217"><ele>116.0</ele><time>2026-03-22T12:00:19Z</time></trkpt><trkpt lat="45.40882281238964" lon="10.537482852998567"><ele>116.00000000000001</ele><time>2026-03-22T12:00:21Z</time></trkpt><trkpt lat="45.40881358895191" lon="10.53758034994834"><ele>116.0</ele><time>2026-03-22T12:00:23Z</time></trkpt><trkpt lat="45.408816032229076" lon="10.53767277095658"><ele>116.00000000000001</ele><time>2026-03-22T12:00:25Z</time></trkpt><trkpt lat="45.40881664573536" lon="10.537767852314625"><ele>116.00000000000001</ele><time>2026-03-22T12:00:27Z</time></trkpt><trkpt lat="45.40882661871941" lon="10.537898905067644"><ele>116.0</ele><time>2026-03-22T12:00:30Z</time></trkpt><trkpt lat="45.408831340708176" lon="10.537993778038837"><ele>116.00000000000001</ele><time>2026-03-22T12:00:32Z</time></trkpt><trkpt lat="45.408837013467945" lon="10.538088474636414"><ele>116.00000000000001</ele><time>2026-03-22T12:00:34Z</time></trkpt><trkpt lat="45.408843249819896" lon="10.53821500266122"><ele>117.99999999999999</ele><time>2026-03-22T12:00:37Z</time></trkpt><trkpt lat="45.40885050858688" lon="10.538305967181392"><ele>120.0</ele><time>2026-03-22T12:00:39Z</time></trkpt><trkpt lat="45.408849790310455" lon="10.53843362867962"><ele>122.0</ele><time>2026-03-22T12:00:42Z</time></trkpt><trkpt lat="45.40885817021158" lon="10.53856283379687"><ele>124.0</ele><time>2026-03-22T12:00:45Z</time></trkpt><trkpt lat="45.408859613662784" lon="10.538657738685936"><ele>125.99999999999999</ele><time>2026-03-22T12:00:47Z</time></trkpt><trkpt lat="45.40886456604564" lon="10.538768185897768"><ele>128.0</ele><time>2026-03-22T12:00:50Z</time></trkpt><trkpt lat="45.408873693794796" lon="10.538885443056389"><ele>128.16666666666666</ele><time>2026-03-22T12:00:53Z</time></trkpt><trkpt lat="45.40890289992617" lon="10.538988024056838"><ele>128.33333333333331</ele><time>2026-03-22T12:00:57Z</time></trkpt><trkpt lat="45.40895004512299" lon="10.539049673998742"><ele>128.5</ele><time>2026-03-22T12:01:01Z</time></trkpt><trkpt lat="45.40889503565399" lon="10.539111251549217"><ele>128.66666666666666</ele><time>2026-03-22T12:01:05Z</time></trkpt><trkpt lat="45.40887297362417" lon="10.539203063378478"><ele>128.83333333333334</ele><time>2026-03-22T12:01:09Z</time></trkpt><trkpt lat="45.40880951588895" lon="10.539212300522264"><ele>129.0</ele><time>2026-03-22T12:01:49Z</time></trkpt><trkpt lat="45.408923291410495" lon="10.539381297189092"><ele>129.0</ele><time>2026-03-22T12:02:02Z</time></trkpt><trkpt lat="45.408961840965866" lon="10.539475323315953"><ele>129.0</ele><time>2026-03-22T12:02:05Z</time></trkpt><trkpt lat="45.40907271701288" lon="10.539722284973635"><ele>129.0</ele><time>2026-03-22T12:02:06Z</time></trkpt><trkpt lat="45.409102025419024" lon="10.539861137440498"><ele>129.0</ele><time>2026-03-22T12:02:07Z</time></trkpt><trkpt lat="45.409222340449176" lon="10.540004455146557"><ele>133.0</ele><time>2026-03-22T12:02:09Z</time></trkpt><trkpt lat="45.40927251933499" lon="10.540063168267581"><ele>133.0</ele><time>2026-03-22T12:02:10Z</time></trkpt><trkpt lat="45.409135344316326" lon="10.54010847557642"><ele>133.0</ele><time>2026-03-22T12:02:29Z</time></trkpt></trkseg></trk></gpx>